<?xml version="1.0" encoding="UTF-8" standalone="no" ?><gpx xmlns="http://www.topografix.com/GPX/1/1" xmlns:gpxx="http://www.garmin.com/xmlschemas/GpxExtensions/v3" xmlns:wptx1="http://www.garmin.com/xmlschemas/WaypointExtension/v1" xmlns:gpxtpx="http://www.garmin.com/xmlschemas/TrackPointExtension/v1" creator="eTrex 30" version="1.1" xmlns:xsi="http://www.w3.org/2001/XMLSchema-instance" xsi:schemaLocation="http://www.topografix.com/GPX/1/1 http://www.topografix.com/GPX/1/1/gpx.xsd http://www.garmin.com/xmlschemas/GpxExtensions/v3 http://www8.garmin.com/xmlschemas/GpxExtensionsv3.xsd http://www.garmin.com/xmlschemas/WaypointExtension/v1 http://www8.garmin.com/xmlschemas/WaypointExtensionv1.xsd http://www.garmin.com/xmlschemas/TrackPointExtension/v1 http://www.garmin.com/xmlschemas/TrackPointExtensionv1.xsd"><metadata><link href="http://www.garmin.com"><text>Garmin International</text></link><time>2015-04-28T15:23:22Z</time></metadata><trk><name>28-APR-15 18:23:18</name><extensions><gpxx:TrackExtension><gpxx:DisplayColor>Cyan</gpxx:DisplayColor></gpxx:TrackExtension></extensions><trkseg><trkpt lat="34.9676394928" lon="32.8275102843"><ele>1118.63</ele><time>2015-04-28T07:44:53Z</time></trkpt><trkpt lat="34.9676373135" lon="32.8275016509"><ele>1119.11</ele><time>2015-04-28T07:45:12Z</time></trkpt><trkpt lat="34.9676096532" lon="32.8275390342"><ele>1119.11</ele><time>2015-04-28T07:45:35Z</time></trkpt><trkpt lat="34.9676052947" lon="32.8275576420"><ele>1119.11</ele><time>2015-04-28T07:45:56Z</time></trkpt><trkpt lat="34.9675995111" lon="32.8275374416"><ele>1119.11</ele><time>2015-04-28T07:46:10Z</time></trkpt><trkpt lat="34.9675671570" lon="32.8275279701"><ele>1119.11</ele><time>2015-04-28T07:46:25Z</time></trkpt><trkpt lat="34.9675894529" lon="32.8275377769"><ele>1119.11</ele><time>2015-04-28T07:46:47Z</time></trkpt><trkpt lat="34.9676207174" lon="32.8275467455"><ele>1119.11</ele><time>2015-04-28T07:47:04Z</time></trkpt><trkpt lat="34.9676248245" lon="32.8275464103"><ele>1119.11</ele><time>2015-04-28T07:47:06Z</time></trkpt><trkpt lat="34.9679077975" lon="32.8277490009"><ele>1118.63</ele><time>2015-04-28T07:47:19Z</time></trkpt><trkpt lat="34.9679248966" lon="32.8277612384"><ele>1118.15</ele><time>2015-04-28T07:47:20Z</time></trkpt><trkpt lat="34.9679439235" lon="32.8277651779"><ele>1118.63</ele><time>2015-04-28T07:47:21Z</time></trkpt><trkpt lat="34.9679588433" lon="32.8277708776"><ele>1118.15</ele><time>2015-04-28T07:47:22Z</time></trkpt><trkpt lat="34.9679716676" lon="32.8277852945"><ele>1118.15</ele><time>2015-04-28T07:47:23Z</time></trkpt><trkpt lat="34.9679842405" lon="32.8278018069"><ele>1118.15</ele><time>2015-04-28T07:47:24Z</time></trkpt><trkpt lat="34.9679996632" lon="32.8278147150"><ele>1118.15</ele><time>2015-04-28T07:47:25Z</time></trkpt><trkpt lat="34.9680207018" lon="32.8278282098"><ele>1118.15</ele><time>2015-04-28T07:47:26Z</time></trkpt><trkpt lat="34.9683010764" lon="32.8280064929"><ele>1116.71</ele><time>2015-04-28T07:47:38Z</time></trkpt><trkpt lat="34.9685431458" lon="32.8278492484"><ele>1115.27</ele><time>2015-04-28T07:47:50Z</time></trkpt><trkpt lat="34.9685851391" lon="32.8274491802"><ele>1113.34</ele><time>2015-04-28T07:48:01Z</time></trkpt><trkpt lat="34.9686851352" lon="32.8269919474"><ele>1110.94</ele><time>2015-04-28T07:48:12Z</time></trkpt><trkpt lat="34.9689714611" lon="32.8268713318"><ele>1109.02</ele><time>2015-04-28T07:48:23Z</time></trkpt><trkpt lat="34.9692556076" lon="32.8268850781"><ele>1107.10</ele><time>2015-04-28T07:48:34Z</time></trkpt><trkpt lat="34.9693120178" lon="32.8268450964"><ele>1106.61</ele><time>2015-04-28T07:48:38Z</time></trkpt><trkpt lat="34.9693245906" lon="32.8268248122"><ele>1106.61</ele><time>2015-04-28T07:48:39Z</time></trkpt><trkpt lat="34.9693398457" lon="32.8267988283"><ele>1106.13</ele><time>2015-04-28T07:48:40Z</time></trkpt><trkpt lat="34.9693782348" lon="32.8266755305"><ele>1105.65</ele><time>2015-04-28T07:48:43Z</time></trkpt><trkpt lat="34.9693993572" lon="32.8264481295"><ele>1105.17</ele><time>2015-04-28T07:48:47Z</time></trkpt><trkpt lat="34.9694435298" lon="32.8262170404"><ele>1104.21</ele><time>2015-04-28T07:48:51Z</time></trkpt><trkpt lat="34.9694658257" lon="32.8261677548"><ele>1103.73</ele><time>2015-04-28T07:48:52Z</time></trkpt><trkpt lat="34.9694898818" lon="32.8261333052"><ele>1103.25</ele><time>2015-04-28T07:48:53Z</time></trkpt><trkpt lat="34.9695111718" lon="32.8261131048"><ele>1103.25</ele><time>2015-04-28T07:48:54Z</time></trkpt><trkpt lat="34.9695317913" lon="32.8260993585"><ele>1103.25</ele><time>2015-04-28T07:48:55Z</time></trkpt><trkpt lat="34.9695490580" lon="32.8260856122"><ele>1103.25</ele><time>2015-04-28T07:48:56Z</time></trkpt><trkpt lat="34.9695661571" lon="32.8260682616"><ele>1102.77</ele><time>2015-04-28T07:48:57Z</time></trkpt><trkpt lat="34.9695847649" lon="32.8260466363"><ele>1102.77</ele><time>2015-04-28T07:48:58Z</time></trkpt><trkpt lat="34.9696036242" lon="32.8260183893"><ele>1102.77</ele><time>2015-04-28T07:48:59Z</time></trkpt><trkpt lat="34.9696881138" lon="32.8259416111"><ele>1102.29</ele><time>2015-04-28T07:49:02Z</time></trkpt><trkpt lat="34.9697299395" lon="32.8259219974"><ele>1101.81</ele><time>2015-04-28T07:49:03Z</time></trkpt><trkpt lat="34.9697782192" lon="32.8259132802"><ele>1101.81</ele><time>2015-04-28T07:49:04Z</time></trkpt><trkpt lat="34.9698311090" lon="32.8259133641"><ele>1101.33</ele><time>2015-04-28T07:49:05Z</time></trkpt><trkpt lat="34.9698836636" lon="32.8259218298"><ele>1101.33</ele><time>2015-04-28T07:49:06Z</time></trkpt><trkpt lat="34.9699366372" lon="32.8259355761"><ele>1100.85</ele><time>2015-04-28T07:49:07Z</time></trkpt><trkpt lat="34.9702753499" lon="32.8260684293"><ele>1099.40</ele><time>2015-04-28T07:49:13Z</time></trkpt><trkpt lat="34.9703297485" lon="32.8261020407"><ele>1098.92</ele><time>2015-04-28T07:49:14Z</time></trkpt><trkpt lat="34.9703804590" lon="32.8261408489"><ele>1098.44</ele><time>2015-04-28T07:49:15Z</time></trkpt><trkpt lat="34.9705736618" lon="32.8262974229"><ele>1096.52</ele><time>2015-04-28T07:49:20Z</time></trkpt><trkpt lat="34.9706097879" lon="32.8263126779"><ele>1096.52</ele><time>2015-04-28T07:49:21Z</time></trkpt><trkpt lat="34.9706765916" lon="32.8263275977"><ele>1096.04</ele><time>2015-04-28T07:49:23Z</time></trkpt><trkpt lat="34.9707082752" lon="32.8263178747"><ele>1096.04</ele><time>2015-04-28T07:49:24Z</time></trkpt><trkpt lat="34.9707413837" lon="32.8262974229"><ele>1095.56</ele><time>2015-04-28T07:49:25Z</time></trkpt><trkpt lat="34.9707770068" lon="32.8262698464"><ele>1095.56</ele><time>2015-04-28T07:49:26Z</time></trkpt><trkpt lat="34.9708144739" lon="32.8262339719"><ele>1095.08</ele><time>2015-04-28T07:49:27Z</time></trkpt><trkpt lat="34.9708485045" lon="32.8261960857"><ele>1094.60</ele><time>2015-04-28T07:49:28Z</time></trkpt><trkpt lat="34.9709348381" lon="32.8261307906"><ele>1094.12</ele><time>2015-04-28T07:49:31Z</time></trkpt><trkpt lat="34.9709741492" lon="32.8261994384"><ele>1093.64</ele><time>2015-04-28T07:49:38Z</time></trkpt><trkpt lat="34.9709641747" lon="32.8261970915"><ele>1094.12</ele><time>2015-04-28T07:49:53Z</time></trkpt><trkpt lat="34.9709704611" lon="32.8262032103"><ele>1093.64</ele><time>2015-04-28T07:50:20Z</time></trkpt><trkpt lat="34.9709842075" lon="32.8261899669"><ele>1093.64</ele><time>2015-04-28T07:50:48Z</time></trkpt><trkpt lat="34.9709562957" lon="32.8261509072"><ele>1093.64</ele><time>2015-04-28T07:50:53Z</time></trkpt><trkpt lat="34.9709806871" lon="32.8260824271"><ele>1093.16</ele><time>2015-04-28T07:50:57Z</time></trkpt><trkpt lat="34.9709975347" lon="32.8260601312"><ele>1093.16</ele><time>2015-04-28T07:50:58Z</time></trkpt><trkpt lat="34.9710163940" lon="32.8260324709"><ele>1093.16</ele><time>2015-04-28T07:50:59Z</time></trkpt><trkpt lat="34.9710391089" lon="32.8260012064"><ele>1093.16</ele><time>2015-04-28T07:51:00Z</time></trkpt><trkpt lat="34.9710648414" lon="32.8259662539"><ele>1092.68</ele><time>2015-04-28T07:51:01Z</time></trkpt><trkpt lat="34.9710946810" lon="32.8259296250"><ele>1092.68</ele><time>2015-04-28T07:51:02Z</time></trkpt><trkpt lat="34.9711286277" lon="32.8258953430"><ele>1092.20</ele><time>2015-04-28T07:51:03Z</time></trkpt><trkpt lat="34.9711678550" lon="32.8258640785"><ele>1092.20</ele><time>2015-04-28T07:51:04Z</time></trkpt><trkpt lat="34.9712103512" lon="32.8258355800"><ele>1091.71</ele><time>2015-04-28T07:51:05Z</time></trkpt><trkpt lat="34.9712574575" lon="32.8258120269"><ele>1091.71</ele><time>2015-04-28T07:51:06Z</time></trkpt><trkpt lat="34.9713102635" lon="32.8257981129"><ele>1091.23</ele><time>2015-04-28T07:51:07Z</time></trkpt><trkpt lat="34.9713666737" lon="32.8257983644"><ele>1091.23</ele><time>2015-04-28T07:51:08Z</time></trkpt><trkpt lat="34.9714248441" lon="32.8258141223"><ele>1090.75</ele><time>2015-04-28T07:51:09Z</time></trkpt><trkpt lat="34.9714829307" lon="32.8258430399"><ele>1090.27</ele><time>2015-04-28T07:51:10Z</time></trkpt><trkpt lat="34.9715401791" lon="32.8258770704"><ele>1090.27</ele><time>2015-04-28T07:51:11Z</time></trkpt><trkpt lat="34.9717019498" lon="32.8259802517"><ele>1088.83</ele><time>2015-04-28T07:51:14Z</time></trkpt><trkpt lat="34.9717601202" lon="32.8260014579"><ele>1088.35</ele><time>2015-04-28T07:51:15Z</time></trkpt><trkpt lat="34.9718189612" lon="32.8260148689"><ele>1088.35</ele><time>2015-04-28T07:51:16Z</time></trkpt><trkpt lat="34.9718762934" lon="32.8260204848"><ele>1087.39</ele><time>2015-04-28T07:51:17Z</time></trkpt><trkpt lat="34.9719328713" lon="32.8260165453"><ele>1086.91</ele><time>2015-04-28T07:51:18Z</time></trkpt><trkpt lat="34.9719899520" lon="32.8259998653"><ele>1086.91</ele><time>2015-04-28T07:51:19Z</time></trkpt><trkpt lat="34.9720487930" lon="32.8259695228"><ele>1086.43</ele><time>2015-04-28T07:51:20Z</time></trkpt><trkpt lat="34.9721086398" lon="32.8259296250"><ele>1085.95</ele><time>2015-04-28T07:51:21Z</time></trkpt><trkpt lat="34.9721665587" lon="32.8258809261"><ele>1085.47</ele><time>2015-04-28T07:51:22Z</time></trkpt><trkpt lat="34.9722272437" lon="32.8258304670"><ele>1084.99</ele><time>2015-04-28T07:51:23Z</time></trkpt><trkpt lat="34.9723631144" lon="32.8257313091"><ele>1084.02</ele><time>2015-04-28T07:51:25Z</time></trkpt><trkpt lat="34.9724372942" lon="32.8256860469"><ele>1083.54</ele><time>2015-04-28T07:51:26Z</time></trkpt><trkpt lat="34.9725180957" lon="32.8256523516"><ele>1083.06</ele><time>2015-04-28T07:51:27Z</time></trkpt><trkpt lat="34.9726039264" lon="32.8256326541"><ele>1082.58</ele><time>2015-04-28T07:51:28Z</time></trkpt><trkpt lat="34.9726929422" lon="32.8256270383"><ele>1082.10</ele><time>2015-04-28T07:51:29Z</time></trkpt><trkpt lat="34.9727831315" lon="32.8256394435"><ele>1081.14</ele><time>2015-04-28T07:51:30Z</time></trkpt><trkpt lat="34.9728714768" lon="32.8256706242"><ele>1081.14</ele><time>2015-04-28T07:51:31Z</time></trkpt><trkpt lat="34.9729541223" lon="32.8257124498"><ele>1080.66</ele><time>2015-04-28T07:51:32Z</time></trkpt><trkpt lat="34.9731765781" lon="32.8258075006"><ele>1078.74</ele><time>2015-04-28T07:51:35Z</time></trkpt><trkpt lat="34.9732561223" lon="32.8258103505"><ele>1077.78</ele><time>2015-04-28T07:51:36Z</time></trkpt><trkpt lat="34.9733364210" lon="32.8257931676"><ele>1077.29</ele><time>2015-04-28T07:51:37Z</time></trkpt><trkpt lat="34.9734143727" lon="32.8257530183"><ele>1076.81</ele><time>2015-04-28T07:51:38Z</time></trkpt><trkpt lat="34.9734860379" lon="32.8256914951"><ele>1076.33</ele><time>2015-04-28T07:51:39Z</time></trkpt><trkpt lat="34.9735486507" lon="32.8256119508"><ele>1075.37</ele><time>2015-04-28T07:51:40Z</time></trkpt><trkpt lat="34.9736073241" lon="32.8255204204"><ele>1074.89</ele><time>2015-04-28T07:51:41Z</time></trkpt><trkpt lat="34.9736656621" lon="32.8254293092"><ele>1074.41</ele><time>2015-04-28T07:51:42Z</time></trkpt><trkpt lat="34.9737332202" lon="32.8253494296"><ele>1073.93</ele><time>2015-04-28T07:51:43Z</time></trkpt><trkpt lat="34.9738135189" lon="32.8252895828"><ele>1072.97</ele><time>2015-04-28T07:51:44Z</time></trkpt><trkpt lat="34.9739042949" lon="32.8252531216"><ele>1072.49</ele><time>2015-04-28T07:51:45Z</time></trkpt><trkpt lat="34.9740020279" lon="32.8252425604"><ele>1071.53</ele><time>2015-04-28T07:51:46Z</time></trkpt><trkpt lat="34.9741023593" lon="32.8252599109"><ele>1071.05</ele><time>2015-04-28T07:51:47Z</time></trkpt><trkpt lat="34.9742050376" lon="32.8252944443"><ele>1070.57</ele><time>2015-04-28T07:51:48Z</time></trkpt><trkpt lat="34.9743042793" lon="32.8253351804"><ele>1069.60</ele><time>2015-04-28T07:51:49Z</time></trkpt><trkpt lat="34.9744740129" lon="32.8254063427"><ele>1067.68</ele><time>2015-04-28T07:51:51Z</time></trkpt><trkpt lat="34.9745535571" lon="32.8254184965"><ele>1067.20</ele><time>2015-04-28T07:51:52Z</time></trkpt><trkpt lat="34.9746289104" lon="32.8254035767"><ele>1066.24</ele><time>2015-04-28T07:51:53Z</time></trkpt><trkpt lat="34.9746923614" lon="32.8253609128"><ele>1065.76</ele><time>2015-04-28T07:51:54Z</time></trkpt><trkpt lat="34.9747430719" lon="32.8252909239"><ele>1064.80</ele><time>2015-04-28T07:51:55Z</time></trkpt><trkpt lat="34.9747767672" lon="32.8252001479"><ele>1064.32</ele><time>2015-04-28T07:51:56Z</time></trkpt><trkpt lat="34.9747982249" lon="32.8250993136"><ele>1063.84</ele><time>2015-04-28T07:51:57Z</time></trkpt><trkpt lat="34.9748145696" lon="32.8249931149"><ele>1063.36</ele><time>2015-04-28T07:51:58Z</time></trkpt><trkpt lat="34.9749247078" lon="32.8244327009"><ele>1059.99</ele><time>2015-04-28T07:52:03Z</time></trkpt><trkpt lat="34.9749807827" lon="32.8243373148"><ele>1059.51</ele><time>2015-04-28T07:52:04Z</time></trkpt><trkpt lat="34.9750528671" lon="32.8242575191"><ele>1059.03</ele><time>2015-04-28T07:52:05Z</time></trkpt><trkpt lat="34.9753400311" lon="32.8239951655"><ele>1056.15</ele><time>2015-04-28T07:52:09Z</time></trkpt><trkpt lat="34.9753968604" lon="32.8239210695"><ele>1055.67</ele><time>2015-04-28T07:52:10Z</time></trkpt><trkpt lat="34.9754512589" lon="32.8238411061"><ele>1055.18</ele><time>2015-04-28T07:52:11Z</time></trkpt><trkpt lat="34.9756874610" lon="32.8235127032"><ele>1052.30</ele><time>2015-04-28T07:52:16Z</time></trkpt><trkpt lat="34.9757261854" lon="32.8235067520"><ele>1051.82</ele><time>2015-04-28T07:52:17Z</time></trkpt><trkpt lat="34.9757633172" lon="32.8235207498"><ele>1051.82</ele><time>2015-04-28T07:52:18Z</time></trkpt><trkpt lat="34.9757921509" lon="32.8235490806"><ele>1051.34</ele><time>2015-04-28T07:52:19Z</time></trkpt><trkpt lat="34.9758093338" lon="32.8235823568"><ele>1051.34</ele><time>2015-04-28T07:52:20Z</time></trkpt><trkpt lat="34.9758155365" lon="32.8236172255"><ele>1050.86</ele><time>2015-04-28T07:52:21Z</time></trkpt><trkpt lat="34.9758151174" lon="32.8236515075"><ele>1050.86</ele><time>2015-04-28T07:52:22Z</time></trkpt><trkpt lat="34.9758096691" lon="32.8236790001"><ele>1050.38</ele><time>2015-04-28T07:52:23Z</time></trkpt><trkpt lat="34.9758031312" lon="32.8237016313"><ele>1050.38</ele><time>2015-04-28T07:52:24Z</time></trkpt><trkpt lat="34.9757951684" lon="32.8237204906"><ele>1050.38</ele><time>2015-04-28T07:52:25Z</time></trkpt><trkpt lat="34.9757852778" lon="32.8237393498"><ele>1050.38</ele><time>2015-04-28T07:52:26Z</time></trkpt><trkpt lat="34.9757751357" lon="32.8237551078"><ele>1049.90</ele><time>2015-04-28T07:52:27Z</time></trkpt><trkpt lat="34.9757642392" lon="32.8237695247"><ele>1049.90</ele><time>2015-04-28T07:52:28Z</time></trkpt><trkpt lat="34.9755360838" lon="32.8240849357"><ele>1047.97</ele><time>2015-04-28T07:52:37Z</time></trkpt><trkpt lat="34.9752701260" lon="32.8244795557"><ele>1045.09</ele><time>2015-04-28T07:52:43Z</time></trkpt><trkpt lat="34.9752302282" lon="32.8245646320"><ele>1044.61</ele><time>2015-04-28T07:52:44Z</time></trkpt><trkpt lat="34.9751948565" lon="32.8246552404"><ele>1044.13</ele><time>2015-04-28T07:52:45Z</time></trkpt><trkpt lat="34.9751697108" lon="32.8247533925"><ele>1043.65</ele><time>2015-04-28T07:52:46Z</time></trkpt><trkpt lat="34.9751582276" lon="32.8248584177"><ele>1043.17</ele><time>2015-04-28T07:52:47Z</time></trkpt><trkpt lat="34.9751602393" lon="32.8249670472"><ele>1042.21</ele><time>2015-04-28T07:52:48Z</time></trkpt><trkpt lat="34.9751723092" lon="32.8250771854"><ele>1041.73</ele><time>2015-04-28T07:52:49Z</time></trkpt><trkpt lat="34.9751874804" lon="32.8251873236"><ele>1040.76</ele><time>2015-04-28T07:52:50Z</time></trkpt><trkpt lat="34.9752350897" lon="32.8256120346"><ele>1038.36</ele><time>2015-04-28T07:52:54Z</time></trkpt><trkpt lat="34.9752285518" lon="32.8257073369"><ele>1037.88</ele><time>2015-04-28T07:52:55Z</time></trkpt><trkpt lat="34.9752100278" lon="32.8257966880"><ele>1037.40</ele><time>2015-04-28T07:52:56Z</time></trkpt><trkpt lat="34.9751801882" lon="32.8258755617"><ele>1036.92</ele><time>2015-04-28T07:52:57Z</time></trkpt><trkpt lat="34.9751405418" lon="32.8259451315"><ele>1036.44</ele><time>2015-04-28T07:52:58Z</time></trkpt><trkpt lat="34.9750920106" lon="32.8260053135"><ele>1035.96</ele><time>2015-04-28T07:52:59Z</time></trkpt><trkpt lat="34.9750303198" lon="32.8260524198"><ele>1035.48</ele><time>2015-04-28T07:53:00Z</time></trkpt><trkpt lat="34.9749562237" lon="32.8260853607"><ele>1035.00</ele><time>2015-04-28T07:53:01Z</time></trkpt><trkpt lat="34.9748754222" lon="32.8261049744"><ele>1034.52</ele><time>2015-04-28T07:53:02Z</time></trkpt><trkpt lat="34.9747900944" lon="32.8261087462"><ele>1034.04</ele><time>2015-04-28T07:53:03Z</time></trkpt><trkpt lat="34.9747021683" lon="32.8260991909"><ele>1033.55</ele><time>2015-04-28T07:53:04Z</time></trkpt><trkpt lat="34.9746151641" lon="32.8260811698"><ele>1032.59</ele><time>2015-04-28T07:53:05Z</time></trkpt><trkpt lat="34.9745280761" lon="32.8260592092"><ele>1032.59</ele><time>2015-04-28T07:53:06Z</time></trkpt><trkpt lat="34.9743542355" lon="32.8260400984"><ele>1031.15</ele><time>2015-04-28T07:53:08Z</time></trkpt><trkpt lat="34.9742679019" lon="32.8260556888"><ele>1030.67</ele><time>2015-04-28T07:53:09Z</time></trkpt><trkpt lat="34.9741855077" lon="32.8260916471"><ele>1030.19</ele><time>2015-04-28T07:53:10Z</time></trkpt><trkpt lat="34.9741114955" lon="32.8261476383"><ele>1029.71</ele><time>2015-04-28T07:53:11Z</time></trkpt><trkpt lat="34.9740506429" lon="32.8262261767"><ele>1029.23</ele><time>2015-04-28T07:53:12Z</time></trkpt><trkpt lat="34.9740045425" lon="32.8263203893"><ele>1028.27</ele><time>2015-04-28T07:53:13Z</time></trkpt><trkpt lat="34.9739687517" lon="32.8264210559"><ele>1027.79</ele><time>2015-04-28T07:53:14Z</time></trkpt><trkpt lat="34.9739370681" lon="32.8265244048"><ele>1027.31</ele><time>2015-04-28T07:53:15Z</time></trkpt><trkpt lat="34.9738215655" lon="32.8269106429"><ele>1025.38</ele><time>2015-04-28T07:53:19Z</time></trkpt><trkpt lat="34.9737817515" lon="32.8269819729"><ele>1025.38</ele><time>2015-04-28T07:53:20Z</time></trkpt><trkpt lat="34.9737298675" lon="32.8270408977"><ele>1024.90</ele><time>2015-04-28T07:53:21Z</time></trkpt><trkpt lat="34.9736702722" lon="32.8270880878"><ele>1024.42</ele><time>2015-04-28T07:53:22Z</time></trkpt><trkpt lat="34.9736032169" lon="32.8271194361"><ele>1023.94</ele><time>2015-04-28T07:53:23Z</time></trkpt><trkpt lat="34.9735282827" lon="32.8271306679"><ele>1023.46</ele><time>2015-04-28T07:53:24Z</time></trkpt><trkpt lat="34.9734507501" lon="32.8271260578"><ele>1023.46</ele><time>2015-04-28T07:53:25Z</time></trkpt><trkpt lat="34.9733758159" lon="32.8271084558"><ele>1022.98</ele><time>2015-04-28T07:53:26Z</time></trkpt><trkpt lat="34.9733045697" lon="32.8270785324"><ele>1022.02</ele><time>2015-04-28T07:53:27Z</time></trkpt><trkpt lat="34.9732355867" lon="32.8270445019"><ele>1021.54</ele><time>2015-04-28T07:53:28Z</time></trkpt><trkpt lat="34.9730300624" lon="32.8269529715"><ele>1020.58</ele><time>2015-04-28T07:53:31Z</time></trkpt><trkpt lat="34.9729630072" lon="32.8269424941"><ele>1020.10</ele><time>2015-04-28T07:53:32Z</time></trkpt><trkpt lat="34.9728973769" lon="32.8269458469"><ele>1019.62</ele><time>2015-04-28T07:53:33Z</time></trkpt><trkpt lat="34.9728317466" lon="32.8269684780"><ele>1019.13</ele><time>2015-04-28T07:53:34Z</time></trkpt><trkpt lat="34.9727698881" lon="32.8270090465"><ele>1018.65</ele><time>2015-04-28T07:53:35Z</time></trkpt><trkpt lat="34.9727103766" lon="32.8270591702"><ele>1018.65</ele><time>2015-04-28T07:53:36Z</time></trkpt><trkpt lat="34.9724570755" lon="32.8272620961"><ele>1016.73</ele><time>2015-04-28T07:53:40Z</time></trkpt><trkpt lat="34.9723832309" lon="32.8272993956"><ele>1016.73</ele><time>2015-04-28T07:53:41Z</time></trkpt><trkpt lat="34.9723028485" lon="32.8273292352"><ele>1016.25</ele><time>2015-04-28T07:53:42Z</time></trkpt><trkpt lat="34.9719849229" lon="32.8274381161"><ele>1013.37</ele><time>2015-04-28T07:53:46Z</time></trkpt><trkpt lat="34.9719290156" lon="32.8274982143"><ele>1012.89</ele><time>2015-04-28T07:53:47Z</time></trkpt><trkpt lat="34.9718887825" lon="32.8275822010"><ele>1012.41</ele><time>2015-04-28T07:53:48Z</time></trkpt><trkpt lat="34.9718593620" lon="32.8276797663"><ele>1011.44</ele><time>2015-04-28T07:53:49Z</time></trkpt><trkpt lat="34.9718322046" lon="32.8277791757"><ele>1011.44</ele><time>2015-04-28T07:53:50Z</time></trkpt><trkpt lat="34.9717969168" lon="32.8278759029"><ele>1010.48</ele><time>2015-04-28T07:53:51Z</time></trkpt><trkpt lat="34.9717458710" lon="32.8279668465"><ele>1010.00</ele><time>2015-04-28T07:53:52Z</time></trkpt><trkpt lat="34.9716893770" lon="32.8280554432"><ele>1009.04</ele><time>2015-04-28T07:53:53Z</time></trkpt><trkpt lat="34.9716436118" lon="32.8281501587"><ele>1007.60</ele><time>2015-04-28T07:53:54Z</time></trkpt><trkpt lat="34.9716172926" lon="32.8282557707"><ele>1007.12</ele><time>2015-04-28T07:53:55Z</time></trkpt><trkpt lat="34.9716021214" lon="32.8283617180"><ele>1006.16</ele><time>2015-04-28T07:53:56Z</time></trkpt><trkpt lat="34.9715805799" lon="32.8284590319"><ele>1005.68</ele><time>2015-04-28T07:53:57Z</time></trkpt><trkpt lat="34.9715420231" lon="32.8285462037"><ele>1004.72</ele><time>2015-04-28T07:53:58Z</time></trkpt><trkpt lat="34.9714830983" lon="32.8286192100"><ele>1004.23</ele><time>2015-04-28T07:53:59Z</time></trkpt><trkpt lat="34.9714137800" lon="32.8286798950"><ele>1003.27</ele><time>2015-04-28T07:54:00Z</time></trkpt><trkpt lat="34.9713403545" lon="32.8287356347"><ele>1002.79</ele><time>2015-04-28T07:54:01Z</time></trkpt><trkpt lat="34.9711500015" lon="32.8289234731"><ele>1000.39</ele><time>2015-04-28T07:54:04Z</time></trkpt><trkpt lat="34.9711101037" lon="32.8290178534"><ele>999.43</ele><time>2015-04-28T07:54:05Z</time></trkpt><trkpt lat="34.9710840359" lon="32.8291251417"><ele>998.95</ele><time>2015-04-28T07:54:06Z</time></trkpt><trkpt lat="34.9710025638" lon="32.8294353560"><ele>996.06</ele><time>2015-04-28T07:54:09Z</time></trkpt><trkpt lat="34.9709567148" lon="32.8295191750"><ele>995.58</ele><time>2015-04-28T07:54:10Z</time></trkpt><trkpt lat="34.9708609935" lon="32.8296623379"><ele>994.14</ele><time>2015-04-28T07:54:12Z</time></trkpt><trkpt lat="34.9708262924" lon="32.8297339194"><ele>993.18</ele><time>2015-04-28T07:54:13Z</time></trkpt><trkpt lat="34.9708126299" lon="32.8298080154"><ele>992.70</ele><time>2015-04-28T07:54:14Z</time></trkpt><trkpt lat="34.9708257895" lon="32.8298814408"><ele>991.74</ele><time>2015-04-28T07:54:15Z</time></trkpt><trkpt lat="34.9708608259" lon="32.8299463168"><ele>991.26</ele><time>2015-04-28T07:54:16Z</time></trkpt><trkpt lat="34.9709113687" lon="32.8299925011"><ele>990.78</ele><time>2015-04-28T07:54:17Z</time></trkpt><trkpt lat="34.9709703773" lon="32.8300282918"><ele>990.30</ele><time>2015-04-28T07:54:18Z</time></trkpt><trkpt lat="34.9710326549" lon="32.8300667647"><ele>990.30</ele><time>2015-04-28T07:54:19Z</time></trkpt><trkpt lat="34.9710908253" lon="32.8301171400"><ele>989.81</ele><time>2015-04-28T07:54:20Z</time></trkpt><trkpt lat="34.9711421225" lon="32.8301809262"><ele>988.85</ele><time>2015-04-28T07:54:21Z</time></trkpt><trkpt lat="34.9711879715" lon="32.8302560281"><ele>988.37</ele><time>2015-04-28T07:54:22Z</time></trkpt><trkpt lat="34.9712324794" lon="32.8303379193"><ele>987.89</ele><time>2015-04-28T07:54:23Z</time></trkpt><trkpt lat="34.9714274425" lon="32.8307492193"><ele>985.49</ele><time>2015-04-28T07:54:28Z</time></trkpt><trkpt lat="34.9714344833" lon="32.8308285959"><ele>985.01</ele><time>2015-04-28T07:54:29Z</time></trkpt><trkpt lat="34.9714262690" lon="32.8309106547"><ele>985.01</ele><time>2015-04-28T07:54:30Z</time></trkpt><trkpt lat="34.9714035541" lon="32.8309923783"><ele>984.53</ele><time>2015-04-28T07:54:31Z</time></trkpt><trkpt lat="34.9713704456" lon="32.8310710005"><ele>984.05</ele><time>2015-04-28T07:54:32Z</time></trkpt><trkpt lat="34.9713261891" lon="32.8311465215"><ele>983.57</ele><time>2015-04-28T07:54:33Z</time></trkpt><trkpt lat="34.9712731317" lon="32.8312194441"><ele>983.09</ele><time>2015-04-28T07:54:34Z</time></trkpt><trkpt lat="34.9712232593" lon="32.8312929533"><ele>982.60</ele><time>2015-04-28T07:54:35Z</time></trkpt><trkpt lat="34.9711885583" lon="32.8313698154"><ele>982.60</ele><time>2015-04-28T07:54:36Z</time></trkpt><trkpt lat="34.9711747281" lon="32.8314500302"><ele>981.64</ele><time>2015-04-28T07:54:37Z</time></trkpt><trkpt lat="34.9711819366" lon="32.8315362800"><ele>981.64</ele><time>2015-04-28T07:54:38Z</time></trkpt><trkpt lat="34.9711969402" lon="32.8316224460"><ele>981.16</ele><time>2015-04-28T07:54:39Z</time></trkpt><trkpt lat="34.9712396041" lon="32.8317983821"><ele>980.20</ele><time>2015-04-28T07:54:41Z</time></trkpt><trkpt lat="34.9714219104" lon="32.8323189821"><ele>976.84</ele><time>2015-04-28T07:54:47Z</time></trkpt><trkpt lat="34.9714510795" lon="32.8324203193"><ele>976.36</ele><time>2015-04-28T07:54:49Z</time></trkpt><trkpt lat="34.9714693520" lon="32.8324451298"><ele>975.88</ele><time>2015-04-28T07:54:50Z</time></trkpt><trkpt lat="34.9714885466" lon="32.8324374184"><ele>975.39</ele><time>2015-04-28T07:54:51Z</time></trkpt><trkpt lat="34.9715016223" lon="32.8324069921"><ele>975.39</ele><time>2015-04-28T07:54:52Z</time></trkpt><trkpt lat="34.9715035502" lon="32.8323734645"><ele>974.91</ele><time>2015-04-28T07:54:53Z</time></trkpt><trkpt lat="34.9714989401" lon="32.8323496599"><ele>974.91</ele><time>2015-04-28T07:54:54Z</time></trkpt><trkpt lat="34.9714920670" lon="32.8323350754"><ele>974.43</ele><time>2015-04-28T07:54:55Z</time></trkpt><trkpt lat="34.9714856129" lon="32.8322981950"><ele>974.43</ele><time>2015-04-28T07:54:58Z</time></trkpt><trkpt lat="34.9714882113" lon="32.8322803415"><ele>974.43</ele><time>2015-04-28T07:54:59Z</time></trkpt><trkpt lat="34.9714247603" lon="32.8320458159"><ele>973.47</ele><time>2015-04-28T07:55:09Z</time></trkpt><trkpt lat="34.9713640753" lon="32.8318683710"><ele>972.51</ele><time>2015-04-28T07:55:13Z</time></trkpt><trkpt lat="34.9713421147" lon="32.8318302333"><ele>972.03</ele><time>2015-04-28T07:55:14Z</time></trkpt><trkpt lat="34.9713240098" lon="32.8317941073"><ele>971.55</ele><time>2015-04-28T07:55:15Z</time></trkpt><trkpt lat="34.9713146221" lon="32.8317568079"><ele>971.55</ele><time>2015-04-28T07:55:16Z</time></trkpt><trkpt lat="34.9713090062" lon="32.8317194246"><ele>971.55</ele><time>2015-04-28T07:55:17Z</time></trkpt><trkpt lat="34.9713017978" lon="32.8316804487"><ele>971.07</ele><time>2015-04-28T07:55:18Z</time></trkpt><trkpt lat="34.9712947570" lon="32.8316428978"><ele>971.07</ele><time>2015-04-28T07:55:19Z</time></trkpt><trkpt lat="34.9712933321" lon="32.8316048440"><ele>970.59</ele><time>2015-04-28T07:55:20Z</time></trkpt><trkpt lat="34.9712960143" lon="32.8315656167"><ele>970.59</ele><time>2015-04-28T07:55:21Z</time></trkpt><trkpt lat="34.9713024683" lon="32.8315268923"><ele>970.11</ele><time>2015-04-28T07:55:22Z</time></trkpt><trkpt lat="34.9713133648" lon="32.8314958792"><ele>970.11</ele><time>2015-04-28T07:55:23Z</time></trkpt><trkpt lat="34.9713253509" lon="32.8314710688"><ele>969.63</ele><time>2015-04-28T07:55:24Z</time></trkpt><trkpt lat="34.9713353254" lon="32.8314479347"><ele>969.63</ele><time>2015-04-28T07:55:25Z</time></trkpt><trkpt lat="34.9713503290" lon="32.8314040136"><ele>969.63</ele><time>2015-04-28T07:55:37Z</time></trkpt><trkpt lat="34.9713550229" lon="32.8313884232"><ele>969.15</ele><time>2015-04-28T07:55:54Z</time></trkpt><trkpt lat="34.9713618960" lon="32.8313888423"><ele>969.15</ele><time>2015-04-28T07:56:08Z</time></trkpt><trkpt lat="34.9713729601" lon="32.8313806280"><ele>969.15</ele><time>2015-04-28T07:56:09Z</time></trkpt><trkpt lat="34.9716642313" lon="32.8310974874"><ele>966.74</ele><time>2015-04-28T07:56:18Z</time></trkpt><trkpt lat="34.9717584439" lon="32.8309882712"><ele>965.30</ele><time>2015-04-28T07:56:20Z</time></trkpt><trkpt lat="34.9717937317" lon="32.8309224732"><ele>965.30</ele><time>2015-04-28T07:56:21Z</time></trkpt><trkpt lat="34.9718115851" lon="32.8308435157"><ele>964.82</ele><time>2015-04-28T07:56:22Z</time></trkpt><trkpt lat="34.9718084000" lon="32.8307581879"><ele>964.34</ele><time>2015-04-28T07:56:23Z</time></trkpt><trkpt lat="34.9717854336" lon="32.8306712676"><ele>963.38</ele><time>2015-04-28T07:56:24Z</time></trkpt><trkpt lat="34.9717536662" lon="32.8305846825"><ele>962.90</ele><time>2015-04-28T07:56:25Z</time></trkpt><trkpt lat="34.9717161153" lon="32.8304996062"><ele>962.42</ele><time>2015-04-28T07:56:26Z</time></trkpt><trkpt lat="34.9715465494" lon="32.8301685210"><ele>960.49</ele><time>2015-04-28T07:56:30Z</time></trkpt><trkpt lat="34.9715234991" lon="32.8300886415"><ele>960.01</ele><time>2015-04-28T07:56:31Z</time></trkpt><trkpt lat="34.9715181347" lon="32.8300059959"><ele>960.01</ele><time>2015-04-28T07:56:32Z</time></trkpt><trkpt lat="34.9715317134" lon="32.8299257811"><ele>959.53</ele><time>2015-04-28T07:56:33Z</time></trkpt><trkpt lat="34.9715649895" lon="32.8298554569"><ele>959.05</ele><time>2015-04-28T07:56:34Z</time></trkpt><trkpt lat="34.9716137722" lon="32.8297939338"><ele>959.05</ele><time>2015-04-28T07:56:35Z</time></trkpt><trkpt lat="34.9716715235" lon="32.8297412116"><ele>958.57</ele><time>2015-04-28T07:56:36Z</time></trkpt><trkpt lat="34.9717379920" lon="32.8296937700"><ele>958.57</ele><time>2015-04-28T07:56:37Z</time></trkpt><trkpt lat="34.9720861763" lon="32.8294391278"><ele>956.17</ele><time>2015-04-28T07:56:42Z</time></trkpt><trkpt lat="34.9725508690" lon="32.8290563263"><ele>952.80</ele><time>2015-04-28T07:56:48Z</time></trkpt><trkpt lat="34.9727865681" lon="32.8288983274"><ele>950.40</ele><time>2015-04-28T07:56:51Z</time></trkpt><trkpt lat="34.9728581496" lon="32.8288829885"><ele>949.44</ele><time>2015-04-28T07:56:52Z</time></trkpt><trkpt lat="34.9729342572" lon="32.8288867604"><ele>948.96</ele><time>2015-04-28T07:56:53Z</time></trkpt><trkpt lat="34.9730141368" lon="32.8289089724"><ele>948.48</ele><time>2015-04-28T07:56:54Z</time></trkpt><trkpt lat="34.9730924238" lon="32.8289456852"><ele>948.00</ele><time>2015-04-28T07:56:55Z</time></trkpt><trkpt lat="34.9731704593" lon="32.8289923724"><ele>947.52</ele><time>2015-04-28T07:56:56Z</time></trkpt><trkpt lat="34.9732501712" lon="32.8290488664"><ele>946.56</ele><time>2015-04-28T07:56:57Z</time></trkpt><trkpt lat="34.9733326491" lon="32.8291072883"><ele>946.07</ele><time>2015-04-28T07:56:58Z</time></trkpt><trkpt lat="34.9734176416" lon="32.8291673027"><ele>945.11</ele><time>2015-04-28T07:56:59Z</time></trkpt><trkpt lat="34.9737878703" lon="32.8294000681"><ele>941.75</ele><time>2015-04-28T07:57:04Z</time></trkpt><trkpt lat="34.9738494772" lon="32.8294146527"><ele>940.79</ele><time>2015-04-28T07:57:05Z</time></trkpt><trkpt lat="34.9739092402" lon="32.8294029180"><ele>940.31</ele><time>2015-04-28T07:57:06Z</time></trkpt><trkpt lat="34.9739653151" lon="32.8293641936"><ele>939.83</ele><time>2015-04-28T07:57:07Z</time></trkpt><trkpt lat="34.9740151875" lon="32.8293060232"><ele>938.86</ele><time>2015-04-28T07:57:08Z</time></trkpt><trkpt lat="34.9740622938" lon="32.8292353638"><ele>938.86</ele><time>2015-04-28T07:57:09Z</time></trkpt><trkpt lat="34.9741081428" lon="32.8291580826"><ele>938.38</ele><time>2015-04-28T07:57:10Z</time></trkpt><trkpt lat="34.9742531497" lon="32.8289041948"><ele>935.98</ele><time>2015-04-28T07:57:13Z</time></trkpt><trkpt lat="34.9743167683" lon="32.8288375586"><ele>935.50</ele><time>2015-04-28T07:57:14Z</time></trkpt><trkpt lat="34.9743929598" lon="32.8287918773"><ele>935.02</ele><time>2015-04-28T07:57:15Z</time></trkpt><trkpt lat="34.9744798802" lon="32.8287720960"><ele>934.54</ele><time>2015-04-28T07:57:16Z</time></trkpt><trkpt lat="34.9745701533" lon="32.8287798073"><ele>934.06</ele><time>2015-04-28T07:57:17Z</time></trkpt><trkpt lat="34.9746636953" lon="32.8288064618"><ele>933.10</ele><time>2015-04-28T07:57:18Z</time></trkpt><trkpt lat="34.9747532979" lon="32.8288334515"><ele>932.62</ele><time>2015-04-28T07:57:19Z</time></trkpt><trkpt lat="34.9748366140" lon="32.8288464434"><ele>931.65</ele><time>2015-04-28T07:57:20Z</time></trkpt><trkpt lat="34.9749124702" lon="32.8288314398"><ele>931.17</ele><time>2015-04-28T07:57:21Z</time></trkpt><trkpt lat="34.9749797769" lon="32.8287870158"><ele>930.21</ele><time>2015-04-28T07:57:22Z</time></trkpt><trkpt lat="34.9750346784" lon="32.8287144285"><ele>929.73</ele><time>2015-04-28T07:57:23Z</time></trkpt><trkpt lat="34.9750759173" lon="32.8286197968"><ele>929.25</ele><time>2015-04-28T07:57:24Z</time></trkpt><trkpt lat="34.9751113728" lon="32.8285218962"><ele>928.29</ele><time>2015-04-28T07:57:25Z</time></trkpt><trkpt lat="34.9751553778" lon="32.8284379095"><ele>927.81</ele><time>2015-04-28T07:57:26Z</time></trkpt><trkpt lat="34.9752162304" lon="32.8283721115"><ele>927.33</ele><time>2015-04-28T07:57:27Z</time></trkpt><trkpt lat="34.9752951041" lon="32.8283303697"><ele>926.37</ele><time>2015-04-28T07:57:28Z</time></trkpt><trkpt lat="34.9753800966" lon="32.8283166233"><ele>926.37</ele><time>2015-04-28T07:57:29Z</time></trkpt><trkpt lat="34.9754644185" lon="32.8283386678"><ele>925.89</ele><time>2015-04-28T07:57:30Z</time></trkpt><trkpt lat="34.9755461421" lon="32.8283854388"><ele>924.93</ele><time>2015-04-28T07:57:31Z</time></trkpt><trkpt lat="34.9756265245" lon="32.8284446988"><ele>924.45</ele><time>2015-04-28T07:57:32Z</time></trkpt><trkpt lat="34.9760458712" lon="32.8287681565"><ele>921.08</ele><time>2015-04-28T07:57:37Z</time></trkpt><trkpt lat="34.9762775470" lon="32.8289114032"><ele>918.68</ele><time>2015-04-28T07:57:40Z</time></trkpt><trkpt lat="34.9763512239" lon="32.8289222158"><ele>917.72</ele><time>2015-04-28T07:57:41Z</time></trkpt><trkpt lat="34.9764236435" lon="32.8289046139"><ele>917.24</ele><time>2015-04-28T07:57:42Z</time></trkpt><trkpt lat="34.9764908664" lon="32.8288556635"><ele>916.75</ele><time>2015-04-28T07:57:43Z</time></trkpt><trkpt lat="34.9765515514" lon="32.8287860099"><ele>916.27</ele><time>2015-04-28T07:57:44Z</time></trkpt><trkpt lat="34.9766091350" lon="32.8287068848"><ele>915.31</ele><time>2015-04-28T07:57:45Z</time></trkpt><trkpt lat="34.9766709935" lon="32.8286354709"><ele>914.83</ele><time>2015-04-28T07:57:46Z</time></trkpt><trkpt lat="34.9767411500" lon="32.8285790607"><ele>914.35</ele><time>2015-04-28T07:57:47Z</time></trkpt><trkpt lat="34.9768206105" lon="32.8285468742"><ele>913.87</ele><time>2015-04-28T07:57:48Z</time></trkpt><trkpt lat="34.9769059382" lon="32.8285442758"><ele>912.91</ele><time>2015-04-28T07:57:49Z</time></trkpt><trkpt lat="34.9769916851" lon="32.8285690024"><ele>912.43</ele><time>2015-04-28T07:57:50Z</time></trkpt><trkpt lat="34.9770755880" lon="32.8286133427"><ele>911.47</ele><time>2015-04-28T07:57:51Z</time></trkpt><trkpt lat="34.9771587364" lon="32.8286673222"><ele>911.47</ele><time>2015-04-28T07:57:52Z</time></trkpt><trkpt lat="34.9774743989" lon="32.8288525622"><ele>908.10</ele><time>2015-04-28T07:57:56Z</time></trkpt><trkpt lat="34.9775468186" lon="32.8288546577"><ele>907.62</ele><time>2015-04-28T07:57:57Z</time></trkpt><trkpt lat="34.9776191544" lon="32.8288314398"><ele>907.14</ele><time>2015-04-28T07:57:58Z</time></trkpt><trkpt lat="34.9776835274" lon="32.8287752811"><ele>906.18</ele><time>2015-04-28T07:57:59Z</time></trkpt><trkpt lat="34.9777355790" lon="32.8286927193"><ele>905.70</ele><time>2015-04-28T07:58:00Z</time></trkpt><trkpt lat="34.9777672626" lon="32.8285903763"><ele>904.74</ele><time>2015-04-28T07:58:01Z</time></trkpt><trkpt lat="34.9777886365" lon="32.8284833394"><ele>904.26</ele><time>2015-04-28T07:58:02Z</time></trkpt><trkpt lat="34.9778084178" lon="32.8283715248"><ele>903.78</ele><time>2015-04-28T07:58:03Z</time></trkpt><trkpt lat="34.9778554402" lon="32.8278975282"><ele>901.37</ele><time>2015-04-28T07:58:07Z</time></trkpt><trkpt lat="34.9778488185" lon="32.8277738113"><ele>900.41</ele><time>2015-04-28T07:58:08Z</time></trkpt><trkpt lat="34.9778334796" lon="32.8276481666"><ele>899.93</ele><time>2015-04-28T07:58:09Z</time></trkpt><trkpt lat="34.9777670950" lon="32.8270661272"><ele>897.05</ele><time>2015-04-28T07:58:14Z</time></trkpt><trkpt lat="34.9777774885" lon="32.8269698191"><ele>896.57</ele><time>2015-04-28T07:58:15Z</time></trkpt><trkpt lat="34.9778043944" lon="32.8268752713"><ele>895.61</ele><time>2015-04-28T07:58:16Z</time></trkpt><trkpt lat="34.9778399337" lon="32.8267856687"><ele>895.61</ele><time>2015-04-28T07:58:17Z</time></trkpt><trkpt lat="34.9778888002" lon="32.8267123271"><ele>895.12</ele><time>2015-04-28T07:58:18Z</time></trkpt><trkpt lat="34.9779487308" lon="32.8266605269"><ele>894.16</ele><time>2015-04-28T07:58:19Z</time></trkpt><trkpt lat="34.9780167919" lon="32.8266273346"><ele>893.68</ele><time>2015-04-28T07:58:20Z</time></trkpt><trkpt lat="34.9780896306" lon="32.8266108222"><ele>893.68</ele><time>2015-04-28T07:58:21Z</time></trkpt><trkpt lat="34.9781653192" lon="32.8266158514"><ele>893.20</ele><time>2015-04-28T07:58:22Z</time></trkpt><trkpt lat="34.9782389961" lon="32.8266473673"><ele>892.72</ele><time>2015-04-28T07:58:23Z</time></trkpt><trkpt lat="34.9783095717" lon="32.8266992513"><ele>892.72</ele><time>2015-04-28T07:58:24Z</time></trkpt><trkpt lat="34.9783777166" lon="32.8267606907"><ele>891.76</ele><time>2015-04-28T07:58:25Z</time></trkpt><trkpt lat="34.9785844143" lon="32.8269498702"><ele>890.80</ele><time>2015-04-28T07:58:28Z</time></trkpt><trkpt lat="34.9786624499" lon="32.8270023409"><ele>890.32</ele><time>2015-04-28T07:58:29Z</time></trkpt><trkpt lat="34.9787444249" lon="32.8270482738"><ele>889.84</ele><time>2015-04-28T07:58:30Z</time></trkpt><trkpt lat="34.9791825470" lon="32.8272420634"><ele>886.47</ele><time>2015-04-28T07:58:35Z</time></trkpt><trkpt lat="34.9793625064" lon="32.8272931091"><ele>885.51</ele><time>2015-04-28T07:58:37Z</time></trkpt><trkpt lat="34.9794531148" lon="32.8272933606"><ele>884.07</ele><time>2015-04-28T07:58:38Z</time></trkpt><trkpt lat="34.9795378558" lon="32.8272747528"><ele>884.07</ele><time>2015-04-28T07:58:39Z</time></trkpt><trkpt lat="34.9796163943" lon="32.8272523731"><ele>883.11</ele><time>2015-04-28T07:58:40Z</time></trkpt><trkpt lat="34.9796943460" lon="32.8272439912"><ele>882.15</ele><time>2015-04-28T07:58:41Z</time></trkpt><trkpt lat="34.9797713757" lon="32.8272633534"><ele>881.67</ele><time>2015-04-28T07:58:42Z</time></trkpt><trkpt lat="34.9798423704" lon="32.8273148183"><ele>881.19</ele><time>2015-04-28T07:58:43Z</time></trkpt><trkpt lat="34.9799036421" lon="32.8273920156"><ele>880.71</ele><time>2015-04-28T07:58:44Z</time></trkpt><trkpt lat="34.9799496587" lon="32.8274875693"><ele>880.22</ele><time>2015-04-28T07:58:45Z</time></trkpt><trkpt lat="34.9799748044" lon="32.8275945224"><ele>879.74</ele><time>2015-04-28T07:58:46Z</time></trkpt><trkpt lat="34.9799913168" lon="32.8277024813"><ele>878.78</ele><time>2015-04-28T07:58:47Z</time></trkpt><trkpt lat="34.9800116848" lon="32.8278001305"><ele>877.82</ele><time>2015-04-28T07:58:48Z</time></trkpt><trkpt lat="34.9800464697" lon="32.8278853744"><ele>877.34</ele><time>2015-04-28T07:58:49Z</time></trkpt><trkpt lat="34.9800944980" lon="32.8279558662"><ele>876.38</ele><time>2015-04-28T07:58:50Z</time></trkpt><trkpt lat="34.9801607151" lon="32.8280031402"><ele>875.42</ele><time>2015-04-28T07:58:51Z</time></trkpt><trkpt lat="34.9802403431" lon="32.8280287888"><ele>874.94</ele><time>2015-04-28T07:58:52Z</time></trkpt><trkpt lat="34.9803244974" lon="32.8280351590"><ele>874.46</ele><time>2015-04-28T07:58:53Z</time></trkpt><trkpt lat="34.9804121722" lon="32.8280352429"><ele>873.50</ele><time>2015-04-28T07:58:54Z</time></trkpt><trkpt lat="34.9807887711" lon="32.8280228376"><ele>870.61</ele><time>2015-04-28T07:58:58Z</time></trkpt><trkpt lat="34.9810826406" lon="32.8280303814"><ele>867.73</ele><time>2015-04-28T07:59:01Z</time></trkpt><trkpt lat="34.9811652023" lon="32.8280594666"><ele>867.25</ele><time>2015-04-28T07:59:02Z</time></trkpt><trkpt lat="34.9812356103" lon="32.8281104285"><ele>866.29</ele><time>2015-04-28T07:59:03Z</time></trkpt><trkpt lat="34.9812930264" lon="32.8281781543"><ele>865.80</ele><time>2015-04-28T07:59:04Z</time></trkpt><trkpt lat="34.9813444074" lon="32.8282461315"><ele>864.84</ele><time>2015-04-28T07:59:05Z</time></trkpt><trkpt lat="34.9813978840" lon="32.8283027932"><ele>864.36</ele><time>2015-04-28T07:59:06Z</time></trkpt><trkpt lat="34.9814596586" lon="32.8283410147"><ele>863.88</ele><time>2015-04-28T07:59:07Z</time></trkpt><trkpt lat="34.9815322459" lon="32.8283570241"><ele>862.92</ele><time>2015-04-28T07:59:08Z</time></trkpt><trkpt lat="34.9816095270" lon="32.8283488937"><ele>862.44</ele><time>2015-04-28T07:59:09Z</time></trkpt><trkpt lat="34.9816889875" lon="32.8283219878"><ele>861.96</ele><time>2015-04-28T07:59:10Z</time></trkpt><trkpt lat="34.9817684479" lon="32.8282861132"><ele>861.00</ele><time>2015-04-28T07:59:11Z</time></trkpt><trkpt lat="34.9820822664" lon="32.8281188104"><ele>858.11</ele><time>2015-04-28T07:59:15Z</time></trkpt><trkpt lat="34.9821476452" lon="32.8280751407"><ele>857.15</ele><time>2015-04-28T07:59:16Z</time></trkpt><trkpt lat="34.9822052289" lon="32.8280219156"><ele>856.67</ele><time>2015-04-28T07:59:17Z</time></trkpt><trkpt lat="34.9822483119" lon="32.8279520106"><ele>855.71</ele><time>2015-04-28T07:59:18Z</time></trkpt><trkpt lat="34.9822747149" lon="32.8278634977"><ele>855.23</ele><time>2015-04-28T07:59:19Z</time></trkpt><trkpt lat="34.9822846055" lon="32.8277629986"><ele>854.75</ele><time>2015-04-28T07:59:20Z</time></trkpt><trkpt lat="34.9822773132" lon="32.8276611585"><ele>853.79</ele><time>2015-04-28T07:59:21Z</time></trkpt><trkpt lat="34.9822644051" lon="32.8275625035"><ele>853.31</ele><time>2015-04-28T07:59:22Z</time></trkpt><trkpt lat="34.9822612200" lon="32.8274735715"><ele>852.35</ele><time>2015-04-28T07:59:23Z</time></trkpt><trkpt lat="34.9822708592" lon="32.8274021577"><ele>851.38</ele><time>2015-04-28T07:59:24Z</time></trkpt><trkpt lat="34.9822903052" lon="32.8273496032"><ele>851.38</ele><time>2015-04-28T07:59:25Z</time></trkpt><trkpt lat="34.9823194742" lon="32.8273093700"><ele>850.90</ele><time>2015-04-28T07:59:26Z</time></trkpt><trkpt lat="34.9823614676" lon="32.8272724897"><ele>850.90</ele><time>2015-04-28T07:59:27Z</time></trkpt><trkpt lat="34.9824076518" lon="32.8272350226"><ele>850.42</ele><time>2015-04-28T07:59:28Z</time></trkpt><trkpt lat="34.9824642297" lon="32.8272038419"><ele>849.46</ele><time>2015-04-28T07:59:29Z</time></trkpt><trkpt lat="34.9825274292" lon="32.8271757625"><ele>848.98</ele><time>2015-04-28T07:59:30Z</time></trkpt><trkpt lat="34.9825969152" lon="32.8271538857"><ele>848.50</ele><time>2015-04-28T07:59:31Z</time></trkpt><trkpt lat="34.9826704245" lon="32.8271333501"><ele>848.50</ele><time>2015-04-28T07:59:32Z</time></trkpt><trkpt lat="34.9828833248" lon="32.8270761017"><ele>846.58</ele><time>2015-04-28T07:59:35Z</time></trkpt><trkpt lat="34.9830400664" lon="32.8270220384"><ele>845.14</ele><time>2015-04-28T07:59:38Z</time></trkpt><trkpt lat="34.9830866698" lon="32.8269921988"><ele>845.14</ele><time>2015-04-28T07:59:39Z</time></trkpt><trkpt lat="34.9831298366" lon="32.8269588389"><ele>844.66</ele><time>2015-04-28T07:59:40Z</time></trkpt><trkpt lat="34.9831657950" lon="32.8269165941"><ele>844.66</ele><time>2015-04-28T07:59:41Z</time></trkpt><trkpt lat="34.9831927009" lon="32.8268622793"><ele>844.18</ele><time>2015-04-28T07:59:42Z</time></trkpt><trkpt lat="34.9832113925" lon="32.8267972358"><ele>843.69</ele><time>2015-04-28T07:59:43Z</time></trkpt><trkpt lat="34.9832237139" lon="32.8267256543"><ele>843.21</ele><time>2015-04-28T07:59:44Z</time></trkpt><trkpt lat="34.9832275696" lon="32.8266466968"><ele>842.73</ele><time>2015-04-28T07:59:45Z</time></trkpt><trkpt lat="34.9832156673" lon="32.8265618719"><ele>842.25</ele><time>2015-04-28T07:59:46Z</time></trkpt><trkpt lat="34.9831948802" lon="32.8264755383"><ele>841.77</ele><time>2015-04-28T07:59:47Z</time></trkpt><trkpt lat="34.9831751827" lon="32.8263862710"><ele>841.29</ele><time>2015-04-28T07:59:48Z</time></trkpt><trkpt lat="34.9831615202" lon="32.8262985963"><ele>840.81</ele><time>2015-04-28T07:59:49Z</time></trkpt><trkpt lat="34.9831533898" lon="32.8262193874"><ele>840.33</ele><time>2015-04-28T07:59:50Z</time></trkpt><trkpt lat="34.9831529707" lon="32.8261471353"><ele>839.85</ele><time>2015-04-28T07:59:51Z</time></trkpt><trkpt lat="34.9831590895" lon="32.8260757215"><ele>839.37</ele><time>2015-04-28T07:59:52Z</time></trkpt><trkpt lat="34.9831711594" lon="32.8260035533"><ele>838.89</ele><time>2015-04-28T07:59:53Z</time></trkpt><trkpt lat="34.9831979815" lon="32.8259359114"><ele>838.89</ele><time>2015-04-28T07:59:54Z</time></trkpt><trkpt lat="34.9832362030" lon="32.8258740529"><ele>838.89</ele><time>2015-04-28T07:59:55Z</time></trkpt><trkpt lat="34.9832802918" lon="32.8258261085"><ele>838.41</ele><time>2015-04-28T07:59:56Z</time></trkpt><trkpt lat="34.9833293259" lon="32.8257919103"><ele>838.41</ele><time>2015-04-28T07:59:57Z</time></trkpt><trkpt lat="34.9833884183" lon="32.8257690277"><ele>837.93</ele><time>2015-04-28T07:59:58Z</time></trkpt><trkpt lat="34.9834453315" lon="32.8257551137"><ele>837.93</ele><time>2015-04-28T07:59:59Z</time></trkpt><trkpt lat="34.9834967963" lon="32.8257437143"><ele>837.45</ele><time>2015-04-28T08:00:00Z</time></trkpt><trkpt lat="34.9835454952" lon="32.8257292975"><ele>836.96</ele><time>2015-04-28T08:00:01Z</time></trkpt><trkpt lat="34.9836964533" lon="32.8256493341"><ele>835.52</ele><time>2015-04-28T08:00:05Z</time></trkpt><trkpt lat="34.9837130494" lon="32.8256014735"><ele>835.52</ele><time>2015-04-28T08:00:06Z</time></trkpt><trkpt lat="34.9837168213" lon="32.8255528584"><ele>835.04</ele><time>2015-04-28T08:00:07Z</time></trkpt><trkpt lat="34.9837146420" lon="32.8255087696"><ele>835.04</ele><time>2015-04-28T08:00:08Z</time></trkpt><trkpt lat="34.9837114569" lon="32.8254688717"><ele>834.56</ele><time>2015-04-28T08:00:09Z</time></trkpt><trkpt lat="34.9836477544" lon="32.8250869922"><ele>832.16</ele><time>2015-04-28T08:00:16Z</time></trkpt><trkpt lat="34.9836245365" lon="32.8250253852"><ele>832.16</ele><time>2015-04-28T08:00:17Z</time></trkpt><trkpt lat="34.9835930206" lon="32.8249636106"><ele>831.68</ele><time>2015-04-28T08:00:18Z</time></trkpt><trkpt lat="34.9835550506" lon="32.8249039315"><ele>831.20</ele><time>2015-04-28T08:00:19Z</time></trkpt><trkpt lat="34.9835127220" lon="32.8248533886"><ele>831.20</ele><time>2015-04-28T08:00:20Z</time></trkpt><trkpt lat="34.9834708963" lon="32.8248115629"><ele>830.72</ele><time>2015-04-28T08:00:21Z</time></trkpt><trkpt lat="34.9833070301" lon="32.8246098943"><ele>829.27</ele><time>2015-04-28T08:00:26Z</time></trkpt><trkpt lat="34.9832502846" lon="32.8245154303"><ele>828.79</ele><time>2015-04-28T08:00:34Z</time></trkpt><trkpt lat="34.9832390528" lon="32.8245249856"><ele>828.31</ele><time>2015-04-28T08:00:55Z</time></trkpt><trkpt lat="34.9832256418" lon="32.8245209623"><ele>828.31</ele><time>2015-04-28T08:01:25Z</time></trkpt><trkpt lat="34.9831982329" lon="32.8245225549"><ele>828.79</ele><time>2015-04-28T08:01:47Z</time></trkpt><trkpt lat="34.9831914436" lon="32.8245106526"><ele>828.79</ele><time>2015-04-28T08:01:48Z</time></trkpt><trkpt lat="34.9831882585" lon="32.8244952299"><ele>828.79</ele><time>2015-04-28T08:01:49Z</time></trkpt><trkpt lat="34.9831994902" lon="32.8244615346"><ele>829.27</ele><time>2015-04-28T08:01:52Z</time></trkpt><trkpt lat="34.9832034297" lon="32.8244451899"><ele>829.27</ele><time>2015-04-28T08:01:53Z</time></trkpt><trkpt lat="34.9832159188" lon="32.8242312837"><ele>831.20</ele><time>2015-04-28T08:02:07Z</time></trkpt><trkpt lat="34.9832170084" lon="32.8242184594"><ele>831.20</ele><time>2015-04-28T08:02:08Z</time></trkpt><trkpt lat="34.9832149129" lon="32.8242041264"><ele>831.20</ele><time>2015-04-28T08:02:09Z</time></trkpt><trkpt lat="34.9832156673" lon="32.8241905477"><ele>831.68</ele><time>2015-04-28T08:02:10Z</time></trkpt><trkpt lat="34.9832196068" lon="32.8241716046"><ele>831.68</ele><time>2015-04-28T08:02:11Z</time></trkpt><trkpt lat="34.9832232110" lon="32.8241540864"><ele>831.68</ele><time>2015-04-28T08:02:12Z</time></trkpt><trkpt lat="34.9832245521" lon="32.8241374064"><ele>831.68</ele><time>2015-04-28T08:02:13Z</time></trkpt><trkpt lat="34.9832257256" lon="32.8241224028"><ele>831.68</ele><time>2015-04-28T08:02:14Z</time></trkpt><trkpt lat="34.9832268152" lon="32.8241085727"><ele>831.68</ele><time>2015-04-28T08:02:15Z</time></trkpt><trkpt lat="34.9832289945" lon="32.8240954131"><ele>831.68</ele><time>2015-04-28T08:02:16Z</time></trkpt><trkpt lat="34.9832295813" lon="32.8240820859"><ele>831.68</ele><time>2015-04-28T08:02:17Z</time></trkpt><trkpt lat="34.9832271505" lon="32.8240668308"><ele>831.68</ele><time>2015-04-28T08:02:18Z</time></trkpt><trkpt lat="34.9832273182" lon="32.8240514919"><ele>831.68</ele><time>2015-04-28T08:02:19Z</time></trkpt><trkpt lat="34.9832317606" lon="32.8240358178"><ele>831.68</ele><time>2015-04-28T08:02:20Z</time></trkpt><trkpt lat="34.9832393043" lon="32.8240239155"><ele>831.68</ele><time>2015-04-28T08:02:21Z</time></trkpt><trkpt lat="34.9832417350" lon="32.8240072355"><ele>831.68</ele><time>2015-04-28T08:02:22Z</time></trkpt><trkpt lat="34.9832419027" lon="32.8239907231"><ele>831.68</ele><time>2015-04-28T08:02:23Z</time></trkpt><trkpt lat="34.9832425732" lon="32.8239777312"><ele>831.68</ele><time>2015-04-28T08:02:24Z</time></trkpt><trkpt lat="34.9832485244" lon="32.8238114342"><ele>831.68</ele><time>2015-04-28T08:02:35Z</time></trkpt><trkpt lat="34.9830837362" lon="32.8236248530"><ele>832.16</ele><time>2015-04-28T08:02:47Z</time></trkpt><trkpt lat="34.9827830773" lon="32.8235945944"><ele>835.04</ele><time>2015-04-28T08:03:02Z</time></trkpt><trkpt lat="34.9826134276" lon="32.8235098533"><ele>835.52</ele><time>2015-04-28T08:03:15Z</time></trkpt><trkpt lat="34.9826060515" lon="32.8234989569"><ele>836.00</ele><time>2015-04-28T08:03:16Z</time></trkpt><trkpt lat="34.9824744556" lon="32.8233103640"><ele>836.48</ele><time>2015-04-28T08:03:30Z</time></trkpt><trkpt lat="34.9824384972" lon="32.8232609946"><ele>836.48</ele><time>2015-04-28T08:03:34Z</time></trkpt><trkpt lat="34.9824246671" lon="32.8232501820"><ele>836.48</ele><time>2015-04-28T08:03:35Z</time></trkpt><trkpt lat="34.9822618067" lon="32.8231407143"><ele>837.45</ele><time>2015-04-28T08:03:48Z</time></trkpt><trkpt lat="34.9820971861" lon="32.8230885789"><ele>838.41</ele><time>2015-04-28T08:04:02Z</time></trkpt><trkpt lat="34.9819849525" lon="32.8230652772"><ele>839.85</ele><time>2015-04-28T08:04:14Z</time></trkpt><trkpt lat="34.9818650912" lon="32.8229652811"><ele>842.25</ele><time>2015-04-28T08:04:28Z</time></trkpt><trkpt lat="34.9818231817" lon="32.8228953760"><ele>843.69</ele><time>2015-04-28T08:04:36Z</time></trkpt><trkpt lat="34.9818164762" lon="32.8228615969"><ele>843.69</ele><time>2015-04-28T08:04:39Z</time></trkpt><trkpt lat="34.9818074238" lon="32.8228564840"><ele>844.18</ele><time>2015-04-28T08:04:40Z</time></trkpt><trkpt lat="34.9817979522" lon="32.8228553105"><ele>844.18</ele><time>2015-04-28T08:04:41Z</time></trkpt><trkpt lat="34.9817868043" lon="32.8228537180"><ele>844.66</ele><time>2015-04-28T08:04:42Z</time></trkpt><trkpt lat="34.9817769136" lon="32.8228530474"><ele>844.66</ele><time>2015-04-28T08:04:43Z</time></trkpt><trkpt lat="34.9817641731" lon="32.8228512034"><ele>844.66</ele><time>2015-04-28T08:04:44Z</time></trkpt><trkpt lat="34.9817520194" lon="32.8228436597"><ele>844.66</ele><time>2015-04-28T08:04:45Z</time></trkpt><trkpt lat="34.9817407038" lon="32.8228355292"><ele>845.14</ele><time>2015-04-28T08:04:46Z</time></trkpt><trkpt lat="34.9817308132" lon="32.8228244651"><ele>845.14</ele><time>2015-04-28T08:04:47Z</time></trkpt><trkpt lat="34.9815482553" lon="32.8226842359"><ele>848.02</ele><time>2015-04-28T08:05:03Z</time></trkpt><trkpt lat="34.9814613350" lon="32.8227045201"><ele>849.94</ele><time>2015-04-28T08:05:17Z</time></trkpt><trkpt lat="34.9814874027" lon="32.8227374610"><ele>850.42</ele><time>2015-04-28T08:05:22Z</time></trkpt><trkpt lat="34.9814961199" lon="32.8227455076"><ele>850.42</ele><time>2015-04-28T08:05:23Z</time></trkpt><trkpt lat="34.9815049209" lon="32.8227550630"><ele>850.42</ele><time>2015-04-28T08:05:24Z</time></trkpt><trkpt lat="34.9816226866" lon="32.8228705656"><ele>851.38</ele><time>2015-04-28T08:05:37Z</time></trkpt><trkpt lat="34.9817488343" lon="32.8230486810"><ele>851.87</ele><time>2015-04-28T08:05:50Z</time></trkpt><trkpt lat="34.9819954298" lon="32.8234065883"><ele>852.83</ele><time>2015-04-28T08:06:04Z</time></trkpt><trkpt lat="34.9822830129" lon="32.8237450495"><ele>853.31</ele><time>2015-04-28T08:06:17Z</time></trkpt><trkpt lat="34.9823745433" lon="32.8239768930"><ele>856.19</ele><time>2015-04-28T08:06:28Z</time></trkpt><trkpt lat="34.9825441930" lon="32.8240592871"><ele>859.56</ele><time>2015-04-28T08:06:41Z</time></trkpt><trkpt lat="34.9826814886" lon="32.8241338022"><ele>860.52</ele><time>2015-04-28T08:06:56Z</time></trkpt><trkpt lat="34.9826801475" lon="32.8241558466"><ele>860.52</ele><time>2015-04-28T08:07:18Z</time></trkpt><trkpt lat="34.9826823268" lon="32.8241970856"><ele>860.52</ele><time>2015-04-28T08:07:56Z</time></trkpt><trkpt lat="34.9826783035" lon="32.8241762146"><ele>860.52</ele><time>2015-04-28T08:08:32Z</time></trkpt><trkpt lat="34.9826975819" lon="32.8242094908"><ele>860.52</ele><time>2015-04-28T08:09:07Z</time></trkpt><trkpt lat="34.9827035330" lon="32.8242388275"><ele>860.04</ele><time>2015-04-28T08:10:01Z</time></trkpt><trkpt lat="34.9827119987" lon="32.8242631350"><ele>860.04</ele><time>2015-04-28T08:10:54Z</time></trkpt><trkpt lat="34.9827212188" lon="32.8242544178"><ele>860.04</ele><time>2015-04-28T08:11:44Z</time></trkpt><trkpt lat="34.9827110767" lon="32.8242474608"><ele>859.56</ele><time>2015-04-28T08:12:41Z</time></trkpt><trkpt lat="34.9827092327" lon="32.8242275957"><ele>859.56</ele><time>2015-04-28T08:13:14Z</time></trkpt><trkpt lat="34.9826938100" lon="32.8242337145"><ele>859.08</ele><time>2015-04-28T08:14:05Z</time></trkpt><trkpt lat="34.9827031977" lon="32.8242301103"><ele>859.08</ele><time>2015-04-28T08:14:55Z</time></trkpt><trkpt lat="34.9827125855" lon="32.8242405877"><ele>859.08</ele><time>2015-04-28T08:15:23Z</time></trkpt><trkpt lat="34.9827006832" lon="32.8242080659"><ele>859.08</ele><time>2015-04-28T08:15:24Z</time></trkpt><trkpt lat="34.9826760404" lon="32.8241342213"><ele>858.59</ele><time>2015-04-28T08:15:36Z</time></trkpt><trkpt lat="34.9825267587" lon="32.8240814991"><ele>857.63</ele><time>2015-04-28T08:15:47Z</time></trkpt><trkpt lat="34.9823504034" lon="32.8239568602"><ele>854.27</ele><time>2015-04-28T08:15:53Z</time></trkpt><trkpt lat="34.9823192228" lon="32.8239055630"><ele>853.79</ele><time>2015-04-28T08:15:54Z</time></trkpt><trkpt lat="34.9822923169" lon="32.8238369990"><ele>852.83</ele><time>2015-04-28T08:15:55Z</time></trkpt><trkpt lat="34.9822495691" lon="32.8236986138"><ele>851.38</ele><time>2015-04-28T08:15:57Z</time></trkpt><trkpt lat="34.9822269380" lon="32.8236430418"><ele>851.38</ele><time>2015-04-28T08:15:58Z</time></trkpt><trkpt lat="34.9821990263" lon="32.8235979471"><ele>851.38</ele><time>2015-04-28T08:15:59Z</time></trkpt><trkpt lat="34.9821669236" lon="32.8235602286"><ele>851.38</ele><time>2015-04-28T08:16:00Z</time></trkpt><trkpt lat="34.9821302108" lon="32.8235297184"><ele>850.90</ele><time>2015-04-28T08:16:01Z</time></trkpt><trkpt lat="34.9820917379" lon="32.8235050756"><ele>850.90</ele><time>2015-04-28T08:16:02Z</time></trkpt><trkpt lat="34.9820530973" lon="32.8234836180"><ele>850.90</ele><time>2015-04-28T08:16:03Z</time></trkpt><trkpt lat="34.9820146244" lon="32.8234656807"><ele>850.90</ele><time>2015-04-28T08:16:04Z</time></trkpt><trkpt lat="34.9819775764" lon="32.8234456480"><ele>850.90</ele><time>2015-04-28T08:16:05Z</time></trkpt><trkpt lat="34.9819451384" lon="32.8234145511"><ele>850.90</ele><time>2015-04-28T08:16:06Z</time></trkpt><trkpt lat="34.9819184840" lon="32.8233788442"><ele>850.90</ele><time>2015-04-28T08:16:07Z</time></trkpt><trkpt lat="34.9818971101" lon="32.8233388625"><ele>850.90</ele><time>2015-04-28T08:16:08Z</time></trkpt><trkpt lat="34.9818774965" lon="32.8232981265"><ele>850.90</ele><time>2015-04-28T08:16:09Z</time></trkpt><trkpt lat="34.9818565417" lon="32.8232590668"><ele>850.90</ele><time>2015-04-28T08:16:10Z</time></trkpt><trkpt lat="34.9816476647" lon="32.8229370341"><ele>849.94</ele><time>2015-04-28T08:16:19Z</time></trkpt><trkpt lat="34.9815837108" lon="32.8228674643"><ele>849.46</ele><time>2015-04-28T08:16:21Z</time></trkpt><trkpt lat="34.9814062659" lon="32.8226583358"><ele>848.50</ele><time>2015-04-28T08:16:29Z</time></trkpt><trkpt lat="34.9813990574" lon="32.8226468526"><ele>848.50</ele><time>2015-04-28T08:16:30Z</time></trkpt><trkpt lat="34.9813887477" lon="32.8226304241"><ele>848.50</ele><time>2015-04-28T08:16:32Z</time></trkpt><trkpt lat="34.9813827127" lon="32.8226200305"><ele>848.02</ele><time>2015-04-28T08:16:33Z</time></trkpt><trkpt lat="34.9813760910" lon="32.8226058651"><ele>848.50</ele><time>2015-04-28T08:16:34Z</time></trkpt><trkpt lat="34.9813631829" lon="32.8225749359"><ele>848.50</ele><time>2015-04-28T08:16:36Z</time></trkpt><trkpt lat="34.9813622609" lon="32.8225555737"><ele>848.50</ele><time>2015-04-28T08:16:37Z</time></trkpt><trkpt lat="34.9813645240" lon="32.8225356247"><ele>848.50</ele><time>2015-04-28T08:16:38Z</time></trkpt><trkpt lat="34.9813605845" lon="32.8225150052"><ele>848.50</ele><time>2015-04-28T08:16:39Z</time></trkpt><trkpt lat="34.9813486822" lon="32.8224948887"><ele>848.50</ele><time>2015-04-28T08:16:40Z</time></trkpt><trkpt lat="34.9813331757" lon="32.8224720899"><ele>848.50</ele><time>2015-04-28T08:16:41Z</time></trkpt><trkpt lat="34.9813142326" lon="32.8224493749"><ele>848.50</ele><time>2015-04-28T08:16:42Z</time></trkpt><trkpt lat="34.9810419884" lon="32.8220524918"><ele>848.50</ele><time>2015-04-28T08:16:56Z</time></trkpt><trkpt lat="34.9810398091" lon="32.8220292740"><ele>848.50</ele><time>2015-04-28T08:16:57Z</time></trkpt><trkpt lat="34.9810419045" lon="32.8220125102"><ele>848.98</ele><time>2015-04-28T08:16:58Z</time></trkpt><trkpt lat="34.9810444191" lon="32.8219959140"><ele>848.98</ele><time>2015-04-28T08:16:59Z</time></trkpt><trkpt lat="34.9810412340" lon="32.8219777253"><ele>848.98</ele><time>2015-04-28T08:17:00Z</time></trkpt><trkpt lat="34.9810350314" lon="32.8219649848"><ele>848.98</ele><time>2015-04-28T08:17:01Z</time></trkpt><trkpt lat="34.9810274038" lon="32.8219576087"><ele>848.98</ele><time>2015-04-28T08:17:02Z</time></trkpt><trkpt lat="34.9810225423" lon="32.8219439462"><ele>849.46</ele><time>2015-04-28T08:17:03Z</time></trkpt><trkpt lat="34.9810180999" lon="32.8219296969"><ele>849.46</ele><time>2015-04-28T08:17:04Z</time></trkpt><trkpt lat="34.9810169265" lon="32.8219141904"><ele>849.46</ele><time>2015-04-28T08:17:05Z</time></trkpt><trkpt lat="34.9810184352" lon="32.8218983486"><ele>849.46</ele><time>2015-04-28T08:17:06Z</time></trkpt><trkpt lat="34.9809945468" lon="32.8218333889"><ele>850.42</ele><time>2015-04-28T08:17:18Z</time></trkpt><trkpt lat="34.9809980672" lon="32.8218219895"><ele>850.42</ele><time>2015-04-28T08:17:20Z</time></trkpt><trkpt lat="34.9809998274" lon="32.8217858635"><ele>850.42</ele><time>2015-04-28T08:17:23Z</time></trkpt><trkpt lat="34.9809906911" lon="32.8217720333"><ele>850.90</ele><time>2015-04-28T08:17:24Z</time></trkpt><trkpt lat="34.9809797946" lon="32.8217540961"><ele>850.90</ele><time>2015-04-28T08:17:25Z</time></trkpt><trkpt lat="34.9809641205" lon="32.8217380028"><ele>850.90</ele><time>2015-04-28T08:17:26Z</time></trkpt><trkpt lat="34.9809467699" lon="32.8217198141"><ele>851.38</ele><time>2015-04-28T08:17:27Z</time></trkpt><trkpt lat="34.9809319340" lon="32.8217023797"><ele>851.38</ele><time>2015-04-28T08:17:28Z</time></trkpt><trkpt lat="34.9807648826" lon="32.8215462249"><ele>853.79</ele><time>2015-04-28T08:17:42Z</time></trkpt><trkpt lat="34.9807223864" lon="32.8215031419"><ele>854.75</ele><time>2015-04-28T08:17:46Z</time></trkpt><trkpt lat="34.9807098135" lon="32.8214936703"><ele>854.75</ele><time>2015-04-28T08:17:47Z</time></trkpt><trkpt lat="34.9806404114" lon="32.8214338236"><ele>855.71</ele><time>2015-04-28T08:17:53Z</time></trkpt><trkpt lat="34.9804738630" lon="32.8214195743"><ele>857.15</ele><time>2015-04-28T08:18:05Z</time></trkpt><trkpt lat="34.9804644752" lon="32.8214246873"><ele>857.63</ele><time>2015-04-28T08:18:06Z</time></trkpt><trkpt lat="34.9804544169" lon="32.8214295488"><ele>857.63</ele><time>2015-04-28T08:18:07Z</time></trkpt><trkpt lat="34.9804436043" lon="32.8214349132"><ele>857.63</ele><time>2015-04-28T08:18:08Z</time></trkpt><trkpt lat="34.9804343004" lon="32.8214422055"><ele>857.63</ele><time>2015-04-28T08:18:09Z</time></trkpt><trkpt lat="34.9804249126" lon="32.8214505874"><ele>857.63</ele><time>2015-04-28T08:18:10Z</time></trkpt><trkpt lat="34.9804131780" lon="32.8214545269"><ele>858.11</ele><time>2015-04-28T08:18:11Z</time></trkpt><trkpt lat="34.9804005213" lon="32.8214562871"><ele>858.11</ele><time>2015-04-28T08:18:12Z</time></trkpt><trkpt lat="34.9803887866" lon="32.8214603104"><ele>858.59</ele><time>2015-04-28T08:18:13Z</time></trkpt><trkpt lat="34.9803791475" lon="32.8214646690"><ele>858.11</ele><time>2015-04-28T08:18:14Z</time></trkpt><trkpt lat="34.9802868627" lon="32.8215247672"><ele>859.08</ele><time>2015-04-28T08:18:23Z</time></trkpt><trkpt lat="34.9802747928" lon="32.8215328138"><ele>859.08</ele><time>2015-04-28T08:18:24Z</time></trkpt><trkpt lat="34.9802656565" lon="32.8215417825"><ele>859.56</ele><time>2015-04-28T08:18:25Z</time></trkpt><trkpt lat="34.9800670892" lon="32.8214699496"><ele>860.52</ele><time>2015-04-28T08:18:42Z</time></trkpt><trkpt lat="34.9800414406" lon="32.8211436421"><ele>862.44</ele><time>2015-04-28T08:18:57Z</time></trkpt><trkpt lat="34.9800379202" lon="32.8208499402"><ele>864.36</ele><time>2015-04-28T08:19:11Z</time></trkpt><trkpt lat="34.9800660834" lon="32.8205494490"><ele>864.84</ele><time>2015-04-28T08:19:26Z</time></trkpt><trkpt lat="34.9799524248" lon="32.8202543221"><ele>866.77</ele><time>2015-04-28T08:19:42Z</time></trkpt><trkpt lat="34.9796510115" lon="32.8201332036"><ele>868.21</ele><time>2015-04-28T08:19:57Z</time></trkpt><trkpt lat="34.9795694556" lon="32.8199210577"><ele>870.13</ele><time>2015-04-28T08:20:08Z</time></trkpt><trkpt lat="34.9795137998" lon="32.8197029606"><ele>872.05</ele><time>2015-04-28T08:20:21Z</time></trkpt><trkpt lat="34.9793784320" lon="32.8195089195"><ele>874.46</ele><time>2015-04-28T08:20:35Z</time></trkpt><trkpt lat="34.9793278053" lon="32.8194572870"><ele>874.46</ele><time>2015-04-28T08:20:40Z</time></trkpt><trkpt lat="34.9793176632" lon="32.8194459714"><ele>874.94</ele><time>2015-04-28T08:20:41Z</time></trkpt><trkpt lat="34.9793086946" lon="32.8194367513"><ele>874.94</ele><time>2015-04-28T08:20:42Z</time></trkpt><trkpt lat="34.9792963732" lon="32.8194289561"><ele>874.94</ele><time>2015-04-28T08:20:43Z</time></trkpt><trkpt lat="34.9792849738" lon="32.8194209933"><ele>874.94</ele><time>2015-04-28T08:20:44Z</time></trkpt><trkpt lat="34.9792738259" lon="32.8194098454"><ele>875.42</ele><time>2015-04-28T08:20:45Z</time></trkpt><trkpt lat="34.9791375361" lon="32.8192224260"><ele>876.86</ele><time>2015-04-28T08:21:00Z</time></trkpt><trkpt lat="34.9791259691" lon="32.8192123678"><ele>876.86</ele><time>2015-04-28T08:21:01Z</time></trkpt><trkpt lat="34.9791161623" lon="32.8192002140"><ele>877.34</ele><time>2015-04-28T08:21:02Z</time></trkpt><trkpt lat="34.9791056011" lon="32.8191858809"><ele>877.34</ele><time>2015-04-28T08:21:03Z</time></trkpt><trkpt lat="34.9790971354" lon="32.8191713803"><ele>877.34</ele><time>2015-04-28T08:21:04Z</time></trkpt><trkpt lat="34.9789335206" lon="32.8189694602"><ele>880.71</ele><time>2015-04-28T08:21:19Z</time></trkpt><trkpt lat="34.9787965603" lon="32.8188075218"><ele>882.63</ele><time>2015-04-28T08:21:31Z</time></trkpt><trkpt lat="34.9787207041" lon="32.8187009040"><ele>884.07</ele><time>2015-04-28T08:21:39Z</time></trkpt><trkpt lat="34.9787078798" lon="32.8186870739"><ele>884.07</ele><time>2015-04-28T08:21:40Z</time></trkpt><trkpt lat="34.9786990788" lon="32.8186715674"><ele>884.07</ele><time>2015-04-28T08:21:41Z</time></trkpt><trkpt lat="34.9786921218" lon="32.8186543006"><ele>884.55</ele><time>2015-04-28T08:21:42Z</time></trkpt><trkpt lat="34.9786863383" lon="32.8186377883"><ele>884.55</ele><time>2015-04-28T08:21:43Z</time></trkpt><trkpt lat="34.9786603544" lon="32.8185316734"><ele>885.99</ele><time>2015-04-28T08:21:49Z</time></trkpt><trkpt lat="34.9786600191" lon="32.8185133170"><ele>885.99</ele><time>2015-04-28T08:21:50Z</time></trkpt><trkpt lat="34.9786547385" lon="32.8184963018"><ele>886.47</ele><time>2015-04-28T08:21:51Z</time></trkpt><trkpt lat="34.9786486197" lon="32.8184792027"><ele>886.47</ele><time>2015-04-28T08:21:52Z</time></trkpt><trkpt lat="34.9786430039" lon="32.8184635285"><ele>886.95</ele><time>2015-04-28T08:21:53Z</time></trkpt><trkpt lat="34.9786364660" lon="32.8184488602"><ele>886.95</ele><time>2015-04-28T08:21:54Z</time></trkpt><trkpt lat="34.9786109012" lon="32.8184108064"><ele>887.43</ele><time>2015-04-28T08:21:57Z</time></trkpt><trkpt lat="34.9786046147" lon="32.8183949646"><ele>887.91</ele><time>2015-04-28T08:21:58Z</time></trkpt><trkpt lat="34.9785971548" lon="32.8183823917"><ele>887.91</ele><time>2015-04-28T08:21:59Z</time></trkpt><trkpt lat="34.9785877671" lon="32.8183717467"><ele>887.91</ele><time>2015-04-28T08:22:00Z</time></trkpt><trkpt lat="34.9785783794" lon="32.8183601797"><ele>887.91</ele><time>2015-04-28T08:22:01Z</time></trkpt><trkpt lat="34.9785696622" lon="32.8183469363"><ele>887.91</ele><time>2015-04-28T08:22:02Z</time></trkpt><trkpt lat="34.9785594363" lon="32.8183353692"><ele>888.40</ele><time>2015-04-28T08:22:03Z</time></trkpt><trkpt lat="34.9785386492" lon="32.8183037695"><ele>888.40</ele><time>2015-04-28T08:22:06Z</time></trkpt><trkpt lat="34.9785344582" lon="32.8182867542"><ele>888.40</ele><time>2015-04-28T08:22:07Z</time></trkpt><trkpt lat="34.9785265792" lon="32.8182738461"><ele>888.88</ele><time>2015-04-28T08:22:08Z</time></trkpt><trkpt lat="34.9785155151" lon="32.8182652965"><ele>888.88</ele><time>2015-04-28T08:22:09Z</time></trkpt><trkpt lat="34.9785025232" lon="32.8182568308"><ele>888.88</ele><time>2015-04-28T08:22:10Z</time></trkpt><trkpt lat="34.9784908723" lon="32.8182475269"><ele>888.88</ele><time>2015-04-28T08:22:11Z</time></trkpt><trkpt lat="34.9784782995" lon="32.8182401508"><ele>889.36</ele><time>2015-04-28T08:22:12Z</time></trkpt><trkpt lat="34.9784652237" lon="32.8182353731"><ele>889.36</ele><time>2015-04-28T08:22:13Z</time></trkpt><trkpt lat="34.9784528185" lon="32.8182299249"><ele>889.36</ele><time>2015-04-28T08:22:14Z</time></trkpt><trkpt lat="34.9784402456" lon="32.8182270750"><ele>889.84</ele><time>2015-04-28T08:22:15Z</time></trkpt><trkpt lat="34.9784262478" lon="32.8182276618"><ele>889.84</ele><time>2015-04-28T08:22:16Z</time></trkpt><trkpt lat="34.9784130044" lon="32.8182279132"><ele>889.84</ele><time>2015-04-28T08:22:17Z</time></trkpt><trkpt lat="34.9784021080" lon="32.8182267398"><ele>889.84</ele><time>2015-04-28T08:22:18Z</time></trkpt><trkpt lat="34.9783922173" lon="32.8182229679"><ele>890.32</ele><time>2015-04-28T08:22:19Z</time></trkpt><trkpt lat="34.9781523272" lon="32.8181704134"><ele>893.20</ele><time>2015-04-28T08:22:35Z</time></trkpt><trkpt lat="34.9779157899" lon="32.8182543162"><ele>896.09</ele><time>2015-04-28T08:22:52Z</time></trkpt><trkpt lat="34.9777015485" lon="32.8183840681"><ele>897.53</ele><time>2015-04-28T08:23:08Z</time></trkpt><trkpt lat="34.9775041547" lon="32.8184315935"><ele>899.45</ele><time>2015-04-28T08:23:22Z</time></trkpt><trkpt lat="34.9774918333" lon="32.8184345271"><ele>899.93</ele><time>2015-04-28T08:23:23Z</time></trkpt><trkpt lat="34.9773120414" lon="32.8183671366"><ele>902.33</ele><time>2015-04-28T08:23:37Z</time></trkpt><trkpt lat="34.9772987980" lon="32.8183601797"><ele>902.82</ele><time>2015-04-28T08:23:38Z</time></trkpt><trkpt lat="34.9771320820" lon="32.8183029313"><ele>904.74</ele><time>2015-04-28T08:23:51Z</time></trkpt><trkpt lat="34.9771221913" lon="32.8182972316"><ele>905.22</ele><time>2015-04-28T08:23:52Z</time></trkpt><trkpt lat="34.9771103729" lon="32.8182937112"><ele>905.22</ele><time>2015-04-28T08:23:53Z</time></trkpt><trkpt lat="34.9770620093" lon="32.8182880115"><ele>905.70</ele><time>2015-04-28T08:23:57Z</time></trkpt><trkpt lat="34.9768860731" lon="32.8182348702"><ele>908.10</ele><time>2015-04-28T08:24:13Z</time></trkpt><trkpt lat="34.9768127315" lon="32.8182293382"><ele>909.54</ele><time>2015-04-28T08:24:25Z</time></trkpt><trkpt lat="34.9768046010" lon="32.8182291705"><ele>909.54</ele><time>2015-04-28T08:24:51Z</time></trkpt><trkpt lat="34.9767818861" lon="32.8182445094"><ele>909.06</ele><time>2015-04-28T08:25:16Z</time></trkpt><trkpt lat="34.9767462630" lon="32.8181942180"><ele>909.54</ele><time>2015-04-28T08:25:36Z</time></trkpt><trkpt lat="34.9766622763" lon="32.8181699943"><ele>910.51</ele><time>2015-04-28T08:25:46Z</time></trkpt><trkpt lat="34.9766514637" lon="32.8181647137"><ele>910.51</ele><time>2015-04-28T08:25:47Z</time></trkpt><trkpt lat="34.9766398966" lon="32.8181601036"><ele>910.99</ele><time>2015-04-28T08:25:48Z</time></trkpt><trkpt lat="34.9766279943" lon="32.8181578405"><ele>910.99</ele><time>2015-04-28T08:25:49Z</time></trkpt><trkpt lat="34.9766006693" lon="32.8181288391"><ele>910.99</ele><time>2015-04-28T08:25:53Z</time></trkpt><trkpt lat="34.9765798822" lon="32.8181233909"><ele>911.47</ele><time>2015-04-28T08:25:55Z</time></trkpt><trkpt lat="34.9765680637" lon="32.8181266598"><ele>911.95</ele><time>2015-04-28T08:25:56Z</time></trkpt><trkpt lat="34.9765150901" lon="32.8181184456"><ele>912.43</ele><time>2015-04-28T08:26:02Z</time></trkpt><trkpt lat="34.9764952250" lon="32.8180938028"><ele>912.91</ele><time>2015-04-28T08:26:05Z</time></trkpt><trkpt lat="34.9764839094" lon="32.8180919588"><ele>912.91</ele><time>2015-04-28T08:26:06Z</time></trkpt><trkpt lat="34.9764397368" lon="32.8180875164"><ele>913.39</ele><time>2015-04-28T08:26:10Z</time></trkpt><trkpt lat="34.9764295109" lon="32.8180925455"><ele>913.39</ele><time>2015-04-28T08:26:11Z</time></trkpt><trkpt lat="34.9764186982" lon="32.8180924617"><ele>913.87</ele><time>2015-04-28T08:26:12Z</time></trkpt><trkpt lat="34.9763358850" lon="32.8180565871"><ele>914.35</ele><time>2015-04-28T08:26:19Z</time></trkpt><trkpt lat="34.9763232283" lon="32.8180544078"><ele>914.83</ele><time>2015-04-28T08:26:20Z</time></trkpt><trkpt lat="34.9763093982" lon="32.8180529829"><ele>914.83</ele><time>2015-04-28T08:26:21Z</time></trkpt><trkpt lat="34.9762405828" lon="32.8180401586"><ele>915.79</ele><time>2015-04-28T08:26:27Z</time></trkpt><trkpt lat="34.9761796463" lon="32.8180103190"><ele>916.75</ele><time>2015-04-28T08:26:34Z</time></trkpt><trkpt lat="34.9761694204" lon="32.8180116601"><ele>916.75</ele><time>2015-04-28T08:26:35Z</time></trkpt><trkpt lat="34.9760744534" lon="32.8179905377"><ele>917.72</ele><time>2015-04-28T08:26:44Z</time></trkpt><trkpt lat="34.9759940710" lon="32.8179497179"><ele>919.16</ele><time>2015-04-28T08:26:52Z</time></trkpt><trkpt lat="34.9759104196" lon="32.8179133404"><ele>920.60</ele><time>2015-04-28T08:27:03Z</time></trkpt><trkpt lat="34.9759013671" lon="32.8179096524"><ele>920.60</ele><time>2015-04-28T08:27:04Z</time></trkpt><trkpt lat="34.9758898001" lon="32.8179056291"><ele>921.08</ele><time>2015-04-28T08:27:05Z</time></trkpt><trkpt lat="34.9758792389" lon="32.8179028630"><ele>921.08</ele><time>2015-04-28T08:27:06Z</time></trkpt><trkpt lat="34.9758658279" lon="32.8179002646"><ele>921.08</ele><time>2015-04-28T08:27:07Z</time></trkpt><trkpt lat="34.9758550990" lon="32.8179016057"><ele>921.56</ele><time>2015-04-28T08:27:08Z</time></trkpt><trkpt lat="34.9758442864" lon="32.8179037850"><ele>921.56</ele><time>2015-04-28T08:27:09Z</time></trkpt><trkpt lat="34.9758338090" lon="32.8179056291"><ele>921.56</ele><time>2015-04-28T08:27:10Z</time></trkpt><trkpt lat="34.9758245889" lon="32.8179018572"><ele>922.04</ele><time>2015-04-28T08:27:11Z</time></trkpt><trkpt lat="34.9758152850" lon="32.8178952355"><ele>922.04</ele><time>2015-04-28T08:27:12Z</time></trkpt><trkpt lat="34.9757623114" lon="32.8178787231"><ele>922.52</ele><time>2015-04-28T08:27:17Z</time></trkpt><trkpt lat="34.9757526722" lon="32.8178826626"><ele>923.00</ele><time>2015-04-28T08:27:18Z</time></trkpt><trkpt lat="34.9757141154" lon="32.8178872727"><ele>923.00</ele><time>2015-04-28T08:27:22Z</time></trkpt><trkpt lat="34.9757033866" lon="32.8178809024"><ele>923.48</ele><time>2015-04-28T08:27:23Z</time></trkpt><trkpt lat="34.9756938312" lon="32.8178735264"><ele>923.48</ele><time>2015-04-28T08:27:24Z</time></trkpt><trkpt lat="34.9756857846" lon="32.8178646415"><ele>923.48</ele><time>2015-04-28T08:27:25Z</time></trkpt><trkpt lat="34.9756745528" lon="32.8178571817"><ele>923.48</ele><time>2015-04-28T08:27:26Z</time></trkpt><trkpt lat="34.9756603874" lon="32.8178524040"><ele>923.96</ele><time>2015-04-28T08:27:27Z</time></trkpt><trkpt lat="34.9756478146" lon="32.8178495541"><ele>923.96</ele><time>2015-04-28T08:27:28Z</time></trkpt><trkpt lat="34.9756353255" lon="32.8178472910"><ele>923.96</ele><time>2015-04-28T08:27:29Z</time></trkpt><trkpt lat="34.9756139517" lon="32.8178406693"><ele>924.45</ele><time>2015-04-28T08:27:31Z</time></trkpt><trkpt lat="34.9755934160" lon="32.8178326227"><ele>924.45</ele><time>2015-04-28T08:27:33Z</time></trkpt><trkpt lat="34.9755829386" lon="32.8178389929"><ele>924.45</ele><time>2015-04-28T08:27:34Z</time></trkpt><trkpt lat="34.9755743891" lon="32.8178487998"><ele>924.93</ele><time>2015-04-28T08:27:35Z</time></trkpt><trkpt lat="34.9755648337" lon="32.8178575169"><ele>924.93</ele><time>2015-04-28T08:27:36Z</time></trkpt><trkpt lat="34.9755541049" lon="32.8178622108"><ele>924.93</ele><time>2015-04-28T08:27:37Z</time></trkpt><trkpt lat="34.9755434599" lon="32.8178658150"><ele>924.93</ele><time>2015-04-28T08:27:38Z</time></trkpt><trkpt lat="34.9755337369" lon="32.8178666532"><ele>924.93</ele><time>2015-04-28T08:27:39Z</time></trkpt><trkpt lat="34.9755245168" lon="32.8178647254"><ele>925.41</ele><time>2015-04-28T08:27:40Z</time></trkpt><trkpt lat="34.9755140394" lon="32.8178631328"><ele>925.41</ele><time>2015-04-28T08:27:41Z</time></trkpt><trkpt lat="34.9755029753" lon="32.8178645577"><ele>925.41</ele><time>2015-04-28T08:27:42Z</time></trkpt><trkpt lat="34.9754895642" lon="32.8178556729"><ele>925.89</ele><time>2015-04-28T08:27:44Z</time></trkpt><trkpt lat="34.9754827749" lon="32.8178494703"><ele>925.89</ele><time>2015-04-28T08:27:45Z</time></trkpt><trkpt lat="34.9754730519" lon="32.8178436868"><ele>925.89</ele><time>2015-04-28T08:27:46Z</time></trkpt><trkpt lat="34.9754526000" lon="32.8178408369"><ele>926.37</ele><time>2015-04-28T08:27:50Z</time></trkpt><trkpt lat="34.9754437990" lon="32.8178473748"><ele>926.37</ele><time>2015-04-28T08:27:51Z</time></trkpt><trkpt lat="34.9754320644" lon="32.8178557567"><ele>926.37</ele><time>2015-04-28T08:27:52Z</time></trkpt><trkpt lat="34.9754230957" lon="32.8178610373"><ele>926.37</ele><time>2015-04-28T08:27:53Z</time></trkpt><trkpt lat="34.9754129536" lon="32.8178651445"><ele>926.85</ele><time>2015-04-28T08:27:54Z</time></trkpt><trkpt lat="34.9754031468" lon="32.8178697545"><ele>926.85</ele><time>2015-04-28T08:27:55Z</time></trkpt><trkpt lat="34.9753686134" lon="32.8178660665"><ele>927.33</ele><time>2015-04-28T08:27:58Z</time></trkpt><trkpt lat="34.9753551185" lon="32.8178610373"><ele>927.33</ele><time>2015-04-28T08:27:59Z</time></trkpt><trkpt lat="34.9753433838" lon="32.8178582713"><ele>927.33</ele><time>2015-04-28T08:28:00Z</time></trkpt><trkpt lat="34.9752327427" lon="32.8178223129"><ele>928.29</ele><time>2015-04-28T08:28:11Z</time></trkpt><trkpt lat="34.9751854688" lon="32.8178025316"><ele>928.77</ele><time>2015-04-28T08:28:15Z</time></trkpt><trkpt lat="34.9751784280" lon="32.8177944850"><ele>928.77</ele><time>2015-04-28T08:28:16Z</time></trkpt><trkpt lat="34.9751654360" lon="32.8177871089"><ele>928.77</ele><time>2015-04-28T08:28:17Z</time></trkpt><trkpt lat="34.9751526956" lon="32.8177809902"><ele>928.77</ele><time>2015-04-28T08:28:18Z</time></trkpt><trkpt lat="34.9750482570" lon="32.8177380748"><ele>929.73</ele><time>2015-04-28T08:28:28Z</time></trkpt><trkpt lat="34.9750406295" lon="32.8177282680"><ele>929.73</ele><time>2015-04-28T08:28:29Z</time></trkpt><trkpt lat="34.9750343431" lon="32.8177162819"><ele>929.73</ele><time>2015-04-28T08:28:30Z</time></trkpt><trkpt lat="34.9750257097" lon="32.8177112527"><ele>929.73</ele><time>2015-04-28T08:28:31Z</time></trkpt><trkpt lat="34.9750146456" lon="32.8177090734"><ele>929.73</ele><time>2015-04-28T08:28:32Z</time></trkpt><trkpt lat="34.9749970436" lon="32.8177078161"><ele>929.73</ele><time>2015-04-28T08:28:33Z</time></trkpt><trkpt lat="34.9749110453" lon="32.8176888730"><ele>930.69</ele><time>2015-04-28T08:28:41Z</time></trkpt><trkpt lat="34.9748967960" lon="32.8176851012"><ele>930.69</ele><time>2015-04-28T08:28:42Z</time></trkpt><trkpt lat="34.9748807028" lon="32.8176799044"><ele>930.69</ele><time>2015-04-28T08:28:43Z</time></trkpt><trkpt lat="34.9748038407" lon="32.8176574409"><ele>931.17</ele><time>2015-04-28T08:28:49Z</time></trkpt><trkpt lat="34.9747952074" lon="32.8176466282"><ele>931.17</ele><time>2015-04-28T08:28:50Z</time></trkpt><trkpt lat="34.9747863226" lon="32.8176387493"><ele>931.17</ele><time>2015-04-28T08:28:51Z</time></trkpt><trkpt lat="34.9747742526" lon="32.8176359832"><ele>931.65</ele><time>2015-04-28T08:28:52Z</time></trkpt><trkpt lat="34.9747607578" lon="32.8176390007"><ele>931.65</ele><time>2015-04-28T08:28:53Z</time></trkpt><trkpt lat="34.9747480173" lon="32.8176443651"><ele>931.65</ele><time>2015-04-28T08:28:54Z</time></trkpt><trkpt lat="34.9747374561" lon="32.8176485561"><ele>931.65</ele><time>2015-04-28T08:28:55Z</time></trkpt><trkpt lat="34.9747229554" lon="32.8176550101"><ele>932.14</ele><time>2015-04-28T08:28:56Z</time></trkpt><trkpt lat="34.9747093767" lon="32.8176593687"><ele>932.14</ele><time>2015-04-28T08:28:57Z</time></trkpt><trkpt lat="34.9746975582" lon="32.8176592849"><ele>932.14</ele><time>2015-04-28T08:28:58Z</time></trkpt><trkpt lat="34.9746843148" lon="32.8176596202"><ele>932.14</ele><time>2015-04-28T08:28:59Z</time></trkpt><trkpt lat="34.9746722449" lon="32.8176599555"><ele>932.14</ele><time>2015-04-28T08:29:00Z</time></trkpt><trkpt lat="34.9746584147" lon="32.8176581953"><ele>932.14</ele><time>2015-04-28T08:29:01Z</time></trkpt><trkpt lat="34.9746429082" lon="32.8176579438"><ele>932.62</ele><time>2015-04-28T08:29:02Z</time></trkpt><trkpt lat="34.9746300839" lon="32.8176586982"><ele>932.62</ele><time>2015-04-28T08:29:03Z</time></trkpt><trkpt lat="34.9744416587" lon="32.8176561836"><ele>933.58</ele><time>2015-04-28T08:29:18Z</time></trkpt><trkpt lat="34.9742871802" lon="32.8176714387"><ele>934.54</ele><time>2015-04-28T08:29:30Z</time></trkpt><trkpt lat="34.9741467834" lon="32.8176941536"><ele>935.50</ele><time>2015-04-28T08:29:43Z</time></trkpt><trkpt lat="34.9740220606" lon="32.8176757973"><ele>936.94</ele><time>2015-04-28T08:29:54Z</time></trkpt><trkpt lat="34.9740102421" lon="32.8176759649"><ele>936.94</ele><time>2015-04-28T08:29:55Z</time></trkpt><trkpt lat="34.9739961606" lon="32.8176785633"><ele>936.94</ele><time>2015-04-28T08:29:56Z</time></trkpt><trkpt lat="34.9739810731" lon="32.8176791500"><ele>937.42</ele><time>2015-04-28T08:29:57Z</time></trkpt><trkpt lat="34.9738654029" lon="32.8176969197"><ele>938.38</ele><time>2015-04-28T08:30:06Z</time></trkpt><trkpt lat="34.9736729544" lon="32.8176605422"><ele>939.35</ele><time>2015-04-28T08:30:22Z</time></trkpt><trkpt lat="34.9736510776" lon="32.8176601231"><ele>939.83</ele><time>2015-04-28T08:30:24Z</time></trkpt><trkpt lat="34.9736401811" lon="32.8176664095"><ele>939.83</ele><time>2015-04-28T08:30:25Z</time></trkpt><trkpt lat="34.9736104254" lon="32.8176814131"><ele>939.83</ele><time>2015-04-28T08:30:28Z</time></trkpt><trkpt lat="34.9736005347" lon="32.8176799882"><ele>939.83</ele><time>2015-04-28T08:30:29Z</time></trkpt><trkpt lat="34.9735890515" lon="32.8176773060"><ele>940.31</ele><time>2015-04-28T08:30:30Z</time></trkpt><trkpt lat="34.9735750537" lon="32.8176768031"><ele>940.31</ele><time>2015-04-28T08:30:31Z</time></trkpt><trkpt lat="34.9735618941" lon="32.8176783118"><ele>940.31</ele><time>2015-04-28T08:30:32Z</time></trkpt><trkpt lat="34.9734104332" lon="32.8176546749"><ele>941.27</ele><time>2015-04-28T08:30:45Z</time></trkpt><trkpt lat="34.9732778315" lon="32.8176526632"><ele>941.75</ele><time>2015-04-28T08:30:59Z</time></trkpt><trkpt lat="34.9731135461" lon="32.8175724484"><ele>941.27</ele><time>2015-04-28T08:31:06Z</time></trkpt><trkpt lat="34.9730821978" lon="32.8175313771"><ele>941.75</ele><time>2015-04-28T08:31:07Z</time></trkpt><trkpt lat="34.9730531964" lon="32.8174812533"><ele>941.75</ele><time>2015-04-28T08:31:08Z</time></trkpt><trkpt lat="34.9730318226" lon="32.8174204007"><ele>941.75</ele><time>2015-04-28T08:31:09Z</time></trkpt><trkpt lat="34.9730225187" lon="32.8173541836"><ele>941.75</ele><time>2015-04-28T08:31:10Z</time></trkpt><trkpt lat="34.9730236921" lon="32.8172901459"><ele>942.23</ele><time>2015-04-28T08:31:11Z</time></trkpt><trkpt lat="34.9730346724" lon="32.8172341548"><ele>943.67</ele><time>2015-04-28T08:31:12Z</time></trkpt><trkpt lat="34.9730529450" lon="32.8171894792"><ele>944.15</ele><time>2015-04-28T08:31:13Z</time></trkpt><trkpt lat="34.9730713014" lon="32.8171557002"><ele>944.63</ele><time>2015-04-28T08:31:14Z</time></trkpt><trkpt lat="34.9730876461" lon="32.8171323985"><ele>945.11</ele><time>2015-04-28T08:31:15Z</time></trkpt><trkpt lat="34.9730980396" lon="32.8171186522"><ele>945.11</ele><time>2015-04-28T08:31:16Z</time></trkpt><trkpt lat="34.9731031526" lon="32.8171078395"><ele>945.59</ele><time>2015-04-28T08:31:17Z</time></trkpt><trkpt lat="34.9731119536" lon="32.8170986194"><ele>945.59</ele><time>2015-04-28T08:31:18Z</time></trkpt><trkpt lat="34.9731484149" lon="32.8170832805"><ele>946.07</ele><time>2015-04-28T08:31:22Z</time></trkpt><trkpt lat="34.9731531087" lon="32.8170695342"><ele>946.07</ele><time>2015-04-28T08:31:23Z</time></trkpt><trkpt lat="34.9731572997" lon="32.8170543630"><ele>946.07</ele><time>2015-04-28T08:31:24Z</time></trkpt><trkpt lat="34.9731639214" lon="32.8170406166"><ele>946.56</ele><time>2015-04-28T08:31:25Z</time></trkpt><trkpt lat="34.9731713813" lon="32.8170279600"><ele>947.04</ele><time>2015-04-28T08:31:26Z</time></trkpt><trkpt lat="34.9732138775" lon="32.8170052450"><ele>947.52</ele><time>2015-04-28T08:31:31Z</time></trkpt><trkpt lat="34.9732363410" lon="32.8169762436"><ele>948.00</ele><time>2015-04-28T08:31:34Z</time></trkpt><trkpt lat="34.9732436333" lon="32.8169634193"><ele>948.00</ele><time>2015-04-28T08:31:35Z</time></trkpt><trkpt lat="34.9732527696" lon="32.8169522714"><ele>948.48</ele><time>2015-04-28T08:31:36Z</time></trkpt><trkpt lat="34.9732640851" lon="32.8169459011"><ele>948.48</ele><time>2015-04-28T08:31:37Z</time></trkpt><trkpt lat="34.9732751492" lon="32.8169424646"><ele>948.48</ele><time>2015-04-28T08:31:38Z</time></trkpt><trkpt lat="34.9734457210" lon="32.8168640938"><ele>951.36</ele><time>2015-04-28T08:31:54Z</time></trkpt><trkpt lat="34.9734906480" lon="32.8168511018"><ele>951.84</ele><time>2015-04-28T08:31:58Z</time></trkpt><trkpt lat="34.9735250976" lon="32.8168552928"><ele>952.32</ele><time>2015-04-28T08:32:11Z</time></trkpt><trkpt lat="34.9735033046" lon="32.8168248665"><ele>952.32</ele><time>2015-04-28T08:32:44Z</time></trkpt><trkpt lat="34.9735055678" lon="32.8168173227"><ele>952.32</ele><time>2015-04-28T08:32:52Z</time></trkpt><trkpt lat="34.9735322222" lon="32.8167713061"><ele>952.80</ele><time>2015-04-28T08:33:03Z</time></trkpt><trkpt lat="34.9735102616" lon="32.8167941049"><ele>952.32</ele><time>2015-04-28T08:33:16Z</time></trkpt><trkpt lat="34.9735097587" lon="32.8167853877"><ele>952.32</ele><time>2015-04-28T08:33:35Z</time></trkpt><trkpt lat="34.9734991137" lon="32.8167742398"><ele>952.32</ele><time>2015-04-28T08:34:01Z</time></trkpt><trkpt lat="34.9734887201" lon="32.8168138862"><ele>951.84</ele><time>2015-04-28T08:34:20Z</time></trkpt><trkpt lat="34.9734881334" lon="32.8168343380"><ele>951.84</ele><time>2015-04-28T08:34:53Z</time></trkpt><trkpt lat="34.9734780751" lon="32.8168189991"><ele>951.84</ele><time>2015-04-28T08:35:07Z</time></trkpt><trkpt lat="34.9734753091" lon="32.8168043308"><ele>951.36</ele><time>2015-04-28T08:35:26Z</time></trkpt><trkpt lat="34.9734857865" lon="32.8168165684"><ele>951.36</ele><time>2015-04-28T08:35:56Z</time></trkpt><trkpt lat="34.9734893907" lon="32.8168290574"><ele>951.36</ele><time>2015-04-28T08:36:16Z</time></trkpt><trkpt lat="34.9734753091" lon="32.8168312367"><ele>951.36</ele><time>2015-04-28T08:36:36Z</time></trkpt><trkpt lat="34.9732703716" lon="32.8169302270"><ele>948.48</ele><time>2015-04-28T08:36:51Z</time></trkpt><trkpt lat="34.9730988778" lon="32.8171089292"><ele>945.59</ele><time>2015-04-28T08:36:57Z</time></trkpt><trkpt lat="34.9730686191" lon="32.8171543591"><ele>944.63</ele><time>2015-04-28T08:36:58Z</time></trkpt><trkpt lat="34.9730444793" lon="32.8172091767"><ele>944.15</ele><time>2015-04-28T08:36:59Z</time></trkpt><trkpt lat="34.9730297271" lon="32.8172760643"><ele>943.67</ele><time>2015-04-28T08:37:00Z</time></trkpt><trkpt lat="34.9730318226" lon="32.8173516691"><ele>942.71</ele><time>2015-04-28T08:37:01Z</time></trkpt><trkpt lat="34.9730523583" lon="32.8174291179"><ele>941.75</ele><time>2015-04-28T08:37:02Z</time></trkpt><trkpt lat="34.9730897415" lon="32.8174989391"><ele>941.27</ele><time>2015-04-28T08:37:03Z</time></trkpt><trkpt lat="34.9731385242" lon="32.8175549302"><ele>941.75</ele><time>2015-04-28T08:37:04Z</time></trkpt><trkpt lat="34.9731920846" lon="32.8175928164"><ele>941.75</ele><time>2015-04-28T08:37:05Z</time></trkpt><trkpt lat="34.9732484110" lon="32.8176121786"><ele>941.75</ele><time>2015-04-28T08:37:06Z</time></trkpt><trkpt lat="34.9733051565" lon="32.8176241647"><ele>941.75</ele><time>2015-04-28T08:37:07Z</time></trkpt><trkpt lat="34.9740318675" lon="32.8176773898"><ele>938.38</ele><time>2015-04-28T08:37:18Z</time></trkpt><trkpt lat="34.9744861666" lon="32.8176400904"><ele>935.02</ele><time>2015-04-28T08:37:23Z</time></trkpt><trkpt lat="34.9749568105" lon="32.8176614642"><ele>932.14</ele><time>2015-04-28T08:37:28Z</time></trkpt><trkpt lat="34.9750434794" lon="32.8176957462"><ele>931.65</ele><time>2015-04-28T08:37:29Z</time></trkpt><trkpt lat="34.9754009675" lon="32.8178359754"><ele>929.25</ele><time>2015-04-28T08:37:33Z</time></trkpt><trkpt lat="34.9754985329" lon="32.8178544156"><ele>928.29</ele><time>2015-04-28T08:37:34Z</time></trkpt><trkpt lat="34.9758100044" lon="32.8179005161"><ele>924.93</ele><time>2015-04-28T08:37:37Z</time></trkpt><trkpt lat="34.9759105872" lon="32.8179295175"><ele>923.48</ele><time>2015-04-28T08:37:38Z</time></trkpt><trkpt lat="34.9761099089" lon="32.8180042002"><ele>920.60</ele><time>2015-04-28T08:37:40Z</time></trkpt><trkpt lat="34.9764380604" lon="32.8180945572"><ele>916.75</ele><time>2015-04-28T08:37:43Z</time></trkpt><trkpt lat="34.9766616896" lon="32.8181665577"><ele>913.87</ele><time>2015-04-28T08:37:45Z</time></trkpt><trkpt lat="34.9769491050" lon="32.8182414919"><ele>910.51</ele><time>2015-04-28T08:37:48Z</time></trkpt><trkpt lat="34.9772436451" lon="32.8183264006"><ele>907.14</ele><time>2015-04-28T08:37:51Z</time></trkpt><trkpt lat="34.9774235208" lon="32.8183878399"><ele>904.26</ele><time>2015-04-28T08:37:53Z</time></trkpt><trkpt lat="34.9775020592" lon="32.8184104711"><ele>902.33</ele><time>2015-04-28T08:37:54Z</time></trkpt><trkpt lat="34.9775755685" lon="32.8184174281"><ele>901.37</ele><time>2015-04-28T08:37:55Z</time></trkpt><trkpt lat="34.9776492454" lon="32.8184101358"><ele>900.89</ele><time>2015-04-28T08:37:56Z</time></trkpt><trkpt lat="34.9777269457" lon="32.8183923662"><ele>899.45</ele><time>2015-04-28T08:37:57Z</time></trkpt><trkpt lat="34.9778048974" lon="32.8183570784"><ele>898.97</ele><time>2015-04-28T08:37:58Z</time></trkpt><trkpt lat="34.9778828491" lon="32.8183074575"><ele>898.49</ele><time>2015-04-28T08:37:59Z</time></trkpt><trkpt lat="34.9779556878" lon="32.8182517178"><ele>897.53</ele><time>2015-04-28T08:38:00Z</time></trkpt><trkpt lat="34.9780292809" lon="32.8182081319"><ele>896.57</ele><time>2015-04-28T08:38:01Z</time></trkpt><trkpt lat="34.9781047180" lon="32.8181795496"><ele>895.61</ele><time>2015-04-28T08:38:02Z</time></trkpt><trkpt lat="34.9781800713" lon="32.8181695752"><ele>894.64</ele><time>2015-04-28T08:38:03Z</time></trkpt><trkpt lat="34.9782588612" lon="32.8181784600"><ele>893.68</ele><time>2015-04-28T08:38:04Z</time></trkpt><trkpt lat="34.9783407524" lon="32.8181985766"><ele>892.72</ele><time>2015-04-28T08:38:05Z</time></trkpt><trkpt lat="34.9784223922" lon="32.8182306793"><ele>892.24</ele><time>2015-04-28T08:38:06Z</time></trkpt><trkpt lat="34.9784961529" lon="32.8182696551"><ele>890.80</ele><time>2015-04-28T08:38:07Z</time></trkpt><trkpt lat="34.9785547424" lon="32.8183153365"><ele>889.84</ele><time>2015-04-28T08:38:08Z</time></trkpt><trkpt lat="34.9786003400" lon="32.8183696512"><ele>889.36</ele><time>2015-04-28T08:38:09Z</time></trkpt><trkpt lat="34.9786332808" lon="32.8184392210"><ele>888.88</ele><time>2015-04-28T08:38:10Z</time></trkpt><trkpt lat="34.9786585104" lon="32.8185202740"><ele>888.40</ele><time>2015-04-28T08:38:11Z</time></trkpt><trkpt lat="34.9786899425" lon="32.8186061885"><ele>887.43</ele><time>2015-04-28T08:38:12Z</time></trkpt><trkpt lat="34.9787349533" lon="32.8186952043"><ele>886.47</ele><time>2015-04-28T08:38:13Z</time></trkpt><trkpt lat="34.9787940457" lon="32.8187808674"><ele>885.51</ele><time>2015-04-28T08:38:14Z</time></trkpt><trkpt lat="34.9788652919" lon="32.8188647702"><ele>884.55</ele><time>2015-04-28T08:38:15Z</time></trkpt><trkpt lat="34.9789437465" lon="32.8189528640"><ele>883.59</ele><time>2015-04-28T08:38:16Z</time></trkpt><trkpt lat="34.9791071098" lon="32.8191510122"><ele>880.22</ele><time>2015-04-28T08:38:18Z</time></trkpt><trkpt lat="34.9791764282" lon="32.8192614019"><ele>878.78</ele><time>2015-04-28T08:38:19Z</time></trkpt><trkpt lat="34.9792370293" lon="32.8193531837"><ele>877.82</ele><time>2015-04-28T08:38:20Z</time></trkpt><trkpt lat="34.9792941939" lon="32.8194193169"><ele>876.38</ele><time>2015-04-28T08:38:21Z</time></trkpt><trkpt lat="34.9793526996" lon="32.8194714524"><ele>875.90</ele><time>2015-04-28T08:38:22Z</time></trkpt><trkpt lat="34.9794082716" lon="32.8195261024"><ele>875.90</ele><time>2015-04-28T08:38:23Z</time></trkpt><trkpt lat="34.9794563837" lon="32.8195965104"><ele>874.94</ele><time>2015-04-28T08:38:24Z</time></trkpt><trkpt lat="34.9794994667" lon="32.8196793236"><ele>873.98</ele><time>2015-04-28T08:38:25Z</time></trkpt><trkpt lat="34.9795361795" lon="32.8197744582"><ele>873.01</ele><time>2015-04-28T08:38:26Z</time></trkpt><trkpt lat="34.9795654323" lon="32.8198772203"><ele>872.05</ele><time>2015-04-28T08:38:27Z</time></trkpt><trkpt lat="34.9795887340" lon="32.8199784737"><ele>871.57</ele><time>2015-04-28T08:38:28Z</time></trkpt><trkpt lat="34.9796132930" lon="32.8200617898"><ele>870.61</ele><time>2015-04-28T08:38:29Z</time></trkpt><trkpt lat="34.9796524365" lon="32.8201274201"><ele>869.17</ele><time>2015-04-28T08:38:30Z</time></trkpt><trkpt lat="34.9797077570" lon="32.8201731853"><ele>868.69</ele><time>2015-04-28T08:38:31Z</time></trkpt><trkpt lat="34.9797723815" lon="32.8201955650"><ele>868.69</ele><time>2015-04-28T08:38:32Z</time></trkpt><trkpt lat="34.9798426218" lon="32.8202091437"><ele>868.69</ele><time>2015-04-28T08:38:33Z</time></trkpt><trkpt lat="34.9799140356" lon="32.8202295117"><ele>867.73</ele><time>2015-04-28T08:38:34Z</time></trkpt><trkpt lat="34.9799801689" lon="32.8202586807"><ele>867.73</ele><time>2015-04-28T08:38:35Z</time></trkpt><trkpt lat="34.9800310470" lon="32.8203027695"><ele>867.25</ele><time>2015-04-28T08:38:36Z</time></trkpt><trkpt lat="34.9800615571" lon="32.8203627840"><ele>867.25</ele><time>2015-04-28T08:38:37Z</time></trkpt><trkpt lat="34.9800757226" lon="32.8204330243"><ele>866.77</ele><time>2015-04-28T08:38:38Z</time></trkpt><trkpt lat="34.9800794944" lon="32.8205096349"><ele>866.29</ele><time>2015-04-28T08:38:39Z</time></trkpt><trkpt lat="34.9800753873" lon="32.8205895983"><ele>866.29</ele><time>2015-04-28T08:38:40Z</time></trkpt><trkpt lat="34.9800655805" lon="32.8206688911"><ele>865.80</ele><time>2015-04-28T08:38:41Z</time></trkpt><trkpt lat="34.9800550193" lon="32.8207506984"><ele>865.32</ele><time>2015-04-28T08:38:42Z</time></trkpt><trkpt lat="34.9800450448" lon="32.8208336793"><ele>865.32</ele><time>2015-04-28T08:38:43Z</time></trkpt><trkpt lat="34.9800328072" lon="32.8210976254"><ele>863.88</ele><time>2015-04-28T08:38:46Z</time></trkpt><trkpt lat="34.9800748844" lon="32.8214567900"><ele>861.48</ele><time>2015-04-28T08:38:51Z</time></trkpt><trkpt lat="34.9800896365" lon="32.8215096798"><ele>861.00</ele><time>2015-04-28T08:38:52Z</time></trkpt><trkpt lat="34.9801150337" lon="32.8215504996"><ele>861.00</ele><time>2015-04-28T08:38:53Z</time></trkpt><trkpt lat="34.9801501539" lon="32.8215709515"><ele>860.52</ele><time>2015-04-28T08:38:54Z</time></trkpt><trkpt lat="34.9801880401" lon="32.8215653356"><ele>860.52</ele><time>2015-04-28T08:38:55Z</time></trkpt><trkpt lat="34.9802276026" lon="32.8215459734"><ele>860.04</ele><time>2015-04-28T08:38:56Z</time></trkpt><trkpt lat="34.9802711885" lon="32.8215178102"><ele>860.04</ele><time>2015-04-28T08:38:57Z</time></trkpt><trkpt lat="34.9803196359" lon="32.8214857075"><ele>859.56</ele><time>2015-04-28T08:38:58Z</time></trkpt><trkpt lat="34.9803716037" lon="32.8214544430"><ele>859.08</ele><time>2015-04-28T08:38:59Z</time></trkpt><trkpt lat="34.9804707617" lon="32.8214081749"><ele>858.11</ele><time>2015-04-28T08:39:01Z</time></trkpt><trkpt lat="34.9805202149" lon="32.8214003798"><ele>857.63</ele><time>2015-04-28T08:39:02Z</time></trkpt><trkpt lat="34.9805777147" lon="32.8214112762"><ele>857.15</ele><time>2015-04-28T08:39:03Z</time></trkpt><trkpt lat="34.9806355499" lon="32.8214414511"><ele>856.67</ele><time>2015-04-28T08:39:04Z</time></trkpt><trkpt lat="34.9806952290" lon="32.8214874677"><ele>856.19</ele><time>2015-04-28T08:39:05Z</time></trkpt><trkpt lat="34.9807525612" lon="32.8215353284"><ele>855.23</ele><time>2015-04-28T08:39:06Z</time></trkpt><trkpt lat="34.9809207860" lon="32.8216694389"><ele>852.35</ele><time>2015-04-28T08:39:09Z</time></trkpt><trkpt lat="34.9809637852" lon="32.8217180539"><ele>851.87</ele><time>2015-04-28T08:39:10Z</time></trkpt><trkpt lat="34.9809928704" lon="32.8217722848"><ele>851.87</ele><time>2015-04-28T08:39:11Z</time></trkpt><trkpt lat="34.9810106400" lon="32.8218291141"><ele>851.38</ele><time>2015-04-28T08:39:12Z</time></trkpt><trkpt lat="34.9810232129" lon="32.8218848538"><ele>850.42</ele><time>2015-04-28T08:39:13Z</time></trkpt><trkpt lat="34.9810302537" lon="32.8219424374"><ele>849.94</ele><time>2015-04-28T08:39:14Z</time></trkpt><trkpt lat="34.9810332712" lon="32.8220016975"><ele>849.46</ele><time>2015-04-28T08:39:15Z</time></trkpt><trkpt lat="34.9810345285" lon="32.8220589459"><ele>848.98</ele><time>2015-04-28T08:39:16Z</time></trkpt><trkpt lat="34.9810458440" lon="32.8221850935"><ele>848.02</ele><time>2015-04-28T08:39:24Z</time></trkpt><trkpt lat="34.9810485262" lon="32.8221835848"><ele>848.02</ele><time>2015-04-28T08:39:46Z</time></trkpt><trkpt lat="34.9810628593" lon="32.8221829981"><ele>848.02</ele><time>2015-04-28T08:40:10Z</time></trkpt><trkpt lat="34.9810843170" lon="32.8221983369"><ele>848.02</ele><time>2015-04-28T08:40:36Z</time></trkpt><trkpt lat="34.9810778629" lon="32.8222206328"><ele>848.02</ele><time>2015-04-28T08:40:50Z</time></trkpt><trkpt lat="34.9810849037" lon="32.8222295176"><ele>848.02</ele><time>2015-04-28T08:40:51Z</time></trkpt><trkpt lat="34.9810929503" lon="32.8222391568"><ele>848.02</ele><time>2015-04-28T08:40:52Z</time></trkpt><trkpt lat="34.9811035115" lon="32.8222434316"><ele>848.02</ele><time>2015-04-28T08:40:53Z</time></trkpt><trkpt lat="34.9811139889" lon="32.8222480416"><ele>848.02</ele><time>2015-04-28T08:40:54Z</time></trkpt><trkpt lat="34.9811237957" lon="32.8222548310"><ele>848.02</ele><time>2015-04-28T08:40:55Z</time></trkpt><trkpt lat="34.9811305013" lon="32.8222637158"><ele>848.02</ele><time>2015-04-28T08:40:56Z</time></trkpt><trkpt lat="34.9811393861" lon="32.8222739417"><ele>848.02</ele><time>2015-04-28T08:40:57Z</time></trkpt><trkpt lat="34.9811501149" lon="32.8222823236"><ele>848.50</ele><time>2015-04-28T08:40:58Z</time></trkpt><trkpt lat="34.9811609276" lon="32.8222930524"><ele>848.50</ele><time>2015-04-28T08:40:59Z</time></trkpt><trkpt lat="34.9813660327" lon="32.8225110658"><ele>848.50</ele><time>2015-04-28T08:41:12Z</time></trkpt><trkpt lat="34.9816499278" lon="32.8227581643"><ele>845.62</ele><time>2015-04-28T08:41:24Z</time></trkpt><trkpt lat="34.9817377701" lon="32.8228330985"><ele>844.18</ele><time>2015-04-28T08:41:26Z</time></trkpt><trkpt lat="34.9817948509" lon="32.8228789475"><ele>843.21</ele><time>2015-04-28T08:41:27Z</time></trkpt><trkpt lat="34.9820017163" lon="32.8230453283"><ele>839.85</ele><time>2015-04-28T08:41:30Z</time></trkpt><trkpt lat="34.9820872955" lon="32.8230898362"><ele>838.41</ele><time>2015-04-28T08:41:31Z</time></trkpt><trkpt lat="34.9823366571" lon="32.8231834620"><ele>835.52</ele><time>2015-04-28T08:41:34Z</time></trkpt><trkpt lat="34.9823991861" lon="32.8232179116"><ele>835.04</ele><time>2015-04-28T08:41:35Z</time></trkpt><trkpt lat="34.9824484717" lon="32.8232640121"><ele>834.56</ele><time>2015-04-28T08:41:36Z</time></trkpt><trkpt lat="34.9824874476" lon="32.8233128786"><ele>834.08</ele><time>2015-04-28T08:41:37Z</time></trkpt><trkpt lat="34.9826102424" lon="32.8234931733"><ele>834.08</ele><time>2015-04-28T08:41:41Z</time></trkpt><trkpt lat="34.9828634597" lon="32.8236350790"><ele>832.16</ele><time>2015-04-28T08:41:50Z</time></trkpt><trkpt lat="34.9829849135" lon="32.8236279543"><ele>831.68</ele><time>2015-04-28T08:41:53Z</time></trkpt><trkpt lat="34.9830376357" lon="32.8236364201"><ele>830.72</ele><time>2015-04-28T08:41:54Z</time></trkpt><trkpt lat="34.9830896873" lon="32.8236518428"><ele>830.72</ele><time>2015-04-28T08:41:55Z</time></trkpt><trkpt lat="34.9832805432" lon="32.8237877972"><ele>828.79</ele><time>2015-04-28T08:42:01Z</time></trkpt><trkpt lat="34.9832855724" lon="32.8238044772"><ele>828.79</ele><time>2015-04-28T08:42:02Z</time></trkpt><trkpt lat="34.9832909368" lon="32.8238204867"><ele>828.79</ele><time>2015-04-28T08:42:12Z</time></trkpt><trkpt lat="34.9832797889" lon="32.8238315508"><ele>828.79</ele><time>2015-04-28T08:42:27Z</time></trkpt><trkpt lat="34.9832735863" lon="32.8238483146"><ele>828.31</ele><time>2015-04-28T08:42:40Z</time></trkpt><trkpt lat="34.9832697306" lon="32.8238756396"><ele>828.79</ele><time>2015-04-28T08:42:42Z</time></trkpt><trkpt lat="34.9832693115" lon="32.8238988575"><ele>828.79</ele><time>2015-04-28T08:42:43Z</time></trkpt><trkpt lat="34.9832681380" lon="32.8239253443"><ele>828.79</ele><time>2015-04-28T08:42:44Z</time></trkpt><trkpt lat="34.9832200259" lon="32.8243278433"><ele>827.83</ele><time>2015-04-28T08:42:55Z</time></trkpt><trkpt lat="34.9832513742" lon="32.8245329484"><ele>825.43</ele><time>2015-04-28T08:43:00Z</time></trkpt><trkpt lat="34.9832755979" lon="32.8245362174"><ele>824.95</ele><time>2015-04-28T08:43:01Z</time></trkpt><trkpt lat="34.9832916074" lon="32.8245166875"><ele>824.95</ele><time>2015-04-28T08:43:02Z</time></trkpt><trkpt lat="34.9832888413" lon="32.8244880214"><ele>824.95</ele><time>2015-04-28T08:43:03Z</time></trkpt><trkpt lat="34.9832770228" lon="32.8244627919"><ele>824.47</ele><time>2015-04-28T08:43:04Z</time></trkpt><trkpt lat="34.9832672998" lon="32.8244349640"><ele>824.47</ele><time>2015-04-28T08:43:05Z</time></trkpt><trkpt lat="34.9832622707" lon="32.8243994247"><ele>824.47</ele><time>2015-04-28T08:43:06Z</time></trkpt><trkpt lat="34.9832623545" lon="32.8243590239"><ele>824.47</ele><time>2015-04-28T08:43:07Z</time></trkpt><trkpt lat="34.9832678027" lon="32.8243138455"><ele>823.99</ele><time>2015-04-28T08:43:08Z</time></trkpt><trkpt lat="34.9833406415" lon="32.8237983584"><ele>821.10</ele><time>2015-04-28T08:43:18Z</time></trkpt><trkpt lat="34.9831800442" lon="32.8234978672"><ele>819.18</ele><time>2015-04-28T08:43:28Z</time></trkpt><trkpt lat="34.9831417389" lon="32.8234593943"><ele>819.18</ele><time>2015-04-28T08:43:29Z</time></trkpt><trkpt lat="34.9830976501" lon="32.8234241903"><ele>818.70</ele><time>2015-04-28T08:43:30Z</time></trkpt><trkpt lat="34.9830538966" lon="32.8233925905"><ele>818.22</ele><time>2015-04-28T08:43:31Z</time></trkpt><trkpt lat="34.9829238933" lon="32.8233101126"><ele>817.26</ele><time>2015-04-28T08:43:34Z</time></trkpt><trkpt lat="34.9828816485" lon="32.8232686222"><ele>816.30</ele><time>2015-04-28T08:43:35Z</time></trkpt><trkpt lat="34.9828409124" lon="32.8232200071"><ele>816.30</ele><time>2015-04-28T08:43:36Z</time></trkpt><trkpt lat="34.9826902896" lon="32.8229610063"><ele>814.37</ele><time>2015-04-28T08:43:41Z</time></trkpt><trkpt lat="34.9826777168" lon="32.8229188453"><ele>814.37</ele><time>2015-04-28T08:43:42Z</time></trkpt><trkpt lat="34.9826649763" lon="32.8228846472"><ele>813.89</ele><time>2015-04-28T08:43:43Z</time></trkpt><trkpt lat="34.9826752860" lon="32.8225584235"><ele>812.45</ele><time>2015-04-28T08:43:54Z</time></trkpt><trkpt lat="34.9829287548" lon="32.8224238101"><ele>811.01</ele><time>2015-04-28T08:44:06Z</time></trkpt><trkpt lat="34.9833643623" lon="32.8225057013"><ele>810.53</ele><time>2015-04-28T08:44:20Z</time></trkpt><trkpt lat="34.9837130494" lon="32.8226423264"><ele>809.09</ele><time>2015-04-28T08:44:33Z</time></trkpt><trkpt lat="34.9840563722" lon="32.8228520416"><ele>807.16</ele><time>2015-04-28T08:44:42Z</time></trkpt><trkpt lat="34.9844992720" lon="32.8231635131"><ele>804.28</ele><time>2015-04-28T08:44:54Z</time></trkpt><trkpt lat="34.9845972564" lon="32.8232125472"><ele>803.80</ele><time>2015-04-28T08:44:57Z</time></trkpt><trkpt lat="34.9846307002" lon="32.8232033271"><ele>803.80</ele><time>2015-04-28T08:44:58Z</time></trkpt><trkpt lat="34.9846610427" lon="32.8231868986"><ele>803.80</ele><time>2015-04-28T08:44:59Z</time></trkpt><trkpt lat="34.9846898764" lon="32.8231620882"><ele>803.80</ele><time>2015-04-28T08:45:00Z</time></trkpt><trkpt lat="34.9847206380" lon="32.8231350146"><ele>803.80</ele><time>2015-04-28T08:45:01Z</time></trkpt><trkpt lat="34.9847529922" lon="32.8231076058"><ele>803.80</ele><time>2015-04-28T08:45:02Z</time></trkpt><trkpt lat="34.9847842567" lon="32.8230746649"><ele>803.32</ele><time>2015-04-28T08:45:03Z</time></trkpt><trkpt lat="34.9848833308" lon="32.8229884151"><ele>803.32</ele><time>2015-04-28T08:45:06Z</time></trkpt><trkpt lat="34.9849212170" lon="32.8229718190"><ele>803.32</ele><time>2015-04-28T08:45:07Z</time></trkpt><trkpt lat="34.9849607795" lon="32.8229659516"><ele>803.32</ele><time>2015-04-28T08:45:08Z</time></trkpt><trkpt lat="34.9850005098" lon="32.8229763452"><ele>803.32</ele><time>2015-04-28T08:45:09Z</time></trkpt><trkpt lat="34.9850384798" lon="32.8230016585"><ele>803.32</ele><time>2015-04-28T08:45:10Z</time></trkpt><trkpt lat="34.9850711692" lon="32.8230402991"><ele>802.84</ele><time>2015-04-28T08:45:11Z</time></trkpt><trkpt lat="34.9850995839" lon="32.8230856452"><ele>802.84</ele><time>2015-04-28T08:45:12Z</time></trkpt><trkpt lat="34.9856035039" lon="32.8238188103"><ele>799.95</ele><time>2015-04-28T08:45:26Z</time></trkpt><trkpt lat="34.9858759157" lon="32.8241286892"><ele>798.99</ele><time>2015-04-28T08:45:33Z</time></trkpt><trkpt lat="34.9859005585" lon="32.8241614625"><ele>798.99</ele><time>2015-04-28T08:45:34Z</time></trkpt><trkpt lat="34.9859143049" lon="32.8241902124"><ele>798.51</ele><time>2015-04-28T08:45:35Z</time></trkpt><trkpt lat="34.9859236926" lon="32.8242127597"><ele>798.51</ele><time>2015-04-28T08:45:36Z</time></trkpt><trkpt lat="34.9859345891" lon="32.8242346365"><ele>798.99</ele><time>2015-04-28T08:45:37Z</time></trkpt><trkpt lat="34.9859614950" lon="32.8243963234"><ele>797.07</ele><time>2015-04-28T08:45:46Z</time></trkpt><trkpt lat="34.9859664403" lon="32.8244044539"><ele>797.07</ele><time>2015-04-28T08:45:47Z</time></trkpt><trkpt lat="34.9859608244" lon="32.8244087286"><ele>797.07</ele><time>2015-04-28T08:46:02Z</time></trkpt><trkpt lat="34.9859359302" lon="32.8244374786"><ele>797.07</ele><time>2015-04-28T08:46:23Z</time></trkpt><trkpt lat="34.9859390315" lon="32.8244510572"><ele>797.07</ele><time>2015-04-28T08:46:32Z</time></trkpt><trkpt lat="34.9859795161" lon="32.8245266620"><ele>797.07</ele><time>2015-04-28T08:46:43Z</time></trkpt><trkpt lat="34.9860172346" lon="32.8245654702"><ele>797.07</ele><time>2015-04-28T08:46:56Z</time></trkpt><trkpt lat="34.9860370159" lon="32.8245803062"><ele>796.59</ele><time>2015-04-28T08:47:13Z</time></trkpt><trkpt lat="34.9860781711" lon="32.8245833237"><ele>796.59</ele><time>2015-04-28T08:47:53Z</time></trkpt><trkpt lat="34.9860552885" lon="32.8245825693"><ele>796.59</ele><time>2015-04-28T08:48:22Z</time></trkpt><trkpt lat="34.9860631675" lon="32.8245953098"><ele>796.59</ele><time>2015-04-28T08:49:00Z</time></trkpt><trkpt lat="34.9860963598" lon="32.8245720081"><ele>796.59</ele><time>2015-04-28T08:49:41Z</time></trkpt><trkpt lat="34.9861059990" lon="32.8245658893"><ele>796.59</ele><time>2015-04-28T08:50:14Z</time></trkpt><trkpt lat="34.9861339945" lon="32.8245620336"><ele>796.59</ele><time>2015-04-28T08:50:52Z</time></trkpt><trkpt lat="34.9861306418" lon="32.8245643806"><ele>797.07</ele><time>2015-04-28T08:51:30Z</time></trkpt><trkpt lat="34.9860987905" lon="32.8245730139"><ele>797.07</ele><time>2015-04-28T08:52:04Z</time></trkpt><trkpt lat="34.9860707950" lon="32.8246028535"><ele>797.07</ele><time>2015-04-28T08:52:35Z</time></trkpt><trkpt lat="34.9860361777" lon="32.8245823178"><ele>797.07</ele><time>2015-04-28T08:53:16Z</time></trkpt><trkpt lat="34.9860563781" lon="32.8245689906"><ele>797.07</ele><time>2015-04-28T08:53:59Z</time></trkpt><trkpt lat="34.9860385247" lon="32.8245770372"><ele>796.59</ele><time>2015-04-28T08:54:40Z</time></trkpt><trkpt lat="34.9860357586" lon="32.8245792165"><ele>796.59</ele><time>2015-04-28T08:55:12Z</time></trkpt><trkpt lat="34.9860270415" lon="32.8245652188"><ele>796.59</ele><time>2015-04-28T08:55:53Z</time></trkpt><trkpt lat="34.9860241078" lon="32.8245589323"><ele>796.59</ele><time>2015-04-28T08:56:29Z</time></trkpt><trkpt lat="34.9860424642" lon="32.8245425038"><ele>796.59</ele><time>2015-04-28T08:57:04Z</time></trkpt><trkpt lat="34.9860593956" lon="32.8245606087"><ele>796.11</ele><time>2015-04-28T08:57:40Z</time></trkpt><trkpt lat="34.9860462360" lon="32.8245819826"><ele>796.11</ele><time>2015-04-28T08:58:15Z</time></trkpt><trkpt lat="34.9860193301" lon="32.8245847486"><ele>796.11</ele><time>2015-04-28T08:58:54Z</time></trkpt><trkpt lat="34.9860371836" lon="32.8245837428"><ele>796.11</ele><time>2015-04-28T08:59:38Z</time></trkpt><trkpt lat="34.9860505946" lon="32.8245730139"><ele>796.11</ele><time>2015-04-28T09:00:10Z</time></trkpt><trkpt lat="34.9860479124" lon="32.8245640453"><ele>796.11</ele><time>2015-04-28T09:00:45Z</time></trkpt><trkpt lat="34.9860725552" lon="32.8245559987"><ele>796.11</ele><time>2015-04-28T09:01:09Z</time></trkpt><trkpt lat="34.9860780872" lon="32.8245659731"><ele>795.63</ele><time>2015-04-28T09:01:40Z</time></trkpt><trkpt lat="34.9860541150" lon="32.8245739359"><ele>795.63</ele><time>2015-04-28T09:02:18Z</time></trkpt><trkpt lat="34.9860539474" lon="32.8245829884"><ele>795.63</ele><time>2015-04-28T09:02:49Z</time></trkpt><trkpt lat="34.9860655144" lon="32.8245767858"><ele>795.63</ele><time>2015-04-28T09:03:22Z</time></trkpt><trkpt lat="34.9860660173" lon="32.8245747741"><ele>795.63</ele><time>2015-04-28T09:03:59Z</time></trkpt><trkpt lat="34.9860464875" lon="32.8245667275"><ele>795.15</ele><time>2015-04-28T09:04:35Z</time></trkpt><trkpt lat="34.9860442244" lon="32.8245848324"><ele>795.15</ele><time>2015-04-28T09:05:24Z</time></trkpt><trkpt lat="34.9860573839" lon="32.8245828208"><ele>795.15</ele><time>2015-04-28T09:06:02Z</time></trkpt><trkpt lat="34.9860567134" lon="32.8245653864"><ele>795.15</ele><time>2015-04-28T09:06:48Z</time></trkpt><trkpt lat="34.9860515166" lon="32.8245693259"><ele>795.15</ele><time>2015-04-28T09:07:32Z</time></trkpt><trkpt lat="34.9860471580" lon="32.8245804738"><ele>794.67</ele><time>2015-04-28T09:08:13Z</time></trkpt><trkpt lat="34.9860369321" lon="32.8245925438"><ele>794.67</ele><time>2015-04-28T09:08:55Z</time></trkpt><trkpt lat="34.9860227667" lon="32.8246103972"><ele>794.19</ele><time>2015-04-28T09:09:40Z</time></trkpt><trkpt lat="34.9860298075" lon="32.8246010933"><ele>794.19</ele><time>2015-04-28T09:10:30Z</time></trkpt><trkpt lat="34.9860177375" lon="32.8245947231"><ele>793.71</ele><time>2015-04-28T09:11:03Z</time></trkpt><trkpt lat="34.9860147201" lon="32.8245847486"><ele>793.22</ele><time>2015-04-28T09:11:44Z</time></trkpt><trkpt lat="34.9860108644" lon="32.8245814797"><ele>793.22</ele><time>2015-04-28T09:12:27Z</time></trkpt><trkpt lat="34.9860409554" lon="32.8245720919"><ele>792.74</ele><time>2015-04-28T09:13:17Z</time></trkpt><trkpt lat="34.9860455655" lon="32.8245837428"><ele>791.78</ele><time>2015-04-28T09:14:16Z</time></trkpt><trkpt lat="34.9860557076" lon="32.8245748580"><ele>791.78</ele><time>2015-04-28T09:15:10Z</time></trkpt><trkpt lat="34.9860429671" lon="32.8245720919"><ele>790.82</ele><time>2015-04-28T09:16:06Z</time></trkpt><trkpt lat="34.9860368483" lon="32.8245741036"><ele>790.34</ele><time>2015-04-28T09:16:57Z</time></trkpt><trkpt lat="34.9860433023" lon="32.8245731816"><ele>789.86</ele><time>2015-04-28T09:17:54Z</time></trkpt><trkpt lat="34.9860521872" lon="32.8245766181"><ele>789.38</ele><time>2015-04-28T09:18:43Z</time></trkpt><trkpt lat="34.9860433862" lon="32.8245627042"><ele>789.38</ele><time>2015-04-28T09:19:23Z</time></trkpt><trkpt lat="34.9860505108" lon="32.8245727625"><ele>788.90</ele><time>2015-04-28T09:20:10Z</time></trkpt><trkpt lat="34.9860775843" lon="32.8245799709"><ele>788.90</ele><time>2015-04-28T09:20:45Z</time></trkpt><trkpt lat="34.9860474095" lon="32.8245402407"><ele>788.90</ele><time>2015-04-28T09:21:05Z</time></trkpt><trkpt lat="34.9860709626" lon="32.8245230578"><ele>788.90</ele><time>2015-04-28T09:21:27Z</time></trkpt><trkpt lat="34.9860924203" lon="32.8244684916"><ele>788.90</ele><time>2015-04-28T09:21:57Z</time></trkpt><trkpt lat="34.9861008860" lon="32.8244508058"><ele>788.90</ele><time>2015-04-28T09:22:04Z</time></trkpt><trkpt lat="34.9860962760" lon="32.8244853392"><ele>788.42</ele><time>2015-04-28T09:22:14Z</time></trkpt><trkpt lat="34.9861265346" lon="32.8245712537"><ele>787.94</ele><time>2015-04-28T09:22:19Z</time></trkpt><trkpt lat="34.9863664247" lon="32.8248491138"><ele>786.02</ele><time>2015-04-28T09:22:32Z</time></trkpt><trkpt lat="34.9864730425" lon="32.8248158377"><ele>785.53</ele><time>2015-04-28T09:22:35Z</time></trkpt><trkpt lat="34.9865088332" lon="32.8247887641"><ele>785.05</ele><time>2015-04-28T09:22:36Z</time></trkpt><trkpt lat="34.9865433667" lon="32.8247548174"><ele>785.05</ele><time>2015-04-28T09:22:37Z</time></trkpt><trkpt lat="34.9866152834" lon="32.8246812243"><ele>785.05</ele><time>2015-04-28T09:22:39Z</time></trkpt><trkpt lat="34.9866583664" lon="32.8246543184"><ele>784.57</ele><time>2015-04-28T09:22:40Z</time></trkpt><trkpt lat="34.9867079873" lon="32.8246423323"><ele>784.57</ele><time>2015-04-28T09:22:41Z</time></trkpt><trkpt lat="34.9873046111" lon="32.8245478682"><ele>781.69</ele><time>2015-04-28T09:22:52Z</time></trkpt><trkpt lat="34.9875190202" lon="32.8244503867"><ele>780.73</ele><time>2015-04-28T09:22:57Z</time></trkpt><trkpt lat="34.9875595048" lon="32.8244396579"><ele>780.25</ele><time>2015-04-28T09:22:58Z</time></trkpt><trkpt lat="34.9876046833" lon="32.8244344611"><ele>780.25</ele><time>2015-04-28T09:22:59Z</time></trkpt><trkpt lat="34.9876532145" lon="32.8244423401"><ele>780.25</ele><time>2015-04-28T09:23:00Z</time></trkpt><trkpt lat="34.9877003208" lon="32.8244648036"><ele>779.77</ele><time>2015-04-28T09:23:01Z</time></trkpt><trkpt lat="34.9877454154" lon="32.8245052043"><ele>779.77</ele><time>2015-04-28T09:23:02Z</time></trkpt><trkpt lat="34.9877888337" lon="32.8245520592"><ele>779.29</ele><time>2015-04-28T09:23:03Z</time></trkpt><trkpt lat="34.9878315814" lon="32.8246064577"><ele>778.81</ele><time>2015-04-28T09:23:04Z</time></trkpt><trkpt lat="34.9879208487" lon="32.8247192781"><ele>778.32</ele><time>2015-04-28T09:23:06Z</time></trkpt><trkpt lat="34.9879741576" lon="32.8247756884"><ele>777.84</ele><time>2015-04-28T09:23:07Z</time></trkpt><trkpt lat="34.9883537740" lon="32.8251716495"><ele>775.44</ele><time>2015-04-28T09:23:15Z</time></trkpt><trkpt lat="34.9883732200" lon="32.8252214380"><ele>775.44</ele><time>2015-04-28T09:23:16Z</time></trkpt><trkpt lat="34.9883846194" lon="32.8252791893"><ele>774.96</ele><time>2015-04-28T09:23:17Z</time></trkpt><trkpt lat="34.9883931689" lon="32.8253370244"><ele>774.48</ele><time>2015-04-28T09:23:18Z</time></trkpt><trkpt lat="34.9883948453" lon="32.8253945243"><ele>774.48</ele><time>2015-04-28T09:23:19Z</time></trkpt><trkpt lat="34.9883930851" lon="32.8254569694"><ele>774.48</ele><time>2015-04-28T09:23:20Z</time></trkpt><trkpt lat="34.9884123635" lon="32.8259390127"><ele>772.56</ele><time>2015-04-28T09:23:30Z</time></trkpt><trkpt lat="34.9884185661" lon="32.8261187207"><ele>771.60</ele><time>2015-04-28T09:23:34Z</time></trkpt><trkpt lat="34.9884079210" lon="32.8262281045"><ele>771.11</ele><time>2015-04-28T09:23:36Z</time></trkpt><trkpt lat="34.9883958511" lon="32.8262902983"><ele>770.63</ele><time>2015-04-28T09:23:37Z</time></trkpt><trkpt lat="34.9883096013" lon="32.8266873490"><ele>768.71</ele><time>2015-04-28T09:23:44Z</time></trkpt><trkpt lat="34.9883045722" lon="32.8267341200"><ele>768.71</ele><time>2015-04-28T09:23:45Z</time></trkpt><trkpt lat="34.9883005489" lon="32.8267735150"><ele>768.23</ele><time>2015-04-28T09:23:46Z</time></trkpt><trkpt lat="34.9883550312" lon="32.8269424103"><ele>767.27</ele><time>2015-04-28T09:23:51Z</time></trkpt><trkpt lat="34.9883930851" lon="32.8269587550"><ele>766.79</ele><time>2015-04-28T09:23:52Z</time></trkpt><trkpt lat="34.9884360842" lon="32.8269652091"><ele>766.31</ele><time>2015-04-28T09:23:53Z</time></trkpt><trkpt lat="34.9884804245" lon="32.8269760218"><ele>766.31</ele><time>2015-04-28T09:23:54Z</time></trkpt><trkpt lat="34.9885242619" lon="32.8269901033"><ele>765.83</ele><time>2015-04-28T09:23:55Z</time></trkpt><trkpt lat="34.9885660037" lon="32.8270084597"><ele>765.83</ele><time>2015-04-28T09:23:56Z</time></trkpt><trkpt lat="34.9886015430" lon="32.8270315938"><ele>765.35</ele><time>2015-04-28T09:23:57Z</time></trkpt><trkpt lat="34.9886276107" lon="32.8270533867"><ele>764.87</ele><time>2015-04-28T09:23:58Z</time></trkpt><trkpt lat="34.9888515752" lon="32.8273198474"><ele>762.94</ele><time>2015-04-28T09:24:10Z</time></trkpt><trkpt lat="34.9889522418" lon="32.8274400439"><ele>761.98</ele><time>2015-04-28T09:24:13Z</time></trkpt><trkpt lat="34.9889916368" lon="32.8274677042"><ele>761.98</ele><time>2015-04-28T09:24:14Z</time></trkpt><trkpt lat="34.9890330434" lon="32.8274905030"><ele>761.02</ele><time>2015-04-28T09:24:15Z</time></trkpt><trkpt lat="34.9891249090" lon="32.8275245335"><ele>760.54</ele><time>2015-04-28T09:24:17Z</time></trkpt><trkpt lat="34.9892288446" lon="32.8275395371"><ele>759.58</ele><time>2015-04-28T09:24:19Z</time></trkpt><trkpt lat="34.9892741907" lon="32.8275376931"><ele>759.10</ele><time>2015-04-28T09:24:20Z</time></trkpt><trkpt lat="34.9893170223" lon="32.8275298979"><ele>759.10</ele><time>2015-04-28T09:24:21Z</time></trkpt><trkpt lat="34.9893547408" lon="32.8275169060"><ele>758.62</ele><time>2015-04-28T09:24:22Z</time></trkpt><trkpt lat="34.9893842451" lon="32.8275008965"><ele>758.14</ele><time>2015-04-28T09:24:23Z</time></trkpt><trkpt lat="34.9894124921" lon="32.8274815343"><ele>757.66</ele><time>2015-04-28T09:24:24Z</time></trkpt><trkpt lat="34.9895041902" lon="32.8273872379"><ele>756.69</ele><time>2015-04-28T09:24:27Z</time></trkpt><trkpt lat="34.9895870872" lon="32.8272977192"><ele>755.73</ele><time>2015-04-28T09:24:31Z</time></trkpt><trkpt lat="34.9896027613" lon="32.8272910975"><ele>755.73</ele><time>2015-04-28T09:24:32Z</time></trkpt><trkpt lat="34.9896222074" lon="32.8272925224"><ele>755.25</ele><time>2015-04-28T09:24:33Z</time></trkpt><trkpt lat="34.9896407314" lon="32.8272979707"><ele>755.25</ele><time>2015-04-28T09:24:34Z</time></trkpt><trkpt lat="34.9896533042" lon="32.8272952884"><ele>755.25</ele><time>2015-04-28T09:24:35Z</time></trkpt><trkpt lat="34.9896715768" lon="32.8272799496"><ele>755.25</ele><time>2015-04-28T09:24:47Z</time></trkpt><trkpt lat="34.9896694813" lon="32.8272827994"><ele>755.25</ele><time>2015-04-28T09:25:06Z</time></trkpt><trkpt lat="34.9896637816" lon="32.8273034189"><ele>755.25</ele><time>2015-04-28T09:25:33Z</time></trkpt><trkpt lat="34.9896684755" lon="32.8272995632"><ele>755.25</ele><time>2015-04-28T09:26:02Z</time></trkpt><trkpt lat="34.9896720797" lon="32.8272965457"><ele>755.25</ele><time>2015-04-28T09:26:34Z</time></trkpt><trkpt lat="34.9896765221" lon="32.8272898402"><ele>755.25</ele><time>2015-04-28T09:26:49Z</time></trkpt><trkpt lat="34.9896815512" lon="32.8272754233"><ele>755.25</ele><time>2015-04-28T09:26:50Z</time></trkpt><trkpt lat="34.9896882568" lon="32.8272563126"><ele>754.77</ele><time>2015-04-28T09:26:51Z</time></trkpt><trkpt lat="34.9896989018" lon="32.8272345196"><ele>755.25</ele><time>2015-04-28T09:26:52Z</time></trkpt><trkpt lat="34.9897108879" lon="32.8272064403"><ele>754.77</ele><time>2015-04-28T09:26:53Z</time></trkpt><trkpt lat="34.9897227902" lon="32.8271720745"><ele>754.77</ele><time>2015-04-28T09:26:54Z</time></trkpt><trkpt lat="34.9897372909" lon="32.8271318413"><ele>754.77</ele><time>2015-04-28T09:26:55Z</time></trkpt><trkpt lat="34.9897495285" lon="32.8270859923"><ele>754.77</ele><time>2015-04-28T09:26:56Z</time></trkpt><trkpt lat="34.9897558987" lon="32.8270392213"><ele>754.29</ele><time>2015-04-28T09:26:57Z</time></trkpt><trkpt lat="34.9897576589" lon="32.8269981500"><ele>754.29</ele><time>2015-04-28T09:26:58Z</time></trkpt><trkpt lat="34.9897599220" lon="32.8269606829"><ele>754.29</ele><time>2015-04-28T09:26:59Z</time></trkpt><trkpt lat="34.9897653703" lon="32.8269253112"><ele>753.81</ele><time>2015-04-28T09:27:00Z</time></trkpt><trkpt lat="34.9897721596" lon="32.8268910293"><ele>753.33</ele><time>2015-04-28T09:27:01Z</time></trkpt><trkpt lat="34.9898149073" lon="32.8267444298"><ele>752.85</ele><time>2015-04-28T09:27:10Z</time></trkpt><trkpt lat="34.9898343533" lon="32.8267145064"><ele>752.85</ele><time>2015-04-28T09:27:23Z</time></trkpt><trkpt lat="34.9898488540" lon="32.8267253190"><ele>752.85</ele><time>2015-04-28T09:27:49Z</time></trkpt><trkpt lat="34.9898643605" lon="32.8267053701"><ele>752.85</ele><time>2015-04-28T09:27:55Z</time></trkpt><trkpt lat="34.9898751732" lon="32.8266922105"><ele>752.85</ele><time>2015-04-28T09:27:56Z</time></trkpt><trkpt lat="34.9898877461" lon="32.8266773745"><ele>752.37</ele><time>2015-04-28T09:27:57Z</time></trkpt><trkpt lat="34.9901825376" lon="32.8264991753"><ele>751.41</ele><time>2015-04-28T09:28:10Z</time></trkpt><trkpt lat="34.9904642534" lon="32.8264580201"><ele>749.97</ele><time>2015-04-28T09:28:22Z</time></trkpt><trkpt lat="34.9904737249" lon="32.8264772985"><ele>749.97</ele><time>2015-04-28T09:28:23Z</time></trkpt><trkpt lat="34.9904798437" lon="32.8265035339"><ele>749.97</ele><time>2015-04-28T09:28:24Z</time></trkpt><trkpt lat="34.9904845376" lon="32.8265326191"><ele>749.97</ele><time>2015-04-28T09:28:25Z</time></trkpt><trkpt lat="34.9904883094" lon="32.8265630454"><ele>749.49</ele><time>2015-04-28T09:28:26Z</time></trkpt><trkpt lat="34.9904926680" lon="32.8269582521"><ele>747.56</ele><time>2015-04-28T09:28:36Z</time></trkpt><trkpt lat="34.9905113596" lon="32.8270521294"><ele>747.08</ele><time>2015-04-28T09:28:38Z</time></trkpt><trkpt lat="34.9905168917" lon="32.8271047678"><ele>747.08</ele><time>2015-04-28T09:28:39Z</time></trkpt><trkpt lat="34.9905153830" lon="32.8271588311"><ele>746.60</ele><time>2015-04-28T09:28:40Z</time></trkpt><trkpt lat="34.9905349128" lon="32.8275697120"><ele>743.72</ele><time>2015-04-28T09:28:49Z</time></trkpt><trkpt lat="34.9905559514" lon="32.8275891580"><ele>743.24</ele><time>2015-04-28T09:28:50Z</time></trkpt><trkpt lat="34.9909202289" lon="32.8278178163"><ele>739.87</ele><time>2015-04-28T09:29:02Z</time></trkpt><trkpt lat="34.9911117554" lon="32.8279722109"><ele>737.95</ele><time>2015-04-28T09:29:15Z</time></trkpt><trkpt lat="34.9911275972" lon="32.8279859573"><ele>737.95</ele><time>2015-04-28T09:29:26Z</time></trkpt><trkpt lat="34.9911719374" lon="32.8280251008"><ele>737.95</ele><time>2015-04-28T09:29:32Z</time></trkpt><trkpt lat="34.9911947362" lon="32.8280350752"><ele>737.95</ele><time>2015-04-28T09:29:33Z</time></trkpt><trkpt lat="34.9912210554" lon="32.8280449659"><ele>737.47</ele><time>2015-04-28T09:29:34Z</time></trkpt><trkpt lat="34.9912477937" lon="32.8280530125"><ele>737.47</ele><time>2015-04-28T09:29:35Z</time></trkpt><trkpt lat="34.9912730232" lon="32.8280618973"><ele>737.47</ele><time>2015-04-28T09:29:36Z</time></trkpt><trkpt lat="34.9913584348" lon="32.8281016275"><ele>736.51</ele><time>2015-04-28T09:29:40Z</time></trkpt><trkpt lat="34.9913754500" lon="32.8281115182"><ele>736.03</ele><time>2015-04-28T09:29:41Z</time></trkpt><trkpt lat="34.9913950637" lon="32.8281219117"><ele>736.51</ele><time>2015-04-28T09:29:42Z</time></trkpt><trkpt lat="34.9914148450" lon="32.8281353228"><ele>736.51</ele><time>2015-04-28T09:29:43Z</time></trkpt><trkpt lat="34.9914340395" lon="32.8281494044"><ele>736.03</ele><time>2015-04-28T09:29:44Z</time></trkpt><trkpt lat="34.9914529826" lon="32.8281597979"><ele>736.03</ele><time>2015-04-28T09:29:45Z</time></trkpt><trkpt lat="34.9914731830" lon="32.8281712811"><ele>736.03</ele><time>2015-04-28T09:29:46Z</time></trkpt><trkpt lat="34.9914941378" lon="32.8281872906"><ele>735.55</ele><time>2015-04-28T09:29:47Z</time></trkpt><trkpt lat="34.9915834889" lon="32.8282784857"><ele>735.07</ele><time>2015-04-28T09:29:52Z</time></trkpt><trkpt lat="34.9915770348" lon="32.8283475526"><ele>734.58</ele><time>2015-04-28T09:30:04Z</time></trkpt><trkpt lat="34.9915959779" lon="32.8283224069"><ele>734.58</ele><time>2015-04-28T09:30:24Z</time></trkpt><trkpt lat="34.9916161783" lon="32.8283191379"><ele>734.58</ele><time>2015-04-28T09:30:36Z</time></trkpt><trkpt lat="34.9916279130" lon="32.8283201437"><ele>734.58</ele><time>2015-04-28T09:30:37Z</time></trkpt><trkpt lat="34.9917050265" lon="32.8283316270"><ele>734.58</ele><time>2015-04-28T09:30:45Z</time></trkpt><trkpt lat="34.9919617642" lon="32.8284996841"><ele>733.14</ele><time>2015-04-28T09:30:59Z</time></trkpt><trkpt lat="34.9922177475" lon="32.8284786455"><ele>732.18</ele><time>2015-04-28T09:31:06Z</time></trkpt><trkpt lat="34.9924562965" lon="32.8283626400"><ele>730.26</ele><time>2015-04-28T09:31:17Z</time></trkpt><trkpt lat="34.9924852978" lon="32.8283427749"><ele>730.26</ele><time>2015-04-28T09:31:31Z</time></trkpt><trkpt lat="34.9925022293" lon="32.8283466306"><ele>729.78</ele><time>2015-04-28T09:31:39Z</time></trkpt><trkpt lat="34.9924739823" lon="32.8283982631"><ele>730.26</ele><time>2015-04-28T09:31:44Z</time></trkpt><trkpt lat="34.9924562965" lon="32.8284063935"><ele>730.74</ele><time>2015-04-28T09:31:45Z</time></trkpt><trkpt lat="34.9921386223" lon="32.8285268415"><ele>731.70</ele><time>2015-04-28T09:32:00Z</time></trkpt><trkpt lat="34.9918183498" lon="32.8284954932"><ele>733.14</ele><time>2015-04-28T09:32:16Z</time></trkpt><trkpt lat="34.9915971514" lon="32.8283166233"><ele>734.58</ele><time>2015-04-28T09:32:30Z</time></trkpt><trkpt lat="34.9915850814" lon="32.8283162042"><ele>734.58</ele><time>2015-04-28T09:32:31Z</time></trkpt><trkpt lat="34.9913768750" lon="32.8282336425"><ele>732.18</ele><time>2015-04-28T09:32:39Z</time></trkpt><trkpt lat="34.9913415033" lon="32.8282209858"><ele>731.70</ele><time>2015-04-28T09:32:41Z</time></trkpt><trkpt lat="34.9913090654" lon="32.8282360733"><ele>731.70</ele><time>2015-04-28T09:32:52Z</time></trkpt><trkpt lat="34.9913445208" lon="32.8282645717"><ele>731.22</ele><time>2015-04-28T09:33:01Z</time></trkpt><trkpt lat="34.9914751109" lon="32.8283732850"><ele>727.86</ele><time>2015-04-28T09:33:07Z</time></trkpt><trkpt lat="34.9915455189" lon="32.8284195531"><ele>727.37</ele><time>2015-04-28T09:33:11Z</time></trkpt><trkpt lat="34.9915475305" lon="32.8284084890"><ele>727.37</ele><time>2015-04-28T09:33:13Z</time></trkpt><trkpt lat="34.9915311858" lon="32.8283919767"><ele>727.37</ele><time>2015-04-28T09:33:15Z</time></trkpt><trkpt lat="34.9915188644" lon="32.8283884563"><ele>727.37</ele><time>2015-04-28T09:33:16Z</time></trkpt><trkpt lat="34.9913682416" lon="32.8283798229"><ele>724.01</ele><time>2015-04-28T09:33:27Z</time></trkpt><trkpt lat="34.9913456943" lon="32.8284046333"><ele>723.05</ele><time>2015-04-28T09:33:30Z</time></trkpt><trkpt lat="34.9913498852" lon="32.8284197208"><ele>723.05</ele><time>2015-04-28T09:33:31Z</time></trkpt><trkpt lat="34.9913536571" lon="32.8284348082"><ele>722.57</ele><time>2015-04-28T09:33:32Z</time></trkpt><trkpt lat="34.9913563393" lon="32.8284819983"><ele>721.61</ele><time>2015-04-28T09:33:35Z</time></trkpt><trkpt lat="34.9913418386" lon="32.8286254965"><ele>719.20</ele><time>2015-04-28T09:33:49Z</time></trkpt><trkpt lat="34.9913957343" lon="32.8287589364"><ele>715.36</ele><time>2015-04-28T09:33:59Z</time></trkpt><trkpt lat="34.9914060440" lon="32.8287758678"><ele>715.36</ele><time>2015-04-28T09:34:00Z</time></trkpt><trkpt lat="34.9914455228" lon="32.8288315237"><ele>713.92</ele><time>2015-04-28T09:34:04Z</time></trkpt><trkpt lat="34.9914802238" lon="32.8288946394"><ele>711.99</ele><time>2015-04-28T09:34:09Z</time></trkpt><trkpt lat="34.9915279169" lon="32.8290487826"><ele>708.63</ele><time>2015-04-28T09:34:22Z</time></trkpt><trkpt lat="34.9915439263" lon="32.8291087970"><ele>707.19</ele><time>2015-04-28T09:34:26Z</time></trkpt><trkpt lat="34.9915629532" lon="32.8291469347"><ele>705.75</ele><time>2015-04-28T09:34:29Z</time></trkpt><trkpt lat="34.9916312657" lon="32.8292424884"><ele>703.34</ele><time>2015-04-28T09:34:38Z</time></trkpt><trkpt lat="34.9916749354" lon="32.8293295763"><ele>700.46</ele><time>2015-04-28T09:34:53Z</time></trkpt><trkpt lat="34.9916914478" lon="32.8293310013"><ele>700.46</ele><time>2015-04-28T09:35:10Z</time></trkpt><trkpt lat="34.9917000812" lon="32.8293266427"><ele>700.46</ele><time>2015-04-28T09:35:17Z</time></trkpt><trkpt lat="34.9916682299" lon="32.8293343540"><ele>700.46</ele><time>2015-04-28T09:35:28Z</time></trkpt><trkpt lat="34.9916713312" lon="32.8293408919"><ele>700.46</ele><time>2015-04-28T09:35:52Z</time></trkpt><trkpt lat="34.9916944653" lon="32.8293397184"><ele>700.46</ele><time>2015-04-28T09:36:10Z</time></trkpt><trkpt lat="34.9917241372" lon="32.8293301631"><ele>699.98</ele><time>2015-04-28T09:36:15Z</time></trkpt><trkpt lat="34.9918188527" lon="32.8292927798"><ele>698.53</ele><time>2015-04-28T09:36:35Z</time></trkpt><trkpt lat="34.9918480217" lon="32.8293086216"><ele>698.53</ele><time>2015-04-28T09:36:49Z</time></trkpt><trkpt lat="34.9918532185" lon="32.8293425683"><ele>697.57</ele><time>2015-04-28T09:37:15Z</time></trkpt><trkpt lat="34.9918050226" lon="32.8293300793"><ele>697.57</ele><time>2015-04-28T09:38:01Z</time></trkpt><trkpt lat="34.9918066151" lon="32.8293011617"><ele>698.05</ele><time>2015-04-28T09:38:14Z</time></trkpt><trkpt lat="34.9918108061" lon="32.8292956296"><ele>698.05</ele><time>2015-04-28T09:38:16Z</time></trkpt><trkpt lat="34.9918377958" lon="32.8292750940"><ele>698.05</ele><time>2015-04-28T09:38:18Z</time></trkpt><trkpt lat="34.9918593373" lon="32.8292598389"><ele>697.57</ele><time>2015-04-28T09:38:19Z</time></trkpt><trkpt lat="34.9920310825" lon="32.8291250579"><ele>694.69</ele><time>2015-04-28T09:38:25Z</time></trkpt><trkpt lat="34.9921956193" lon="32.8290694859"><ele>691.33</ele><time>2015-04-28T09:38:31Z</time></trkpt><trkpt lat="34.9924264569" lon="32.8291512933"><ele>688.44</ele><time>2015-04-28T09:38:39Z</time></trkpt><trkpt lat="34.9924499262" lon="32.8291678894"><ele>687.96</ele><time>2015-04-28T09:38:40Z</time></trkpt><trkpt lat="34.9924649298" lon="32.8291953821"><ele>687.96</ele><time>2015-04-28T09:38:41Z</time></trkpt><trkpt lat="34.9924731441" lon="32.8292234614"><ele>687.48</ele><time>2015-04-28T09:38:42Z</time></trkpt><trkpt lat="34.9924735632" lon="32.8292553965"><ele>687.48</ele><time>2015-04-28T09:38:43Z</time></trkpt><trkpt lat="34.9924699590" lon="32.8292893432"><ele>687.00</ele><time>2015-04-28T09:38:44Z</time></trkpt><trkpt lat="34.9924656004" lon="32.8293206077"><ele>686.52</ele><time>2015-04-28T09:38:45Z</time></trkpt><trkpt lat="34.9924420472" lon="32.8294417262"><ele>686.04</ele><time>2015-04-28T09:38:55Z</time></trkpt><trkpt lat="34.9924112018" lon="32.8294568975"><ele>686.04</ele><time>2015-04-28T09:39:23Z</time></trkpt><trkpt lat="34.9924288876" lon="32.8294579871"><ele>686.04</ele><time>2015-04-28T09:39:47Z</time></trkpt><trkpt lat="34.9924151413" lon="32.8294844739"><ele>686.04</ele><time>2015-04-28T09:40:05Z</time></trkpt><trkpt lat="34.9924077652" lon="32.8295003157"><ele>686.04</ele><time>2015-04-28T09:40:06Z</time></trkpt><trkpt lat="34.9924026523" lon="32.8295190912"><ele>685.56</ele><time>2015-04-28T09:40:07Z</time></trkpt><trkpt lat="34.9923990481" lon="32.8295360226"><ele>685.56</ele><time>2015-04-28T09:40:08Z</time></trkpt><trkpt lat="34.9923951086" lon="32.8295553848"><ele>685.56</ele><time>2015-04-28T09:40:09Z</time></trkpt><trkpt lat="34.9923900794" lon="32.8295755852"><ele>685.56</ele><time>2015-04-28T09:40:10Z</time></trkpt><trkpt lat="34.9923838768" lon="32.8295947798"><ele>685.56</ele><time>2015-04-28T09:40:11Z</time></trkpt><trkpt lat="34.9923791829" lon="32.8296143934"><ele>685.08</ele><time>2015-04-28T09:40:12Z</time></trkpt><trkpt lat="34.9923318252" lon="32.8297904972"><ele>684.12</ele><time>2015-04-28T09:40:23Z</time></trkpt><trkpt lat="34.9923027400" lon="32.8298059199"><ele>684.12</ele><time>2015-04-28T09:40:42Z</time></trkpt><trkpt lat="34.9923242815" lon="32.8298350051"><ele>684.12</ele><time>2015-04-28T09:41:05Z</time></trkpt><trkpt lat="34.9923430569" lon="32.8298227675"><ele>683.63</ele><time>2015-04-28T09:41:34Z</time></trkpt><trkpt lat="34.9923613295" lon="32.8297754098"><ele>683.63</ele><time>2015-04-28T09:42:02Z</time></trkpt><trkpt lat="34.9923638441" lon="32.8297888208"><ele>683.15</ele><time>2015-04-28T09:42:33Z</time></trkpt><trkpt lat="34.9923557136" lon="32.8298339155"><ele>683.15</ele><time>2015-04-28T09:43:05Z</time></trkpt><trkpt lat="34.9921729881" lon="32.8299933393"><ele>681.23</ele><time>2015-04-28T09:43:16Z</time></trkpt><trkpt lat="34.9919025879" lon="32.8302136157"><ele>678.83</ele><time>2015-04-28T09:43:27Z</time></trkpt><trkpt lat="34.9918649532" lon="32.8302434552"><ele>678.83</ele><time>2015-04-28T09:43:30Z</time></trkpt><trkpt lat="34.9918503687" lon="32.8302511666"><ele>678.35</ele><time>2015-04-28T09:43:31Z</time></trkpt><trkpt lat="34.9918370415" lon="32.8302610572"><ele>678.35</ele><time>2015-04-28T09:43:32Z</time></trkpt><trkpt lat="34.9918224569" lon="32.8302674275"><ele>678.35</ele><time>2015-04-28T09:43:33Z</time></trkpt><trkpt lat="34.9918077048" lon="32.8302740492"><ele>678.35</ele><time>2015-04-28T09:43:34Z</time></trkpt><trkpt lat="34.9917900190" lon="32.8302831016"><ele>678.35</ele><time>2015-04-28T09:43:35Z</time></trkpt><trkpt lat="34.9917696510" lon="32.8302942496"><ele>678.35</ele><time>2015-04-28T09:43:36Z</time></trkpt><trkpt lat="34.9917501211" lon="32.8303064033"><ele>677.87</ele><time>2015-04-28T09:43:37Z</time></trkpt><trkpt lat="34.9916543998" lon="32.8303011227"><ele>677.39</ele><time>2015-04-28T09:43:44Z</time></trkpt><trkpt lat="34.9916388933" lon="32.8302991111"><ele>676.91</ele><time>2015-04-28T09:43:45Z</time></trkpt><trkpt lat="34.9914288428" lon="32.8302348219"><ele>674.02</ele><time>2015-04-28T09:43:56Z</time></trkpt><trkpt lat="34.9912804831" lon="32.8301841952"><ele>672.58</ele><time>2015-04-28T09:44:07Z</time></trkpt><trkpt lat="34.9911833368" lon="32.8301655035"><ele>672.10</ele><time>2015-04-28T09:44:20Z</time></trkpt><trkpt lat="34.9911558442" lon="32.8302206565"><ele>672.10</ele><time>2015-04-28T09:44:36Z</time></trkpt><trkpt lat="34.9911333807" lon="32.8301981091"><ele>672.10</ele><time>2015-04-28T09:44:57Z</time></trkpt><trkpt lat="34.9911144376" lon="32.8302059043"><ele>671.62</ele><time>2015-04-28T09:45:33Z</time></trkpt><trkpt lat="34.9911235739" lon="32.8302322235"><ele>671.62</ele><time>2015-04-28T09:46:01Z</time></trkpt><trkpt lat="34.9911270943" lon="32.8302157111"><ele>671.14</ele><time>2015-04-28T09:46:26Z</time></trkpt><trkpt lat="34.9911497254" lon="32.8301921580"><ele>671.14</ele><time>2015-04-28T09:46:59Z</time></trkpt><trkpt lat="34.9911269266" lon="32.8301936667"><ele>671.14</ele><time>2015-04-28T09:47:32Z</time></trkpt><trkpt lat="34.9911282677" lon="32.8301960137"><ele>671.14</ele><time>2015-04-28T09:47:56Z</time></trkpt><trkpt lat="34.9911176227" lon="32.8302057367"><ele>670.66</ele><time>2015-04-28T09:48:24Z</time></trkpt><trkpt lat="34.9911427684" lon="32.8302292060"><ele>670.66</ele><time>2015-04-28T09:48:48Z</time></trkpt><trkpt lat="34.9911602028" lon="32.8302044794"><ele>670.18</ele><time>2015-04-28T09:49:19Z</time></trkpt><trkpt lat="34.9911823310" lon="32.8302039765"><ele>670.18</ele><time>2015-04-28T09:49:46Z</time></trkpt><trkpt lat="34.9911535811" lon="32.8302447964"><ele>670.18</ele><time>2015-04-28T09:50:13Z</time></trkpt><trkpt lat="34.9911555927" lon="32.8302379232"><ele>669.70</ele><time>2015-04-28T09:50:39Z</time></trkpt><trkpt lat="34.9911385775" lon="32.8302556928"><ele>669.22</ele><time>2015-04-28T09:51:12Z</time></trkpt><trkpt lat="34.9911737815" lon="32.8302414436"><ele>669.22</ele><time>2015-04-28T09:51:42Z</time></trkpt><trkpt lat="34.9911619630" lon="32.8302484844"><ele>669.22</ele><time>2015-04-28T09:52:14Z</time></trkpt><trkpt lat="34.9911735300" lon="32.8302043956"><ele>668.73</ele><time>2015-04-28T09:52:44Z</time></trkpt><trkpt lat="34.9911535811" lon="32.8302256856"><ele>668.73</ele><time>2015-04-28T09:53:19Z</time></trkpt><trkpt lat="34.9911572691" lon="32.8302219976"><ele>668.73</ele><time>2015-04-28T09:53:44Z</time></trkpt><trkpt lat="34.9911414273" lon="32.8302292898"><ele>668.25</ele><time>2015-04-28T09:54:21Z</time></trkpt><trkpt lat="34.9911489710" lon="32.8302482329"><ele>668.73</ele><time>2015-04-28T09:54:43Z</time></trkpt><trkpt lat="34.9911793135" lon="32.8302418627"><ele>668.25</ele><time>2015-04-28T09:55:04Z</time></trkpt><trkpt lat="34.9911759607" lon="32.8302318044"><ele>668.25</ele><time>2015-04-28T09:55:37Z</time></trkpt><trkpt lat="34.9911391642" lon="32.8302084189"><ele>668.25</ele><time>2015-04-28T09:56:09Z</time></trkpt><trkpt lat="34.9911401700" lon="32.8301920742"><ele>668.25</ele><time>2015-04-28T09:56:36Z</time></trkpt><trkpt lat="34.9911525752" lon="32.8301774897"><ele>667.77</ele><time>2015-04-28T09:56:57Z</time></trkpt><trkpt lat="34.9911680818" lon="32.8301744722"><ele>667.77</ele><time>2015-04-28T09:57:31Z</time></trkpt><trkpt lat="34.9911571015" lon="32.8301849496"><ele>667.77</ele><time>2015-04-28T09:58:04Z</time></trkpt><trkpt lat="34.9911744520" lon="32.8301558644"><ele>668.25</ele><time>2015-04-28T09:58:16Z</time></trkpt><trkpt lat="34.9911879469" lon="32.8301769868"><ele>667.77</ele><time>2015-04-28T09:58:26Z</time></trkpt><trkpt lat="34.9911977537" lon="32.8301867098"><ele>667.77</ele><time>2015-04-28T09:58:27Z</time></trkpt><trkpt lat="34.9912099075" lon="32.8301935829"><ele>668.25</ele><time>2015-04-28T09:58:28Z</time></trkpt><trkpt lat="34.9913223926" lon="32.8302266076"><ele>668.73</ele><time>2015-04-28T09:58:35Z</time></trkpt><trkpt lat="34.9913333729" lon="32.8302365821"><ele>668.73</ele><time>2015-04-28T09:58:36Z</time></trkpt><trkpt lat="34.9913453590" lon="32.8302451316"><ele>669.22</ele><time>2015-04-28T09:58:37Z</time></trkpt><trkpt lat="34.9915110692" lon="32.8303044755"><ele>671.14</ele><time>2015-04-28T09:58:51Z</time></trkpt><trkpt lat="34.9915972352" lon="32.8303136118"><ele>673.06</ele><time>2015-04-28T09:59:01Z</time></trkpt><trkpt lat="34.9916092213" lon="32.8303100914"><ele>673.06</ele><time>2015-04-28T09:59:02Z</time></trkpt><trkpt lat="34.9916222133" lon="32.8303121030"><ele>673.06</ele><time>2015-04-28T09:59:03Z</time></trkpt><trkpt lat="34.9916731752" lon="32.8303240892"><ele>673.06</ele><time>2015-04-28T09:59:09Z</time></trkpt><trkpt lat="34.9916823115" lon="32.8303189762"><ele>673.06</ele><time>2015-04-28T09:59:10Z</time></trkpt><trkpt lat="34.9916921183" lon="32.8303144500"><ele>673.54</ele><time>2015-04-28T09:59:11Z</time></trkpt><trkpt lat="34.9917015061" lon="32.8303094208"><ele>673.06</ele><time>2015-04-28T09:59:12Z</time></trkpt><trkpt lat="34.9917104747" lon="32.8303027991"><ele>673.54</ele><time>2015-04-28T09:59:13Z</time></trkpt><trkpt lat="34.9917208683" lon="32.8302963451"><ele>673.54</ele><time>2015-04-28T09:59:14Z</time></trkpt><trkpt lat="34.9917321000" lon="32.8302909806"><ele>673.54</ele><time>2015-04-28T09:59:15Z</time></trkpt><trkpt lat="34.9917454273" lon="32.8302846942"><ele>673.54</ele><time>2015-04-28T09:59:16Z</time></trkpt><trkpt lat="34.9918333534" lon="32.8302360792"><ele>674.02</ele><time>2015-04-28T09:59:23Z</time></trkpt><trkpt lat="34.9919843115" lon="32.8300948441"><ele>675.46</ele><time>2015-04-28T09:59:39Z</time></trkpt><trkpt lat="34.9921231158" lon="32.8300071694"><ele>676.42</ele><time>2015-04-28T09:59:52Z</time></trkpt><trkpt lat="34.9921318330" lon="32.8299991228"><ele>676.91</ele><time>2015-04-28T09:59:53Z</time></trkpt><trkpt lat="34.9921432324" lon="32.8299954347"><ele>676.91</ele><time>2015-04-28T09:59:54Z</time></trkpt><trkpt lat="34.9922169931" lon="32.8299816046"><ele>677.39</ele><time>2015-04-28T10:00:00Z</time></trkpt><trkpt lat="34.9922304880" lon="32.8299809340"><ele>677.87</ele><time>2015-04-28T10:00:01Z</time></trkpt><trkpt lat="34.9922426417" lon="32.8299822751"><ele>677.87</ele><time>2015-04-28T10:00:02Z</time></trkpt><trkpt lat="34.9923173245" lon="32.8300039843"><ele>678.35</ele><time>2015-04-28T10:00:08Z</time></trkpt><trkpt lat="34.9923486728" lon="32.8300216701"><ele>678.35</ele><time>2015-04-28T10:00:11Z</time></trkpt><trkpt lat="34.9923594855" lon="32.8300303873"><ele>678.35</ele><time>2015-04-28T10:00:12Z</time></trkpt><trkpt lat="34.9923705496" lon="32.8300379310"><ele>678.35</ele><time>2015-04-28T10:00:13Z</time></trkpt><trkpt lat="34.9925361760" lon="32.8301536851"><ele>679.31</ele><time>2015-04-28T10:00:28Z</time></trkpt><trkpt lat="34.9927104358" lon="32.8302730434"><ele>679.31</ele><time>2015-04-28T10:00:42Z</time></trkpt><trkpt lat="34.9929517508" lon="32.8304309584"><ele>679.31</ele><time>2015-04-28T10:00:56Z</time></trkpt><trkpt lat="34.9930178840" lon="32.8304772265"><ele>677.87</ele><time>2015-04-28T10:01:07Z</time></trkpt><trkpt lat="34.9930527527" lon="32.8304542601"><ele>677.87</ele><time>2015-04-28T10:01:14Z</time></trkpt><trkpt lat="34.9930434488" lon="32.8304468840"><ele>678.35</ele><time>2015-04-28T10:01:15Z</time></trkpt><trkpt lat="34.9930038862" lon="32.8304343950"><ele>678.35</ele><time>2015-04-28T10:01:18Z</time></trkpt><trkpt lat="34.9928160477" lon="32.8303272743"><ele>679.79</ele><time>2015-04-28T10:01:30Z</time></trkpt><trkpt lat="34.9927713722" lon="32.8303106781"><ele>679.79</ele><time>2015-04-28T10:01:34Z</time></trkpt><trkpt lat="34.9927575421" lon="32.8303204011"><ele>679.79</ele><time>2015-04-28T10:01:37Z</time></trkpt><trkpt lat="34.9928612262" lon="32.8305192199"><ele>682.19</ele><time>2015-04-28T10:01:50Z</time></trkpt><trkpt lat="34.9928383436" lon="32.8306236584"><ele>683.15</ele><time>2015-04-28T10:01:59Z</time></trkpt><trkpt lat="34.9928250164" lon="32.8306527436"><ele>683.63</ele><time>2015-04-28T10:02:02Z</time></trkpt><trkpt lat="34.9928172212" lon="32.8307104111"><ele>684.60</ele><time>2015-04-28T10:02:07Z</time></trkpt><trkpt lat="34.9927541893" lon="32.8307779692"><ele>686.04</ele><time>2015-04-28T10:02:16Z</time></trkpt><trkpt lat="34.9927345756" lon="32.8307845909"><ele>686.04</ele><time>2015-04-28T10:02:18Z</time></trkpt><trkpt lat="34.9926372617" lon="32.8309974074"><ele>688.44</ele><time>2015-04-28T10:02:34Z</time></trkpt><trkpt lat="34.9925457314" lon="32.8311933763"><ele>689.88</ele><time>2015-04-28T10:02:48Z</time></trkpt><trkpt lat="34.9925438035" lon="32.8312161751"><ele>690.36</ele><time>2015-04-28T10:02:50Z</time></trkpt><trkpt lat="34.9925695360" lon="32.8311838210"><ele>689.88</ele><time>2015-04-28T10:02:56Z</time></trkpt><trkpt lat="34.9924913328" lon="32.8314159997"><ele>692.29</ele><time>2015-04-28T10:03:12Z</time></trkpt><trkpt lat="34.9924831185" lon="32.8316562250"><ele>694.21</ele><time>2015-04-28T10:03:27Z</time></trkpt><trkpt lat="34.9924240261" lon="32.8318291437"><ele>696.13</ele><time>2015-04-28T10:03:39Z</time></trkpt><trkpt lat="34.9924021494" lon="32.8318835422"><ele>696.61</ele><time>2015-04-28T10:03:43Z</time></trkpt><trkpt lat="34.9923619162" lon="32.8320345841"><ele>698.05</ele><time>2015-04-28T10:03:53Z</time></trkpt><trkpt lat="34.9923574738" lon="32.8320662677"><ele>698.53</ele><time>2015-04-28T10:03:55Z</time></trkpt><trkpt lat="34.9923847150" lon="32.8321433812"><ele>699.02</ele><time>2015-04-28T10:04:00Z</time></trkpt><trkpt lat="34.9924295582" lon="32.8322495800"><ele>699.98</ele><time>2015-04-28T10:04:07Z</time></trkpt><trkpt lat="34.9924388621" lon="32.8325400967"><ele>701.42</ele><time>2015-04-28T10:04:22Z</time></trkpt><trkpt lat="34.9925308116" lon="32.8327679168"><ele>702.86</ele><time>2015-04-28T10:04:36Z</time></trkpt><trkpt lat="34.9926168937" lon="32.8329258319"><ele>703.34</ele><time>2015-04-28T10:04:46Z</time></trkpt><trkpt lat="34.9926303048" lon="32.8329523187"><ele>703.34</ele><time>2015-04-28T10:04:48Z</time></trkpt><trkpt lat="34.9926583003" lon="32.8330001794"><ele>703.82</ele><time>2015-04-28T10:04:53Z</time></trkpt><trkpt lat="34.9926541094" lon="32.8330140095"><ele>703.82</ele><time>2015-04-28T10:04:54Z</time></trkpt><trkpt lat="34.9926519301" lon="32.8330255765"><ele>703.82</ele><time>2015-04-28T10:04:55Z</time></trkpt><trkpt lat="34.9926538579" lon="32.8330400772"><ele>704.30</ele><time>2015-04-28T10:04:56Z</time></trkpt><trkpt lat="34.9926598929" lon="32.8330520634"><ele>704.30</ele><time>2015-04-28T10:04:57Z</time></trkpt><trkpt lat="34.9926894810" lon="32.8330970742"><ele>704.78</ele><time>2015-04-28T10:05:03Z</time></trkpt><trkpt lat="34.9926914088" lon="32.8331110720"><ele>705.26</ele><time>2015-04-28T10:05:04Z</time></trkpt><trkpt lat="34.9926988687" lon="32.8331561666"><ele>704.78</ele><time>2015-04-28T10:05:08Z</time></trkpt><trkpt lat="34.9926956836" lon="32.8331658058"><ele>704.30</ele><time>2015-04-28T10:05:09Z</time></trkpt><trkpt lat="34.9927183148" lon="32.8332203720"><ele>703.82</ele><time>2015-04-28T10:05:21Z</time></trkpt><trkpt lat="34.9927116092" lon="32.8332098108"><ele>703.82</ele><time>2015-04-28T10:05:32Z</time></trkpt><trkpt lat="34.9926968571" lon="32.8331240639"><ele>703.82</ele><time>2015-04-28T10:05:39Z</time></trkpt><trkpt lat="34.9926857930" lon="32.8331036959"><ele>703.82</ele><time>2015-04-28T10:05:40Z</time></trkpt><trkpt lat="34.9926741421" lon="32.8330825735"><ele>703.82</ele><time>2015-04-28T10:05:41Z</time></trkpt><trkpt lat="34.9926608987" lon="32.8330621216"><ele>704.30</ele><time>2015-04-28T10:05:42Z</time></trkpt><trkpt lat="34.9926481582" lon="32.8330405802"><ele>703.82</ele><time>2015-04-28T10:05:43Z</time></trkpt><trkpt lat="34.9924832024" lon="32.8327449504"><ele>702.86</ele><time>2015-04-28T10:05:58Z</time></trkpt><trkpt lat="34.9924069270" lon="32.8326142766"><ele>701.90</ele><time>2015-04-28T10:06:09Z</time></trkpt><trkpt lat="34.9924477469" lon="32.8326307889"><ele>701.90</ele><time>2015-04-28T10:06:43Z</time></trkpt><trkpt lat="34.9924166501" lon="32.8324550204"><ele>700.94</ele><time>2015-04-28T10:06:54Z</time></trkpt><trkpt lat="34.9924215116" lon="32.8323986940"><ele>700.94</ele><time>2015-04-28T10:06:55Z</time></trkpt><trkpt lat="34.9924174044" lon="32.8323336504"><ele>700.46</ele><time>2015-04-28T10:06:56Z</time></trkpt><trkpt lat="34.9924065080" lon="32.8322675172"><ele>699.98</ele><time>2015-04-28T10:06:57Z</time></trkpt><trkpt lat="34.9923906662" lon="32.8322015516"><ele>699.98</ele><time>2015-04-28T10:06:58Z</time></trkpt><trkpt lat="34.9923808593" lon="32.8321334906"><ele>699.02</ele><time>2015-04-28T10:06:59Z</time></trkpt><trkpt lat="34.9923833739" lon="32.8320605680"><ele>698.53</ele><time>2015-04-28T10:07:00Z</time></trkpt><trkpt lat="34.9923985451" lon="32.8319822811"><ele>697.57</ele><time>2015-04-28T10:07:01Z</time></trkpt><trkpt lat="34.9924266245" lon="32.8319048323"><ele>697.09</ele><time>2015-04-28T10:07:02Z</time></trkpt><trkpt lat="34.9924589787" lon="32.8318312392"><ele>696.61</ele><time>2015-04-28T10:07:03Z</time></trkpt><trkpt lat="34.9924842920" lon="32.8317561373"><ele>695.65</ele><time>2015-04-28T10:07:04Z</time></trkpt><trkpt lat="34.9924969487" lon="32.8316725697"><ele>695.17</ele><time>2015-04-28T10:07:05Z</time></trkpt><trkpt lat="34.9924992956" lon="32.8315804526"><ele>694.21</ele><time>2015-04-28T10:07:06Z</time></trkpt><trkpt lat="34.9925037380" lon="32.8314876650"><ele>693.25</ele><time>2015-04-28T10:07:07Z</time></trkpt><trkpt lat="34.9925163947" lon="32.8313933685"><ele>692.77</ele><time>2015-04-28T10:07:08Z</time></trkpt><trkpt lat="34.9925396964" lon="32.8313007485"><ele>691.81</ele><time>2015-04-28T10:07:09Z</time></trkpt><trkpt lat="34.9925684463" lon="32.8312164266"><ele>690.84</ele><time>2015-04-28T10:07:10Z</time></trkpt><trkpt lat="34.9925995432" lon="32.8311429173"><ele>689.88</ele><time>2015-04-28T10:07:11Z</time></trkpt><trkpt lat="34.9926286284" lon="32.8310774546"><ele>688.92</ele><time>2015-04-28T10:07:12Z</time></trkpt><trkpt lat="34.9926717114" lon="32.8309696633"><ele>687.96</ele><time>2015-04-28T10:07:14Z</time></trkpt><trkpt lat="34.9926997069" lon="32.8308923822"><ele>686.52</ele><time>2015-04-28T10:07:16Z</time></trkpt><trkpt lat="34.9927241821" lon="32.8308755346"><ele>686.04</ele><time>2015-04-28T10:07:17Z</time></trkpt><trkpt lat="34.9927501660" lon="32.8308801446"><ele>686.04</ele><time>2015-04-28T10:07:18Z</time></trkpt><trkpt lat="34.9927659240" lon="32.8308958188"><ele>685.56</ele><time>2015-04-28T10:07:19Z</time></trkpt><trkpt lat="34.9927677680" lon="32.8309173603"><ele>686.04</ele><time>2015-04-28T10:07:20Z</time></trkpt><trkpt lat="34.9927594699" lon="32.8309383150"><ele>685.08</ele><time>2015-04-28T10:07:21Z</time></trkpt><trkpt lat="34.9927505851" lon="32.8309601918"><ele>685.08</ele><time>2015-04-28T10:07:22Z</time></trkpt><trkpt lat="34.9927429575" lon="32.8309855890"><ele>685.56</ele><time>2015-04-28T10:07:23Z</time></trkpt><trkpt lat="34.9927344080" lon="32.8310666420"><ele>685.08</ele><time>2015-04-28T10:07:27Z</time></trkpt><trkpt lat="34.9927280378" lon="32.8310834058"><ele>685.56</ele><time>2015-04-28T10:07:28Z</time></trkpt><trkpt lat="34.9927090108" lon="32.8311180230"><ele>684.60</ele><time>2015-04-28T10:07:36Z</time></trkpt><trkpt lat="34.9926965218" lon="32.8311248962"><ele>684.60</ele><time>2015-04-28T10:07:37Z</time></trkpt><trkpt lat="34.9926825240" lon="32.8311349545"><ele>684.60</ele><time>2015-04-28T10:07:38Z</time></trkpt><trkpt lat="34.9926710408" lon="32.8311528079"><ele>684.60</ele><time>2015-04-28T10:07:39Z</time></trkpt><trkpt lat="34.9926642515" lon="32.8311756067"><ele>684.60</ele><time>2015-04-28T10:07:40Z</time></trkpt><trkpt lat="34.9926592223" lon="32.8311978187"><ele>684.60</ele><time>2015-04-28T10:07:41Z</time></trkpt><trkpt lat="34.9926233478" lon="32.8314155806"><ele>683.63</ele><time>2015-04-28T10:07:46Z</time></trkpt><trkpt lat="34.9926173128" lon="32.8315662872"><ele>682.67</ele><time>2015-04-28T10:07:48Z</time></trkpt><trkpt lat="34.9926161394" lon="32.8316380363"><ele>682.67</ele><time>2015-04-28T10:07:49Z</time></trkpt><trkpt lat="34.9926156364" lon="32.8317016549"><ele>683.15</ele><time>2015-04-28T10:07:50Z</time></trkpt><trkpt lat="34.9926157203" lon="32.8318142239"><ele>683.15</ele><time>2015-04-28T10:07:52Z</time></trkpt><trkpt lat="34.9926145468" lon="32.8322169743"><ele>684.60</ele><time>2015-04-28T10:08:03Z</time></trkpt><trkpt lat="34.9927574582" lon="32.8325925674"><ele>684.12</ele><time>2015-04-28T10:08:17Z</time></trkpt><trkpt lat="34.9930390902" lon="32.8329705913"><ele>684.12</ele><time>2015-04-28T10:08:29Z</time></trkpt><trkpt lat="34.9930757191" lon="32.8330023587"><ele>683.63</ele><time>2015-04-28T10:08:30Z</time></trkpt><trkpt lat="34.9931111746" lon="32.8330368083"><ele>683.63</ele><time>2015-04-28T10:08:31Z</time></trkpt><trkpt lat="34.9931496475" lon="32.8330767062"><ele>683.63</ele><time>2015-04-28T10:08:32Z</time></trkpt><trkpt lat="34.9931955803" lon="32.8331130836"><ele>683.63</ele><time>2015-04-28T10:08:33Z</time></trkpt><trkpt lat="34.9932488054" lon="32.8331417497"><ele>683.15</ele><time>2015-04-28T10:08:34Z</time></trkpt><trkpt lat="34.9933082331" lon="32.8331604414"><ele>682.67</ele><time>2015-04-28T10:08:35Z</time></trkpt><trkpt lat="34.9933711812" lon="32.8331615310"><ele>682.67</ele><time>2015-04-28T10:08:36Z</time></trkpt><trkpt lat="34.9934308603" lon="32.8331414983"><ele>682.67</ele><time>2015-04-28T10:08:37Z</time></trkpt><trkpt lat="34.9934762064" lon="32.8331002593"><ele>683.63</ele><time>2015-04-28T10:08:38Z</time></trkpt><trkpt lat="34.9934974127" lon="32.8330446873"><ele>684.12</ele><time>2015-04-28T10:08:39Z</time></trkpt><trkpt lat="34.9935000110" lon="32.8329868522"><ele>684.12</ele><time>2015-04-28T10:08:40Z</time></trkpt><trkpt lat="34.9934907071" lon="32.8329345491"><ele>685.08</ele><time>2015-04-28T10:08:41Z</time></trkpt><trkpt lat="34.9934792239" lon="32.8328991774"><ele>685.08</ele><time>2015-04-28T10:08:42Z</time></trkpt><trkpt lat="34.9932633061" lon="32.8325685114"><ele>686.52</ele><time>2015-04-28T10:08:53Z</time></trkpt><trkpt lat="34.9932376575" lon="32.8321003821"><ele>685.08</ele><time>2015-04-28T10:09:05Z</time></trkpt><trkpt lat="34.9932652339" lon="32.8317249566"><ele>684.60</ele><time>2015-04-28T10:09:14Z</time></trkpt><trkpt lat="34.9932840094" lon="32.8316676244"><ele>684.60</ele><time>2015-04-28T10:09:18Z</time></trkpt><trkpt lat="34.9934683274" lon="32.8314299136"><ele>683.63</ele><time>2015-04-28T10:09:34Z</time></trkpt><trkpt lat="34.9935394060" lon="32.8313892614"><ele>684.12</ele><time>2015-04-28T10:09:38Z</time></trkpt><trkpt lat="34.9935599416" lon="32.8313896805"><ele>683.63</ele><time>2015-04-28T10:09:39Z</time></trkpt><trkpt lat="34.9935826566" lon="32.8313896805"><ele>683.63</ele><time>2015-04-28T10:09:40Z</time></trkpt><trkpt lat="34.9936085567" lon="32.8313901834"><ele>683.63</ele><time>2015-04-28T10:09:41Z</time></trkpt><trkpt lat="34.9936367199" lon="32.8313909378"><ele>683.63</ele><time>2015-04-28T10:09:42Z</time></trkpt><trkpt lat="34.9939538073" lon="32.8312548995"><ele>682.67</ele><time>2015-04-28T10:09:53Z</time></trkpt><trkpt lat="34.9940556474" lon="32.8310751915"><ele>680.75</ele><time>2015-04-28T10:09:57Z</time></trkpt><trkpt lat="34.9940877501" lon="32.8310424183"><ele>680.27</ele><time>2015-04-28T10:09:58Z</time></trkpt><trkpt lat="34.9941247143" lon="32.8310274146"><ele>679.79</ele><time>2015-04-28T10:09:59Z</time></trkpt><trkpt lat="34.9941589125" lon="32.8310357127"><ele>679.31</ele><time>2015-04-28T10:10:00Z</time></trkpt><trkpt lat="34.9941871595" lon="32.8310536500"><ele>679.31</ele><time>2015-04-28T10:10:01Z</time></trkpt><trkpt lat="34.9942065217" lon="32.8310654685"><ele>678.83</ele><time>2015-04-28T10:10:02Z</time></trkpt><trkpt lat="34.9943715613" lon="32.8311773669"><ele>676.91</ele><time>2015-04-28T10:10:10Z</time></trkpt><trkpt lat="34.9944133870" lon="32.8311830666"><ele>676.42</ele><time>2015-04-28T10:10:11Z</time></trkpt><trkpt lat="34.9946371000" lon="32.8311668895"><ele>673.54</ele><time>2015-04-28T10:10:17Z</time></trkpt><trkpt lat="34.9947013892" lon="32.8311121557"><ele>672.10</ele><time>2015-04-28T10:10:19Z</time></trkpt><trkpt lat="34.9947282113" lon="32.8310653847"><ele>671.62</ele><time>2015-04-28T10:10:20Z</time></trkpt><trkpt lat="34.9947473221" lon="32.8310106508"><ele>670.66</ele><time>2015-04-28T10:10:21Z</time></trkpt><trkpt lat="34.9947574642" lon="32.8309499659"><ele>670.18</ele><time>2015-04-28T10:10:22Z</time></trkpt><trkpt lat="34.9947614875" lon="32.8308834136"><ele>669.70</ele><time>2015-04-28T10:10:23Z</time></trkpt><trkpt lat="34.9947612360" lon="32.8308158554"><ele>668.73</ele><time>2015-04-28T10:10:24Z</time></trkpt><trkpt lat="34.9947598111" lon="32.8307488002"><ele>668.25</ele><time>2015-04-28T10:10:25Z</time></trkpt><trkpt lat="34.9947622418" lon="32.8306199703"><ele>666.81</ele><time>2015-04-28T10:10:27Z</time></trkpt><trkpt lat="34.9947783351" lon="32.8305605426"><ele>666.33</ele><time>2015-04-28T10:10:28Z</time></trkpt><trkpt lat="34.9948091805" lon="32.8305039648"><ele>665.37</ele><time>2015-04-28T10:10:29Z</time></trkpt><trkpt lat="34.9948500004" lon="32.8304496501"><ele>665.37</ele><time>2015-04-28T10:10:30Z</time></trkpt><trkpt lat="34.9948971905" lon="32.8303956706"><ele>664.89</ele><time>2015-04-28T10:10:31Z</time></trkpt><trkpt lat="34.9951744638" lon="32.8301019687"><ele>662.49</ele><time>2015-04-28T10:10:36Z</time></trkpt><trkpt lat="34.9953586981" lon="32.8299179021"><ele>660.56</ele><time>2015-04-28T10:10:39Z</time></trkpt><trkpt lat="34.9954281002" lon="32.8298752382"><ele>660.56</ele><time>2015-04-28T10:10:40Z</time></trkpt><trkpt lat="34.9955026153" lon="32.8298485000"><ele>660.56</ele><time>2015-04-28T10:10:41Z</time></trkpt><trkpt lat="34.9956539925" lon="32.8297901619"><ele>659.12</ele><time>2015-04-28T10:10:43Z</time></trkpt><trkpt lat="34.9957212992" lon="32.8297364339"><ele>658.64</ele><time>2015-04-28T10:10:44Z</time></trkpt><trkpt lat="34.9958482012" lon="32.8296164051"><ele>657.68</ele><time>2015-04-28T10:10:46Z</time></trkpt><trkpt lat="34.9959164299" lon="32.8295729868"><ele>657.68</ele><time>2015-04-28T10:10:47Z</time></trkpt><trkpt lat="34.9959877599" lon="32.8295477573"><ele>657.68</ele><time>2015-04-28T10:10:48Z</time></trkpt><trkpt lat="34.9960578326" lon="32.8295389563"><ele>657.20</ele><time>2015-04-28T10:10:49Z</time></trkpt><trkpt lat="34.9961279891" lon="32.8295374475"><ele>657.20</ele><time>2015-04-28T10:10:50Z</time></trkpt><trkpt lat="34.9962004926" lon="32.8295303229"><ele>657.20</ele><time>2015-04-28T10:10:51Z</time></trkpt><trkpt lat="34.9962749239" lon="32.8295105416"><ele>656.24</ele><time>2015-04-28T10:10:52Z</time></trkpt><trkpt lat="34.9963506125" lon="32.8294749185"><ele>655.76</ele><time>2015-04-28T10:10:53Z</time></trkpt><trkpt lat="34.9964268878" lon="32.8294263035"><ele>655.28</ele><time>2015-04-28T10:10:54Z</time></trkpt><trkpt lat="34.9965033308" lon="32.8293740004"><ele>654.80</ele><time>2015-04-28T10:10:55Z</time></trkpt><trkpt lat="34.9969110265" lon="32.8291415703"><ele>651.43</ele><time>2015-04-28T10:11:00Z</time></trkpt><trkpt lat="34.9969862122" lon="32.8291226272"><ele>651.43</ele><time>2015-04-28T10:11:01Z</time></trkpt><trkpt lat="34.9970571231" lon="32.8291220404"><ele>650.95</ele><time>2015-04-28T10:11:02Z</time></trkpt><trkpt lat="34.9971254356" lon="32.8291360382"><ele>650.95</ele><time>2015-04-28T10:11:03Z</time></trkpt><trkpt lat="34.9976595305" lon="32.8292715736"><ele>652.39</ele><time>2015-04-28T10:11:14Z</time></trkpt><trkpt lat="34.9979268294" lon="32.8292944562"><ele>651.91</ele><time>2015-04-28T10:11:25Z</time></trkpt><trkpt lat="34.9979419168" lon="32.8293190151"><ele>651.91</ele><time>2015-04-28T10:11:26Z</time></trkpt><trkpt lat="34.9979991652" lon="32.8294535447"><ele>651.91</ele><time>2015-04-28T10:11:37Z</time></trkpt><trkpt lat="34.9980222154" lon="32.8294387087"><ele>651.43</ele><time>2015-04-28T10:12:04Z</time></trkpt><trkpt lat="34.9980181921" lon="32.8294366971"><ele>651.43</ele><time>2015-04-28T10:12:34Z</time></trkpt><trkpt lat="34.9980104808" lon="32.8294435702"><ele>650.95</ele><time>2015-04-28T10:13:00Z</time></trkpt><trkpt lat="34.9980017636" lon="32.8294730745"><ele>651.43</ele><time>2015-04-28T10:13:13Z</time></trkpt><trkpt lat="34.9979854189" lon="32.8294946160"><ele>651.43</ele><time>2015-04-28T10:13:23Z</time></trkpt><trkpt lat="34.9979585968" lon="32.8295112122"><ele>650.95</ele><time>2015-04-28T10:14:05Z</time></trkpt><trkpt lat="34.9979437608" lon="32.8295170795"><ele>650.47</ele><time>2015-04-28T10:14:41Z</time></trkpt><trkpt lat="34.9979407433" lon="32.8295327537"><ele>649.99</ele><time>2015-04-28T10:15:25Z</time></trkpt><trkpt lat="34.9979537353" lon="32.8295217734"><ele>649.99</ele><time>2015-04-28T10:16:04Z</time></trkpt><trkpt lat="34.9979685713" lon="32.8295338433"><ele>649.99</ele><time>2015-04-28T10:16:06Z</time></trkpt><trkpt lat="34.9979808927" lon="32.8295375314"><ele>649.51</ele><time>2015-04-28T10:16:07Z</time></trkpt><trkpt lat="34.9979921244" lon="32.8295444883"><ele>649.99</ele><time>2015-04-28T10:16:08Z</time></trkpt><trkpt lat="34.9980016798" lon="32.8295567259"><ele>649.99</ele><time>2015-04-28T10:16:09Z</time></trkpt><trkpt lat="34.9980124924" lon="32.8295701370"><ele>649.99</ele><time>2015-04-28T10:16:10Z</time></trkpt><trkpt lat="34.9980222993" lon="32.8295828775"><ele>649.99</ele><time>2015-04-28T10:16:11Z</time></trkpt><trkpt lat="34.9982440844" lon="32.8298516013"><ele>650.47</ele><time>2015-04-28T10:16:27Z</time></trkpt><trkpt lat="34.9984166678" lon="32.8301547747"><ele>651.43</ele><time>2015-04-28T10:16:41Z</time></trkpt><trkpt lat="34.9985786062" lon="32.8304403462"><ele>650.95</ele><time>2015-04-28T10:16:55Z</time></trkpt><trkpt lat="34.9986569770" lon="32.8305025399"><ele>650.95</ele><time>2015-04-28T10:16:58Z</time></trkpt><trkpt lat="34.9986952823" lon="32.8304983489"><ele>650.95</ele><time>2015-04-28T10:16:59Z</time></trkpt><trkpt lat="34.9987299833" lon="32.8304714430"><ele>650.95</ele><time>2015-04-28T10:17:00Z</time></trkpt><trkpt lat="34.9987578951" lon="32.8304311261"><ele>651.43</ele><time>2015-04-28T10:17:01Z</time></trkpt><trkpt lat="34.9987887405" lon="32.8303909767"><ele>651.43</ele><time>2015-04-28T10:17:02Z</time></trkpt><trkpt lat="34.9988205917" lon="32.8303613048"><ele>652.39</ele><time>2015-04-28T10:17:03Z</time></trkpt><trkpt lat="34.9988480005" lon="32.8303372487"><ele>652.87</ele><time>2015-04-28T10:17:04Z</time></trkpt><trkpt lat="34.9988806900" lon="32.8303007875"><ele>653.83</ele><time>2015-04-28T10:17:06Z</time></trkpt><trkpt lat="34.9989269581" lon="32.8302457184"><ele>654.80</ele><time>2015-04-28T10:17:10Z</time></trkpt><trkpt lat="34.9989324063" lon="32.8302335646"><ele>654.80</ele><time>2015-04-28T10:17:11Z</time></trkpt><trkpt lat="34.9989382736" lon="32.8302198183"><ele>654.80</ele><time>2015-04-28T10:17:12Z</time></trkpt><trkpt lat="34.9989446439" lon="32.8302085027"><ele>654.80</ele><time>2015-04-28T10:17:13Z</time></trkpt><trkpt lat="34.9989611562" lon="32.8301633243"><ele>655.28</ele><time>2015-04-28T10:17:17Z</time></trkpt><trkpt lat="34.9989609048" lon="32.8300865460"><ele>655.76</ele><time>2015-04-28T10:17:24Z</time></trkpt><trkpt lat="34.9989163969" lon="32.8299418744"><ele>656.24</ele><time>2015-04-28T10:17:34Z</time></trkpt><trkpt lat="34.9989086855" lon="32.8299277928"><ele>656.72</ele><time>2015-04-28T10:17:35Z</time></trkpt><trkpt lat="34.9987518601" lon="32.8296821192"><ele>653.35</ele><time>2015-04-28T10:17:45Z</time></trkpt><trkpt lat="34.9987487588" lon="32.8296385333"><ele>652.87</ele><time>2015-04-28T10:17:46Z</time></trkpt><trkpt lat="34.9987641815" lon="32.8295405488"><ele>651.43</ele><time>2015-04-28T10:17:48Z</time></trkpt><trkpt lat="34.9987970386" lon="32.8294836357"><ele>650.95</ele><time>2015-04-28T10:17:49Z</time></trkpt><trkpt lat="34.9988437258" lon="32.8294338472"><ele>650.47</ele><time>2015-04-28T10:17:50Z</time></trkpt><trkpt lat="34.9988984596" lon="32.8293869086"><ele>649.99</ele><time>2015-04-28T10:17:51Z</time></trkpt><trkpt lat="34.9989567138" lon="32.8293387126"><ele>649.99</ele><time>2015-04-28T10:17:52Z</time></trkpt><trkpt lat="34.9990726355" lon="32.8292541392"><ele>649.51</ele><time>2015-04-28T10:17:54Z</time></trkpt><trkpt lat="34.9991263635" lon="32.8292314243"><ele>650.47</ele><time>2015-04-28T10:17:55Z</time></trkpt><trkpt lat="34.9991648365" lon="32.8292144928"><ele>651.43</ele><time>2015-04-28T10:17:56Z</time></trkpt><trkpt lat="34.9991903175" lon="32.8292015009"><ele>652.39</ele><time>2015-04-28T10:17:57Z</time></trkpt><trkpt lat="34.9992081709" lon="32.8291933704"><ele>652.87</ele><time>2015-04-28T10:17:58Z</time></trkpt><trkpt lat="34.9992202409" lon="32.8291847371"><ele>652.87</ele><time>2015-04-28T10:17:59Z</time></trkpt><trkpt lat="34.9992298800" lon="32.8291781154"><ele>652.87</ele><time>2015-04-28T10:18:00Z</time></trkpt><trkpt lat="34.9992411118" lon="32.8291756008"><ele>653.35</ele><time>2015-04-28T10:18:01Z</time></trkpt><trkpt lat="34.9993795808" lon="32.8291435819"><ele>654.31</ele><time>2015-04-28T10:18:11Z</time></trkpt><trkpt lat="34.9993922375" lon="32.8291450907"><ele>654.31</ele><time>2015-04-28T10:18:12Z</time></trkpt><trkpt lat="34.9996410124" lon="32.8292263113"><ele>654.31</ele><time>2015-04-28T10:18:26Z</time></trkpt><trkpt lat="34.9997110013" lon="32.8292431589"><ele>653.35</ele><time>2015-04-28T10:18:30Z</time></trkpt><trkpt lat="34.9997236580" lon="32.8292296641"><ele>653.83</ele><time>2015-04-28T10:18:31Z</time></trkpt><trkpt lat="34.9997599516" lon="32.8291740920"><ele>652.87</ele><time>2015-04-28T10:18:44Z</time></trkpt><trkpt lat="34.9997653998" lon="32.8291942086"><ele>652.87</ele><time>2015-04-28T10:18:57Z</time></trkpt><trkpt lat="34.9997672439" lon="32.8292072844"><ele>653.35</ele><time>2015-04-28T10:18:59Z</time></trkpt><trkpt lat="34.9997686688" lon="32.8292194381"><ele>653.35</ele><time>2015-04-28T10:19:00Z</time></trkpt><trkpt lat="34.9997695070" lon="32.8292367887"><ele>652.87</ele><time>2015-04-28T10:19:01Z</time></trkpt><trkpt lat="34.9997657351" lon="32.8292609286"><ele>652.87</ele><time>2015-04-28T10:19:02Z</time></trkpt><trkpt lat="34.9997619633" lon="32.8292912710"><ele>652.87</ele><time>2015-04-28T10:19:03Z</time></trkpt><trkpt lat="34.9997600354" lon="32.8293240443"><ele>652.39</ele><time>2015-04-28T10:19:04Z</time></trkpt><trkpt lat="34.9997609574" lon="32.8293584101"><ele>651.91</ele><time>2015-04-28T10:19:05Z</time></trkpt><trkpt lat="34.9997644778" lon="32.8294010740"><ele>651.91</ele><time>2015-04-28T10:19:06Z</time></trkpt><trkpt lat="34.9997661542" lon="32.8294495214"><ele>650.95</ele><time>2015-04-28T10:19:07Z</time></trkpt><trkpt lat="34.9997949041" lon="32.8296839632"><ele>647.59</ele><time>2015-04-28T10:19:11Z</time></trkpt><trkpt lat="34.9998232350" lon="32.8298219293"><ele>644.70</ele><time>2015-04-28T10:19:13Z</time></trkpt><trkpt lat="34.9998493027" lon="32.8298760764"><ele>644.22</ele><time>2015-04-28T10:19:14Z</time></trkpt><trkpt lat="34.9998800643" lon="32.8299266193"><ele>643.26</ele><time>2015-04-28T10:19:15Z</time></trkpt><trkpt lat="35.0000209641" lon="32.8301186487"><ele>639.89</ele><time>2015-04-28T10:19:19Z</time></trkpt><trkpt lat="35.0001232233" lon="32.8302333970"><ele>637.49</ele><time>2015-04-28T10:19:22Z</time></trkpt><trkpt lat="35.0001613609" lon="32.8302551061"><ele>637.01</ele><time>2015-04-28T10:19:23Z</time></trkpt><trkpt lat="35.0002003368" lon="32.8302646615"><ele>636.53</ele><time>2015-04-28T10:19:24Z</time></trkpt><trkpt lat="35.0002368819" lon="32.8302652482"><ele>636.05</ele><time>2015-04-28T10:19:25Z</time></trkpt><trkpt lat="35.0002686493" lon="32.8302601352"><ele>635.57</ele><time>2015-04-28T10:19:26Z</time></trkpt><trkpt lat="35.0002925377" lon="32.8302491549"><ele>635.57</ele><time>2015-04-28T10:19:27Z</time></trkpt><trkpt lat="35.0003070384" lon="32.8302273620"><ele>635.09</ele><time>2015-04-28T10:19:28Z</time></trkpt><trkpt lat="35.0003138278" lon="32.8301989473"><ele>635.09</ele><time>2015-04-28T10:19:29Z</time></trkpt><trkpt lat="35.0003162585" lon="32.8301705327"><ele>634.61</ele><time>2015-04-28T10:19:30Z</time></trkpt><trkpt lat="35.0003164262" lon="32.8301421180"><ele>634.61</ele><time>2015-04-28T10:19:31Z</time></trkpt><trkpt lat="35.0003120676" lon="32.8301114403"><ele>634.61</ele><time>2015-04-28T10:19:32Z</time></trkpt><trkpt lat="35.0002670567" lon="32.8295913432"><ele>632.20</ele><time>2015-04-28T10:19:43Z</time></trkpt><trkpt lat="35.0002832338" lon="32.8295189235"><ele>631.72</ele><time>2015-04-28T10:19:44Z</time></trkpt><trkpt lat="35.0003072899" lon="32.8294410557"><ele>631.24</ele><time>2015-04-28T10:19:45Z</time></trkpt><trkpt lat="35.0004421547" lon="32.8290134110"><ele>628.84</ele><time>2015-04-28T10:19:50Z</time></trkpt><trkpt lat="35.0004994031" lon="32.8287151828"><ele>627.88</ele><time>2015-04-28T10:19:54Z</time></trkpt><trkpt lat="35.0005222857" lon="32.8286484629"><ele>627.88</ele><time>2015-04-28T10:19:55Z</time></trkpt><trkpt lat="35.0006052665" lon="32.8283644840"><ele>625.47</ele><time>2015-04-28T10:19:59Z</time></trkpt><trkpt lat="35.0006168336" lon="32.8282881249"><ele>624.99</ele><time>2015-04-28T10:20:00Z</time></trkpt><trkpt lat="35.0006242935" lon="32.8282118496"><ele>624.51</ele><time>2015-04-28T10:20:01Z</time></trkpt><trkpt lat="35.0006600842" lon="32.8277782537"><ele>622.11</ele><time>2015-04-28T10:20:06Z</time></trkpt><trkpt lat="35.0007015746" lon="32.8274835460"><ele>619.23</ele><time>2015-04-28T10:20:10Z</time></trkpt><trkpt lat="35.0007243734" lon="32.8274200950"><ele>618.75</ele><time>2015-04-28T10:20:11Z</time></trkpt><trkpt lat="35.0007606670" lon="32.8273638524"><ele>618.75</ele><time>2015-04-28T10:20:12Z</time></trkpt><trkpt lat="35.0008110423" lon="32.8273221105"><ele>618.26</ele><time>2015-04-28T10:20:13Z</time></trkpt><trkpt lat="35.0008723140" lon="32.8272935282"><ele>617.78</ele><time>2015-04-28T10:20:14Z</time></trkpt><trkpt lat="35.0009387825" lon="32.8272736631"><ele>617.30</ele><time>2015-04-28T10:20:15Z</time></trkpt><trkpt lat="35.0010065921" lon="32.8272552229"><ele>616.82</ele><time>2015-04-28T10:20:16Z</time></trkpt><trkpt lat="35.0010659359" lon="32.8272194322"><ele>616.34</ele><time>2015-04-28T10:20:17Z</time></trkpt><trkpt lat="35.0011117849" lon="32.8271662910"><ele>616.34</ele><time>2015-04-28T10:20:18Z</time></trkpt><trkpt lat="35.0011498388" lon="32.8271006607"><ele>615.38</ele><time>2015-04-28T10:20:19Z</time></trkpt><trkpt lat="35.0011870544" lon="32.8270293307"><ele>615.38</ele><time>2015-04-28T10:20:20Z</time></trkpt><trkpt lat="35.0013326481" lon="32.8268125746"><ele>613.94</ele><time>2015-04-28T10:20:23Z</time></trkpt><trkpt lat="35.0014539342" lon="32.8266837448"><ele>612.50</ele><time>2015-04-28T10:20:25Z</time></trkpt><trkpt lat="35.0015253481" lon="32.8266254067"><ele>611.54</ele><time>2015-04-28T10:20:26Z</time></trkpt><trkpt lat="35.0017383322" lon="32.8264656477"><ele>608.17</ele><time>2015-04-28T10:20:29Z</time></trkpt><trkpt lat="35.0017980114" lon="32.8264277615"><ele>607.69</ele><time>2015-04-28T10:20:30Z</time></trkpt><trkpt lat="35.0018513203" lon="32.8264023643"><ele>606.73</ele><time>2015-04-28T10:20:31Z</time></trkpt><trkpt lat="35.0019000191" lon="32.8263949882"><ele>606.25</ele><time>2015-04-28T10:20:32Z</time></trkpt><trkpt lat="35.0019455329" lon="32.8263982572"><ele>605.77</ele><time>2015-04-28T10:20:33Z</time></trkpt><trkpt lat="35.0019897893" lon="32.8264087345"><ele>605.29</ele><time>2015-04-28T10:20:34Z</time></trkpt><trkpt lat="35.0020325370" lon="32.8264262527"><ele>604.81</ele><time>2015-04-28T10:20:35Z</time></trkpt><trkpt lat="35.0020717643" lon="32.8264492191"><ele>604.33</ele><time>2015-04-28T10:20:36Z</time></trkpt><trkpt lat="35.0021099020" lon="32.8264705092"><ele>603.85</ele><time>2015-04-28T10:20:37Z</time></trkpt><trkpt lat="35.0021521468" lon="32.8264848422"><ele>602.88</ele><time>2015-04-28T10:20:38Z</time></trkpt><trkpt lat="35.0021955650" lon="32.8264868539"><ele>602.40</ele><time>2015-04-28T10:20:39Z</time></trkpt><trkpt lat="35.0022375584" lon="32.8264806513"><ele>602.40</ele><time>2015-04-28T10:20:40Z</time></trkpt><trkpt lat="35.0022789650" lon="32.8264731076"><ele>602.40</ele><time>2015-04-28T10:20:41Z</time></trkpt><trkpt lat="35.0023199525" lon="32.8264710959"><ele>602.40</ele><time>2015-04-28T10:20:42Z</time></trkpt><trkpt lat="35.0023607723" lon="32.8264792264"><ele>601.92</ele><time>2015-04-28T10:20:43Z</time></trkpt><trkpt lat="35.0023984909" lon="32.8264955711"><ele>601.44</ele><time>2015-04-28T10:20:44Z</time></trkpt><trkpt lat="35.0027492736" lon="32.8266763687"><ele>600.96</ele><time>2015-04-28T10:20:53Z</time></trkpt><trkpt lat="35.0028279796" lon="32.8267148416"><ele>600.48</ele><time>2015-04-28T10:20:55Z</time></trkpt><trkpt lat="35.0028668717" lon="32.8267361317"><ele>600.48</ele><time>2015-04-28T10:20:56Z</time></trkpt><trkpt lat="35.0033081789" lon="32.8269740939"><ele>599.52</ele><time>2015-04-28T10:21:09Z</time></trkpt><trkpt lat="35.0037518330" lon="32.8272014111"><ele>598.08</ele><time>2015-04-28T10:21:19Z</time></trkpt><trkpt lat="35.0038041361" lon="32.8272094578"><ele>598.08</ele><time>2015-04-28T10:21:20Z</time></trkpt><trkpt lat="35.0038535055" lon="32.8272086196"><ele>598.08</ele><time>2015-04-28T10:21:21Z</time></trkpt><trkpt lat="35.0039008632" lon="32.8271981422"><ele>598.08</ele><time>2015-04-28T10:21:22Z</time></trkpt><trkpt lat="35.0039448682" lon="32.8271804564"><ele>598.56</ele><time>2015-04-28T10:21:23Z</time></trkpt><trkpt lat="35.0039856043" lon="32.8271595016"><ele>598.56</ele><time>2015-04-28T10:21:24Z</time></trkpt><trkpt lat="35.0044621155" lon="32.8269054461"><ele>599.04</ele><time>2015-04-28T10:21:38Z</time></trkpt><trkpt lat="35.0048329309" lon="32.8267561644"><ele>599.04</ele><time>2015-04-28T10:21:52Z</time></trkpt><trkpt lat="35.0052756630" lon="32.8266710043"><ele>597.60</ele><time>2015-04-28T10:22:05Z</time></trkpt><trkpt lat="35.0056692772" lon="32.8266408294"><ele>595.19</ele><time>2015-04-28T10:22:15Z</time></trkpt><trkpt lat="35.0059509091" lon="32.8266237304"><ele>593.75</ele><time>2015-04-28T10:22:29Z</time></trkpt><trkpt lat="35.0063442718" lon="32.8264885303"><ele>592.31</ele><time>2015-04-28T10:22:41Z</time></trkpt><trkpt lat="35.0067637861" lon="32.8263251670"><ele>588.95</ele><time>2015-04-28T10:22:50Z</time></trkpt><trkpt lat="35.0071243756" lon="32.8261567745"><ele>586.54</ele><time>2015-04-28T10:22:55Z</time></trkpt><trkpt lat="35.0075743999" lon="32.8259843588"><ele>582.70</ele><time>2015-04-28T10:23:00Z</time></trkpt><trkpt lat="35.0080815889" lon="32.8258785792"><ele>578.85</ele><time>2015-04-28T10:23:05Z</time></trkpt><trkpt lat="35.0085297693" lon="32.8258845303"><ele>575.01</ele><time>2015-04-28T10:23:09Z</time></trkpt><trkpt lat="35.0090028439" lon="32.8259529267"><ele>571.64</ele><time>2015-04-28T10:23:13Z</time></trkpt><trkpt lat="35.0094950292" lon="32.8260303754"><ele>567.80</ele><time>2015-04-28T10:23:17Z</time></trkpt><trkpt lat="35.0100003742" lon="32.8260746319"><ele>563.95</ele><time>2015-04-28T10:23:21Z</time></trkpt><trkpt lat="35.0103846006" lon="32.8261127695"><ele>560.59</ele><time>2015-04-28T10:23:24Z</time></trkpt><trkpt lat="35.0108974893" lon="32.8261531703"><ele>556.74</ele><time>2015-04-28T10:23:28Z</time></trkpt><trkpt lat="35.0111541431" lon="32.8261776455"><ele>553.86</ele><time>2015-04-28T10:23:30Z</time></trkpt><trkpt lat="35.0116681214" lon="32.8262219019"><ele>549.53</ele><time>2015-04-28T10:23:34Z</time></trkpt><trkpt lat="35.0120548625" lon="32.8262566868"><ele>546.17</ele><time>2015-04-28T10:23:37Z</time></trkpt><trkpt lat="35.0125674997" lon="32.8262980934"><ele>541.84</ele><time>2015-04-28T10:23:41Z</time></trkpt><trkpt lat="35.0129503850" lon="32.8263202216"><ele>538.96</ele><time>2015-04-28T10:23:44Z</time></trkpt><trkpt lat="35.0133115612" lon="32.8263131808"><ele>535.59</ele><time>2015-04-28T10:23:47Z</time></trkpt><trkpt lat="35.0136646070" lon="32.8262582794"><ele>532.23</ele><time>2015-04-28T10:23:50Z</time></trkpt><trkpt lat="35.0141094346" lon="32.8260982689"><ele>527.90</ele><time>2015-04-28T10:23:54Z</time></trkpt><trkpt lat="35.0145210698" lon="32.8258673474"><ele>524.06</ele><time>2015-04-28T10:23:58Z</time></trkpt><trkpt lat="35.0150357187" lon="32.8255405370"><ele>520.21</ele><time>2015-04-28T10:24:03Z</time></trkpt><trkpt lat="35.0155698974" lon="32.8252940252"><ele>516.85</ele><time>2015-04-28T10:24:08Z</time></trkpt><trkpt lat="35.0158749986" lon="32.8252250422"><ele>514.92</ele><time>2015-04-28T10:24:11Z</time></trkpt><trkpt lat="35.0161407050" lon="32.8252120502"><ele>513.48</ele><time>2015-04-28T10:24:14Z</time></trkpt><trkpt lat="35.0168767199" lon="32.8252992220"><ele>511.08</ele><time>2015-04-28T10:24:23Z</time></trkpt><trkpt lat="35.0169576891" lon="32.8253140580"><ele>510.60</ele><time>2015-04-28T10:24:24Z</time></trkpt><trkpt lat="35.0171117485" lon="32.8253390361"><ele>509.64</ele><time>2015-04-28T10:24:26Z</time></trkpt><trkpt lat="35.0175188575" lon="32.8254573047"><ele>507.23</ele><time>2015-04-28T10:24:35Z</time></trkpt><trkpt lat="35.0177595019" lon="32.8255455662"><ele>505.79</ele><time>2015-04-28T10:24:48Z</time></trkpt><trkpt lat="35.0177841447" lon="32.8255685326"><ele>505.31</ele><time>2015-04-28T10:25:01Z</time></trkpt><trkpt lat="35.0178472605" lon="32.8255641740"><ele>504.83</ele><time>2015-04-28T10:25:26Z</time></trkpt><trkpt lat="35.0178752560" lon="32.8255700413"><ele>505.31</ele><time>2015-04-28T10:25:38Z</time></trkpt><trkpt lat="35.0179164112" lon="32.8255673591"><ele>505.79</ele><time>2015-04-28T10:25:51Z</time></trkpt><trkpt lat="35.0180004817" lon="32.8255847935"><ele>507.23</ele><time>2015-04-28T10:26:03Z</time></trkpt><trkpt lat="35.0181231089" lon="32.8256251942"><ele>508.67</ele><time>2015-04-28T10:26:16Z</time></trkpt><trkpt lat="35.0181469135" lon="32.8256260324"><ele>509.16</ele><time>2015-04-28T10:26:19Z</time></trkpt><trkpt lat="35.0182975363" lon="32.8256426286"><ele>511.56</ele><time>2015-04-28T10:26:34Z</time></trkpt><trkpt lat="35.0183684472" lon="32.8256457299"><ele>512.52</ele><time>2015-04-28T10:26:41Z</time></trkpt><trkpt lat="35.0183873903" lon="32.8256464843"><ele>512.52</ele><time>2015-04-28T10:26:43Z</time></trkpt><trkpt lat="35.0184077583" lon="32.8256548662"><ele>513.00</ele><time>2015-04-28T10:26:45Z</time></trkpt><trkpt lat="35.0185748097" lon="32.8256716300"><ele>514.92</ele><time>2015-04-28T10:27:01Z</time></trkpt><trkpt lat="35.0186271127" lon="32.8256830294"><ele>515.88</ele><time>2015-04-28T10:27:06Z</time></trkpt><trkpt lat="35.0186376739" lon="32.8256866336"><ele>516.37</ele><time>2015-04-28T10:27:07Z</time></trkpt><trkpt lat="35.0186475646" lon="32.8256868012"><ele>516.37</ele><time>2015-04-28T10:27:08Z</time></trkpt><trkpt lat="35.0186583772" lon="32.8256891482"><ele>516.85</ele><time>2015-04-28T10:27:09Z</time></trkpt><trkpt lat="35.0186675973" lon="32.8256909084"><ele>516.85</ele><time>2015-04-28T10:27:10Z</time></trkpt><trkpt lat="35.0186779909" lon="32.8256882261"><ele>516.85</ele><time>2015-04-28T10:27:11Z</time></trkpt><trkpt lat="35.0186891388" lon="32.8256896511"><ele>516.85</ele><time>2015-04-28T10:27:12Z</time></trkpt><trkpt lat="35.0187004544" lon="32.8256917465"><ele>516.85</ele><time>2015-04-28T10:27:13Z</time></trkpt><trkpt lat="35.0187110156" lon="32.8256929200"><ele>516.85</ele><time>2015-04-28T10:27:14Z</time></trkpt><trkpt lat="35.0187225826" lon="32.8256869689"><ele>516.85</ele><time>2015-04-28T10:27:15Z</time></trkpt><trkpt lat="35.0187428668" lon="32.8256857954"><ele>517.33</ele><time>2015-04-28T10:27:17Z</time></trkpt><trkpt lat="35.0187539309" lon="32.8256857954"><ele>517.33</ele><time>2015-04-28T10:27:18Z</time></trkpt><trkpt lat="35.0187657494" lon="32.8256826103"><ele>517.81</ele><time>2015-04-28T10:27:19Z</time></trkpt><trkpt lat="35.0187788252" lon="32.8256832808"><ele>517.81</ele><time>2015-04-28T10:27:20Z</time></trkpt><trkpt lat="35.0187915657" lon="32.8256852925"><ele>517.81</ele><time>2015-04-28T10:27:21Z</time></trkpt><trkpt lat="35.0189436972" lon="32.8257051576"><ele>520.21</ele><time>2015-04-28T10:27:36Z</time></trkpt><trkpt lat="35.0191431027" lon="32.8257436305"><ele>523.09</ele><time>2015-04-28T10:27:54Z</time></trkpt><trkpt lat="35.0193100702" lon="32.8257465642"><ele>525.50</ele><time>2015-04-28T10:28:10Z</time></trkpt><trkpt lat="35.0194759481" lon="32.8257605620"><ele>527.42</ele><time>2015-04-28T10:28:25Z</time></trkpt><trkpt lat="35.0196329411" lon="32.8257502522"><ele>528.86</ele><time>2015-04-28T10:28:39Z</time></trkpt><trkpt lat="35.0198524632" lon="32.8257305548"><ele>531.27</ele><time>2015-04-28T10:28:58Z</time></trkpt><trkpt lat="35.0200404692" lon="32.8257598076"><ele>532.71</ele><time>2015-04-28T10:29:14Z</time></trkpt><trkpt lat="35.0202457421" lon="32.8258147091"><ele>534.15</ele><time>2015-04-28T10:29:28Z</time></trkpt><trkpt lat="35.0204769988" lon="32.8258252703"><ele>536.55</ele><time>2015-04-28T10:29:45Z</time></trkpt><trkpt lat="35.0206965208" lon="32.8257970233"><ele>539.44</ele><time>2015-04-28T10:30:03Z</time></trkpt><trkpt lat="35.0209140312" lon="32.8257643338"><ele>542.32</ele><time>2015-04-28T10:30:22Z</time></trkpt><trkpt lat="35.0210218225" lon="32.8257450555"><ele>543.76</ele><time>2015-04-28T10:30:31Z</time></trkpt><trkpt lat="35.0210335571" lon="32.8257471509"><ele>543.76</ele><time>2015-04-28T10:30:32Z</time></trkpt><trkpt lat="35.0212402549" lon="32.8257458936"><ele>546.17</ele><time>2015-04-28T10:30:49Z</time></trkpt><trkpt lat="35.0213069748" lon="32.8257286269"><ele>546.65</ele><time>2015-04-28T10:30:54Z</time></trkpt><trkpt lat="35.0213188771" lon="32.8257199097"><ele>546.65</ele><time>2015-04-28T10:30:55Z</time></trkpt><trkpt lat="35.0213310309" lon="32.8257092647"><ele>547.13</ele><time>2015-04-28T10:30:56Z</time></trkpt><trkpt lat="35.0213436875" lon="32.8256980330"><ele>547.13</ele><time>2015-04-28T10:30:57Z</time></trkpt><trkpt lat="35.0213557575" lon="32.8256885614"><ele>547.13</ele><time>2015-04-28T10:30:58Z</time></trkpt><trkpt lat="35.0213904586" lon="32.8256686125"><ele>547.61</ele><time>2015-04-28T10:31:01Z</time></trkpt><trkpt lat="35.0214014389" lon="32.8256641701"><ele>548.09</ele><time>2015-04-28T10:31:02Z</time></trkpt><trkpt lat="35.0215839967" lon="32.8255583905"><ele>549.53</ele><time>2015-04-28T10:31:18Z</time></trkpt><trkpt lat="35.0217555743" lon="32.8254706319"><ele>551.45</ele><time>2015-04-28T10:31:32Z</time></trkpt><trkpt lat="35.0219502859" lon="32.8253865615"><ele>553.86</ele><time>2015-04-28T10:31:46Z</time></trkpt><trkpt lat="35.0219588354" lon="32.8253734019"><ele>553.86</ele><time>2015-04-28T10:31:47Z</time></trkpt><trkpt lat="35.0219673850" lon="32.8253605776"><ele>553.86</ele><time>2015-04-28T10:31:48Z</time></trkpt><trkpt lat="35.0219751801" lon="32.8253479209"><ele>554.34</ele><time>2015-04-28T10:31:49Z</time></trkpt><trkpt lat="35.0219813827" lon="32.8253339231"><ele>554.34</ele><time>2015-04-28T10:31:50Z</time></trkpt><trkpt lat="35.0219869986" lon="32.8253216855"><ele>554.34</ele><time>2015-04-28T10:31:51Z</time></trkpt><trkpt lat="35.0219904352" lon="32.8253068496"><ele>554.34</ele><time>2015-04-28T10:31:52Z</time></trkpt><trkpt lat="35.0219956320" lon="32.8252783511"><ele>554.82</ele><time>2015-04-28T10:31:54Z</time></trkpt><trkpt lat="35.0219968893" lon="32.8252629284"><ele>554.82</ele><time>2015-04-28T10:31:55Z</time></trkpt><trkpt lat="35.0219981465" lon="32.8252465837"><ele>555.30</ele><time>2015-04-28T10:31:56Z</time></trkpt><trkpt lat="35.0219983142" lon="32.8252323344"><ele>555.30</ele><time>2015-04-28T10:31:57Z</time></trkpt><trkpt lat="35.0219977275" lon="32.8252178337"><ele>555.30</ele><time>2015-04-28T10:31:58Z</time></trkpt><trkpt lat="35.0219966378" lon="32.8252030816"><ele>555.30</ele><time>2015-04-28T10:31:59Z</time></trkpt><trkpt lat="35.0219947100" lon="32.8251879103"><ele>555.30</ele><time>2015-04-28T10:32:00Z</time></trkpt><trkpt lat="35.0219917763" lon="32.8251732420"><ele>555.30</ele><time>2015-04-28T10:32:01Z</time></trkpt><trkpt lat="35.0219867472" lon="32.8251602501"><ele>555.78</ele><time>2015-04-28T10:32:02Z</time></trkpt><trkpt lat="35.0219818857" lon="32.8251474258"><ele>555.78</ele><time>2015-04-28T10:32:03Z</time></trkpt><trkpt lat="35.0219767727" lon="32.8251344338"><ele>555.78</ele><time>2015-04-28T10:32:04Z</time></trkpt><trkpt lat="35.0219716597" lon="32.8251228668"><ele>556.26</ele><time>2015-04-28T10:32:05Z</time></trkpt><trkpt lat="35.0219689775" lon="32.8251082823"><ele>556.26</ele><time>2015-04-28T10:32:06Z</time></trkpt><trkpt lat="35.0219704024" lon="32.8250927757"><ele>556.26</ele><time>2015-04-28T10:32:07Z</time></trkpt><trkpt lat="35.0219714083" lon="32.8250772692"><ele>556.26</ele><time>2015-04-28T10:32:08Z</time></trkpt><trkpt lat="35.0219705701" lon="32.8250630200"><ele>556.26</ele><time>2015-04-28T10:32:09Z</time></trkpt><trkpt lat="35.0219678879" lon="32.8250491060"><ele>556.74</ele><time>2015-04-28T10:32:10Z</time></trkpt><trkpt lat="35.0219631102" lon="32.8250351083"><ele>556.74</ele><time>2015-04-28T10:32:11Z</time></trkpt><trkpt lat="35.0219592545" lon="32.8250199370"><ele>556.74</ele><time>2015-04-28T10:32:12Z</time></trkpt><trkpt lat="35.0219573267" lon="32.8250050172"><ele>556.74</ele><time>2015-04-28T10:32:13Z</time></trkpt><trkpt lat="35.0219427422" lon="32.8247592598"><ele>559.14</ele><time>2015-04-28T10:32:29Z</time></trkpt><trkpt lat="35.0219120644" lon="32.8245387319"><ele>561.07</ele><time>2015-04-28T10:32:43Z</time></trkpt><trkpt lat="35.0219072867" lon="32.8244878538"><ele>561.55</ele><time>2015-04-28T10:32:46Z</time></trkpt><trkpt lat="35.0218540616" lon="32.8242806531"><ele>563.47</ele><time>2015-04-28T10:33:00Z</time></trkpt><trkpt lat="35.0218111463" lon="32.8241053037"><ele>565.39</ele><time>2015-04-28T10:33:12Z</time></trkpt><trkpt lat="35.0218111463" lon="32.8240897134"><ele>565.39</ele><time>2015-04-28T10:33:13Z</time></trkpt><trkpt lat="35.0218080450" lon="32.8240754642"><ele>565.39</ele><time>2015-04-28T10:33:14Z</time></trkpt><trkpt lat="35.0218073744" lon="32.8240583651"><ele>565.39</ele><time>2015-04-28T10:33:15Z</time></trkpt><trkpt lat="35.0218084641" lon="32.8240435291"><ele>565.87</ele><time>2015-04-28T10:33:16Z</time></trkpt><trkpt lat="35.0218093861" lon="32.8240298666"><ele>565.87</ele><time>2015-04-28T10:33:17Z</time></trkpt><trkpt lat="35.0218407344" lon="32.8239885438"><ele>566.83</ele><time>2015-04-28T10:33:22Z</time></trkpt><trkpt lat="35.0218852423" lon="32.8239681758"><ele>567.80</ele><time>2015-04-28T10:33:27Z</time></trkpt><trkpt lat="35.0219140761" lon="32.8239846043"><ele>568.28</ele><time>2015-04-28T10:33:30Z</time></trkpt><trkpt lat="35.0220593344" lon="32.8240910545"><ele>570.20</ele><time>2015-04-28T10:33:45Z</time></trkpt><trkpt lat="35.0221330952" lon="32.8241445310"><ele>571.16</ele><time>2015-04-28T10:33:53Z</time></trkpt><trkpt lat="35.0222340133" lon="32.8242394142"><ele>572.12</ele><time>2015-04-28T10:34:04Z</time></trkpt><trkpt lat="35.0224153977" lon="32.8242485505"><ele>574.04</ele><time>2015-04-28T10:34:19Z</time></trkpt><trkpt lat="35.0226024818" lon="32.8241867758"><ele>575.97</ele><time>2015-04-28T10:34:34Z</time></trkpt><trkpt lat="35.0226640049" lon="32.8241599537"><ele>576.93</ele><time>2015-04-28T10:34:39Z</time></trkpt><trkpt lat="35.0227177329" lon="32.8241458721"><ele>577.89</ele><time>2015-04-28T10:34:43Z</time></trkpt><trkpt lat="35.0228783302" lon="32.8242198844"><ele>579.81</ele><time>2015-04-28T10:34:57Z</time></trkpt><trkpt lat="35.0228961837" lon="32.8243313637"><ele>580.29</ele><time>2015-04-28T10:35:04Z</time></trkpt><trkpt lat="35.0228985306" lon="32.8243877739"><ele>580.77</ele><time>2015-04-28T10:35:08Z</time></trkpt><trkpt lat="35.0229019672" lon="32.8244482074"><ele>581.25</ele><time>2015-04-28T10:35:12Z</time></trkpt><trkpt lat="35.0229625683" lon="32.8245879337"><ele>582.22</ele><time>2015-04-28T10:35:22Z</time></trkpt><trkpt lat="35.0229865406" lon="32.8246017639"><ele>582.70</ele><time>2015-04-28T10:35:24Z</time></trkpt><trkpt lat="35.0231602136" lon="32.8246549889"><ele>584.62</ele><time>2015-04-28T10:35:35Z</time></trkpt><trkpt lat="35.0233652350" lon="32.8246217966"><ele>586.06</ele><time>2015-04-28T10:35:51Z</time></trkpt><trkpt lat="35.0234475452" lon="32.8245792165"><ele>586.54</ele><time>2015-04-28T10:35:57Z</time></trkpt><trkpt lat="35.0237014331" lon="32.8244908713"><ele>588.95</ele><time>2015-04-28T10:36:13Z</time></trkpt><trkpt lat="35.0238203723" lon="32.8243969940"><ele>590.39</ele><time>2015-04-28T10:36:22Z</time></trkpt><trkpt lat="35.0241268985" lon="32.8241618816"><ele>591.83</ele><time>2015-04-28T10:36:43Z</time></trkpt><trkpt lat="35.0243817922" lon="32.8239765577"><ele>591.35</ele><time>2015-04-28T10:36:55Z</time></trkpt><trkpt lat="35.0244351849" lon="32.8239105921"><ele>591.35</ele><time>2015-04-28T10:36:57Z</time></trkpt><trkpt lat="35.0244709756" lon="32.8238836862"><ele>590.87</ele><time>2015-04-28T10:36:58Z</time></trkpt><trkpt lat="35.0245113764" lon="32.8238640726"><ele>590.39</ele><time>2015-04-28T10:36:59Z</time></trkpt><trkpt lat="35.0245573930" lon="32.8238579538"><ele>590.39</ele><time>2015-04-28T10:37:00Z</time></trkpt><trkpt lat="35.0246045832" lon="32.8238650784"><ele>589.91</ele><time>2015-04-28T10:37:01Z</time></trkpt><trkpt lat="35.0246505160" lon="32.8238802496"><ele>589.43</ele><time>2015-04-28T10:37:02Z</time></trkpt><trkpt lat="35.0246946886" lon="32.8238991089"><ele>589.91</ele><time>2015-04-28T10:37:03Z</time></trkpt><trkpt lat="35.0247356761" lon="32.8239252605"><ele>589.43</ele><time>2015-04-28T10:37:04Z</time></trkpt><trkpt lat="35.0247712154" lon="32.8239590395"><ele>589.91</ele><time>2015-04-28T10:37:05Z</time></trkpt><trkpt lat="35.0248048268" lon="32.8239948303"><ele>589.91</ele><time>2015-04-28T10:37:06Z</time></trkpt><trkpt lat="35.0248867180" lon="32.8240487259"><ele>589.43</ele><time>2015-04-28T10:37:09Z</time></trkpt><trkpt lat="35.0249125343" lon="32.8240405954"><ele>588.95</ele><time>2015-04-28T10:37:10Z</time></trkpt><trkpt lat="35.0249351654" lon="32.8240178805"><ele>588.95</ele><time>2015-04-28T10:37:11Z</time></trkpt><trkpt lat="35.0249551143" lon="32.8239872865"><ele>588.95</ele><time>2015-04-28T10:37:12Z</time></trkpt><trkpt lat="35.0249728840" lon="32.8239554353"><ele>588.46</ele><time>2015-04-28T10:37:13Z</time></trkpt><trkpt lat="35.0249885581" lon="32.8239192255"><ele>587.98</ele><time>2015-04-28T10:37:14Z</time></trkpt><trkpt lat="35.0250052381" lon="32.8238785733"><ele>587.50</ele><time>2015-04-28T10:37:15Z</time></trkpt><trkpt lat="35.0250280369" lon="32.8238340653"><ele>587.50</ele><time>2015-04-28T10:37:16Z</time></trkpt><trkpt lat="35.0250586309" lon="32.8237867914"><ele>587.02</ele><time>2015-04-28T10:37:17Z</time></trkpt><trkpt lat="35.0250958465" lon="32.8237405233"><ele>586.54</ele><time>2015-04-28T10:37:18Z</time></trkpt><trkpt lat="35.0251358282" lon="32.8236920759"><ele>586.06</ele><time>2015-04-28T10:37:19Z</time></trkpt><trkpt lat="35.0252535939" lon="32.8235437162"><ele>586.06</ele><time>2015-04-28T10:37:22Z</time></trkpt><trkpt lat="35.0253031310" lon="32.8235071711"><ele>585.58</ele><time>2015-04-28T10:37:23Z</time></trkpt><trkpt lat="35.0259444304" lon="32.8230642714"><ele>587.02</ele><time>2015-04-28T10:37:37Z</time></trkpt><trkpt lat="35.0261549000" lon="32.8229076136"><ele>588.46</ele><time>2015-04-28T10:37:49Z</time></trkpt><trkpt lat="35.0264257193" lon="32.8227955475"><ele>591.83</ele><time>2015-04-28T10:38:06Z</time></trkpt><trkpt lat="35.0265614223" lon="32.8225894365"><ele>594.23</ele><time>2015-04-28T10:38:21Z</time></trkpt><trkpt lat="35.0266097020" lon="32.8224235587"><ele>595.19</ele><time>2015-04-28T10:38:32Z</time></trkpt><trkpt lat="35.0266148988" lon="32.8224074654"><ele>595.19</ele><time>2015-04-28T10:38:33Z</time></trkpt><trkpt lat="35.0266190898" lon="32.8223915398"><ele>595.19</ele><time>2015-04-28T10:38:34Z</time></trkpt><trkpt lat="35.0266326685" lon="32.8223457746"><ele>595.67</ele><time>2015-04-28T10:38:37Z</time></trkpt><trkpt lat="35.0266343448" lon="32.8223316930"><ele>595.67</ele><time>2015-04-28T10:38:38Z</time></trkpt><trkpt lat="35.0266402960" lon="32.8223178629"><ele>595.67</ele><time>2015-04-28T10:38:39Z</time></trkpt><trkpt lat="35.0266469177" lon="32.8223029431"><ele>596.15</ele><time>2015-04-28T10:38:40Z</time></trkpt><trkpt lat="35.0266511086" lon="32.8222868498"><ele>596.15</ele><time>2015-04-28T10:38:41Z</time></trkpt><trkpt lat="35.0266610831" lon="32.8222623747"><ele>596.15</ele><time>2015-04-28T10:38:43Z</time></trkpt><trkpt lat="35.0266656931" lon="32.8222486284"><ele>596.15</ele><time>2015-04-28T10:38:44Z</time></trkpt><trkpt lat="35.0267269649" lon="32.8220934793"><ele>597.12</ele><time>2015-04-28T10:38:56Z</time></trkpt><trkpt lat="35.0267567206" lon="32.8220259212"><ele>598.08</ele><time>2015-04-28T10:39:01Z</time></trkpt><trkpt lat="35.0267625041" lon="32.8219938185"><ele>598.08</ele><time>2015-04-28T10:39:03Z</time></trkpt><trkpt lat="35.0267686229" lon="32.8219767194"><ele>598.08</ele><time>2015-04-28T10:39:04Z</time></trkpt><trkpt lat="35.0267876498" lon="32.8218954988"><ele>598.08</ele><time>2015-04-28T10:39:08Z</time></trkpt><trkpt lat="35.0267557986" lon="32.8216574527"><ele>600.48</ele><time>2015-04-28T10:39:21Z</time></trkpt><trkpt lat="35.0267516077" lon="32.8216432873"><ele>600.48</ele><time>2015-04-28T10:39:22Z</time></trkpt><trkpt lat="35.0267055910" lon="32.8215230070"><ele>601.92</ele><time>2015-04-28T10:39:30Z</time></trkpt><trkpt lat="35.0267024059" lon="32.8215093445"><ele>601.92</ele><time>2015-04-28T10:39:31Z</time></trkpt><trkpt lat="35.0266993046" lon="32.8214947600"><ele>601.92</ele><time>2015-04-28T10:39:32Z</time></trkpt><trkpt lat="35.0266965386" lon="32.8214798402"><ele>602.40</ele><time>2015-04-28T10:39:33Z</time></trkpt><trkpt lat="35.0266905036" lon="32.8214649204"><ele>602.40</ele><time>2015-04-28T10:39:34Z</time></trkpt><trkpt lat="35.0266826246" lon="32.8214509226"><ele>602.40</ele><time>2015-04-28T10:39:35Z</time></trkpt><trkpt lat="35.0266756676" lon="32.8214365058"><ele>602.40</ele><time>2015-04-28T10:39:36Z</time></trkpt><trkpt lat="35.0266705547" lon="32.8214208316"><ele>602.40</ele><time>2015-04-28T10:39:37Z</time></trkpt><trkpt lat="35.0266659446" lon="32.8214045707"><ele>602.88</ele><time>2015-04-28T10:39:38Z</time></trkpt><trkpt lat="35.0266641006" lon="32.8213877231"><ele>602.88</ele><time>2015-04-28T10:39:39Z</time></trkpt><trkpt lat="35.0266620889" lon="32.8213727195"><ele>602.88</ele><time>2015-04-28T10:39:40Z</time></trkpt><trkpt lat="35.0266582333" lon="32.8213588055"><ele>603.36</ele><time>2015-04-28T10:39:41Z</time></trkpt><trkpt lat="35.0266517792" lon="32.8213448916"><ele>603.36</ele><time>2015-04-28T10:39:42Z</time></trkpt><trkpt lat="35.0266347639" lon="32.8213304747"><ele>603.85</ele><time>2015-04-28T10:39:44Z</time></trkpt><trkpt lat="35.0265734922" lon="32.8214382660"><ele>606.25</ele><time>2015-04-28T10:39:54Z</time></trkpt><trkpt lat="35.0265827123" lon="32.8215155471"><ele>607.21</ele><time>2015-04-28T10:39:59Z</time></trkpt><trkpt lat="35.0265677087" lon="32.8216004558"><ele>607.69</ele><time>2015-04-28T10:40:11Z</time></trkpt><trkpt lat="35.0265539624" lon="32.8215843625"><ele>607.69</ele><time>2015-04-28T10:40:35Z</time></trkpt><trkpt lat="35.0265626796" lon="32.8216080833"><ele>607.21</ele><time>2015-04-28T10:40:54Z</time></trkpt><trkpt lat="35.0265595783" lon="32.8216038086"><ele>607.21</ele><time>2015-04-28T10:41:24Z</time></trkpt><trkpt lat="35.0265480112" lon="32.8216224164"><ele>606.73</ele><time>2015-04-28T10:41:43Z</time></trkpt><trkpt lat="35.0265265536" lon="32.8216205724"><ele>606.73</ele><time>2015-04-28T10:42:11Z</time></trkpt><trkpt lat="35.0264993962" lon="32.8216160461"><ele>606.73</ele><time>2015-04-28T10:42:45Z</time></trkpt><trkpt lat="35.0265190937" lon="32.8216369171"><ele>606.25</ele><time>2015-04-28T10:43:26Z</time></trkpt><trkpt lat="35.0265133940" lon="32.8216524236"><ele>606.25</ele><time>2015-04-28T10:43:59Z</time></trkpt><trkpt lat="35.0265518669" lon="32.8215928283"><ele>605.77</ele><time>2015-04-28T10:44:38Z</time></trkpt><trkpt lat="35.0265389588" lon="32.8216278646"><ele>605.77</ele><time>2015-04-28T10:45:11Z</time></trkpt><trkpt lat="35.0265024137" lon="32.8216225840"><ele>605.29</ele><time>2015-04-28T10:45:51Z</time></trkpt><trkpt lat="35.0265404675" lon="32.8216216620"><ele>605.29</ele><time>2015-04-28T10:46:28Z</time></trkpt><trkpt lat="35.0265394617" lon="32.8215991985"><ele>604.81</ele><time>2015-04-28T10:47:00Z</time></trkpt><trkpt lat="35.0265279785" lon="32.8216005396"><ele>604.81</ele><time>2015-04-28T10:47:48Z</time></trkpt><trkpt lat="35.0265228655" lon="32.8216153756"><ele>604.33</ele><time>2015-04-28T10:48:22Z</time></trkpt><trkpt lat="35.0265040901" lon="32.8216207400"><ele>603.85</ele><time>2015-04-28T10:49:01Z</time></trkpt><trkpt lat="35.0265215244" lon="32.8216121905"><ele>603.85</ele><time>2015-04-28T10:49:36Z</time></trkpt><trkpt lat="35.0265298225" lon="32.8215965163"><ele>603.85</ele><time>2015-04-28T10:50:10Z</time></trkpt><trkpt lat="35.0265491009" lon="32.8216043953"><ele>603.85</ele><time>2015-04-28T10:50:42Z</time></trkpt><trkpt lat="35.0265314989" lon="32.8215911519"><ele>603.36</ele><time>2015-04-28T10:51:17Z</time></trkpt><trkpt lat="35.0265323371" lon="32.8215868771"><ele>603.36</ele><time>2015-04-28T10:52:05Z</time></trkpt><trkpt lat="35.0265262183" lon="32.8215714544"><ele>603.36</ele><time>2015-04-28T10:52:47Z</time></trkpt><trkpt lat="35.0265388750" lon="32.8215955105"><ele>602.88</ele><time>2015-04-28T10:53:22Z</time></trkpt><trkpt lat="35.0265654456" lon="32.8215845302"><ele>602.88</ele><time>2015-04-28T10:53:57Z</time></trkpt><trkpt lat="35.0265770964" lon="32.8216074128"><ele>602.40</ele><time>2015-04-28T10:54:40Z</time></trkpt><trkpt lat="35.0265832990" lon="32.8216121066"><ele>602.40</ele><time>2015-04-28T10:55:21Z</time></trkpt><trkpt lat="35.0265791081" lon="32.8215820994"><ele>602.40</ele><time>2015-04-28T10:55:43Z</time></trkpt><trkpt lat="35.0266060978" lon="32.8215978574"><ele>601.92</ele><time>2015-04-28T10:56:20Z</time></trkpt><trkpt lat="35.0265561417" lon="32.8216131125"><ele>601.92</ele><time>2015-04-28T10:57:00Z</time></trkpt><trkpt lat="35.0265764259" lon="32.8215979412"><ele>602.88</ele><time>2015-04-28T10:57:26Z</time></trkpt><trkpt lat="35.0266186707" lon="32.8216834366"><ele>603.36</ele><time>2015-04-28T10:57:39Z</time></trkpt><trkpt lat="35.0266346801" lon="32.8217460494"><ele>603.85</ele><time>2015-04-28T10:57:46Z</time></trkpt><trkpt lat="35.0265832152" lon="32.8218504041"><ele>605.77</ele><time>2015-04-28T10:58:00Z</time></trkpt><trkpt lat="35.0265458319" lon="32.8218817525"><ele>605.77</ele><time>2015-04-28T10:58:06Z</time></trkpt><trkpt lat="35.0264242105" lon="32.8219138552"><ele>607.21</ele><time>2015-04-28T10:58:20Z</time></trkpt><trkpt lat="35.0263339374" lon="32.8219649009"><ele>608.65</ele><time>2015-04-28T10:58:32Z</time></trkpt><trkpt lat="35.0262484420" lon="32.8220553417"><ele>611.06</ele><time>2015-04-28T10:58:45Z</time></trkpt><trkpt lat="35.0262134895" lon="32.8220824990"><ele>611.54</ele><time>2015-04-28T10:58:49Z</time></trkpt><trkpt lat="35.0261479430" lon="32.8220995981"><ele>612.50</ele><time>2015-04-28T10:58:56Z</time></trkpt><trkpt lat="35.0261252280" lon="32.8220539168"><ele>612.98</ele><time>2015-04-28T10:59:02Z</time></trkpt><trkpt lat="35.0261646230" lon="32.8219205607"><ele>614.42</ele><time>2015-04-28T10:59:17Z</time></trkpt><trkpt lat="35.0262113940" lon="32.8218225762"><ele>615.86</ele><time>2015-04-28T10:59:28Z</time></trkpt><trkpt lat="35.0263349432" lon="32.8216781560"><ele>618.26</ele><time>2015-04-28T10:59:44Z</time></trkpt><trkpt lat="35.0263613462" lon="32.8216166329"><ele>619.23</ele><time>2015-04-28T10:59:51Z</time></trkpt><trkpt lat="35.0263435766" lon="32.8215959296"><ele>619.71</ele><time>2015-04-28T10:59:54Z</time></trkpt><trkpt lat="35.0263053551" lon="32.8216221649"><ele>620.19</ele><time>2015-04-28T10:59:59Z</time></trkpt><trkpt lat="35.0261901878" lon="32.8217095044"><ele>622.11</ele><time>2015-04-28T11:00:14Z</time></trkpt><trkpt lat="35.0260720029" lon="32.8217583708"><ele>623.55</ele><time>2015-04-28T11:00:27Z</time></trkpt><trkpt lat="35.0259408262" lon="32.8217931557"><ele>624.99</ele><time>2015-04-28T11:00:41Z</time></trkpt><trkpt lat="35.0258205459" lon="32.8218242526"><ele>626.44</ele><time>2015-04-28T11:00:53Z</time></trkpt><trkpt lat="35.0256924704" lon="32.8218809143"><ele>628.36</ele><time>2015-04-28T11:01:08Z</time></trkpt><trkpt lat="35.0255943183" lon="32.8219306190"><ele>629.32</ele><time>2015-04-28T11:01:19Z</time></trkpt><trkpt lat="35.0255455356" lon="32.8219628055"><ele>629.80</ele><time>2015-04-28T11:01:25Z</time></trkpt><trkpt lat="35.0254813302" lon="32.8219965845"><ele>630.28</ele><time>2015-04-28T11:01:32Z</time></trkpt><trkpt lat="35.0254210643" lon="32.8220344707"><ele>631.24</ele><time>2015-04-28T11:01:39Z</time></trkpt><trkpt lat="35.0252436195" lon="32.8221186250"><ele>633.17</ele><time>2015-04-28T11:01:57Z</time></trkpt><trkpt lat="35.0252240896" lon="32.8221270908"><ele>633.17</ele><time>2015-04-28T11:01:59Z</time></trkpt><trkpt lat="35.0250748917" lon="32.8221217263"><ele>635.09</ele><time>2015-04-28T11:02:14Z</time></trkpt><trkpt lat="35.0250671804" lon="32.8221214749"><ele>635.09</ele><time>2015-04-28T11:02:15Z</time></trkpt><trkpt lat="35.0250075012" lon="32.8220792301"><ele>636.05</ele><time>2015-04-28T11:02:22Z</time></trkpt><trkpt lat="35.0249189883" lon="32.8220501449"><ele>636.05</ele><time>2015-04-28T11:02:31Z</time></trkpt><trkpt lat="35.0247028191" lon="32.8221374843"><ele>636.53</ele><time>2015-04-28T11:02:46Z</time></trkpt><trkpt lat="35.0245775096" lon="32.8224759456"><ele>635.57</ele><time>2015-04-28T11:03:01Z</time></trkpt><trkpt lat="35.0243081152" lon="32.8226589225"><ele>633.65</ele><time>2015-04-28T11:03:14Z</time></trkpt><trkpt lat="35.0242714025" lon="32.8226735070"><ele>633.65</ele><time>2015-04-28T11:03:15Z</time></trkpt><trkpt lat="35.0242390484" lon="32.8226924501"><ele>633.65</ele><time>2015-04-28T11:03:16Z</time></trkpt><trkpt lat="35.0242134836" lon="32.8227104712"><ele>634.13</ele><time>2015-04-28T11:03:17Z</time></trkpt><trkpt lat="35.0241950434" lon="32.8227252234"><ele>634.13</ele><time>2015-04-28T11:03:18Z</time></trkpt><trkpt lat="35.0241822191" lon="32.8227361199"><ele>634.13</ele><time>2015-04-28T11:03:19Z</time></trkpt><trkpt lat="35.0241695624" lon="32.8227438312"><ele>634.13</ele><time>2015-04-28T11:03:20Z</time></trkpt><trkpt lat="35.0241555646" lon="32.8227519616"><ele>634.61</ele><time>2015-04-28T11:03:21Z</time></trkpt><trkpt lat="35.0241420697" lon="32.8227620199"><ele>634.13</ele><time>2015-04-28T11:03:22Z</time></trkpt><trkpt lat="35.0241297483" lon="32.8227730840"><ele>634.61</ele><time>2015-04-28T11:03:23Z</time></trkpt><trkpt lat="35.0241179299" lon="32.8227836452"><ele>634.61</ele><time>2015-04-28T11:03:24Z</time></trkpt><trkpt lat="35.0241072010" lon="32.8227942903"><ele>634.61</ele><time>2015-04-28T11:03:25Z</time></trkpt><trkpt lat="35.0240969751" lon="32.8228047676"><ele>634.61</ele><time>2015-04-28T11:03:26Z</time></trkpt><trkpt lat="35.0240847375" lon="32.8228140716"><ele>634.61</ele><time>2015-04-28T11:03:27Z</time></trkpt><trkpt lat="35.0240735896" lon="32.8228236269"><ele>634.61</ele><time>2015-04-28T11:03:28Z</time></trkpt><trkpt lat="35.0238526426" lon="32.8229414765"><ele>634.61</ele><time>2015-04-28T11:03:45Z</time></trkpt><trkpt lat="35.0236206315" lon="32.8229741659"><ele>634.61</ele><time>2015-04-28T11:03:58Z</time></trkpt><trkpt lat="35.0234053005" lon="32.8229380399"><ele>635.57</ele><time>2015-04-28T11:04:12Z</time></trkpt><trkpt lat="35.0233393349" lon="32.8229299095"><ele>635.09</ele><time>2015-04-28T11:04:16Z</time></trkpt><trkpt lat="35.0233223196" lon="32.8229231201"><ele>635.57</ele><time>2015-04-28T11:04:17Z</time></trkpt><trkpt lat="35.0233042985" lon="32.8229155764"><ele>635.57</ele><time>2015-04-28T11:04:18Z</time></trkpt><trkpt lat="35.0232853554" lon="32.8229082003"><ele>635.57</ele><time>2015-04-28T11:04:19Z</time></trkpt><trkpt lat="35.0232667476" lon="32.8229016624"><ele>636.05</ele><time>2015-04-28T11:04:20Z</time></trkpt><trkpt lat="35.0230302941" lon="32.8228265606"><ele>636.53</ele><time>2015-04-28T11:04:34Z</time></trkpt><trkpt lat="35.0227694493" lon="32.8229060210"><ele>636.53</ele><time>2015-04-28T11:04:50Z</time></trkpt><trkpt lat="35.0224184990" lon="32.8227404784"><ele>635.57</ele><time>2015-04-28T11:05:02Z</time></trkpt><trkpt lat="35.0221553911" lon="32.8224023525"><ele>636.05</ele><time>2015-04-28T11:05:14Z</time></trkpt><trkpt lat="35.0218608510" lon="32.8219295293"><ele>636.05</ele><time>2015-04-28T11:05:28Z</time></trkpt><trkpt lat="35.0216155965" lon="32.8217023797"><ele>636.05</ele><time>2015-04-28T11:05:39Z</time></trkpt><trkpt lat="35.0215844158" lon="32.8217204846"><ele>636.05</ele><time>2015-04-28T11:05:40Z</time></trkpt><trkpt lat="35.0215591863" lon="32.8217548504"><ele>636.05</ele><time>2015-04-28T11:05:41Z</time></trkpt><trkpt lat="35.0215382315" lon="32.8217956703"><ele>636.05</ele><time>2015-04-28T11:05:42Z</time></trkpt><trkpt lat="35.0215195399" lon="32.8218379151"><ele>636.05</ele><time>2015-04-28T11:05:43Z</time></trkpt><trkpt lat="35.0215037819" lon="32.8218805790"><ele>636.05</ele><time>2015-04-28T11:05:44Z</time></trkpt><trkpt lat="35.0214899518" lon="32.8219229076"><ele>636.05</ele><time>2015-04-28T11:05:45Z</time></trkpt><trkpt lat="35.0213382393" lon="32.8223101515"><ele>635.09</ele><time>2015-04-28T11:05:56Z</time></trkpt><trkpt lat="35.0209797453" lon="32.8227056935"><ele>633.17</ele><time>2015-04-28T11:06:09Z</time></trkpt><trkpt lat="35.0206639990" lon="32.8233786765"><ele>629.80</ele><time>2015-04-28T11:06:22Z</time></trkpt><trkpt lat="35.0205170643" lon="32.8237903118"><ele>626.92</ele><time>2015-04-28T11:06:32Z</time></trkpt><trkpt lat="35.0202813651" lon="32.8238338139"><ele>625.96</ele><time>2015-04-28T11:06:43Z</time></trkpt><trkpt lat="35.0200961251" lon="32.8237553593"><ele>625.96</ele><time>2015-04-28T11:06:56Z</time></trkpt><trkpt lat="35.0200714823" lon="32.8237425350"><ele>625.96</ele><time>2015-04-28T11:06:58Z</time></trkpt><trkpt lat="35.0200569816" lon="32.8237422835"><ele>625.47</ele><time>2015-04-28T11:06:59Z</time></trkpt><trkpt lat="35.0200422294" lon="32.8237409424"><ele>625.47</ele><time>2015-04-28T11:07:00Z</time></trkpt><trkpt lat="35.0198327657" lon="32.8236516751"><ele>624.99</ele><time>2015-04-28T11:07:14Z</time></trkpt><trkpt lat="35.0197586697" lon="32.8236028925"><ele>624.99</ele><time>2015-04-28T11:07:27Z</time></trkpt><trkpt lat="35.0197468512" lon="32.8236063290"><ele>624.99</ele><time>2015-04-28T11:07:57Z</time></trkpt><trkpt lat="35.0197437499" lon="32.8236077540"><ele>624.99</ele><time>2015-04-28T11:08:23Z</time></trkpt><trkpt lat="35.0197332725" lon="32.8236006293"><ele>624.99</ele><time>2015-04-28T11:08:54Z</time></trkpt><trkpt lat="35.0197393075" lon="32.8235899005"><ele>625.47</ele><time>2015-04-28T11:09:20Z</time></trkpt><trkpt lat="35.0197295845" lon="32.8235937562"><ele>625.47</ele><time>2015-04-28T11:09:49Z</time></trkpt><trkpt lat="35.0197372120" lon="32.8235993721"><ele>624.99</ele><time>2015-04-28T11:10:11Z</time></trkpt><trkpt lat="35.0197280757" lon="32.8235987853"><ele>625.47</ele><time>2015-04-28T11:10:39Z</time></trkpt><trkpt lat="35.0196041074" lon="32.8234989569"><ele>624.99</ele><time>2015-04-28T11:10:57Z</time></trkpt><trkpt lat="35.0193449389" lon="32.8234810196"><ele>623.55</ele><time>2015-04-28T11:11:08Z</time></trkpt><trkpt lat="35.0192446075" lon="32.8234620765"><ele>622.59</ele><time>2015-04-28T11:11:14Z</time></trkpt><trkpt lat="35.0189694297" lon="32.8231577296"><ele>622.59</ele><time>2015-04-28T11:11:27Z</time></trkpt><trkpt lat="35.0188117661" lon="32.8231691290"><ele>624.03</ele><time>2015-04-28T11:11:37Z</time></trkpt><trkpt lat="35.0187956728" lon="32.8231683746"><ele>624.03</ele><time>2015-04-28T11:11:38Z</time></trkpt><trkpt lat="35.0186125282" lon="32.8230392933"><ele>624.99</ele><time>2015-04-28T11:11:51Z</time></trkpt><trkpt lat="35.0184714608" lon="32.8228180949"><ele>624.03</ele><time>2015-04-28T11:12:02Z</time></trkpt><trkpt lat="35.0184505899" lon="32.8228132334"><ele>624.03</ele><time>2015-04-28T11:12:03Z</time></trkpt><trkpt lat="35.0184287969" lon="32.8228119761"><ele>624.03</ele><time>2015-04-28T11:12:04Z</time></trkpt><trkpt lat="35.0182623323" lon="32.8227742575"><ele>623.07</ele><time>2015-04-28T11:12:09Z</time></trkpt><trkpt lat="35.0182257034" lon="32.8227552306"><ele>623.07</ele><time>2015-04-28T11:12:10Z</time></trkpt><trkpt lat="35.0181934331" lon="32.8227314260"><ele>623.07</ele><time>2015-04-28T11:12:11Z</time></trkpt><trkpt lat="35.0180759188" lon="32.8226170968"><ele>621.63</ele><time>2015-04-28T11:12:15Z</time></trkpt><trkpt lat="35.0179488491" lon="32.8224942181"><ele>621.15</ele><time>2015-04-28T11:12:18Z</time></trkpt><trkpt lat="35.0179123040" lon="32.8224377241"><ele>620.67</ele><time>2015-04-28T11:12:19Z</time></trkpt><trkpt lat="35.0178904273" lon="32.8223814815"><ele>621.63</ele><time>2015-04-28T11:12:20Z</time></trkpt><trkpt lat="35.0178784411" lon="32.8223341238"><ele>622.11</ele><time>2015-04-28T11:12:21Z</time></trkpt><trkpt lat="35.0178718194" lon="32.8222986683"><ele>622.59</ele><time>2015-04-28T11:12:22Z</time></trkpt><trkpt lat="35.0178342685" lon="32.8221410047"><ele>624.99</ele><time>2015-04-28T11:12:33Z</time></trkpt><trkpt lat="35.0178349391" lon="32.8220562637"><ele>625.96</ele><time>2015-04-28T11:12:39Z</time></trkpt><trkpt lat="35.0178460032" lon="32.8220034577"><ele>626.44</ele><time>2015-04-28T11:12:43Z</time></trkpt><trkpt lat="35.0178439915" lon="32.8219883703"><ele>626.92</ele><time>2015-04-28T11:12:44Z</time></trkpt><trkpt lat="35.0178009924" lon="32.8217625618"><ele>628.84</ele><time>2015-04-28T11:13:01Z</time></trkpt><trkpt lat="35.0177673809" lon="32.8216620628"><ele>629.80</ele><time>2015-04-28T11:13:09Z</time></trkpt><trkpt lat="35.0177578256" lon="32.8216415271"><ele>629.80</ele><time>2015-04-28T11:13:11Z</time></trkpt><trkpt lat="35.0177525450" lon="32.8216297086"><ele>630.28</ele><time>2015-04-28T11:13:12Z</time></trkpt><trkpt lat="35.0177296624" lon="32.8216071613"><ele>630.28</ele><time>2015-04-28T11:13:15Z</time></trkpt><trkpt lat="35.0177092105" lon="32.8215834405"><ele>630.76</ele><time>2015-04-28T11:13:18Z</time></trkpt><trkpt lat="35.0177042652" lon="32.8215747233"><ele>630.76</ele><time>2015-04-28T11:13:19Z</time></trkpt><trkpt lat="35.0176979788" lon="32.8215657547"><ele>630.76</ele><time>2015-04-28T11:13:20Z</time></trkpt><trkpt lat="35.0176880043" lon="32.8214494139"><ele>632.20</ele><time>2015-04-28T11:13:32Z</time></trkpt><trkpt lat="35.0176781137" lon="32.8212670237"><ele>633.65</ele><time>2015-04-28T11:13:48Z</time></trkpt><trkpt lat="35.0176765211" lon="32.8212532774"><ele>634.13</ele><time>2015-04-28T11:13:49Z</time></trkpt><trkpt lat="35.0176708214" lon="32.8211644292"><ele>634.61</ele><time>2015-04-28T11:13:56Z</time></trkpt><trkpt lat="35.0176631100" lon="32.8211248666"><ele>635.09</ele><time>2015-04-28T11:13:59Z</time></trkpt><trkpt lat="35.0176604278" lon="32.8211113717"><ele>635.09</ele><time>2015-04-28T11:14:00Z</time></trkpt><trkpt lat="35.0176665466" lon="32.8209900018"><ele>635.57</ele><time>2015-04-28T11:14:09Z</time></trkpt><trkpt lat="35.0176713243" lon="32.8209755011"><ele>636.05</ele><time>2015-04-28T11:14:10Z</time></trkpt><trkpt lat="35.0176728331" lon="32.8209615871"><ele>636.05</ele><time>2015-04-28T11:14:11Z</time></trkpt><trkpt lat="35.0176463462" lon="32.8207673784"><ele>637.01</ele><time>2015-04-28T11:14:24Z</time></trkpt><trkpt lat="35.0175787043" lon="32.8205538914"><ele>637.01</ele><time>2015-04-28T11:14:36Z</time></trkpt><trkpt lat="35.0175232999" lon="32.8205113951"><ele>637.01</ele><time>2015-04-28T11:14:39Z</time></trkpt><trkpt lat="35.0175053626" lon="32.8205145802"><ele>637.01</ele><time>2015-04-28T11:14:40Z</time></trkpt><trkpt lat="35.0174896885" lon="32.8205226269"><ele>637.49</ele><time>2015-04-28T11:14:41Z</time></trkpt><trkpt lat="35.0174776185" lon="32.8205335233"><ele>637.49</ele><time>2015-04-28T11:14:42Z</time></trkpt><trkpt lat="35.0174652133" lon="32.8205455095"><ele>637.97</ele><time>2015-04-28T11:14:43Z</time></trkpt><trkpt lat="35.0174524728" lon="32.8205599263"><ele>637.97</ele><time>2015-04-28T11:14:44Z</time></trkpt><trkpt lat="35.0174407382" lon="32.8205788694"><ele>637.97</ele><time>2015-04-28T11:14:45Z</time></trkpt><trkpt lat="35.0172018539" lon="32.8209331725"><ele>636.05</ele><time>2015-04-28T11:14:58Z</time></trkpt><trkpt lat="35.0170624629" lon="32.8211253695"><ele>634.13</ele><time>2015-04-28T11:15:04Z</time></trkpt><trkpt lat="35.0165839400" lon="32.8215118591"><ele>633.17</ele><time>2015-04-28T11:15:17Z</time></trkpt><trkpt lat="35.0163445529" lon="32.8217185568"><ele>634.13</ele><time>2015-04-28T11:15:27Z</time></trkpt><trkpt lat="35.0160938501" lon="32.8218390886"><ele>637.01</ele><time>2015-04-28T11:15:39Z</time></trkpt><trkpt lat="35.0159773417" lon="32.8218360711"><ele>637.97</ele><time>2015-04-28T11:15:47Z</time></trkpt><trkpt lat="35.0159625057" lon="32.8218377475"><ele>638.45</ele><time>2015-04-28T11:15:48Z</time></trkpt><trkpt lat="35.0159469992" lon="32.8218404297"><ele>638.45</ele><time>2015-04-28T11:15:49Z</time></trkpt><trkpt lat="35.0159333367" lon="32.8218411002"><ele>638.45</ele><time>2015-04-28T11:15:50Z</time></trkpt><trkpt lat="35.0159220211" lon="32.8218379151"><ele>638.93</ele><time>2015-04-28T11:15:51Z</time></trkpt><trkpt lat="35.0159092806" lon="32.8218341433"><ele>638.93</ele><time>2015-04-28T11:15:52Z</time></trkpt><trkpt lat="35.0157698058" lon="32.8217410203"><ele>640.86</ele><time>2015-04-28T11:16:05Z</time></trkpt><trkpt lat="35.0156891719" lon="32.8214988671"><ele>643.26</ele><time>2015-04-28T11:16:21Z</time></trkpt><trkpt lat="35.0155781116" lon="32.8212371841"><ele>646.14</ele><time>2015-04-28T11:16:38Z</time></trkpt><trkpt lat="35.0155066140" lon="32.8211127128"><ele>647.10</ele><time>2015-04-28T11:16:47Z</time></trkpt><trkpt lat="35.0154992379" lon="32.8210965358"><ele>647.10</ele><time>2015-04-28T11:16:48Z</time></trkpt><trkpt lat="35.0154883415" lon="32.8210793529"><ele>647.10</ele><time>2015-04-28T11:16:49Z</time></trkpt><trkpt lat="35.0154755171" lon="32.8210636787"><ele>647.10</ele><time>2015-04-28T11:16:50Z</time></trkpt><trkpt lat="35.0154660456" lon="32.8210506868"><ele>647.10</ele><time>2015-04-28T11:16:51Z</time></trkpt><trkpt lat="35.0154585019" lon="32.8210387006"><ele>647.10</ele><time>2015-04-28T11:16:52Z</time></trkpt><trkpt lat="35.0154471025" lon="32.8210267983"><ele>647.59</ele><time>2015-04-28T11:16:53Z</time></trkpt><trkpt lat="35.0154346973" lon="32.8210138902"><ele>647.10</ele><time>2015-04-28T11:16:54Z</time></trkpt><trkpt lat="35.0154207833" lon="32.8209983837"><ele>647.59</ele><time>2015-04-28T11:16:55Z</time></trkpt><trkpt lat="35.0152900256" lon="32.8207563981"><ele>649.51</ele><time>2015-04-28T11:17:08Z</time></trkpt><trkpt lat="35.0152168516" lon="32.8206871636"><ele>650.47</ele><time>2015-04-28T11:17:14Z</time></trkpt><trkpt lat="35.0152023509" lon="32.8206825536"><ele>650.47</ele><time>2015-04-28T11:17:15Z</time></trkpt><trkpt lat="35.0151880179" lon="32.8206771892"><ele>650.47</ele><time>2015-04-28T11:17:16Z</time></trkpt><trkpt lat="35.0151725113" lon="32.8206784464"><ele>650.47</ele><time>2015-04-28T11:17:17Z</time></trkpt><trkpt lat="35.0151549932" lon="32.8206840623"><ele>650.47</ele><time>2015-04-28T11:17:18Z</time></trkpt><trkpt lat="35.0150635466" lon="32.8207303304"><ele>649.99</ele><time>2015-04-28T11:17:22Z</time></trkpt><trkpt lat="35.0150470342" lon="32.8207528777"><ele>649.99</ele><time>2015-04-28T11:17:23Z</time></trkpt><trkpt lat="35.0150311925" lon="32.8207763471"><ele>650.47</ele><time>2015-04-28T11:17:24Z</time></trkpt><trkpt lat="35.0150156859" lon="32.8208023310"><ele>650.47</ele><time>2015-04-28T11:17:25Z</time></trkpt><trkpt lat="35.0149990898" lon="32.8208266385"><ele>650.47</ele><time>2015-04-28T11:17:26Z</time></trkpt><trkpt lat="35.0149809849" lon="32.8208481800"><ele>650.47</ele><time>2015-04-28T11:17:27Z</time></trkpt><trkpt lat="35.0149610359" lon="32.8208665363"><ele>650.47</ele><time>2015-04-28T11:17:28Z</time></trkpt><trkpt lat="35.0149421766" lon="32.8208792768"><ele>650.47</ele><time>2015-04-28T11:17:29Z</time></trkpt><trkpt lat="35.0149247423" lon="32.8208879102"><ele>650.47</ele><time>2015-04-28T11:17:30Z</time></trkpt><trkpt lat="35.0147354789" lon="32.8209988866"><ele>649.99</ele><time>2015-04-28T11:17:42Z</time></trkpt><trkpt lat="35.0147224031" lon="32.8210166562"><ele>650.47</ele><time>2015-04-28T11:17:43Z</time></trkpt><trkpt lat="35.0147188827" lon="32.8210338391"><ele>649.99</ele><time>2015-04-28T11:17:44Z</time></trkpt><trkpt lat="35.0147228222" lon="32.8210527822"><ele>649.99</ele><time>2015-04-28T11:17:45Z</time></trkpt><trkpt lat="35.0147295278" lon="32.8210740723"><ele>649.99</ele><time>2015-04-28T11:17:46Z</time></trkpt><trkpt lat="35.0147364847" lon="32.8210951947"><ele>649.99</ele><time>2015-04-28T11:17:47Z</time></trkpt><trkpt lat="35.0147404242" lon="32.8211187478"><ele>649.99</ele><time>2015-04-28T11:17:48Z</time></trkpt><trkpt lat="35.0147861056" lon="32.8214733023"><ele>649.03</ele><time>2015-04-28T11:18:03Z</time></trkpt><trkpt lat="35.0147647317" lon="32.8214927483"><ele>649.03</ele><time>2015-04-28T11:18:04Z</time></trkpt><trkpt lat="35.0147399213" lon="32.8215062432"><ele>649.03</ele><time>2015-04-28T11:18:05Z</time></trkpt><trkpt lat="35.0147187989" lon="32.8215122782"><ele>649.03</ele><time>2015-04-28T11:18:06Z</time></trkpt><trkpt lat="35.0146985147" lon="32.8215106856"><ele>649.03</ele><time>2015-04-28T11:18:07Z</time></trkpt><trkpt lat="35.0146809127" lon="32.8215065785"><ele>649.03</ele><time>2015-04-28T11:18:08Z</time></trkpt><trkpt lat="35.0144677609" lon="32.8214914910"><ele>649.99</ele><time>2015-04-28T11:18:23Z</time></trkpt><trkpt lat="35.0144506618" lon="32.8215287905"><ele>649.51</ele><time>2015-04-28T11:18:42Z</time></trkpt><trkpt lat="35.0144370832" lon="32.8215262759"><ele>649.03</ele><time>2015-04-28T11:19:18Z</time></trkpt><trkpt lat="35.0144142006" lon="32.8215241805"><ele>649.03</ele><time>2015-04-28T11:19:52Z</time></trkpt><trkpt lat="35.0144281983" lon="32.8215078358"><ele>648.55</ele><time>2015-04-28T11:20:22Z</time></trkpt><trkpt lat="35.0144236721" lon="32.8214954305"><ele>648.55</ele><time>2015-04-28T11:21:02Z</time></trkpt><trkpt lat="35.0144302100" lon="32.8214723803"><ele>648.07</ele><time>2015-04-28T11:21:31Z</time></trkpt><trkpt lat="35.0144426990" lon="32.8214801755"><ele>648.55</ele><time>2015-04-28T11:21:58Z</time></trkpt><trkpt lat="35.0144505780" lon="32.8215278685"><ele>648.07</ele><time>2015-04-28T11:22:37Z</time></trkpt><trkpt lat="35.0144546852" lon="32.8214948438"><ele>648.07</ele><time>2015-04-28T11:23:14Z</time></trkpt><trkpt lat="35.0144595467" lon="32.8214979451"><ele>647.59</ele><time>2015-04-28T11:23:49Z</time></trkpt><trkpt lat="35.0144270249" lon="32.8214930836"><ele>647.10</ele><time>2015-04-28T11:24:17Z</time></trkpt><trkpt lat="35.0144538470" lon="32.8214831930"><ele>647.59</ele><time>2015-04-28T11:24:50Z</time></trkpt><trkpt lat="35.0144656654" lon="32.8214980289"><ele>647.10</ele><time>2015-04-28T11:25:28Z</time></trkpt><trkpt lat="35.0144621450" lon="32.8214816004"><ele>646.62</ele><time>2015-04-28T11:26:11Z</time></trkpt><trkpt lat="35.0144666713" lon="32.8215217497"><ele>647.10</ele><time>2015-04-28T11:26:49Z</time></trkpt><trkpt lat="35.0144587085" lon="32.8215364181"><ele>646.62</ele><time>2015-04-28T11:27:22Z</time></trkpt><trkpt lat="35.0144623965" lon="32.8215295449"><ele>647.10</ele><time>2015-04-28T11:28:00Z</time></trkpt><trkpt lat="35.0144751370" lon="32.8215268627"><ele>647.10</ele><time>2015-04-28T11:28:45Z</time></trkpt><trkpt lat="35.0144608039" lon="32.8214820195"><ele>646.62</ele><time>2015-04-28T11:29:25Z</time></trkpt><trkpt lat="35.0144303776" lon="32.8214627411"><ele>646.62</ele><time>2015-04-28T11:29:55Z</time></trkpt><trkpt lat="35.0144386757" lon="32.8214401938"><ele>646.62</ele><time>2015-04-28T11:30:27Z</time></trkpt><trkpt lat="35.0144522544" lon="32.8214326501"><ele>646.14</ele><time>2015-04-28T11:31:07Z</time></trkpt><trkpt lat="35.0144724548" lon="32.8214291297"><ele>646.14</ele><time>2015-04-28T11:31:43Z</time></trkpt><trkpt lat="35.0144522544" lon="32.8214427084"><ele>645.66</ele><time>2015-04-28T11:32:12Z</time></trkpt><trkpt lat="35.0144696049" lon="32.8214069176"><ele>645.66</ele><time>2015-04-28T11:32:46Z</time></trkpt><trkpt lat="35.0144666713" lon="32.8213713784"><ele>645.18</ele><time>2015-04-28T11:33:18Z</time></trkpt><trkpt lat="35.0144607201" lon="32.8213862143"><ele>645.18</ele><time>2015-04-28T11:33:48Z</time></trkpt><trkpt lat="35.0144775677" lon="32.8213922493"><ele>644.22</ele><time>2015-04-28T11:34:23Z</time></trkpt><trkpt lat="35.0144791603" lon="32.8214208316"><ele>644.22</ele><time>2015-04-28T11:34:58Z</time></trkpt><trkpt lat="35.0144611392" lon="32.8213883098"><ele>643.26</ele><time>2015-04-28T11:35:40Z</time></trkpt><trkpt lat="35.0144829322" lon="32.8214180656"><ele>643.26</ele><time>2015-04-28T11:36:12Z</time></trkpt><trkpt lat="35.0144871231" lon="32.8214366734"><ele>642.78</ele><time>2015-04-28T11:36:53Z</time></trkpt><trkpt lat="35.0144732092" lon="32.8214308061"><ele>642.78</ele><time>2015-04-28T11:37:31Z</time></trkpt><trkpt lat="35.0144919008" lon="32.8214406967"><ele>642.30</ele><time>2015-04-28T11:38:13Z</time></trkpt><trkpt lat="35.0144624803" lon="32.8214688599"><ele>641.82</ele><time>2015-04-28T11:38:57Z</time></trkpt><trkpt lat="35.0144517515" lon="32.8214709554"><ele>641.82</ele><time>2015-04-28T11:39:27Z</time></trkpt><trkpt lat="35.0144561939" lon="32.8214699496"><ele>641.82</ele><time>2015-04-28T11:40:01Z</time></trkpt><trkpt lat="35.0144442078" lon="32.8214423731"><ele>641.82</ele><time>2015-04-28T11:40:50Z</time></trkpt><trkpt lat="35.0144431181" lon="32.8214464802"><ele>641.34</ele><time>2015-04-28T11:41:26Z</time></trkpt><trkpt lat="35.0144500751" lon="32.8214308899"><ele>641.34</ele><time>2015-04-28T11:41:59Z</time></trkpt><trkpt lat="35.0144529250" lon="32.8214132879"><ele>641.34</ele><time>2015-04-28T11:42:44Z</time></trkpt><trkpt lat="35.0144202355" lon="32.8213756531"><ele>641.34</ele><time>2015-04-28T11:43:27Z</time></trkpt><trkpt lat="35.0144585408" lon="32.8213708755"><ele>640.86</ele><time>2015-04-28T11:44:02Z</time></trkpt><trkpt lat="35.0144478120" lon="32.8213591408"><ele>640.86</ele><time>2015-04-28T11:44:39Z</time></trkpt><trkpt lat="35.0144709460" lon="32.8213303909"><ele>640.38</ele><time>2015-04-28T11:45:11Z</time></trkpt><trkpt lat="35.0144464709" lon="32.8213363420"><ele>640.38</ele><time>2015-04-28T11:45:32Z</time></trkpt><trkpt lat="35.0144362450" lon="32.8213518485"><ele>640.86</ele><time>2015-04-28T11:45:45Z</time></trkpt><trkpt lat="35.0144376699" lon="32.8213726357"><ele>640.86</ele><time>2015-04-28T11:46:09Z</time></trkpt><trkpt lat="35.0144300424" lon="32.8213899862"><ele>640.86</ele><time>2015-04-28T11:46:38Z</time></trkpt><trkpt lat="35.0144218281" lon="32.8214288782"><ele>640.86</ele><time>2015-04-28T11:46:59Z</time></trkpt><trkpt lat="35.0144399330" lon="32.8214484081"><ele>640.86</ele><time>2015-04-28T11:47:28Z</time></trkpt><trkpt lat="35.0144498236" lon="32.8214564547"><ele>641.34</ele><time>2015-04-28T11:47:52Z</time></trkpt><trkpt lat="35.0144039746" lon="32.8214588016"><ele>641.34</ele><time>2015-04-28T11:48:12Z</time></trkpt><trkpt lat="35.0143368356" lon="32.8214986157"><ele>641.34</ele><time>2015-04-28T11:48:22Z</time></trkpt><trkpt lat="35.0143253524" lon="32.8215070814"><ele>641.34</ele><time>2015-04-28T11:48:23Z</time></trkpt><trkpt lat="35.0141539425" lon="32.8216949198"><ele>640.86</ele><time>2015-04-28T11:48:36Z</time></trkpt><trkpt lat="35.0141308922" lon="32.8217219096"><ele>641.34</ele><time>2015-04-28T11:48:38Z</time></trkpt><trkpt lat="35.0141207501" lon="32.8217353206"><ele>640.86</ele><time>2015-04-28T11:48:39Z</time></trkpt><trkpt lat="35.0141114462" lon="32.8217474744"><ele>640.86</ele><time>2015-04-28T11:48:40Z</time></trkpt><trkpt lat="35.0139127951" lon="32.8219985124"><ele>640.38</ele><time>2015-04-28T11:48:53Z</time></trkpt><trkpt lat="35.0137725659" lon="32.8221864346"><ele>640.38</ele><time>2015-04-28T11:49:04Z</time></trkpt><trkpt lat="35.0135163311" lon="32.8221982531"><ele>640.86</ele><time>2015-04-28T11:49:18Z</time></trkpt><trkpt lat="35.0134140719" lon="32.8221463691"><ele>642.30</ele><time>2015-04-28T11:49:24Z</time></trkpt><trkpt lat="35.0134028401" lon="32.8221287671"><ele>641.82</ele><time>2015-04-28T11:49:25Z</time></trkpt><trkpt lat="35.0133918598" lon="32.8221135121"><ele>641.82</ele><time>2015-04-28T11:49:26Z</time></trkpt><trkpt lat="35.0132961385" lon="32.8219327144"><ele>644.70</ele><time>2015-04-28T11:49:39Z</time></trkpt><trkpt lat="35.0131796300" lon="32.8217545152"><ele>646.14</ele><time>2015-04-28T11:49:52Z</time></trkpt><trkpt lat="35.0130196195" lon="32.8215284552"><ele>648.07</ele><time>2015-04-28T11:50:08Z</time></trkpt><trkpt lat="35.0128400791" lon="32.8214230109"><ele>649.99</ele><time>2015-04-28T11:50:22Z</time></trkpt><trkpt lat="35.0126488041" lon="32.8213403653"><ele>650.95</ele><time>2015-04-28T11:50:37Z</time></trkpt><trkpt lat="35.0126088224" lon="32.8213132080"><ele>650.95</ele><time>2015-04-28T11:50:40Z</time></trkpt><trkpt lat="35.0126017816" lon="32.8212974500"><ele>650.95</ele><time>2015-04-28T11:50:41Z</time></trkpt><trkpt lat="35.0125663262" lon="32.8211247828"><ele>652.39</ele><time>2015-04-28T11:50:50Z</time></trkpt><trkpt lat="35.0125607103" lon="32.8211034089"><ele>652.87</ele><time>2015-04-28T11:50:51Z</time></trkpt><trkpt lat="35.0125330500" lon="32.8210014850"><ele>653.83</ele><time>2015-04-28T11:50:57Z</time></trkpt><trkpt lat="35.0125291944" lon="32.8209835477"><ele>653.83</ele><time>2015-04-28T11:50:58Z</time></trkpt><trkpt lat="35.0125254225" lon="32.8209668677"><ele>654.31</ele><time>2015-04-28T11:50:59Z</time></trkpt><trkpt lat="35.0125223212" lon="32.8209506068"><ele>654.31</ele><time>2015-04-28T11:51:00Z</time></trkpt><trkpt lat="35.0125188008" lon="32.8209343459"><ele>654.31</ele><time>2015-04-28T11:51:01Z</time></trkpt><trkpt lat="35.0125142746" lon="32.8209190909"><ele>654.80</ele><time>2015-04-28T11:51:02Z</time></trkpt><trkpt lat="35.0125107542" lon="32.8209023271"><ele>654.80</ele><time>2015-04-28T11:51:03Z</time></trkpt><trkpt lat="35.0125079881" lon="32.8208861500"><ele>654.80</ele><time>2015-04-28T11:51:04Z</time></trkpt><trkpt lat="35.0125053059" lon="32.8208708949"><ele>654.80</ele><time>2015-04-28T11:51:05Z</time></trkpt><trkpt lat="35.0125027075" lon="32.8208553884"><ele>655.28</ele><time>2015-04-28T11:51:06Z</time></trkpt><trkpt lat="35.0124983490" lon="32.8208414745"><ele>655.28</ele><time>2015-04-28T11:51:07Z</time></trkpt><trkpt lat="35.0124921463" lon="32.8208297398"><ele>655.76</ele><time>2015-04-28T11:51:08Z</time></trkpt><trkpt lat="35.0124856085" lon="32.8208188433"><ele>655.76</ele><time>2015-04-28T11:51:09Z</time></trkpt><trkpt lat="35.0124776457" lon="32.8208105452"><ele>655.76</ele><time>2015-04-28T11:51:10Z</time></trkpt><trkpt lat="35.0124675035" lon="32.8208031692"><ele>655.76</ele><time>2015-04-28T11:51:11Z</time></trkpt><trkpt lat="35.0123410206" lon="32.8208215255"><ele>657.20</ele><time>2015-04-28T11:51:24Z</time></trkpt><trkpt lat="35.0121077523" lon="32.8209597431"><ele>657.20</ele><time>2015-04-28T11:51:40Z</time></trkpt><trkpt lat="35.0119152199" lon="32.8210872319"><ele>658.16</ele><time>2015-04-28T11:51:50Z</time></trkpt><trkpt lat="35.0119184051" lon="32.8211040795"><ele>657.68</ele><time>2015-04-28T11:52:03Z</time></trkpt><trkpt lat="35.0119136274" lon="32.8210983798"><ele>657.68</ele><time>2015-04-28T11:52:25Z</time></trkpt><trkpt lat="35.0118194986" lon="32.8211511020"><ele>658.16</ele><time>2015-04-28T11:52:37Z</time></trkpt><trkpt lat="35.0116521958" lon="32.8212098591"><ele>658.64</ele><time>2015-04-28T11:52:48Z</time></trkpt><trkpt lat="35.0116020720" lon="32.8212210909"><ele>658.64</ele><time>2015-04-28T11:52:52Z</time></trkpt><trkpt lat="35.0115892477" lon="32.8212244436"><ele>659.12</ele><time>2015-04-28T11:52:53Z</time></trkpt><trkpt lat="35.0115748309" lon="32.8212230187"><ele>658.64</ele><time>2015-04-28T11:52:54Z</time></trkpt><trkpt lat="35.0115610007" lon="32.8212220967"><ele>659.12</ele><time>2015-04-28T11:52:55Z</time></trkpt><trkpt lat="35.0115456618" lon="32.8212189954"><ele>659.12</ele><time>2015-04-28T11:52:56Z</time></trkpt><trkpt lat="35.0115282275" lon="32.8212155588"><ele>659.12</ele><time>2015-04-28T11:52:57Z</time></trkpt><trkpt lat="35.0115128886" lon="32.8212115355"><ele>659.12</ele><time>2015-04-28T11:52:58Z</time></trkpt><trkpt lat="35.0113339350" lon="32.8211015649"><ele>660.56</ele><time>2015-04-28T11:53:11Z</time></trkpt><trkpt lat="35.0113211107" lon="32.8210601583"><ele>661.04</ele><time>2015-04-28T11:53:26Z</time></trkpt><trkpt lat="35.0113320071" lon="32.8210599907"><ele>661.04</ele><time>2015-04-28T11:53:51Z</time></trkpt><trkpt lat="35.0113159139" lon="32.8210534528"><ele>661.52</ele><time>2015-04-28T11:54:21Z</time></trkpt><trkpt lat="35.0113345217" lon="32.8210329171"><ele>661.52</ele><time>2015-04-28T11:54:33Z</time></trkpt><trkpt lat="35.0113418140" lon="32.8210134711"><ele>661.52</ele><time>2015-04-28T11:54:34Z</time></trkpt><trkpt lat="35.0113453344" lon="32.8209905047"><ele>662.01</ele><time>2015-04-28T11:54:35Z</time></trkpt><trkpt lat="35.0113439094" lon="32.8209690470"><ele>662.01</ele><time>2015-04-28T11:54:36Z</time></trkpt><trkpt lat="35.0113394670" lon="32.8209460806"><ele>662.01</ele><time>2015-04-28T11:54:37Z</time></trkpt><trkpt lat="35.0113053527" lon="32.8207389638"><ele>664.41</ele><time>2015-04-28T11:54:51Z</time></trkpt><trkpt lat="35.0112242159" lon="32.8206411470"><ele>665.85</ele><time>2015-04-28T11:55:00Z</time></trkpt><trkpt lat="35.0112125650" lon="32.8206325136"><ele>665.85</ele><time>2015-04-28T11:55:01Z</time></trkpt><trkpt lat="35.0111997407" lon="32.8206263948"><ele>665.85</ele><time>2015-04-28T11:55:02Z</time></trkpt><trkpt lat="35.0111863296" lon="32.8206220362"><ele>665.85</ele><time>2015-04-28T11:55:03Z</time></trkpt><trkpt lat="35.0111740921" lon="32.8206188511"><ele>666.33</ele><time>2015-04-28T11:55:04Z</time></trkpt><trkpt lat="35.0111433305" lon="32.8205972258"><ele>666.33</ele><time>2015-04-28T11:55:07Z</time></trkpt><trkpt lat="35.0111302547" lon="32.8205931187"><ele>666.81</ele><time>2015-04-28T11:55:08Z</time></trkpt><trkpt lat="35.0111173466" lon="32.8205889277"><ele>666.81</ele><time>2015-04-28T11:55:09Z</time></trkpt><trkpt lat="35.0111025944" lon="32.8205856588"><ele>666.81</ele><time>2015-04-28T11:55:10Z</time></trkpt><trkpt lat="35.0110865850" lon="32.8205838148"><ele>666.81</ele><time>2015-04-28T11:55:11Z</time></trkpt><trkpt lat="35.0108064618" lon="32.8206574079"><ele>666.33</ele><time>2015-04-28T11:55:25Z</time></trkpt><trkpt lat="35.0105439406" lon="32.8207051847"><ele>667.29</ele><time>2015-04-28T11:55:39Z</time></trkpt><trkpt lat="35.0104933977" lon="32.8206985630"><ele>667.29</ele><time>2015-04-28T11:55:42Z</time></trkpt><trkpt lat="35.0104824174" lon="32.8206813801"><ele>667.29</ele><time>2015-04-28T11:55:43Z</time></trkpt><trkpt lat="35.0104756281" lon="32.8206606768"><ele>667.29</ele><time>2015-04-28T11:55:44Z</time></trkpt><trkpt lat="35.0104690064" lon="32.8206410632"><ele>667.77</ele><time>2015-04-28T11:55:45Z</time></trkpt><trkpt lat="35.0104604568" lon="32.8206201084"><ele>667.77</ele><time>2015-04-28T11:55:46Z</time></trkpt><trkpt lat="35.0103642326" lon="32.8201973252"><ele>669.70</ele><time>2015-04-28T11:56:03Z</time></trkpt><trkpt lat="35.0103933178" lon="32.8198854346"><ele>671.62</ele><time>2015-04-28T11:56:15Z</time></trkpt><trkpt lat="35.0106832478" lon="32.8196377493"><ele>673.54</ele><time>2015-04-28T11:56:30Z</time></trkpt><trkpt lat="35.0109127443" lon="32.8194774874"><ele>675.46</ele><time>2015-04-28T11:56:44Z</time></trkpt><trkpt lat="35.0109584257" lon="32.8194499947"><ele>675.94</ele><time>2015-04-28T11:56:47Z</time></trkpt><trkpt lat="35.0112004112" lon="32.8193383478"><ele>677.39</ele><time>2015-04-28T11:57:01Z</time></trkpt><trkpt lat="35.0112681370" lon="32.8192602284"><ele>678.35</ele><time>2015-04-28T11:57:08Z</time></trkpt><trkpt lat="35.0114618428" lon="32.8190934286"><ele>680.75</ele><time>2015-04-28T11:57:22Z</time></trkpt><trkpt lat="35.0116490107" lon="32.8188853897"><ele>682.67</ele><time>2015-04-28T11:57:37Z</time></trkpt><trkpt lat="35.0116432272" lon="32.8187226132"><ele>683.63</ele><time>2015-04-28T11:57:47Z</time></trkpt><trkpt lat="35.0116070174" lon="32.8186438233"><ele>683.15</ele><time>2015-04-28T11:57:55Z</time></trkpt><trkpt lat="35.0115988869" lon="32.8186330106"><ele>683.15</ele><time>2015-04-28T11:57:56Z</time></trkpt><trkpt lat="35.0115724001" lon="32.8185588308"><ele>682.67</ele><time>2015-04-28T11:58:09Z</time></trkpt><trkpt lat="35.0115592405" lon="32.8184730839"><ele>682.19</ele><time>2015-04-28T11:58:26Z</time></trkpt><trkpt lat="35.0115574803" lon="32.8182748519"><ele>680.27</ele><time>2015-04-28T11:58:30Z</time></trkpt><trkpt lat="35.0115646049" lon="32.8182185255"><ele>679.79</ele><time>2015-04-28T11:58:31Z</time></trkpt><trkpt lat="35.0115800276" lon="32.8181583434"><ele>679.31</ele><time>2015-04-28T11:58:32Z</time></trkpt><trkpt lat="35.0116055924" lon="32.8180949762"><ele>678.83</ele><time>2015-04-28T11:58:33Z</time></trkpt><trkpt lat="35.0116355158" lon="32.8180373926"><ele>678.35</ele><time>2015-04-28T11:58:34Z</time></trkpt><trkpt lat="35.0116647687" lon="32.8179920465"><ele>677.87</ele><time>2015-04-28T11:58:35Z</time></trkpt><trkpt lat="35.0116930995" lon="32.8179498017"><ele>676.91</ele><time>2015-04-28T11:58:36Z</time></trkpt><trkpt lat="35.0117158145" lon="32.8179028630"><ele>676.42</ele><time>2015-04-28T11:58:37Z</time></trkpt><trkpt lat="35.0117300637" lon="32.8178487998"><ele>675.46</ele><time>2015-04-28T11:58:38Z</time></trkpt><trkpt lat="35.0117247831" lon="32.8177944012"><ele>675.46</ele><time>2015-04-28T11:58:39Z</time></trkpt><trkpt lat="35.0117016491" lon="32.8177560121"><ele>675.46</ele><time>2015-04-28T11:58:40Z</time></trkpt><trkpt lat="35.0116731506" lon="32.8177344706"><ele>675.94</ele><time>2015-04-28T11:58:41Z</time></trkpt><trkpt lat="35.0116492622" lon="32.8177217301"><ele>676.42</ele><time>2015-04-28T11:58:42Z</time></trkpt><trkpt lat="35.0114955381" lon="32.8175203130"><ele>675.46</ele><time>2015-04-28T11:58:50Z</time></trkpt><trkpt lat="35.0114622619" lon="32.8175038844"><ele>675.46</ele><time>2015-04-28T11:58:51Z</time></trkpt><trkpt lat="35.0114285666" lon="32.8174971789"><ele>675.94</ele><time>2015-04-28T11:58:52Z</time></trkpt><trkpt lat="35.0111393072" lon="32.8177265078"><ele>676.42</ele><time>2015-04-28T11:59:03Z</time></trkpt><trkpt lat="35.0109758601" lon="32.8179731872"><ele>676.42</ele><time>2015-04-28T11:59:14Z</time></trkpt><trkpt lat="35.0109507982" lon="32.8179615363"><ele>676.91</ele><time>2015-04-28T11:59:15Z</time></trkpt><trkpt lat="35.0109272450" lon="32.8179415036"><ele>676.42</ele><time>2015-04-28T11:59:16Z</time></trkpt><trkpt lat="35.0108775403" lon="32.8178871050"><ele>675.94</ele><time>2015-04-28T11:59:18Z</time></trkpt><trkpt lat="35.0108430907" lon="32.8178590257"><ele>675.94</ele><time>2015-04-28T11:59:19Z</time></trkpt><trkpt lat="35.0108021032" lon="32.8178358078"><ele>675.46</ele><time>2015-04-28T11:59:20Z</time></trkpt><trkpt lat="35.0107575115" lon="32.8178170323"><ele>675.46</ele><time>2015-04-28T11:59:21Z</time></trkpt><trkpt lat="35.0107120816" lon="32.8177995980"><ele>675.46</ele><time>2015-04-28T11:59:22Z</time></trkpt><trkpt lat="35.0106689148" lon="32.8177783079"><ele>675.46</ele><time>2015-04-28T11:59:23Z</time></trkpt><trkpt lat="35.0106292684" lon="32.8177492227"><ele>675.46</ele><time>2015-04-28T11:59:24Z</time></trkpt><trkpt lat="35.0105969980" lon="32.8177135997"><ele>675.46</ele><time>2015-04-28T11:59:25Z</time></trkpt><trkpt lat="35.0105701759" lon="32.8176748753"><ele>675.46</ele><time>2015-04-28T11:59:26Z</time></trkpt><trkpt lat="35.0105456170" lon="32.8176299483"><ele>675.46</ele><time>2015-04-28T11:59:27Z</time></trkpt><trkpt lat="35.0105231535" lon="32.8175789025"><ele>674.98</ele><time>2015-04-28T11:59:28Z</time></trkpt><trkpt lat="35.0105038751" lon="32.8175231628"><ele>674.50</ele><time>2015-04-28T11:59:29Z</time></trkpt><trkpt lat="35.0104850996" lon="32.8174652439"><ele>674.50</ele><time>2015-04-28T11:59:30Z</time></trkpt><trkpt lat="35.0104525778" lon="32.8173533455"><ele>674.50</ele><time>2015-04-28T11:59:32Z</time></trkpt><trkpt lat="35.0103845168" lon="32.8171284590"><ele>674.98</ele><time>2015-04-28T11:59:41Z</time></trkpt><trkpt lat="35.0103723630" lon="32.8171119466"><ele>674.02</ele><time>2015-04-28T12:00:11Z</time></trkpt><trkpt lat="35.0103695970" lon="32.8171024751"><ele>674.50</ele><time>2015-04-28T12:00:57Z</time></trkpt><trkpt lat="35.0103812478" lon="32.8171039000"><ele>674.02</ele><time>2015-04-28T12:01:31Z</time></trkpt><trkpt lat="35.0103721954" lon="32.8171007987"><ele>674.50</ele><time>2015-04-28T12:02:10Z</time></trkpt><trkpt lat="35.0103640649" lon="32.8170950990"><ele>674.98</ele><time>2015-04-28T12:02:44Z</time></trkpt><trkpt lat="35.0103633944" lon="32.8170946799"><ele>674.98</ele><time>2015-04-28T12:03:16Z</time></trkpt><trkpt lat="35.0103589520" lon="32.8170945961"><ele>674.98</ele><time>2015-04-28T12:03:50Z</time></trkpt><trkpt lat="35.0103729498" lon="32.8171211667"><ele>675.46</ele><time>2015-04-28T12:04:27Z</time></trkpt><trkpt lat="35.0103446189" lon="32.8171291295"><ele>675.46</ele><time>2015-04-28T12:04:30Z</time></trkpt><trkpt lat="35.0101893023" lon="32.8171393555"><ele>676.42</ele><time>2015-04-28T12:04:41Z</time></trkpt><trkpt lat="35.0099710375" lon="32.8173136991"><ele>676.42</ele><time>2015-04-28T12:04:55Z</time></trkpt><trkpt lat="35.0096823648" lon="32.8175994381"><ele>673.54</ele><time>2015-04-28T12:05:05Z</time></trkpt><trkpt lat="35.0096464064" lon="32.8176281042"><ele>673.06</ele><time>2015-04-28T12:05:06Z</time></trkpt><trkpt lat="35.0096135493" lon="32.8176619671"><ele>672.58</ele><time>2015-04-28T12:05:07Z</time></trkpt><trkpt lat="35.0095830392" lon="32.8176987637"><ele>672.10</ele><time>2015-04-28T12:05:08Z</time></trkpt><trkpt lat="35.0094154850" lon="32.8178942297"><ele>669.22</ele><time>2015-04-28T12:05:13Z</time></trkpt><trkpt lat="35.0093381200" lon="32.8179589380"><ele>668.25</ele><time>2015-04-28T12:05:15Z</time></trkpt><trkpt lat="35.0092084520" lon="32.8180305194"><ele>666.33</ele><time>2015-04-28T12:05:18Z</time></trkpt><trkpt lat="35.0091684703" lon="32.8180431761"><ele>665.85</ele><time>2015-04-28T12:05:19Z</time></trkpt><trkpt lat="35.0089266524" lon="32.8180499654"><ele>663.45</ele><time>2015-04-28T12:05:25Z</time></trkpt><trkpt lat="35.0088935439" lon="32.8180190362"><ele>662.97</ele><time>2015-04-28T12:05:26Z</time></trkpt><trkpt lat="35.0088545680" lon="32.8179798089"><ele>662.49</ele><time>2015-04-28T12:05:27Z</time></trkpt><trkpt lat="35.0087129138" lon="32.8178477939"><ele>661.52</ele><time>2015-04-28T12:05:30Z</time></trkpt><trkpt lat="35.0086674839" lon="32.8177865222"><ele>661.04</ele><time>2015-04-28T12:05:31Z</time></trkpt><trkpt lat="35.0086229760" lon="32.8177185450"><ele>660.08</ele><time>2015-04-28T12:05:32Z</time></trkpt><trkpt lat="35.0084906258" lon="32.8174539283"><ele>658.64</ele><time>2015-04-28T12:05:36Z</time></trkpt><trkpt lat="35.0084777176" lon="32.8173806705"><ele>657.68</ele><time>2015-04-28T12:05:37Z</time></trkpt><trkpt lat="35.0084767118" lon="32.8173063230"><ele>657.68</ele><time>2015-04-28T12:05:38Z</time></trkpt><trkpt lat="35.0084814057" lon="32.8172311373"><ele>657.20</ele><time>2015-04-28T12:05:39Z</time></trkpt><trkpt lat="35.0084909610" lon="32.8171567898"><ele>657.68</ele><time>2015-04-28T12:05:40Z</time></trkpt><trkpt lat="35.0084958225" lon="32.8170820232"><ele>657.68</ele><time>2015-04-28T12:05:41Z</time></trkpt><trkpt lat="35.0084803160" lon="32.8168153949"><ele>656.24</ele><time>2015-04-28T12:05:45Z</time></trkpt><trkpt lat="35.0084441062" lon="32.8167620022"><ele>655.76</ele><time>2015-04-28T12:05:46Z</time></trkpt><trkpt lat="35.0083967485" lon="32.8167270496"><ele>655.76</ele><time>2015-04-28T12:05:47Z</time></trkpt><trkpt lat="35.0083451159" lon="32.8167140577"><ele>655.76</ele><time>2015-04-28T12:05:48Z</time></trkpt><trkpt lat="35.0082925614" lon="32.8167135548"><ele>655.76</ele><time>2015-04-28T12:05:49Z</time></trkpt><trkpt lat="35.0082398392" lon="32.8167175781"><ele>655.28</ele><time>2015-04-28T12:05:50Z</time></trkpt><trkpt lat="35.0080733746" lon="32.8167230263"><ele>653.83</ele><time>2015-04-28T12:05:53Z</time></trkpt><trkpt lat="35.0080202334" lon="32.8167076875"><ele>653.35</ele><time>2015-04-28T12:05:54Z</time></trkpt><trkpt lat="35.0079716183" lon="32.8166739084"><ele>653.35</ele><time>2015-04-28T12:05:55Z</time></trkpt><trkpt lat="35.0079287868" lon="32.8166252933"><ele>652.87</ele><time>2015-04-28T12:05:56Z</time></trkpt><trkpt lat="35.0078933313" lon="32.8165663686"><ele>652.39</ele><time>2015-04-28T12:05:57Z</time></trkpt><trkpt lat="35.0078626536" lon="32.8165056836"><ele>651.91</ele><time>2015-04-28T12:05:58Z</time></trkpt><trkpt lat="35.0077764038" lon="32.8163598385"><ele>650.95</ele><time>2015-04-28T12:06:01Z</time></trkpt><trkpt lat="35.0077033136" lon="32.8162685595"><ele>649.99</ele><time>2015-04-28T12:06:03Z</time></trkpt><trkpt lat="35.0076795090" lon="32.8162108082"><ele>649.51</ele><time>2015-04-28T12:06:04Z</time></trkpt><trkpt lat="35.0076698698" lon="32.8161413223"><ele>649.03</ele><time>2015-04-28T12:06:05Z</time></trkpt><trkpt lat="35.0076618232" lon="32.8159937169"><ele>647.59</ele><time>2015-04-28T12:06:07Z</time></trkpt><trkpt lat="35.0076507591" lon="32.8159311879"><ele>647.10</ele><time>2015-04-28T12:06:08Z</time></trkpt><trkpt lat="35.0076130405" lon="32.8157443553"><ele>645.66</ele><time>2015-04-28T12:06:11Z</time></trkpt><trkpt lat="35.0075966120" lon="32.8156859335"><ele>645.66</ele><time>2015-04-28T12:06:12Z</time></trkpt><trkpt lat="35.0075769145" lon="32.8156322893"><ele>645.18</ele><time>2015-04-28T12:06:13Z</time></trkpt><trkpt lat="35.0075550377" lon="32.8155881166"><ele>644.70</ele><time>2015-04-28T12:06:14Z</time></trkpt><trkpt lat="35.0074376911" lon="32.8153435327"><ele>641.82</ele><time>2015-04-28T12:06:21Z</time></trkpt><trkpt lat="35.0073335040" lon="32.8150981106"><ele>638.93</ele><time>2015-04-28T12:06:31Z</time></trkpt><trkpt lat="35.0072353519" lon="32.8150203265"><ele>637.97</ele><time>2015-04-28T12:06:35Z</time></trkpt><trkpt lat="35.0071506947" lon="32.8150598891"><ele>637.49</ele><time>2015-04-28T12:06:45Z</time></trkpt><trkpt lat="35.0071406364" lon="32.8150831070"><ele>637.97</ele><time>2015-04-28T12:06:56Z</time></trkpt><trkpt lat="35.0071297400" lon="32.8151330631"><ele>637.97</ele><time>2015-04-28T12:07:00Z</time></trkpt><trkpt lat="35.0071237050" lon="32.8151717037"><ele>638.45</ele><time>2015-04-28T12:07:02Z</time></trkpt><trkpt lat="35.0070926920" lon="32.8153590392"><ele>638.93</ele><time>2015-04-28T12:07:11Z</time></trkpt><trkpt lat="35.0070488546" lon="32.8156919684"><ele>640.38</ele><time>2015-04-28T12:07:25Z</time></trkpt><trkpt lat="35.0070201885" lon="32.8161046933"><ele>642.30</ele><time>2015-04-28T12:07:40Z</time></trkpt><trkpt lat="35.0070610922" lon="32.8165175859"><ele>644.22</ele><time>2015-04-28T12:07:54Z</time></trkpt><trkpt lat="35.0070320908" lon="32.8170173150"><ele>646.62</ele><time>2015-04-28T12:08:11Z</time></trkpt><trkpt lat="35.0071693026" lon="32.8174727038"><ele>648.55</ele><time>2015-04-28T12:08:27Z</time></trkpt><trkpt lat="35.0072033331" lon="32.8179176152"><ele>648.55</ele><time>2015-04-28T12:08:41Z</time></trkpt><trkpt lat="35.0071880780" lon="32.8182655480"><ele>649.03</ele><time>2015-04-28T12:08:53Z</time></trkpt><trkpt lat="35.0073242839" lon="32.8187769279"><ele>648.55</ele><time>2015-04-28T12:09:10Z</time></trkpt><trkpt lat="35.0073708035" lon="32.8192365915"><ele>648.55</ele><time>2015-04-28T12:09:23Z</time></trkpt><trkpt lat="35.0071392115" lon="32.8196398448"><ele>649.03</ele><time>2015-04-28T12:09:36Z</time></trkpt><trkpt lat="35.0068590045" lon="32.8199288528"><ele>650.95</ele><time>2015-04-28T12:09:49Z</time></trkpt><trkpt lat="35.0068540592" lon="32.8199605364"><ele>650.95</ele><time>2015-04-28T12:09:50Z</time></trkpt><trkpt lat="35.0068574119" lon="32.8199916333"><ele>650.95</ele><time>2015-04-28T12:09:51Z</time></trkpt><trkpt lat="35.0068704039" lon="32.8200188745"><ele>650.95</ele><time>2015-04-28T12:09:52Z</time></trkpt><trkpt lat="35.0068881735" lon="32.8200441040"><ele>650.95</ele><time>2015-04-28T12:09:53Z</time></trkpt><trkpt lat="35.0069097150" lon="32.8200701717"><ele>650.95</ele><time>2015-04-28T12:09:54Z</time></trkpt><trkpt lat="35.0071425643" lon="32.8201685753"><ele>649.03</ele><time>2015-04-28T12:10:03Z</time></trkpt><trkpt lat="35.0073780119" lon="32.8201859258"><ele>648.07</ele><time>2015-04-28T12:10:08Z</time></trkpt><trkpt lat="35.0074313208" lon="32.8202052042"><ele>647.59</ele><time>2015-04-28T12:10:09Z</time></trkpt><trkpt lat="35.0074782595" lon="32.8202324454"><ele>647.10</ele><time>2015-04-28T12:10:10Z</time></trkpt><trkpt lat="35.0075165648" lon="32.8202673141"><ele>647.10</ele><time>2015-04-28T12:10:11Z</time></trkpt><trkpt lat="35.0075445604" lon="32.8203074634"><ele>647.10</ele><time>2015-04-28T12:10:12Z</time></trkpt><trkpt lat="35.0075588096" lon="32.8203486186"><ele>646.62</ele><time>2015-04-28T12:10:13Z</time></trkpt><trkpt lat="35.0075605698" lon="32.8203901928"><ele>646.62</ele><time>2015-04-28T12:10:14Z</time></trkpt><trkpt lat="35.0075525232" lon="32.8204269893"><ele>646.62</ele><time>2015-04-28T12:10:15Z</time></trkpt><trkpt lat="35.0075377710" lon="32.8204590920"><ele>646.62</ele><time>2015-04-28T12:10:16Z</time></trkpt><trkpt lat="35.0075181574" lon="32.8204847407"><ele>646.62</ele><time>2015-04-28T12:10:17Z</time></trkpt><trkpt lat="35.0074973702" lon="32.8205065336"><ele>647.10</ele><time>2015-04-28T12:10:18Z</time></trkpt><trkpt lat="35.0072701368" lon="32.8207653668"><ele>646.62</ele><time>2015-04-28T12:10:28Z</time></trkpt><trkpt lat="35.0072622579" lon="32.8208123893"><ele>646.62</ele><time>2015-04-28T12:10:29Z</time></trkpt><trkpt lat="35.0072612520" lon="32.8208591603"><ele>646.62</ele><time>2015-04-28T12:10:30Z</time></trkpt><trkpt lat="35.0072641019" lon="32.8209048416"><ele>646.62</ele><time>2015-04-28T12:10:31Z</time></trkpt><trkpt lat="35.0072673708" lon="32.8209501877"><ele>646.62</ele><time>2015-04-28T12:10:32Z</time></trkpt><trkpt lat="35.0072698016" lon="32.8209931031"><ele>646.62</ele><time>2015-04-28T12:10:33Z</time></trkpt><trkpt lat="35.0073575601" lon="32.8216292057"><ele>647.10</ele><time>2015-04-28T12:10:47Z</time></trkpt><trkpt lat="35.0073498487" lon="32.8220197186"><ele>647.59</ele><time>2015-04-28T12:11:00Z</time></trkpt><trkpt lat="35.0071967114" lon="32.8222679067"><ele>645.66</ele><time>2015-04-28T12:11:07Z</time></trkpt><trkpt lat="35.0071583223" lon="32.8222790547"><ele>645.66</ele><time>2015-04-28T12:11:08Z</time></trkpt><trkpt lat="35.0071223639" lon="32.8222804796"><ele>645.66</ele><time>2015-04-28T12:11:09Z</time></trkpt><trkpt lat="35.0070927758" lon="32.8222759534"><ele>645.66</ele><time>2015-04-28T12:11:10Z</time></trkpt><trkpt lat="35.0070665404" lon="32.8222710080"><ele>646.14</ele><time>2015-04-28T12:11:11Z</time></trkpt><trkpt lat="35.0070373714" lon="32.8222684935"><ele>646.14</ele><time>2015-04-28T12:11:12Z</time></trkpt><trkpt lat="35.0070071965" lon="32.8222648893"><ele>645.66</ele><time>2015-04-28T12:11:13Z</time></trkpt><trkpt lat="35.0069160014" lon="32.8222655598"><ele>646.62</ele><time>2015-04-28T12:11:16Z</time></trkpt><trkpt lat="35.0068928674" lon="32.8222791385"><ele>646.14</ele><time>2015-04-28T12:11:17Z</time></trkpt><trkpt lat="35.0065399893" lon="32.8224923741"><ele>646.14</ele><time>2015-04-28T12:11:29Z</time></trkpt><trkpt lat="35.0061624683" lon="32.8226721659"><ele>645.66</ele><time>2015-04-28T12:11:42Z</time></trkpt><trkpt lat="35.0058910623" lon="32.8229377884"><ele>645.18</ele><time>2015-04-28T12:11:53Z</time></trkpt><trkpt lat="35.0055690296" lon="32.8231697995"><ele>645.66</ele><time>2015-04-28T12:12:06Z</time></trkpt><trkpt lat="35.0055085123" lon="32.8235776629"><ele>646.14</ele><time>2015-04-28T12:12:17Z</time></trkpt><trkpt lat="35.0054272078" lon="32.8236867115"><ele>645.66</ele><time>2015-04-28T12:12:22Z</time></trkpt><trkpt lat="35.0053971168" lon="32.8236955963"><ele>645.18</ele><time>2015-04-28T12:12:23Z</time></trkpt><trkpt lat="35.0053676963" lon="32.8236992005"><ele>645.18</ele><time>2015-04-28T12:12:24Z</time></trkpt><trkpt lat="35.0053371862" lon="32.8236898128"><ele>644.70</ele><time>2015-04-28T12:12:25Z</time></trkpt><trkpt lat="35.0053041615" lon="32.8236702830"><ele>644.22</ele><time>2015-04-28T12:12:26Z</time></trkpt><trkpt lat="35.0052671134" lon="32.8236393537"><ele>643.74</ele><time>2015-04-28T12:12:27Z</time></trkpt><trkpt lat="35.0052235276" lon="32.8236084245"><ele>643.26</ele><time>2015-04-28T12:12:28Z</time></trkpt><trkpt lat="35.0051729847" lon="32.8235906549"><ele>643.26</ele><time>2015-04-28T12:12:29Z</time></trkpt><trkpt lat="35.0051188376" lon="32.8235907387"><ele>642.78</ele><time>2015-04-28T12:12:30Z</time></trkpt><trkpt lat="35.0050656125" lon="32.8236050718"><ele>642.78</ele><time>2015-04-28T12:12:31Z</time></trkpt><trkpt lat="35.0050190929" lon="32.8236297145"><ele>642.30</ele><time>2015-04-28T12:12:32Z</time></trkpt><trkpt lat="35.0049773511" lon="32.8236567043"><ele>641.82</ele><time>2015-04-28T12:12:33Z</time></trkpt><trkpt lat="35.0048982259" lon="32.8236959316"><ele>641.34</ele><time>2015-04-28T12:12:35Z</time></trkpt><trkpt lat="35.0048591662" lon="32.8237032238"><ele>640.86</ele><time>2015-04-28T12:12:36Z</time></trkpt><trkpt lat="35.0048181787" lon="32.8236997873"><ele>640.38</ele><time>2015-04-28T12:12:37Z</time></trkpt><trkpt lat="35.0047800411" lon="32.8236866277"><ele>639.89</ele><time>2015-04-28T12:12:38Z</time></trkpt><trkpt lat="35.0047486089" lon="32.8236630745"><ele>639.89</ele><time>2015-04-28T12:12:39Z</time></trkpt><trkpt lat="35.0047236308" lon="32.8236297984"><ele>639.41</ele><time>2015-04-28T12:12:40Z</time></trkpt><trkpt lat="35.0046984851" lon="32.8235902358"><ele>639.41</ele><time>2015-04-28T12:12:41Z</time></trkpt><trkpt lat="35.0046685617" lon="32.8235483263"><ele>639.41</ele><time>2015-04-28T12:12:42Z</time></trkpt><trkpt lat="35.0046290830" lon="32.8235194087"><ele>638.93</ele><time>2015-04-28T12:12:43Z</time></trkpt><trkpt lat="35.0045813899" lon="32.8235097695"><ele>638.45</ele><time>2015-04-28T12:12:44Z</time></trkpt><trkpt lat="35.0045269076" lon="32.8235221747"><ele>637.97</ele><time>2015-04-28T12:12:45Z</time></trkpt><trkpt lat="35.0044779573" lon="32.8235553671"><ele>637.97</ele><time>2015-04-28T12:12:46Z</time></trkpt><trkpt lat="35.0044326950" lon="32.8236023895"><ele>637.49</ele><time>2015-04-28T12:12:47Z</time></trkpt><trkpt lat="35.0043838285" lon="32.8236452211"><ele>637.01</ele><time>2015-04-28T12:12:48Z</time></trkpt><trkpt lat="35.0043310225" lon="32.8236777429"><ele>637.01</ele><time>2015-04-28T12:12:49Z</time></trkpt><trkpt lat="35.0042788032" lon="32.8237044811"><ele>637.01</ele><time>2015-04-28T12:12:50Z</time></trkpt><trkpt lat="35.0040428527" lon="32.8238636535"><ele>637.49</ele><time>2015-04-28T12:12:56Z</time></trkpt><trkpt lat="35.0040160306" lon="32.8239058983"><ele>637.49</ele><time>2015-04-28T12:12:57Z</time></trkpt><trkpt lat="35.0039941538" lon="32.8239521664"><ele>637.49</ele><time>2015-04-28T12:12:58Z</time></trkpt><trkpt lat="35.0037288666" lon="32.8243993409"><ele>637.97</ele><time>2015-04-28T12:13:11Z</time></trkpt><trkpt lat="35.0033566263" lon="32.8244377300"><ele>639.41</ele><time>2015-04-28T12:13:24Z</time></trkpt><trkpt lat="35.0029567257" lon="32.8241852671"><ele>639.41</ele><time>2015-04-28T12:13:39Z</time></trkpt><trkpt lat="35.0028366130" lon="32.8240902163"><ele>638.93</ele><time>2015-04-28T12:13:43Z</time></trkpt><trkpt lat="35.0028060190" lon="32.8240542579"><ele>638.93</ele><time>2015-04-28T12:13:44Z</time></trkpt><trkpt lat="35.0027867407" lon="32.8240234125"><ele>638.45</ele><time>2015-04-28T12:13:45Z</time></trkpt><trkpt lat="35.0026836433" lon="32.8238717839"><ele>637.01</ele><time>2015-04-28T12:13:57Z</time></trkpt><trkpt lat="35.0026760995" lon="32.8238442913"><ele>636.53</ele><time>2015-04-28T12:13:59Z</time></trkpt><trkpt lat="35.0025585853" lon="32.8236956801"><ele>635.09</ele><time>2015-04-28T12:14:04Z</time></trkpt><trkpt lat="35.0025213696" lon="32.8236567881"><ele>634.61</ele><time>2015-04-28T12:14:05Z</time></trkpt><trkpt lat="35.0024863333" lon="32.8236185666"><ele>634.13</ele><time>2015-04-28T12:14:06Z</time></trkpt><trkpt lat="35.0024261512" lon="32.8235398605"><ele>633.17</ele><time>2015-04-28T12:14:08Z</time></trkpt><trkpt lat="35.0024046935" lon="32.8234961908"><ele>633.17</ele><time>2015-04-28T12:14:09Z</time></trkpt><trkpt lat="35.0023888517" lon="32.8234474920"><ele>632.68</ele><time>2015-04-28T12:14:10Z</time></trkpt><trkpt lat="35.0023700763" lon="32.8233969491"><ele>632.20</ele><time>2015-04-28T12:14:11Z</time></trkpt><trkpt lat="35.0023417454" lon="32.8233500943"><ele>631.72</ele><time>2015-04-28T12:14:12Z</time></trkpt><trkpt lat="35.0023085531" lon="32.8233112860"><ele>631.24</ele><time>2015-04-28T12:14:13Z</time></trkpt><trkpt lat="35.0022758637" lon="32.8232816141"><ele>631.24</ele><time>2015-04-28T12:14:14Z</time></trkpt><trkpt lat="35.0022431742" lon="32.8232563008"><ele>631.24</ele><time>2015-04-28T12:14:15Z</time></trkpt><trkpt lat="35.0020321179" lon="32.8229487687"><ele>628.36</ele><time>2015-04-28T12:14:22Z</time></trkpt><trkpt lat="35.0018635578" lon="32.8226133250"><ele>625.47</ele><time>2015-04-28T12:14:31Z</time></trkpt><trkpt lat="35.0018327963" lon="32.8225436714"><ele>624.51</ele><time>2015-04-28T12:14:33Z</time></trkpt><trkpt lat="35.0017275196" lon="32.8222757857"><ele>621.15</ele><time>2015-04-28T12:14:40Z</time></trkpt><trkpt lat="35.0016735401" lon="32.8222280089"><ele>620.67</ele><time>2015-04-28T12:14:42Z</time></trkpt><trkpt lat="35.0015921518" lon="32.8221898712"><ele>620.19</ele><time>2015-04-28T12:14:44Z</time></trkpt><trkpt lat="35.0015577860" lon="32.8221640550"><ele>619.71</ele><time>2015-04-28T12:14:45Z</time></trkpt><trkpt lat="35.0014960114" lon="32.8221182059"><ele>618.75</ele><time>2015-04-28T12:14:47Z</time></trkpt><trkpt lat="35.0014592148" lon="32.8221018612"><ele>618.75</ele><time>2015-04-28T12:14:48Z</time></trkpt><trkpt lat="35.0014223345" lon="32.8220985923"><ele>618.75</ele><time>2015-04-28T12:14:49Z</time></trkpt><trkpt lat="35.0013902318" lon="32.8221135121"><ele>618.75</ele><time>2015-04-28T12:14:50Z</time></trkpt><trkpt lat="35.0013620686" lon="32.8221428487"><ele>619.23</ele><time>2015-04-28T12:14:51Z</time></trkpt><trkpt lat="35.0013446342" lon="32.8221778851"><ele>619.23</ele><time>2015-04-28T12:14:52Z</time></trkpt><trkpt lat="35.0013422035" lon="32.8222111613"><ele>620.19</ele><time>2015-04-28T12:14:53Z</time></trkpt><trkpt lat="35.0013411138" lon="32.8222347982"><ele>620.67</ele><time>2015-04-28T12:14:54Z</time></trkpt><trkpt lat="35.0013381802" lon="32.8222518973"><ele>621.15</ele><time>2015-04-28T12:14:55Z</time></trkpt><trkpt lat="35.0013335701" lon="32.8222601116"><ele>620.67</ele><time>2015-04-28T12:14:56Z</time></trkpt><trkpt lat="35.0013290439" lon="32.8222706728"><ele>621.15</ele><time>2015-04-28T12:14:57Z</time></trkpt><trkpt lat="35.0013223384" lon="32.8223108221"><ele>622.11</ele><time>2015-04-28T12:15:07Z</time></trkpt><trkpt lat="35.0012898166" lon="32.8225080483"><ele>624.51</ele><time>2015-04-28T12:15:19Z</time></trkpt><trkpt lat="35.0012765732" lon="32.8225746844"><ele>624.99</ele><time>2015-04-28T12:15:25Z</time></trkpt><trkpt lat="35.0012648385" lon="32.8226227127"><ele>625.47</ele><time>2015-04-28T12:15:29Z</time></trkpt><trkpt lat="35.0012270361" lon="32.8228144068"><ele>626.92</ele><time>2015-04-28T12:15:45Z</time></trkpt><trkpt lat="35.0012273714" lon="32.8229129780"><ele>627.88</ele><time>2015-04-28T12:15:52Z</time></trkpt><trkpt lat="35.0012241025" lon="32.8229259700"><ele>627.88</ele><time>2015-04-28T12:15:53Z</time></trkpt><trkpt lat="35.0012227613" lon="32.8229647782"><ele>627.88</ele><time>2015-04-28T12:15:56Z</time></trkpt><trkpt lat="35.0012224261" lon="32.8229777701"><ele>628.36</ele><time>2015-04-28T12:15:57Z</time></trkpt><trkpt lat="35.0012204144" lon="32.8229896724"><ele>628.36</ele><time>2015-04-28T12:15:58Z</time></trkpt><trkpt lat="35.0012180675" lon="32.8230023291"><ele>628.36</ele><time>2015-04-28T12:15:59Z</time></trkpt><trkpt lat="35.0012153015" lon="32.8230154887"><ele>628.84</ele><time>2015-04-28T12:16:00Z</time></trkpt><trkpt lat="35.0012101047" lon="32.8230295703"><ele>628.84</ele><time>2015-04-28T12:16:01Z</time></trkpt><trkpt lat="35.0012047403" lon="32.8230432328"><ele>628.84</ele><time>2015-04-28T12:16:02Z</time></trkpt><trkpt lat="35.0011749845" lon="32.8231027443"><ele>628.84</ele><time>2015-04-28T12:16:07Z</time></trkpt><trkpt lat="35.0011644233" lon="32.8231115453"><ele>629.32</ele><time>2015-04-28T12:16:08Z</time></trkpt><trkpt lat="35.0011578854" lon="32.8231248725"><ele>629.32</ele><time>2015-04-28T12:16:09Z</time></trkpt><trkpt lat="35.0011518504" lon="32.8231372777"><ele>629.32</ele><time>2015-04-28T12:16:10Z</time></trkpt><trkpt lat="35.0011442229" lon="32.8231498506"><ele>629.32</ele><time>2015-04-28T12:16:11Z</time></trkpt><trkpt lat="35.0011364277" lon="32.8231615853"><ele>629.32</ele><time>2015-04-28T12:16:12Z</time></trkpt><trkpt lat="35.0011270400" lon="32.8231718950"><ele>629.80</ele><time>2015-04-28T12:16:13Z</time></trkpt><trkpt lat="35.0011163112" lon="32.8231812827"><ele>629.80</ele><time>2015-04-28T12:16:14Z</time></trkpt><trkpt lat="35.0011057500" lon="32.8231894132"><ele>629.80</ele><time>2015-04-28T12:16:15Z</time></trkpt><trkpt lat="35.0010955241" lon="32.8231993038"><ele>629.80</ele><time>2015-04-28T12:16:16Z</time></trkpt><trkpt lat="35.0010839570" lon="32.8232064284"><ele>630.28</ele><time>2015-04-28T12:16:17Z</time></trkpt><trkpt lat="35.0010716356" lon="32.8232121281"><ele>630.28</ele><time>2015-04-28T12:16:18Z</time></trkpt><trkpt lat="35.0010609906" lon="32.8232186660"><ele>630.28</ele><time>2015-04-28T12:16:19Z</time></trkpt><trkpt lat="35.0010511000" lon="32.8232253715"><ele>630.76</ele><time>2015-04-28T12:16:20Z</time></trkpt><trkpt lat="35.0010220148" lon="32.8232449852"><ele>630.76</ele><time>2015-04-28T12:16:23Z</time></trkpt><trkpt lat="35.0010118727" lon="32.8232511878"><ele>631.24</ele><time>2015-04-28T12:16:24Z</time></trkpt><trkpt lat="35.0009912532" lon="32.8232573904"><ele>631.24</ele><time>2015-04-28T12:16:26Z</time></trkpt><trkpt lat="35.0009817816" lon="32.8232644312"><ele>631.72</ele><time>2015-04-28T12:16:27Z</time></trkpt><trkpt lat="35.0009718910" lon="32.8232698794"><ele>631.72</ele><time>2015-04-28T12:16:28Z</time></trkpt><trkpt lat="35.0009619165" lon="32.8232718911"><ele>631.72</ele><time>2015-04-28T12:16:29Z</time></trkpt><trkpt lat="35.0008220226" lon="32.8232544567"><ele>633.65</ele><time>2015-04-28T12:16:45Z</time></trkpt><trkpt lat="35.0007761735" lon="32.8232860565"><ele>634.13</ele><time>2015-04-28T12:16:51Z</time></trkpt><trkpt lat="35.0007727370" lon="32.8232992999"><ele>634.13</ele><time>2015-04-28T12:16:52Z</time></trkpt><trkpt lat="35.0007695518" lon="32.8233126272"><ele>634.13</ele><time>2015-04-28T12:16:53Z</time></trkpt><trkpt lat="35.0007671211" lon="32.8233277146"><ele>634.13</ele><time>2015-04-28T12:16:54Z</time></trkpt><trkpt lat="35.0007672887" lon="32.8233417124"><ele>634.13</ele><time>2015-04-28T12:16:55Z</time></trkpt><trkpt lat="35.0007676240" lon="32.8233555425"><ele>634.61</ele><time>2015-04-28T12:16:56Z</time></trkpt><trkpt lat="35.0007693004" lon="32.8233692050"><ele>634.61</ele><time>2015-04-28T12:16:57Z</time></trkpt><trkpt lat="35.0007710606" lon="32.8233820293"><ele>634.61</ele><time>2015-04-28T12:16:58Z</time></trkpt><trkpt lat="35.0007755868" lon="32.8234055825"><ele>634.61</ele><time>2015-04-28T12:17:00Z</time></trkpt><trkpt lat="35.0007823762" lon="32.8234181553"><ele>635.09</ele><time>2015-04-28T12:17:01Z</time></trkpt><trkpt lat="35.0007863995" lon="32.8234317340"><ele>635.09</ele><time>2015-04-28T12:17:02Z</time></trkpt><trkpt lat="35.0008962862" lon="32.8236153815"><ele>637.97</ele><time>2015-04-28T12:17:16Z</time></trkpt><trkpt lat="35.0010017306" lon="32.8237204906"><ele>640.86</ele><time>2015-04-28T12:17:27Z</time></trkpt><trkpt lat="35.0009952765" lon="32.8237429541"><ele>640.86</ele><time>2015-04-28T12:17:29Z</time></trkpt><trkpt lat="35.0009544566" lon="32.8237945866"><ele>641.34</ele><time>2015-04-28T12:17:36Z</time></trkpt><trkpt lat="35.0009560492" lon="32.8238086682"><ele>641.34</ele><time>2015-04-28T12:17:37Z</time></trkpt><trkpt lat="35.0009574741" lon="32.8238233365"><ele>641.34</ele><time>2015-04-28T12:17:38Z</time></trkpt><trkpt lat="35.0009579770" lon="32.8238400165"><ele>641.34</ele><time>2015-04-28T12:17:39Z</time></trkpt><trkpt lat="35.0009604078" lon="32.8238584567"><ele>641.34</ele><time>2015-04-28T12:17:40Z</time></trkpt><trkpt lat="35.0009623356" lon="32.8238768131"><ele>641.34</ele><time>2015-04-28T12:17:41Z</time></trkpt><trkpt lat="35.0009622518" lon="32.8238942474"><ele>641.34</ele><time>2015-04-28T12:17:42Z</time></trkpt><trkpt lat="35.0009622518" lon="32.8239126038"><ele>641.34</ele><time>2015-04-28T12:17:43Z</time></trkpt><trkpt lat="35.0008809473" lon="32.8240757156"><ele>643.26</ele><time>2015-04-28T12:17:53Z</time></trkpt><trkpt lat="35.0008677039" lon="32.8240880370"><ele>642.78</ele><time>2015-04-28T12:17:54Z</time></trkpt><trkpt lat="35.0008542091" lon="32.8241016157"><ele>643.26</ele><time>2015-04-28T12:17:55Z</time></trkpt><trkpt lat="35.0008414686" lon="32.8241159488"><ele>643.26</ele><time>2015-04-28T12:17:56Z</time></trkpt><trkpt lat="35.0008281413" lon="32.8241274320"><ele>643.26</ele><time>2015-04-28T12:17:57Z</time></trkpt><trkpt lat="35.0008143950" lon="32.8241364006"><ele>643.26</ele><time>2015-04-28T12:17:58Z</time></trkpt><trkpt lat="35.0006359443" lon="32.8241979238"><ele>644.70</ele><time>2015-04-28T12:18:11Z</time></trkpt><trkpt lat="35.0004238822" lon="32.8242655657"><ele>646.62</ele><time>2015-04-28T12:18:24Z</time></trkpt><trkpt lat="35.0004118960" lon="32.8242777195"><ele>646.62</ele><time>2015-04-28T12:18:25Z</time></trkpt><trkpt lat="35.0002355408" lon="32.8244813159"><ele>649.03</ele><time>2015-04-28T12:18:40Z</time></trkpt><trkpt lat="35.0000467803" lon="32.8246709146"><ele>650.47</ele><time>2015-04-28T12:18:55Z</time></trkpt><trkpt lat="34.9998569302" lon="32.8248949628"><ele>652.87</ele><time>2015-04-28T12:19:12Z</time></trkpt><trkpt lat="34.9997759610" lon="32.8250041790"><ele>653.35</ele><time>2015-04-28T12:19:20Z</time></trkpt><trkpt lat="34.9997622147" lon="32.8250092920"><ele>653.83</ele><time>2015-04-28T12:19:21Z</time></trkpt><trkpt lat="34.9997482169" lon="32.8250139020"><ele>653.83</ele><time>2015-04-28T12:19:22Z</time></trkpt><trkpt lat="34.9997358117" lon="32.8250183444"><ele>653.83</ele><time>2015-04-28T12:19:23Z</time></trkpt><trkpt lat="34.9997234903" lon="32.8250238765"><ele>654.31</ele><time>2015-04-28T12:19:24Z</time></trkpt><trkpt lat="34.9995685928" lon="32.8250405565"><ele>654.80</ele><time>2015-04-28T12:19:34Z</time></trkpt><trkpt lat="34.9995513260" lon="32.8250360303"><ele>654.80</ele><time>2015-04-28T12:19:35Z</time></trkpt><trkpt lat="34.9992972706" lon="32.8250357788"><ele>656.24</ele><time>2015-04-28T12:19:48Z</time></trkpt><trkpt lat="34.9992781598" lon="32.8250356950"><ele>656.24</ele><time>2015-04-28T12:19:49Z</time></trkpt><trkpt lat="34.9989609886" lon="32.8250482678"><ele>657.68</ele><time>2015-04-28T12:20:05Z</time></trkpt><trkpt lat="34.9986921810" lon="32.8251403011"><ele>657.68</ele><time>2015-04-28T12:20:19Z</time></trkpt><trkpt lat="34.9985198490" lon="32.8254640941"><ele>659.12</ele><time>2015-04-28T12:20:35Z</time></trkpt><trkpt lat="34.9984494410" lon="32.8256285470"><ele>660.56</ele><time>2015-04-28T12:20:46Z</time></trkpt><trkpt lat="34.9984472618" lon="32.8256680258"><ele>660.56</ele><time>2015-04-28T12:20:59Z</time></trkpt><trkpt lat="34.9984370358" lon="32.8256707918"><ele>660.56</ele><time>2015-04-28T12:21:21Z</time></trkpt><trkpt lat="34.9984224513" lon="32.8256776650"><ele>661.04</ele><time>2015-04-28T12:21:38Z</time></trkpt><trkpt lat="34.9984380417" lon="32.8256667685"><ele>660.56</ele><time>2015-04-28T12:22:07Z</time></trkpt><trkpt lat="34.9983847328" lon="32.8256784193"><ele>661.04</ele><time>2015-04-28T12:22:27Z</time></trkpt><trkpt lat="34.9983813800" lon="32.8256671876"><ele>660.56</ele><time>2015-04-28T12:22:50Z</time></trkpt><trkpt lat="34.9983372912" lon="32.8257432114"><ele>661.52</ele><time>2015-04-28T12:23:03Z</time></trkpt><trkpt lat="34.9983108044" lon="32.8257594723"><ele>661.52</ele><time>2015-04-28T12:23:17Z</time></trkpt><trkpt lat="34.9983256403" lon="32.8257528506"><ele>661.52</ele><time>2015-04-28T12:23:42Z</time></trkpt><trkpt lat="34.9983162526" lon="32.8257619869"><ele>661.52</ele><time>2015-04-28T12:23:58Z</time></trkpt><trkpt lat="34.9983051885" lon="32.8257567901"><ele>661.52</ele><time>2015-04-28T12:23:59Z</time></trkpt><trkpt lat="34.9982911069" lon="32.8257479053"><ele>661.52</ele><time>2015-04-28T12:24:00Z</time></trkpt><trkpt lat="34.9982736725" lon="32.8257397749"><ele>662.01</ele><time>2015-04-28T12:24:01Z</time></trkpt><trkpt lat="34.9982591718" lon="32.8257334046"><ele>662.01</ele><time>2015-04-28T12:24:02Z</time></trkpt><trkpt lat="34.9982472695" lon="32.8257263638"><ele>662.01</ele><time>2015-04-28T12:24:03Z</time></trkpt><trkpt lat="34.9982343614" lon="32.8257241845"><ele>662.01</ele><time>2015-04-28T12:24:04Z</time></trkpt><trkpt lat="34.9982186873" lon="32.8257279564"><ele>662.01</ele><time>2015-04-28T12:24:05Z</time></trkpt><trkpt lat="34.9982043542" lon="32.8257304709"><ele>662.01</ele><time>2015-04-28T12:24:06Z</time></trkpt><trkpt lat="34.9980670586" lon="32.8258097637"><ele>663.93</ele><time>2015-04-28T12:24:19Z</time></trkpt><trkpt lat="34.9980412424" lon="32.8259290382"><ele>664.89</ele><time>2015-04-28T12:24:27Z</time></trkpt><trkpt lat="34.9980365485" lon="32.8259406891"><ele>665.37</ele><time>2015-04-28T12:24:28Z</time></trkpt><trkpt lat="34.9980334472" lon="32.8259546869"><ele>665.37</ele><time>2015-04-28T12:24:29Z</time></trkpt><trkpt lat="34.9980331119" lon="32.8259708639"><ele>665.37</ele><time>2015-04-28T12:24:30Z</time></trkpt><trkpt lat="34.9980289210" lon="32.8259840235"><ele>665.85</ele><time>2015-04-28T12:24:31Z</time></trkpt><trkpt lat="34.9980245624" lon="32.8259974346"><ele>665.85</ele><time>2015-04-28T12:24:32Z</time></trkpt><trkpt lat="34.9980211258" lon="32.8260117676"><ele>665.85</ele><time>2015-04-28T12:24:33Z</time></trkpt><trkpt lat="34.9980148394" lon="32.8260238376"><ele>666.33</ele><time>2015-04-28T12:24:34Z</time></trkpt><trkpt lat="34.9980093911" lon="32.8260352369"><ele>666.33</ele><time>2015-04-28T12:24:35Z</time></trkpt><trkpt lat="34.9980038591" lon="32.8260469716"><ele>666.33</ele><time>2015-04-28T12:24:36Z</time></trkpt><trkpt lat="34.9979806412" lon="32.8260941617"><ele>666.81</ele><time>2015-04-28T12:24:40Z</time></trkpt><trkpt lat="34.9979731813" lon="32.8261069860"><ele>666.81</ele><time>2015-04-28T12:24:41Z</time></trkpt><trkpt lat="34.9979659729" lon="32.8261191398"><ele>666.81</ele><time>2015-04-28T12:24:42Z</time></trkpt><trkpt lat="34.9979392346" lon="32.8261434473"><ele>667.29</ele><time>2015-04-28T12:24:56Z</time></trkpt><trkpt lat="34.9979057070" lon="32.8261765558"><ele>667.77</ele><time>2015-04-28T12:25:12Z</time></trkpt><trkpt lat="34.9978911225" lon="32.8261831775"><ele>667.77</ele><time>2015-04-28T12:25:13Z</time></trkpt><trkpt lat="34.9978793040" lon="32.8261970077"><ele>667.77</ele><time>2015-04-28T12:25:14Z</time></trkpt><trkpt lat="34.9978678208" lon="32.8262117598"><ele>668.25</ele><time>2015-04-28T12:25:15Z</time></trkpt><trkpt lat="34.9978591874" lon="32.8262234945"><ele>668.25</ele><time>2015-04-28T12:25:16Z</time></trkpt><trkpt lat="34.9977204669" lon="32.8263169527"><ele>670.18</ele><time>2015-04-28T12:25:28Z</time></trkpt><trkpt lat="34.9977091514" lon="32.8263208084"><ele>670.18</ele><time>2015-04-28T12:25:29Z</time></trkpt><trkpt lat="34.9976772163" lon="32.8263293579"><ele>670.18</ele><time>2015-04-28T12:25:32Z</time></trkpt><trkpt lat="34.9976646435" lon="32.8263277654"><ele>670.18</ele><time>2015-04-28T12:25:33Z</time></trkpt><trkpt lat="34.9976498913" lon="32.8263257537"><ele>670.18</ele><time>2015-04-28T12:25:34Z</time></trkpt><trkpt lat="34.9976397492" lon="32.8263198864"><ele>670.66</ele><time>2015-04-28T12:25:35Z</time></trkpt><trkpt lat="34.9976308644" lon="32.8263097443"><ele>670.66</ele><time>2015-04-28T12:25:36Z</time></trkpt><trkpt lat="34.9976201355" lon="32.8263018653"><ele>670.66</ele><time>2015-04-28T12:25:37Z</time></trkpt><trkpt lat="34.9976089876" lon="32.8263001051"><ele>670.66</ele><time>2015-04-28T12:25:38Z</time></trkpt><trkpt lat="34.9975975044" lon="32.8262946568"><ele>671.14</ele><time>2015-04-28T12:25:39Z</time></trkpt><trkpt lat="34.9975863565" lon="32.8262870293"><ele>671.14</ele><time>2015-04-28T12:25:40Z</time></trkpt><trkpt lat="34.9975617137" lon="32.8262728639"><ele>671.14</ele><time>2015-04-28T12:25:42Z</time></trkpt><trkpt lat="34.9975485541" lon="32.8262671642"><ele>671.62</ele><time>2015-04-28T12:25:43Z</time></trkpt><trkpt lat="34.9973821733" lon="32.8261183016"><ele>673.06</ele><time>2015-04-28T12:25:59Z</time></trkpt><trkpt lat="34.9972302094" lon="32.8259980213"><ele>674.50</ele><time>2015-04-28T12:26:12Z</time></trkpt><trkpt lat="34.9971444625" lon="32.8260120191"><ele>675.46</ele><time>2015-04-28T12:26:17Z</time></trkpt><trkpt lat="34.9971289560" lon="32.8260218259"><ele>675.94</ele><time>2015-04-28T12:26:18Z</time></trkpt><trkpt lat="34.9971133657" lon="32.8260328062"><ele>675.46</ele><time>2015-04-28T12:26:19Z</time></trkpt><trkpt lat="34.9971032236" lon="32.8260477260"><ele>675.94</ele><time>2015-04-28T12:26:20Z</time></trkpt><trkpt lat="34.9970947579" lon="32.8260623943"><ele>675.94</ele><time>2015-04-28T12:26:21Z</time></trkpt><trkpt lat="34.9970898125" lon="32.8260775656"><ele>675.94</ele><time>2015-04-28T12:26:22Z</time></trkpt><trkpt lat="34.9970901478" lon="32.8260944132"><ele>676.42</ele><time>2015-04-28T12:26:23Z</time></trkpt><trkpt lat="34.9971017987" lon="32.8261771426"><ele>676.91</ele><time>2015-04-28T12:26:29Z</time></trkpt><trkpt lat="34.9970992841" lon="32.8261896316"><ele>676.91</ele><time>2015-04-28T12:26:30Z</time></trkpt><trkpt lat="34.9970989488" lon="32.8262031265"><ele>677.39</ele><time>2015-04-28T12:26:31Z</time></trkpt><trkpt lat="34.9971002899" lon="32.8262172919"><ele>677.39</ele><time>2015-04-28T12:26:32Z</time></trkpt><trkpt lat="34.9971037265" lon="32.8262329660"><ele>677.39</ele><time>2015-04-28T12:26:33Z</time></trkpt><trkpt lat="34.9971069954" lon="32.8262463771"><ele>677.39</ele><time>2015-04-28T12:26:34Z</time></trkpt><trkpt lat="34.9971064087" lon="32.8262592014"><ele>677.87</ele><time>2015-04-28T12:26:35Z</time></trkpt><trkpt lat="34.9971047323" lon="32.8262722772"><ele>677.87</ele><time>2015-04-28T12:26:36Z</time></trkpt><trkpt lat="34.9971064087" lon="32.8262868617"><ele>677.87</ele><time>2015-04-28T12:26:37Z</time></trkpt><trkpt lat="34.9971037265" lon="32.8263245802"><ele>677.87</ele><time>2015-04-28T12:26:40Z</time></trkpt><trkpt lat="34.9971028883" lon="32.8263384104"><ele>678.35</ele><time>2015-04-28T12:26:41Z</time></trkpt><trkpt lat="34.9971014634" lon="32.8263519052"><ele>678.35</ele><time>2015-04-28T12:26:42Z</time></trkpt><trkpt lat="34.9970983621" lon="32.8263650648"><ele>678.35</ele><time>2015-04-28T12:26:43Z</time></trkpt><trkpt lat="34.9970954284" lon="32.8263780568"><ele>678.83</ele><time>2015-04-28T12:26:44Z</time></trkpt><trkpt lat="34.9970928300" lon="32.8263909649"><ele>678.83</ele><time>2015-04-28T12:26:45Z</time></trkpt><trkpt lat="34.9970914051" lon="32.8264046274"><ele>678.83</ele><time>2015-04-28T12:26:46Z</time></trkpt><trkpt lat="34.9970896449" lon="32.8264167812"><ele>678.83</ele><time>2015-04-28T12:26:47Z</time></trkpt><trkpt lat="34.9970816821" lon="32.8264581878"><ele>678.83</ele><time>2015-04-28T12:26:50Z</time></trkpt><trkpt lat="34.9970548600" lon="32.8265028633"><ele>679.31</ele><time>2015-04-28T12:26:55Z</time></trkpt><trkpt lat="34.9970442988" lon="32.8265522327"><ele>679.79</ele><time>2015-04-28T12:26:59Z</time></trkpt><trkpt lat="34.9970345758" lon="32.8266061284"><ele>679.79</ele><time>2015-04-28T12:27:08Z</time></trkpt><trkpt lat="34.9970326480" lon="32.8265634645"><ele>680.27</ele><time>2015-04-28T12:27:36Z</time></trkpt><trkpt lat="34.9970262777" lon="32.8265868500"><ele>680.75</ele><time>2015-04-28T12:28:11Z</time></trkpt><trkpt lat="34.9969828594" lon="32.8266218025"><ele>680.75</ele><time>2015-04-28T12:28:35Z</time></trkpt><trkpt lat="34.9969727173" lon="32.8266300168"><ele>680.75</ele><time>2015-04-28T12:28:36Z</time></trkpt><trkpt lat="34.9968773313" lon="32.8267419152"><ele>682.67</ele><time>2015-04-28T12:28:47Z</time></trkpt><trkpt lat="34.9967764132" lon="32.8267880157"><ele>682.67</ele><time>2015-04-28T12:28:55Z</time></trkpt><trkpt lat="34.9967635889" lon="32.8267924581"><ele>682.67</ele><time>2015-04-28T12:28:56Z</time></trkpt><trkpt lat="34.9967392813" lon="32.8268008400"><ele>683.15</ele><time>2015-04-28T12:28:58Z</time></trkpt><trkpt lat="34.9967270438" lon="32.8267988283"><ele>683.15</ele><time>2015-04-28T12:28:59Z</time></trkpt><trkpt lat="34.9966345914" lon="32.8267296776"><ele>683.63</ele><time>2015-04-28T12:29:09Z</time></trkpt><trkpt lat="34.9966288079" lon="32.8267185297"><ele>683.63</ele><time>2015-04-28T12:29:10Z</time></trkpt><trkpt lat="34.9966226891" lon="32.8267081361"><ele>683.63</ele><time>2015-04-28T12:29:11Z</time></trkpt><trkpt lat="34.9966120441" lon="32.8266982455"><ele>683.63</ele><time>2015-04-28T12:29:12Z</time></trkpt><trkpt lat="34.9966046680" lon="32.8266876005"><ele>684.12</ele><time>2015-04-28T12:29:13Z</time></trkpt><trkpt lat="34.9965969566" lon="32.8266750276"><ele>684.12</ele><time>2015-04-28T12:29:14Z</time></trkpt><trkpt lat="34.9965873174" lon="32.8266646340"><ele>684.12</ele><time>2015-04-28T12:29:15Z</time></trkpt><trkpt lat="34.9965770077" lon="32.8266557492"><ele>684.12</ele><time>2015-04-28T12:29:16Z</time></trkpt><trkpt lat="34.9964130577" lon="32.8265668172"><ele>685.08</ele><time>2015-04-28T12:29:31Z</time></trkpt><trkpt lat="34.9962657038" lon="32.8266738541"><ele>687.00</ele><time>2015-04-28T12:29:44Z</time></trkpt><trkpt lat="34.9961517099" lon="32.8268216271"><ele>688.92</ele><time>2015-04-28T12:30:00Z</time></trkpt><trkpt lat="34.9961356167" lon="32.8268545680"><ele>688.92</ele><time>2015-04-28T12:30:03Z</time></trkpt><trkpt lat="34.9961260613" lon="32.8268634528"><ele>688.92</ele><time>2015-04-28T12:30:04Z</time></trkpt><trkpt lat="34.9961181823" lon="32.8268739302"><ele>689.40</ele><time>2015-04-28T12:30:05Z</time></trkpt><trkpt lat="34.9961091299" lon="32.8268854134"><ele>689.40</ele><time>2015-04-28T12:30:06Z</time></trkpt><trkpt lat="34.9961001612" lon="32.8268942144"><ele>689.40</ele><time>2015-04-28T12:30:07Z</time></trkpt><trkpt lat="34.9960901868" lon="32.8269015905"><ele>689.40</ele><time>2015-04-28T12:30:08Z</time></trkpt><trkpt lat="34.9960797094" lon="32.8269106429"><ele>689.40</ele><time>2015-04-28T12:30:09Z</time></trkpt><trkpt lat="34.9960688967" lon="32.8269184381"><ele>689.40</ele><time>2015-04-28T12:30:10Z</time></trkpt><trkpt lat="34.9960572459" lon="32.8269250598"><ele>689.88</ele><time>2015-04-28T12:30:11Z</time></trkpt><trkpt lat="34.9960448407" lon="32.8269303404"><ele>689.88</ele><time>2015-04-28T12:30:12Z</time></trkpt><trkpt lat="34.9960314296" lon="32.8269368783"><ele>689.88</ele><time>2015-04-28T12:30:13Z</time></trkpt><trkpt lat="34.9960225448" lon="32.8269473556"><ele>689.88</ele><time>2015-04-28T12:30:14Z</time></trkpt><trkpt lat="34.9960136600" lon="32.8269560728"><ele>689.88</ele><time>2015-04-28T12:30:15Z</time></trkpt><trkpt lat="34.9960025121" lon="32.8269651253"><ele>689.88</ele><time>2015-04-28T12:30:16Z</time></trkpt><trkpt lat="34.9959926214" lon="32.8269738425"><ele>690.36</ele><time>2015-04-28T12:30:17Z</time></trkpt><trkpt lat="34.9959806353" lon="32.8269779496"><ele>690.36</ele><time>2015-04-28T12:30:18Z</time></trkpt><trkpt lat="34.9959697388" lon="32.8269815538"><ele>690.36</ele><time>2015-04-28T12:30:19Z</time></trkpt><trkpt lat="34.9959607702" lon="32.8269867506"><ele>690.36</ele><time>2015-04-28T12:30:20Z</time></trkpt><trkpt lat="34.9959351216" lon="32.8270061966"><ele>690.84</ele><time>2015-04-28T12:30:23Z</time></trkpt><trkpt lat="34.9959244765" lon="32.8270132374"><ele>690.84</ele><time>2015-04-28T12:30:24Z</time></trkpt><trkpt lat="34.9959139992" lon="32.8270210326"><ele>690.84</ele><time>2015-04-28T12:30:25Z</time></trkpt><trkpt lat="34.9959032703" lon="32.8270283248"><ele>690.84</ele><time>2015-04-28T12:30:26Z</time></trkpt><trkpt lat="34.9958922900" lon="32.8270345274"><ele>690.84</ele><time>2015-04-28T12:30:27Z</time></trkpt><trkpt lat="34.9957602751" lon="32.8270904347"><ele>692.29</ele><time>2015-04-28T12:30:39Z</time></trkpt><trkpt lat="34.9956774618" lon="32.8271087911"><ele>692.77</ele><time>2015-04-28T12:30:47Z</time></trkpt><trkpt lat="34.9956686608" lon="32.8271165024"><ele>693.25</ele><time>2015-04-28T12:30:48Z</time></trkpt><trkpt lat="34.9956574291" lon="32.8271178436"><ele>692.77</ele><time>2015-04-28T12:30:49Z</time></trkpt><trkpt lat="34.9956447724" lon="32.8271165024"><ele>692.77</ele><time>2015-04-28T12:30:50Z</time></trkpt><trkpt lat="34.9956322834" lon="32.8271132335"><ele>693.25</ele><time>2015-04-28T12:30:51Z</time></trkpt><trkpt lat="34.9956210516" lon="32.8271084558"><ele>693.25</ele><time>2015-04-28T12:30:52Z</time></trkpt><trkpt lat="34.9955559243" lon="32.8270719107"><ele>693.73</ele><time>2015-04-28T12:30:58Z</time></trkpt><trkpt lat="34.9955500569" lon="32.8270586673"><ele>693.73</ele><time>2015-04-28T12:30:59Z</time></trkpt><trkpt lat="34.9955454469" lon="32.8270455915"><ele>693.73</ele><time>2015-04-28T12:31:00Z</time></trkpt><trkpt lat="34.9955372326" lon="32.8270382993"><ele>694.21</ele><time>2015-04-28T12:31:01Z</time></trkpt><trkpt lat="34.9955270067" lon="32.8270334378"><ele>694.21</ele><time>2015-04-28T12:31:02Z</time></trkpt><trkpt lat="34.9955148529" lon="32.8270276543"><ele>694.21</ele><time>2015-04-28T12:31:03Z</time></trkpt><trkpt lat="34.9955037050" lon="32.8270191886"><ele>694.21</ele><time>2015-04-28T12:31:04Z</time></trkpt><trkpt lat="34.9954971671" lon="32.8270057775"><ele>694.69</ele><time>2015-04-28T12:31:05Z</time></trkpt><trkpt lat="34.9954903778" lon="32.8269939590"><ele>694.21</ele><time>2015-04-28T12:31:06Z</time></trkpt><trkpt lat="34.9954812415" lon="32.8269866668"><ele>694.69</ele><time>2015-04-28T12:31:07Z</time></trkpt><trkpt lat="34.9954615440" lon="32.8269877564"><ele>694.69</ele><time>2015-04-28T12:31:09Z</time></trkpt><trkpt lat="34.9954432715" lon="32.8269854095"><ele>695.17</ele><time>2015-04-28T12:31:11Z</time></trkpt><trkpt lat="34.9954330456" lon="32.8269784525"><ele>695.17</ele><time>2015-04-28T12:31:12Z</time></trkpt><trkpt lat="34.9954229034" lon="32.8269751836"><ele>695.17</ele><time>2015-04-28T12:31:13Z</time></trkpt><trkpt lat="34.9954123423" lon="32.8269725852"><ele>695.17</ele><time>2015-04-28T12:31:14Z</time></trkpt><trkpt lat="34.9953139387" lon="32.8269423265"><ele>696.13</ele><time>2015-04-28T12:31:24Z</time></trkpt><trkpt lat="34.9953001924" lon="32.8269535583"><ele>696.13</ele><time>2015-04-28T12:31:25Z</time></trkpt><trkpt lat="34.9952840991" lon="32.8269636165"><ele>696.13</ele><time>2015-04-28T12:31:26Z</time></trkpt><trkpt lat="34.9952672515" lon="32.8269709926"><ele>696.13</ele><time>2015-04-28T12:31:27Z</time></trkpt><trkpt lat="34.9952533375" lon="32.8269750997"><ele>696.61</ele><time>2015-04-28T12:31:28Z</time></trkpt><trkpt lat="34.9952405132" lon="32.8269788716"><ele>696.13</ele><time>2015-04-28T12:31:29Z</time></trkpt><trkpt lat="34.9952281918" lon="32.8269808833"><ele>696.13</ele><time>2015-04-28T12:31:30Z</time></trkpt><trkpt lat="34.9952149484" lon="32.8269822244"><ele>696.61</ele><time>2015-04-28T12:31:31Z</time></trkpt><trkpt lat="34.9952024594" lon="32.8269844875"><ele>696.61</ele><time>2015-04-28T12:31:32Z</time></trkpt><trkpt lat="34.9950658344" lon="32.8270269837"><ele>698.05</ele><time>2015-04-28T12:31:44Z</time></trkpt><trkpt lat="34.9950548541" lon="32.8270300850"><ele>698.05</ele><time>2015-04-28T12:31:45Z</time></trkpt><trkpt lat="34.9950034730" lon="32.8270662948"><ele>698.53</ele><time>2015-04-28T12:31:51Z</time></trkpt><trkpt lat="34.9949977733" lon="32.8270750958"><ele>698.53</ele><time>2015-04-28T12:31:52Z</time></trkpt><trkpt lat="34.9949909840" lon="32.8270840645"><ele>699.02</ele><time>2015-04-28T12:31:53Z</time></trkpt><trkpt lat="34.9949815124" lon="32.8270906024"><ele>698.53</ele><time>2015-04-28T12:31:54Z</time></trkpt><trkpt lat="34.9949545227" lon="32.8271061927"><ele>699.02</ele><time>2015-04-28T12:31:57Z</time></trkpt><trkpt lat="34.9948593881" lon="32.8272665385"><ele>700.46</ele><time>2015-04-28T12:32:14Z</time></trkpt><trkpt lat="34.9948228430" lon="32.8273143154"><ele>700.94</ele><time>2015-04-28T12:32:19Z</time></trkpt><trkpt lat="34.9948134553" lon="32.8273225296"><ele>700.94</ele><time>2015-04-28T12:32:20Z</time></trkpt><trkpt lat="34.9948072527" lon="32.8273345996"><ele>700.94</ele><time>2015-04-28T12:32:21Z</time></trkpt><trkpt lat="34.9948006310" lon="32.8273459151"><ele>700.94</ele><time>2015-04-28T12:32:22Z</time></trkpt><trkpt lat="34.9947918300" lon="32.8273561411"><ele>700.94</ele><time>2015-04-28T12:32:23Z</time></trkpt><trkpt lat="34.9947846215" lon="32.8273667023"><ele>701.42</ele><time>2015-04-28T12:32:24Z</time></trkpt><trkpt lat="34.9947764911" lon="32.8273762576"><ele>701.42</ele><time>2015-04-28T12:32:25Z</time></trkpt><trkpt lat="34.9947696179" lon="32.8273869026"><ele>701.42</ele><time>2015-04-28T12:32:26Z</time></trkpt><trkpt lat="34.9947634991" lon="32.8273979668"><ele>701.90</ele><time>2015-04-28T12:32:27Z</time></trkpt><trkpt lat="34.9947553687" lon="32.8274081089"><ele>701.90</ele><time>2015-04-28T12:32:28Z</time></trkpt><trkpt lat="34.9947500043" lon="32.8274182510"><ele>701.90</ele><time>2015-04-28T12:32:29Z</time></trkpt><trkpt lat="34.9947438855" lon="32.8274287283"><ele>701.90</ele><time>2015-04-28T12:32:30Z</time></trkpt><trkpt lat="34.9947338272" lon="32.8274399601"><ele>702.38</ele><time>2015-04-28T12:32:31Z</time></trkpt><trkpt lat="34.9947232660" lon="32.8274511918"><ele>701.90</ele><time>2015-04-28T12:32:32Z</time></trkpt><trkpt lat="34.9947149679" lon="32.8274621721"><ele>702.38</ele><time>2015-04-28T12:32:33Z</time></trkpt><trkpt lat="34.9947047420" lon="32.8274718113"><ele>702.38</ele><time>2015-04-28T12:32:34Z</time></trkpt><trkpt lat="34.9946941808" lon="32.8274806123"><ele>702.38</ele><time>2015-04-28T12:32:35Z</time></trkpt><trkpt lat="34.9946842063" lon="32.8274912573"><ele>702.38</ele><time>2015-04-28T12:32:36Z</time></trkpt><trkpt lat="34.9946750700" lon="32.8275022376"><ele>702.38</ele><time>2015-04-28T12:32:37Z</time></trkpt><trkpt lat="34.9946665205" lon="32.8275119606"><ele>702.86</ele><time>2015-04-28T12:32:38Z</time></trkpt><trkpt lat="34.9946567137" lon="32.8275205102"><ele>702.38</ele><time>2015-04-28T12:32:39Z</time></trkpt><trkpt lat="34.9946310651" lon="32.8275507689"><ele>702.86</ele><time>2015-04-28T12:32:42Z</time></trkpt><trkpt lat="34.9946212582" lon="32.8275598213"><ele>703.34</ele><time>2015-04-28T12:32:43Z</time></trkpt><trkpt lat="34.9946116190" lon="32.8275686223"><ele>703.34</ele><time>2015-04-28T12:32:44Z</time></trkpt><trkpt lat="34.9946014769" lon="32.8275780939"><ele>703.34</ele><time>2015-04-28T12:32:45Z</time></trkpt><trkpt lat="34.9945941009" lon="32.8275910858"><ele>703.34</ele><time>2015-04-28T12:32:46Z</time></trkpt><trkpt lat="34.9945857190" lon="32.8276006412"><ele>703.34</ele><time>2015-04-28T12:32:47Z</time></trkpt><trkpt lat="34.9945728946" lon="32.8276142199"><ele>703.34</ele><time>2015-04-28T12:32:48Z</time></trkpt><trkpt lat="34.9945590645" lon="32.8276261222"><ele>703.82</ele><time>2015-04-28T12:32:49Z</time></trkpt><trkpt lat="34.9945476651" lon="32.8276384436"><ele>703.82</ele><time>2015-04-28T12:32:50Z</time></trkpt><trkpt lat="34.9945345894" lon="32.8276518546"><ele>703.82</ele><time>2015-04-28T12:32:51Z</time></trkpt><trkpt lat="34.9945233576" lon="32.8276650142"><ele>703.82</ele><time>2015-04-28T12:32:52Z</time></trkpt><trkpt lat="34.9945127126" lon="32.8276786767"><ele>703.82</ele><time>2015-04-28T12:32:53Z</time></trkpt><trkpt lat="34.9945002235" lon="32.8276897408"><ele>704.30</ele><time>2015-04-28T12:32:54Z</time></trkpt><trkpt lat="34.9944894109" lon="32.8276998829"><ele>704.30</ele><time>2015-04-28T12:32:55Z</time></trkpt><trkpt lat="34.9944782630" lon="32.8277112823"><ele>704.30</ele><time>2015-04-28T12:32:56Z</time></trkpt><trkpt lat="34.9944682885" lon="32.8277215920"><ele>704.30</ele><time>2015-04-28T12:32:57Z</time></trkpt><trkpt lat="34.9944585655" lon="32.8277314827"><ele>704.30</ele><time>2015-04-28T12:32:58Z</time></trkpt><trkpt lat="34.9943001475" lon="32.8278738912"><ele>706.23</ele><time>2015-04-28T12:33:13Z</time></trkpt><trkpt lat="34.9941208586" lon="32.8280528449"><ele>707.67</ele><time>2015-04-28T12:33:30Z</time></trkpt><trkpt lat="34.9941115547" lon="32.8280651662"><ele>707.67</ele><time>2015-04-28T12:33:31Z</time></trkpt><trkpt lat="34.9941021670" lon="32.8280799184"><ele>707.67</ele><time>2015-04-28T12:33:32Z</time></trkpt><trkpt lat="34.9940931145" lon="32.8280917369"><ele>707.67</ele><time>2015-04-28T12:33:33Z</time></trkpt><trkpt lat="34.9940874148" lon="32.8281036392"><ele>708.15</ele><time>2015-04-28T12:33:34Z</time></trkpt><trkpt lat="34.9940781947" lon="32.8281121049"><ele>707.67</ele><time>2015-04-28T12:33:35Z</time></trkpt><trkpt lat="34.9940441642" lon="32.8281564452"><ele>708.15</ele><time>2015-04-28T12:33:39Z</time></trkpt><trkpt lat="34.9940316752" lon="32.8281773161"><ele>708.63</ele><time>2015-04-28T12:33:41Z</time></trkpt><trkpt lat="34.9940207787" lon="32.8281865362"><ele>708.63</ele><time>2015-04-28T12:33:42Z</time></trkpt><trkpt lat="34.9939115625" lon="32.8282607999"><ele>708.63</ele><time>2015-04-28T12:33:53Z</time></trkpt><trkpt lat="34.9938991573" lon="32.8282607161"><ele>708.63</ele><time>2015-04-28T12:33:54Z</time></trkpt><trkpt lat="34.9938857462" lon="32.8282602970"><ele>708.63</ele><time>2015-04-28T12:33:55Z</time></trkpt><trkpt lat="34.9938701559" lon="32.8282569442"><ele>708.63</ele><time>2015-04-28T12:33:56Z</time></trkpt><trkpt lat="34.9938523863" lon="32.8282523341"><ele>708.63</ele><time>2015-04-28T12:33:57Z</time></trkpt><trkpt lat="34.9936866760" lon="32.8281881288"><ele>708.63</ele><time>2015-04-28T12:34:09Z</time></trkpt><trkpt lat="34.9934310280" lon="32.8279384319"><ele>707.67</ele><time>2015-04-28T12:34:25Z</time></trkpt><trkpt lat="34.9932587799" lon="32.8279044852"><ele>708.15</ele><time>2015-04-28T12:34:36Z</time></trkpt><trkpt lat="34.9932440277" lon="32.8279158007"><ele>708.15</ele><time>2015-04-28T12:34:37Z</time></trkpt><trkpt lat="34.9932269286" lon="32.8279268648"><ele>708.15</ele><time>2015-04-28T12:34:38Z</time></trkpt><trkpt lat="34.9932080694" lon="32.8279385995"><ele>708.15</ele><time>2015-04-28T12:34:39Z</time></trkpt><trkpt lat="34.9931894615" lon="32.8279495798"><ele>708.15</ele><time>2015-04-28T12:34:40Z</time></trkpt><trkpt lat="34.9931749608" lon="32.8279616497"><ele>708.15</ele><time>2015-04-28T12:34:41Z</time></trkpt><trkpt lat="34.9931592867" lon="32.8279751446"><ele>708.63</ele><time>2015-04-28T12:34:42Z</time></trkpt><trkpt lat="34.9931441154" lon="32.8279841132"><ele>709.11</ele><time>2015-04-28T12:34:43Z</time></trkpt><trkpt lat="34.9930442031" lon="32.8280709498"><ele>709.59</ele><time>2015-04-28T12:34:52Z</time></trkpt><trkpt lat="34.9930320494" lon="32.8280779067"><ele>710.07</ele><time>2015-04-28T12:34:53Z</time></trkpt><trkpt lat="34.9930214044" lon="32.8280841932"><ele>710.07</ele><time>2015-04-28T12:34:54Z</time></trkpt><trkpt lat="34.9930087477" lon="32.8280908987"><ele>710.07</ele><time>2015-04-28T12:34:55Z</time></trkpt><trkpt lat="34.9929944985" lon="32.8280938324"><ele>710.55</ele><time>2015-04-28T12:34:56Z</time></trkpt><trkpt lat="34.9929811712" lon="32.8280971851"><ele>710.55</ele><time>2015-04-28T12:34:57Z</time></trkpt><trkpt lat="34.9929686822" lon="32.8280991130"><ele>710.07</ele><time>2015-04-28T12:34:58Z</time></trkpt><trkpt lat="34.9928370025" lon="32.8281317186"><ele>711.51</ele><time>2015-04-28T12:35:09Z</time></trkpt><trkpt lat="34.9928245135" lon="32.8281307127"><ele>711.51</ele><time>2015-04-28T12:35:10Z</time></trkpt><trkpt lat="34.9928126112" lon="32.8281329758"><ele>711.51</ele><time>2015-04-28T12:35:11Z</time></trkpt><trkpt lat="34.9926994555" lon="32.8281754721"><ele>712.47</ele><time>2015-04-28T12:35:21Z</time></trkpt><trkpt lat="34.9926889781" lon="32.8281825129"><ele>712.47</ele><time>2015-04-28T12:35:22Z</time></trkpt><trkpt lat="34.9926775787" lon="32.8281887155"><ele>712.47</ele><time>2015-04-28T12:35:23Z</time></trkpt><trkpt lat="34.9926671851" lon="32.8281961754"><ele>712.47</ele><time>2015-04-28T12:35:24Z</time></trkpt><trkpt lat="34.9926565401" lon="32.8282035515"><ele>712.47</ele><time>2015-04-28T12:35:25Z</time></trkpt><trkpt lat="34.9926464818" lon="32.8282126877"><ele>712.47</ele><time>2015-04-28T12:35:26Z</time></trkpt><trkpt lat="34.9926360045" lon="32.8282231651"><ele>712.47</ele><time>2015-04-28T12:35:27Z</time></trkpt><trkpt lat="34.9924806878" lon="32.8283478040"><ele>713.44</ele><time>2015-04-28T12:35:40Z</time></trkpt><trkpt lat="34.9923213478" lon="32.8284184635"><ele>714.88</ele><time>2015-04-28T12:35:55Z</time></trkpt><trkpt lat="34.9921792746" lon="32.8284780588"><ele>715.84</ele><time>2015-04-28T12:36:05Z</time></trkpt><trkpt lat="34.9921656121" lon="32.8284803219"><ele>715.84</ele><time>2015-04-28T12:36:06Z</time></trkpt><trkpt lat="34.9921511952" lon="32.8284856025"><ele>715.84</ele><time>2015-04-28T12:36:07Z</time></trkpt><trkpt lat="34.9921356048" lon="32.8284908831"><ele>715.84</ele><time>2015-04-28T12:36:08Z</time></trkpt><trkpt lat="34.9921200145" lon="32.8284939006"><ele>715.84</ele><time>2015-04-28T12:36:09Z</time></trkpt><trkpt lat="34.9921046756" lon="32.8284968343"><ele>715.84</ele><time>2015-04-28T12:36:10Z</time></trkpt><trkpt lat="34.9920909293" lon="32.8284993488"><ele>715.84</ele><time>2015-04-28T12:36:11Z</time></trkpt><trkpt lat="34.9920801166" lon="32.8285026178"><ele>715.84</ele><time>2015-04-28T12:36:12Z</time></trkpt><trkpt lat="34.9920681305" lon="32.8285091557"><ele>715.84</ele><time>2015-04-28T12:36:13Z</time></trkpt><trkpt lat="34.9920559768" lon="32.8285135981"><ele>716.32</ele><time>2015-04-28T12:36:14Z</time></trkpt><trkpt lat="34.9920417275" lon="32.8285140172"><ele>716.32</ele><time>2015-04-28T12:36:15Z</time></trkpt><trkpt lat="34.9920303281" lon="32.8285141010"><ele>716.32</ele><time>2015-04-28T12:36:16Z</time></trkpt><trkpt lat="34.9920201022" lon="32.8285176214"><ele>716.32</ele><time>2015-04-28T12:36:17Z</time></trkpt><trkpt lat="34.9920092057" lon="32.8285224829"><ele>716.32</ele><time>2015-04-28T12:36:18Z</time></trkpt><trkpt lat="34.9919984769" lon="32.8285286017"><ele>716.80</ele><time>2015-04-28T12:36:19Z</time></trkpt><trkpt lat="34.9919859879" lon="32.8285316192"><ele>716.80</ele><time>2015-04-28T12:36:20Z</time></trkpt><trkpt lat="34.9919730797" lon="32.8285334632"><ele>716.80</ele><time>2015-04-28T12:36:21Z</time></trkpt><trkpt lat="34.9919589143" lon="32.8285319544"><ele>716.80</ele><time>2015-04-28T12:36:22Z</time></trkpt><trkpt lat="34.9919445813" lon="32.8285301104"><ele>716.80</ele><time>2015-04-28T12:36:23Z</time></trkpt><trkpt lat="34.9919308349" lon="32.8285264224"><ele>716.80</ele><time>2015-04-28T12:36:24Z</time></trkpt><trkpt lat="34.9917392246" lon="32.8284149431"><ele>718.24</ele><time>2015-04-28T12:36:38Z</time></trkpt><trkpt lat="34.9917245563" lon="32.8284059744"><ele>718.24</ele><time>2015-04-28T12:36:39Z</time></trkpt><trkpt lat="34.9917106424" lon="32.8283934854"><ele>718.24</ele><time>2015-04-28T12:36:40Z</time></trkpt><trkpt lat="34.9915980734" lon="32.8282508254"><ele>719.20</ele><time>2015-04-28T12:36:50Z</time></trkpt><trkpt lat="34.9915000889" lon="32.8281651624"><ele>719.68</ele><time>2015-04-28T12:37:00Z</time></trkpt><trkpt lat="34.9913922977" lon="32.8281250130"><ele>720.65</ele><time>2015-04-28T12:37:08Z</time></trkpt><trkpt lat="34.9912386574" lon="32.8280910663"><ele>721.61</ele><time>2015-04-28T12:37:21Z</time></trkpt><trkpt lat="34.9912263360" lon="32.8280862886"><ele>721.61</ele><time>2015-04-28T12:37:22Z</time></trkpt><trkpt lat="34.9910491426" lon="32.8279655054"><ele>723.05</ele><time>2015-04-28T12:37:37Z</time></trkpt><trkpt lat="34.9910422694" lon="32.8279594705"><ele>723.05</ele><time>2015-04-28T12:37:38Z</time></trkpt><trkpt lat="34.9910344742" lon="32.8279497474"><ele>723.05</ele><time>2015-04-28T12:37:39Z</time></trkpt><trkpt lat="34.9910062272" lon="32.8279162198"><ele>723.53</ele><time>2015-04-28T12:37:43Z</time></trkpt><trkpt lat="34.9909977615" lon="32.8279058263"><ele>724.01</ele><time>2015-04-28T12:37:44Z</time></trkpt><trkpt lat="34.9909879547" lon="32.8278975282"><ele>724.01</ele><time>2015-04-28T12:37:45Z</time></trkpt><trkpt lat="34.9909820035" lon="32.8278848715"><ele>724.01</ele><time>2015-04-28T12:37:46Z</time></trkpt><trkpt lat="34.9909758847" lon="32.8278705385"><ele>724.01</ele><time>2015-04-28T12:37:47Z</time></trkpt><trkpt lat="34.9909671675" lon="32.8278595582"><ele>724.01</ele><time>2015-04-28T12:37:48Z</time></trkpt><trkpt lat="34.9909549300" lon="32.8278519306"><ele>724.01</ele><time>2015-04-28T12:37:49Z</time></trkpt><trkpt lat="34.9909444526" lon="32.8278427944"><ele>724.49</ele><time>2015-04-28T12:37:50Z</time></trkpt><trkpt lat="34.9909336399" lon="32.8278327361"><ele>724.49</ele><time>2015-04-28T12:37:51Z</time></trkpt><trkpt lat="34.9909236655" lon="32.8278231807"><ele>724.49</ele><time>2015-04-28T12:37:52Z</time></trkpt><trkpt lat="34.9909150321" lon="32.8278126195"><ele>724.49</ele><time>2015-04-28T12:37:53Z</time></trkpt><trkpt lat="34.9909082428" lon="32.8278002143"><ele>724.49</ele><time>2015-04-28T12:37:54Z</time></trkpt><trkpt lat="34.9909005314" lon="32.8277905751"><ele>724.97</ele><time>2015-04-28T12:37:55Z</time></trkpt><trkpt lat="34.9908892997" lon="32.8277847078"><ele>724.97</ele><time>2015-04-28T12:37:56Z</time></trkpt><trkpt lat="34.9908589572" lon="32.8277632501"><ele>725.45</ele><time>2015-04-28T12:37:59Z</time></trkpt><trkpt lat="34.9908275250" lon="32.8277111985"><ele>725.93</ele><time>2015-04-28T12:38:03Z</time></trkpt><trkpt lat="34.9908189755" lon="32.8276908305"><ele>725.93</ele><time>2015-04-28T12:38:04Z</time></trkpt><trkpt lat="34.9908064865" lon="32.8276767489"><ele>725.93</ele><time>2015-04-28T12:38:05Z</time></trkpt><trkpt lat="34.9907921534" lon="32.8276686184"><ele>725.93</ele><time>2015-04-28T12:38:06Z</time></trkpt><trkpt lat="34.9907779042" lon="32.8276622482"><ele>726.41</ele><time>2015-04-28T12:38:07Z</time></trkpt><trkpt lat="34.9907653313" lon="32.8276560456"><ele>726.41</ele><time>2015-04-28T12:38:08Z</time></trkpt><trkpt lat="34.9907530937" lon="32.8276499268"><ele>726.41</ele><time>2015-04-28T12:38:09Z</time></trkpt><trkpt lat="34.9907394312" lon="32.8276432212"><ele>726.89</ele><time>2015-04-28T12:38:10Z</time></trkpt><trkpt lat="34.9905805103" lon="32.8275937680"><ele>728.34</ele><time>2015-04-28T12:38:22Z</time></trkpt><trkpt lat="34.9905687757" lon="32.8275860567"><ele>728.34</ele><time>2015-04-28T12:38:23Z</time></trkpt><trkpt lat="34.9905596394" lon="32.8275765851"><ele>728.82</ele><time>2015-04-28T12:38:24Z</time></trkpt><trkpt lat="34.9905222561" lon="32.8275445662"><ele>729.30</ele><time>2015-04-28T12:38:28Z</time></trkpt><trkpt lat="34.9905059952" lon="32.8273108788"><ele>730.26</ele><time>2015-04-28T12:38:45Z</time></trkpt><trkpt lat="34.9905256089" lon="32.8271527123"><ele>731.22</ele><time>2015-04-28T12:38:56Z</time></trkpt><trkpt lat="34.9905235134" lon="32.8271363676"><ele>731.70</ele><time>2015-04-28T12:38:57Z</time></trkpt><trkpt lat="34.9904997088" lon="32.8269226290"><ele>732.66</ele><time>2015-04-28T12:39:11Z</time></trkpt><trkpt lat="34.9904946797" lon="32.8269090503"><ele>732.66</ele><time>2015-04-28T12:39:12Z</time></trkpt><trkpt lat="34.9904897343" lon="32.8267465252"><ele>733.62</ele><time>2015-04-28T12:39:23Z</time></trkpt><trkpt lat="34.9904843699" lon="32.8267317731"><ele>733.62</ele><time>2015-04-28T12:39:24Z</time></trkpt><trkpt lat="34.9904812686" lon="32.8267176915"><ele>733.62</ele><time>2015-04-28T12:39:25Z</time></trkpt><trkpt lat="34.9904803466" lon="32.8267025203"><ele>734.10</ele><time>2015-04-28T12:39:26Z</time></trkpt><trkpt lat="34.9904777482" lon="32.8266882710"><ele>734.10</ele><time>2015-04-28T12:39:27Z</time></trkpt><trkpt lat="34.9904760718" lon="32.8266742732"><ele>734.10</ele><time>2015-04-28T12:39:28Z</time></trkpt><trkpt lat="34.9904764909" lon="32.8266582638"><ele>734.10</ele><time>2015-04-28T12:39:29Z</time></trkpt><trkpt lat="34.9904754013" lon="32.8266431764"><ele>734.10</ele><time>2015-04-28T12:39:30Z</time></trkpt><trkpt lat="34.9904728029" lon="32.8266282566"><ele>734.10</ele><time>2015-04-28T12:39:31Z</time></trkpt><trkpt lat="34.9904713780" lon="32.8266137559"><ele>734.58</ele><time>2015-04-28T12:39:32Z</time></trkpt><trkpt lat="34.9904727191" lon="32.8265985008"><ele>734.58</ele><time>2015-04-28T12:39:33Z</time></trkpt><trkpt lat="34.9904747307" lon="32.8265803959"><ele>734.58</ele><time>2015-04-28T12:39:34Z</time></trkpt><trkpt lat="34.9904688634" lon="32.8263721056"><ele>736.03</ele><time>2015-04-28T12:39:48Z</time></trkpt><trkpt lat="34.9904735573" lon="32.8263585269"><ele>736.03</ele><time>2015-04-28T12:39:49Z</time></trkpt><trkpt lat="34.9904792570" lon="32.8263462055"><ele>736.03</ele><time>2015-04-28T12:39:50Z</time></trkpt><trkpt lat="34.9904847890" lon="32.8263353091"><ele>736.51</ele><time>2015-04-28T12:39:51Z</time></trkpt><trkpt lat="34.9905126169" lon="32.8263073973"><ele>736.99</ele><time>2015-04-28T12:39:55Z</time></trkpt><trkpt lat="34.9905207474" lon="32.8263003565"><ele>737.47</ele><time>2015-04-28T12:39:56Z</time></trkpt><trkpt lat="34.9905296322" lon="32.8262948245"><ele>737.47</ele><time>2015-04-28T12:39:57Z</time></trkpt><trkpt lat="34.9905388523" lon="32.8262888733"><ele>737.95</ele><time>2015-04-28T12:39:58Z</time></trkpt><trkpt lat="34.9905475695" lon="32.8262793180"><ele>737.95</ele><time>2015-04-28T12:39:59Z</time></trkpt><trkpt lat="34.9905876350" lon="32.8262338042"><ele>739.39</ele><time>2015-04-28T12:40:04Z</time></trkpt><trkpt lat="34.9906269461" lon="32.8261869494"><ele>740.35</ele><time>2015-04-28T12:40:08Z</time></trkpt><trkpt lat="34.9906385969" lon="32.8261778131"><ele>740.83</ele><time>2015-04-28T12:40:09Z</time></trkpt><trkpt lat="34.9906506669" lon="32.8261694312"><ele>740.83</ele><time>2015-04-28T12:40:10Z</time></trkpt><trkpt lat="34.9906613957" lon="32.8261639830"><ele>741.31</ele><time>2015-04-28T12:40:11Z</time></trkpt><trkpt lat="34.9906712025" lon="32.8261554334"><ele>741.31</ele><time>2015-04-28T12:40:12Z</time></trkpt><trkpt lat="34.9906909838" lon="32.8261128534"><ele>742.28</ele><time>2015-04-28T12:40:15Z</time></trkpt><trkpt lat="34.9906911515" lon="32.8260999452"><ele>742.76</ele><time>2015-04-28T12:40:16Z</time></trkpt><trkpt lat="34.9907059036" lon="32.8260881267"><ele>742.76</ele><time>2015-04-28T12:40:27Z</time></trkpt><trkpt lat="34.9907256849" lon="32.8260551021"><ele>743.24</ele><time>2015-04-28T12:40:50Z</time></trkpt><trkpt lat="34.9907075800" lon="32.8260725364"><ele>743.24</ele><time>2015-04-28T12:41:10Z</time></trkpt><trkpt lat="34.9907258525" lon="32.8260687646"><ele>743.72</ele><time>2015-04-28T12:41:46Z</time></trkpt><trkpt lat="34.9907029700" lon="32.8260360751"><ele>744.20</ele><time>2015-04-28T12:42:32Z</time></trkpt><trkpt lat="34.9906790815" lon="32.8260496538"><ele>744.20</ele><time>2015-04-28T12:43:17Z</time></trkpt><trkpt lat="34.9906964321" lon="32.8259883821"><ele>744.68</ele><time>2015-04-28T12:44:04Z</time></trkpt><trkpt lat="34.9906669278" lon="32.8260255139"><ele>744.68</ele><time>2015-04-28T12:44:55Z</time></trkpt><trkpt lat="34.9906912353" lon="32.8260069899"><ele>744.68</ele><time>2015-04-28T12:45:57Z</time></trkpt><trkpt lat="34.9906992819" lon="32.8260255978"><ele>745.16</ele><time>2015-04-28T12:46:35Z</time></trkpt><trkpt lat="34.9906897265" lon="32.8260280285"><ele>744.68</ele><time>2015-04-28T12:47:21Z</time></trkpt><trkpt lat="34.9906788301" lon="32.8260321356"><ele>744.68</ele><time>2015-04-28T12:48:07Z</time></trkpt><trkpt lat="34.9906586297" lon="32.8260249272"><ele>744.68</ele><time>2015-04-28T12:49:00Z</time></trkpt><trkpt lat="34.9906756449" lon="32.8260271065"><ele>744.68</ele><time>2015-04-28T12:49:45Z</time></trkpt><trkpt lat="34.9906836916" lon="32.8260264359"><ele>744.68</ele><time>2015-04-28T12:50:26Z</time></trkpt><trkpt lat="34.9906760640" lon="32.8260611370"><ele>744.20</ele><time>2015-04-28T12:51:07Z</time></trkpt><trkpt lat="34.9906960130" lon="32.8260592930"><ele>744.68</ele><time>2015-04-28T12:51:26Z</time></trkpt><trkpt lat="34.9906958453" lon="32.8260810021"><ele>745.16</ele><time>2015-04-28T12:51:48Z</time></trkpt><trkpt lat="34.9907209072" lon="32.8260799963"><ele>744.68</ele><time>2015-04-28T12:52:08Z</time></trkpt><trkpt lat="34.9907373358" lon="32.8260439541"><ele>745.64</ele><time>2015-04-28T12:52:27Z</time></trkpt><trkpt lat="34.9907939136" lon="32.8259500768"><ele>748.04</ele><time>2015-04-28T12:52:45Z</time></trkpt><trkpt lat="34.9908400979" lon="32.8258766513"><ele>749.49</ele><time>2015-04-28T12:53:03Z</time></trkpt><trkpt lat="34.9908825103" lon="32.8257888928"><ele>750.93</ele><time>2015-04-28T12:53:20Z</time></trkpt><trkpt lat="34.9909208156" lon="32.8256876394"><ele>752.85</ele><time>2015-04-28T12:53:38Z</time></trkpt><trkpt lat="34.9909770582" lon="32.8256241046"><ele>754.29</ele><time>2015-04-28T12:53:51Z</time></trkpt><trkpt lat="34.9910839275" lon="32.8256131243"><ele>756.21</ele><time>2015-04-28T12:54:06Z</time></trkpt><trkpt lat="34.9911695067" lon="32.8256588057"><ele>757.66</ele><time>2015-04-28T12:54:19Z</time></trkpt><trkpt lat="34.9912715983" lon="32.8257623222"><ele>759.58</ele><time>2015-04-28T12:54:37Z</time></trkpt><trkpt lat="34.9912863504" lon="32.8257853724"><ele>759.58</ele><time>2015-04-28T12:54:40Z</time></trkpt><trkpt lat="34.9913141783" lon="32.8258890565"><ele>760.54</ele><time>2015-04-28T12:54:49Z</time></trkpt><trkpt lat="34.9913105741" lon="32.8259019647"><ele>760.54</ele><time>2015-04-28T12:54:50Z</time></trkpt><trkpt lat="34.9913100712" lon="32.8259183094"><ele>760.54</ele><time>2015-04-28T12:54:51Z</time></trkpt><trkpt lat="34.9913140945" lon="32.8259339835"><ele>760.54</ele><time>2015-04-28T12:54:52Z</time></trkpt><trkpt lat="34.9912857637" lon="32.8261199780"><ele>761.50</ele><time>2015-04-28T12:55:05Z</time></trkpt><trkpt lat="34.9912662338" lon="32.8262214828"><ele>761.50</ele><time>2015-04-28T12:55:10Z</time></trkpt><trkpt lat="34.9912567623" lon="32.8262313735"><ele>761.50</ele><time>2015-04-28T12:55:11Z</time></trkpt><trkpt lat="34.9912461173" lon="32.8262432758"><ele>761.50</ele><time>2015-04-28T12:55:12Z</time></trkpt><trkpt lat="34.9912380707" lon="32.8262583632"><ele>761.98</ele><time>2015-04-28T12:55:13Z</time></trkpt><trkpt lat="34.9912348017" lon="32.8262778930"><ele>761.98</ele><time>2015-04-28T12:55:14Z</time></trkpt><trkpt lat="34.9912356399" lon="32.8263005242"><ele>761.98</ele><time>2015-04-28T12:55:15Z</time></trkpt><trkpt lat="34.9912399985" lon="32.8263229877"><ele>761.98</ele><time>2015-04-28T12:55:16Z</time></trkpt><trkpt lat="34.9912446924" lon="32.8263456188"><ele>761.98</ele><time>2015-04-28T12:55:17Z</time></trkpt><trkpt lat="34.9912672397" lon="32.8263900429"><ele>762.46</ele><time>2015-04-28T12:55:20Z</time></trkpt><trkpt lat="34.9912768789" lon="32.8263908811"><ele>762.46</ele><time>2015-04-28T12:55:21Z</time></trkpt><trkpt lat="34.9912820756" lon="32.8263866901"><ele>762.94</ele><time>2015-04-28T12:55:22Z</time></trkpt><trkpt lat="34.9912874401" lon="32.8263781406"><ele>762.94</ele><time>2015-04-28T12:55:23Z</time></trkpt><trkpt lat="34.9912916310" lon="32.8263673279"><ele>762.94</ele><time>2015-04-28T12:55:24Z</time></trkpt><trkpt lat="34.9912999291" lon="32.8263578564"><ele>763.42</ele><time>2015-04-28T12:55:25Z</time></trkpt><trkpt lat="34.9913469516" lon="32.8262892924"><ele>764.87</ele><time>2015-04-28T12:55:34Z</time></trkpt><trkpt lat="34.9913762044" lon="32.8261576127"><ele>766.31</ele><time>2015-04-28T12:55:47Z</time></trkpt><trkpt lat="34.9913968239" lon="32.8260988556"><ele>767.27</ele><time>2015-04-28T12:55:52Z</time></trkpt><trkpt lat="34.9914109893" lon="32.8260650765"><ele>767.27</ele><time>2015-04-28T12:55:55Z</time></trkpt><trkpt lat="34.9914181978" lon="32.8260530904"><ele>767.27</ele><time>2015-04-28T12:55:56Z</time></trkpt><trkpt lat="34.9914523121" lon="32.8259456344"><ele>768.23</ele><time>2015-04-28T12:56:04Z</time></trkpt><trkpt lat="34.9914845824" lon="32.8258122783"><ele>769.67</ele><time>2015-04-28T12:56:16Z</time></trkpt><trkpt lat="34.9915140029" lon="32.8257049900"><ele>770.63</ele><time>2015-04-28T12:56:25Z</time></trkpt><trkpt lat="34.9915176909" lon="32.8256901540"><ele>770.63</ele><time>2015-04-28T12:56:26Z</time></trkpt><trkpt lat="34.9915160984" lon="32.8256741446"><ele>771.11</ele><time>2015-04-28T12:56:27Z</time></trkpt><trkpt lat="34.9915219657" lon="32.8256270383"><ele>771.11</ele><time>2015-04-28T12:56:30Z</time></trkpt><trkpt lat="34.9915231392" lon="32.8256119508"><ele>771.11</ele><time>2015-04-28T12:56:31Z</time></trkpt><trkpt lat="34.9915079679" lon="32.8254379425"><ele>773.04</ele><time>2015-04-28T12:56:45Z</time></trkpt><trkpt lat="34.9915299285" lon="32.8252124693"><ele>774.48</ele><time>2015-04-28T12:57:02Z</time></trkpt><trkpt lat="34.9915267434" lon="32.8251962084"><ele>774.48</ele><time>2015-04-28T12:57:03Z</time></trkpt><trkpt lat="34.9915272463" lon="32.8251830488"><ele>774.48</ele><time>2015-04-28T12:57:04Z</time></trkpt><trkpt lat="34.9915272463" lon="32.8251670394"><ele>774.96</ele><time>2015-04-28T12:57:05Z</time></trkpt><trkpt lat="34.9915266596" lon="32.8250967152"><ele>775.44</ele><time>2015-04-28T12:57:10Z</time></trkpt><trkpt lat="34.9915229715" lon="32.8250805382"><ele>775.44</ele><time>2015-04-28T12:57:11Z</time></trkpt><trkpt lat="34.9915226363" lon="32.8250662051"><ele>775.44</ele><time>2015-04-28T12:57:12Z</time></trkpt><trkpt lat="34.9915189482" lon="32.8250491899"><ele>775.92</ele><time>2015-04-28T12:57:13Z</time></trkpt><trkpt lat="34.9915144220" lon="32.8250344377"><ele>775.44</ele><time>2015-04-28T12:57:14Z</time></trkpt><trkpt lat="34.9914519768" lon="32.8248934541"><ele>776.40</ele><time>2015-04-28T12:57:25Z</time></trkpt><trkpt lat="34.9914404098" lon="32.8248885926"><ele>776.88</ele><time>2015-04-28T12:57:26Z</time></trkpt><trkpt lat="34.9914292619" lon="32.8248816356"><ele>776.40</ele><time>2015-04-28T12:57:27Z</time></trkpt><trkpt lat="34.9914178625" lon="32.8248727508"><ele>776.88</ele><time>2015-04-28T12:57:28Z</time></trkpt><trkpt lat="34.9914059602" lon="32.8248649556"><ele>776.88</ele><time>2015-04-28T12:57:29Z</time></trkpt><trkpt lat="34.9913960695" lon="32.8248539753"><ele>776.88</ele><time>2015-04-28T12:57:30Z</time></trkpt><trkpt lat="34.9913879391" lon="32.8248403966"><ele>776.88</ele><time>2015-04-28T12:57:31Z</time></trkpt><trkpt lat="34.9913757853" lon="32.8248274885"><ele>776.88</ele><time>2015-04-28T12:57:32Z</time></trkpt><trkpt lat="34.9910407607" lon="32.8246689029"><ele>778.32</ele><time>2015-04-28T12:57:50Z</time></trkpt><trkpt lat="34.9908874556" lon="32.8248539753"><ele>780.25</ele><time>2015-04-28T12:58:04Z</time></trkpt><trkpt lat="34.9906977732" lon="32.8250764310"><ele>780.73</ele><time>2015-04-28T12:58:18Z</time></trkpt><trkpt lat="34.9904873874" lon="32.8252749145"><ele>781.21</ele><time>2015-04-28T12:58:30Z</time></trkpt><trkpt lat="34.9902063422" lon="32.8254228551"><ele>782.65</ele><time>2015-04-28T12:58:45Z</time></trkpt><trkpt lat="34.9899376184" lon="32.8255045786"><ele>784.09</ele><time>2015-04-28T12:59:01Z</time></trkpt><trkpt lat="34.9899169989" lon="32.8255195823"><ele>783.61</ele><time>2015-04-28T12:59:03Z</time></trkpt><trkpt lat="34.9897384644" lon="32.8257453069"><ele>785.05</ele><time>2015-04-28T12:59:17Z</time></trkpt><trkpt lat="34.9896933697" lon="32.8257909045"><ele>785.53</ele><time>2015-04-28T12:59:21Z</time></trkpt><trkpt lat="34.9896628596" lon="32.8258097637"><ele>786.02</ele><time>2015-04-28T12:59:23Z</time></trkpt><trkpt lat="34.9896443356" lon="32.8258165531"><ele>785.53</ele><time>2015-04-28T12:59:24Z</time></trkpt><trkpt lat="34.9896267336" lon="32.8258221690"><ele>786.02</ele><time>2015-04-28T12:59:25Z</time></trkpt><trkpt lat="34.9893490411" lon="32.8259215783"><ele>786.02</ele><time>2015-04-28T12:59:38Z</time></trkpt><trkpt lat="34.9891560059" lon="32.8258883022"><ele>789.38</ele><time>2015-04-28T12:59:46Z</time></trkpt><trkpt lat="34.9890182912" lon="32.8257212508"><ele>790.82</ele><time>2015-04-28T12:59:57Z</time></trkpt><trkpt lat="34.9890088197" lon="32.8257152159"><ele>790.82</ele><time>2015-04-28T12:59:58Z</time></trkpt><trkpt lat="34.9890005216" lon="32.8257068340"><ele>791.30</ele><time>2015-04-28T12:59:59Z</time></trkpt><trkpt lat="34.9888714403" lon="32.8254817799"><ele>793.22</ele><time>2015-04-28T13:00:17Z</time></trkpt><trkpt lat="34.9888670817" lon="32.8254679497"><ele>793.22</ele><time>2015-04-28T13:00:18Z</time></trkpt><trkpt lat="34.9888601247" lon="32.8254539520"><ele>793.22</ele><time>2015-04-28T13:00:19Z</time></trkpt><trkpt lat="34.9888504017" lon="32.8254424687"><ele>793.22</ele><time>2015-04-28T13:00:20Z</time></trkpt><trkpt lat="34.9888379127" lon="32.8254316561"><ele>793.22</ele><time>2015-04-28T13:00:21Z</time></trkpt><trkpt lat="34.9888286926" lon="32.8254188318"><ele>793.71</ele><time>2015-04-28T13:00:22Z</time></trkpt><trkpt lat="34.9888211489" lon="32.8254039958"><ele>793.71</ele><time>2015-04-28T13:00:23Z</time></trkpt><trkpt lat="34.9887877889" lon="32.8253294807"><ele>794.67</ele><time>2015-04-28T13:00:28Z</time></trkpt><trkpt lat="34.9887935724" lon="32.8252713103"><ele>795.63</ele><time>2015-04-28T13:00:32Z</time></trkpt><trkpt lat="34.9887950812" lon="32.8252556361"><ele>795.63</ele><time>2015-04-28T13:00:33Z</time></trkpt><trkpt lat="34.9888005294" lon="32.8252415545"><ele>796.11</ele><time>2015-04-28T13:00:34Z</time></trkpt><trkpt lat="34.9888055585" lon="32.8252278082"><ele>796.11</ele><time>2015-04-28T13:00:35Z</time></trkpt><trkpt lat="34.9888123479" lon="32.8252139781"><ele>796.11</ele><time>2015-04-28T13:00:36Z</time></trkpt><trkpt lat="34.9888207298" lon="32.8251984715"><ele>796.11</ele><time>2015-04-28T13:00:37Z</time></trkpt><trkpt lat="34.9888282735" lon="32.8251824621"><ele>796.59</ele><time>2015-04-28T13:00:38Z</time></trkpt><trkpt lat="34.9888317939" lon="32.8251673747"><ele>796.59</ele><time>2015-04-28T13:00:39Z</time></trkpt><trkpt lat="34.9888374936" lon="32.8251543827"><ele>796.59</ele><time>2015-04-28T13:00:40Z</time></trkpt><trkpt lat="34.9888421036" lon="32.8251403011"><ele>796.59</ele><time>2015-04-28T13:00:41Z</time></trkpt><trkpt lat="34.9888648186" lon="32.8250794485"><ele>797.07</ele><time>2015-04-28T13:00:45Z</time></trkpt><trkpt lat="34.9888696801" lon="32.8250467591"><ele>797.55</ele><time>2015-04-28T13:00:47Z</time></trkpt><trkpt lat="34.9888751283" lon="32.8250323422"><ele>797.55</ele><time>2015-04-28T13:00:48Z</time></trkpt><trkpt lat="34.9888758827" lon="32.8250190150"><ele>797.55</ele><time>2015-04-28T13:00:49Z</time></trkpt><trkpt lat="34.9888755474" lon="32.8250055201"><ele>797.55</ele><time>2015-04-28T13:00:50Z</time></trkpt><trkpt lat="34.9888783973" lon="32.8249925282"><ele>797.55</ele><time>2015-04-28T13:00:51Z</time></trkpt><trkpt lat="34.9888807442" lon="32.8249785304"><ele>797.55</ele><time>2015-04-28T13:00:52Z</time></trkpt><trkpt lat="34.9888901319" lon="32.8249470145"><ele>798.03</ele><time>2015-04-28T13:00:55Z</time></trkpt><trkpt lat="34.9888858572" lon="32.8249369562"><ele>798.03</ele><time>2015-04-28T13:00:56Z</time></trkpt><trkpt lat="34.9888810795" lon="32.8249245510"><ele>798.03</ele><time>2015-04-28T13:00:57Z</time></trkpt><trkpt lat="34.9888758827" lon="32.8249132354"><ele>798.03</ele><time>2015-04-28T13:00:58Z</time></trkpt><trkpt lat="34.9888705183" lon="32.8248996567"><ele>798.03</ele><time>2015-04-28T13:00:59Z</time></trkpt><trkpt lat="34.9888649862" lon="32.8248880059"><ele>798.51</ele><time>2015-04-28T13:01:00Z</time></trkpt><trkpt lat="34.9888583645" lon="32.8248755168"><ele>798.51</ele><time>2015-04-28T13:01:01Z</time></trkpt><trkpt lat="34.9888527486" lon="32.8248612676"><ele>798.51</ele><time>2015-04-28T13:01:02Z</time></trkpt><trkpt lat="34.9888479710" lon="32.8248458449"><ele>798.51</ele><time>2015-04-28T13:01:03Z</time></trkpt><trkpt lat="34.9887956679" lon="32.8247643728"><ele>799.95</ele><time>2015-04-28T13:01:09Z</time></trkpt><trkpt lat="34.9887870345" lon="32.8247512970"><ele>800.44</ele><time>2015-04-28T13:01:10Z</time></trkpt><trkpt lat="34.9887773115" lon="32.8247367125"><ele>800.92</ele><time>2015-04-28T13:01:11Z</time></trkpt><trkpt lat="34.9887664150" lon="32.8247241396"><ele>800.92</ele><time>2015-04-28T13:01:12Z</time></trkpt><trkpt lat="34.9887561053" lon="32.8247144166"><ele>800.92</ele><time>2015-04-28T13:01:13Z</time></trkpt><trkpt lat="34.9887294509" lon="32.8246876784"><ele>801.40</ele><time>2015-04-28T13:01:16Z</time></trkpt><trkpt lat="34.9887203984" lon="32.8246797156"><ele>801.40</ele><time>2015-04-28T13:01:17Z</time></trkpt><trkpt lat="34.9887118489" lon="32.8246685676"><ele>801.88</ele><time>2015-04-28T13:01:18Z</time></trkpt><trkpt lat="34.9887055624" lon="32.8246540669"><ele>801.88</ele><time>2015-04-28T13:01:19Z</time></trkpt><trkpt lat="34.9887006171" lon="32.8246401530"><ele>801.88</ele><time>2015-04-28T13:01:20Z</time></trkpt><trkpt lat="34.9886891339" lon="32.8245818987"><ele>801.88</ele><time>2015-04-28T13:01:24Z</time></trkpt><trkpt lat="34.9886865355" lon="32.8245685715"><ele>802.36</ele><time>2015-04-28T13:01:25Z</time></trkpt><trkpt lat="34.9886858650" lon="32.8245559148"><ele>802.36</ele><time>2015-04-28T13:01:26Z</time></trkpt><trkpt lat="34.9886850268" lon="32.8245420847"><ele>802.36</ele><time>2015-04-28T13:01:27Z</time></trkpt><trkpt lat="34.9886832666" lon="32.8245233931"><ele>802.36</ele><time>2015-04-28T13:01:28Z</time></trkpt><trkpt lat="34.9886824284" lon="32.8245016001"><ele>802.36</ele><time>2015-04-28T13:01:29Z</time></trkpt><trkpt lat="34.9886770640" lon="32.8244777955"><ele>802.36</ele><time>2015-04-28T13:01:30Z</time></trkpt><trkpt lat="34.9886749685" lon="32.8244536556"><ele>802.36</ele><time>2015-04-28T13:01:31Z</time></trkpt><trkpt lat="34.9886721186" lon="32.8244306054"><ele>802.36</ele><time>2015-04-28T13:01:32Z</time></trkpt><trkpt lat="34.9886669219" lon="32.8244107403"><ele>802.36</ele><time>2015-04-28T13:01:33Z</time></trkpt><trkpt lat="34.9886603002" lon="32.8243929707"><ele>802.36</ele><time>2015-04-28T13:01:34Z</time></trkpt><trkpt lat="34.9885488208" lon="32.8241225705"><ele>802.36</ele><time>2015-04-28T13:01:49Z</time></trkpt><trkpt lat="34.9884823523" lon="32.8237236757"><ele>802.36</ele><time>2015-04-28T13:02:02Z</time></trkpt><trkpt lat="34.9884722941" lon="32.8235236835"><ele>801.88</ele><time>2015-04-28T13:02:05Z</time></trkpt><trkpt lat="34.9884532671" lon="32.8234598972"><ele>802.84</ele><time>2015-04-28T13:02:06Z</time></trkpt><trkpt lat="34.9883982819" lon="32.8233491722"><ele>804.28</ele><time>2015-04-28T13:02:09Z</time></trkpt><trkpt lat="34.9883728847" lon="32.8233322408"><ele>804.28</ele><time>2015-04-28T13:02:10Z</time></trkpt><trkpt lat="34.9883520138" lon="32.8233280499"><ele>804.76</ele><time>2015-04-28T13:02:11Z</time></trkpt><trkpt lat="34.9883044045" lon="32.8233233560"><ele>805.72</ele><time>2015-04-28T13:02:14Z</time></trkpt><trkpt lat="34.9881370179" lon="32.8233759105"><ele>808.13</ele><time>2015-04-28T13:02:25Z</time></trkpt><trkpt lat="34.9881231040" lon="32.8233787604"><ele>808.13</ele><time>2015-04-28T13:02:26Z</time></trkpt><trkpt lat="34.9881091062" lon="32.8233810235"><ele>808.13</ele><time>2015-04-28T13:02:27Z</time></trkpt><trkpt lat="34.9880945217" lon="32.8233834542"><ele>808.61</ele><time>2015-04-28T13:02:28Z</time></trkpt><trkpt lat="34.9880780093" lon="32.8233869746"><ele>808.61</ele><time>2015-04-28T13:02:29Z</time></trkpt><trkpt lat="34.9880601559" lon="32.8233930096"><ele>808.61</ele><time>2015-04-28T13:02:30Z</time></trkpt><trkpt lat="34.9880418833" lon="32.8233999666"><ele>808.61</ele><time>2015-04-28T13:02:31Z</time></trkpt><trkpt lat="34.9880235270" lon="32.8234066721"><ele>808.61</ele><time>2015-04-28T13:02:32Z</time></trkpt><trkpt lat="34.9878630973" lon="32.8234413732"><ele>810.53</ele><time>2015-04-28T13:02:44Z</time></trkpt><trkpt lat="34.9876765162" lon="32.8234065045"><ele>812.45</ele><time>2015-04-28T13:03:00Z</time></trkpt><trkpt lat="34.9875001609" lon="32.8234207537"><ele>814.37</ele><time>2015-04-28T13:03:15Z</time></trkpt><trkpt lat="34.9874854926" lon="32.8234199155"><ele>814.37</ele><time>2015-04-28T13:03:16Z</time></trkpt><trkpt lat="34.9874712434" lon="32.8234224301"><ele>814.37</ele><time>2015-04-28T13:03:17Z</time></trkpt><trkpt lat="34.9874558207" lon="32.8234235197"><ele>814.85</ele><time>2015-04-28T13:03:18Z</time></trkpt><trkpt lat="34.9874385539" lon="32.8234232683"><ele>814.85</ele><time>2015-04-28T13:03:19Z</time></trkpt><trkpt lat="34.9872865900" lon="32.8233976196"><ele>815.34</ele><time>2015-04-28T13:03:30Z</time></trkpt><trkpt lat="34.9871181138" lon="32.8233611584"><ele>815.82</ele><time>2015-04-28T13:03:39Z</time></trkpt><trkpt lat="34.9870010186" lon="32.8234291356"><ele>817.26</ele><time>2015-04-28T13:03:46Z</time></trkpt><trkpt lat="34.9869907089" lon="32.8234428819"><ele>817.26</ele><time>2015-04-28T13:03:47Z</time></trkpt><trkpt lat="34.9869776331" lon="32.8234544490"><ele>817.74</ele><time>2015-04-28T13:03:48Z</time></trkpt><trkpt lat="34.9869638868" lon="32.8234643396"><ele>817.74</ele><time>2015-04-28T13:03:49Z</time></trkpt><trkpt lat="34.9869503081" lon="32.8234738950"><ele>818.22</ele><time>2015-04-28T13:03:50Z</time></trkpt><trkpt lat="34.9869368970" lon="32.8234852944"><ele>818.22</ele><time>2015-04-28T13:03:51Z</time></trkpt><trkpt lat="34.9869265035" lon="32.8234962747"><ele>818.70</ele><time>2015-04-28T13:03:52Z</time></trkpt><trkpt lat="34.9866840150" lon="32.8236154653"><ele>821.10</ele><time>2015-04-28T13:04:08Z</time></trkpt><trkpt lat="34.9864584580" lon="32.8236700315"><ele>822.55</ele><time>2015-04-28T13:04:23Z</time></trkpt><trkpt lat="34.9863820150" lon="32.8236710373"><ele>822.55</ele><time>2015-04-28T13:04:33Z</time></trkpt><trkpt lat="34.9863832723" lon="32.8236344084"><ele>822.55</ele><time>2015-04-28T13:04:37Z</time></trkpt><trkpt lat="34.9863805901" lon="32.8236219194"><ele>822.55</ele><time>2015-04-28T13:04:38Z</time></trkpt><trkpt lat="34.9863741361" lon="32.8236085922"><ele>822.55</ele><time>2015-04-28T13:04:39Z</time></trkpt><trkpt lat="34.9863695260" lon="32.8235828597"><ele>822.55</ele><time>2015-04-28T13:04:41Z</time></trkpt><trkpt lat="34.9863677658" lon="32.8235719632"><ele>822.55</ele><time>2015-04-28T13:04:42Z</time></trkpt><trkpt lat="34.9863619823" lon="32.8235563729"><ele>822.55</ele><time>2015-04-28T13:04:43Z</time></trkpt><trkpt lat="34.9863524269" lon="32.8235366754"><ele>822.55</ele><time>2015-04-28T13:04:44Z</time></trkpt><trkpt lat="34.9863424525" lon="32.8235175647"><ele>822.55</ele><time>2015-04-28T13:04:45Z</time></trkpt><trkpt lat="34.9863320589" lon="32.8234988730"><ele>822.55</ele><time>2015-04-28T13:04:46Z</time></trkpt><trkpt lat="34.9863206595" lon="32.8234849591"><ele>823.03</ele><time>2015-04-28T13:04:47Z</time></trkpt><trkpt lat="34.9863064941" lon="32.8234733921"><ele>822.55</ele><time>2015-04-28T13:04:48Z</time></trkpt><trkpt lat="34.9862901494" lon="32.8234648425"><ele>822.55</ele><time>2015-04-28T13:04:49Z</time></trkpt><trkpt lat="34.9862728827" lon="32.8234550357"><ele>823.03</ele><time>2015-04-28T13:04:50Z</time></trkpt><trkpt lat="34.9862565380" lon="32.8234431334"><ele>823.03</ele><time>2015-04-28T13:04:51Z</time></trkpt><trkpt lat="34.9862458091" lon="32.8234293032"><ele>823.03</ele><time>2015-04-28T13:04:52Z</time></trkpt><trkpt lat="34.9862375110" lon="32.8234164789"><ele>823.03</ele><time>2015-04-28T13:04:53Z</time></trkpt><trkpt lat="34.9862295482" lon="32.8234049119"><ele>823.03</ele><time>2015-04-28T13:04:54Z</time></trkpt><trkpt lat="34.9862173945" lon="32.8234096058"><ele>823.03</ele><time>2015-04-28T13:05:05Z</time></trkpt><trkpt lat="34.9862199929" lon="32.8233945183"><ele>822.55</ele><time>2015-04-28T13:05:24Z</time></trkpt><trkpt lat="34.9862423725" lon="32.8233254515"><ele>822.55</ele><time>2015-04-28T13:06:04Z</time></trkpt><trkpt lat="34.9862568732" lon="32.8233202547"><ele>822.55</ele><time>2015-04-28T13:06:51Z</time></trkpt><trkpt lat="34.9862523470" lon="32.8233304806"><ele>822.55</ele><time>2015-04-28T13:07:35Z</time></trkpt><trkpt lat="34.9862514250" lon="32.8233144712"><ele>822.55</ele><time>2015-04-28T13:08:14Z</time></trkpt><trkpt lat="34.9862634111" lon="32.8233096097"><ele>823.03</ele><time>2015-04-28T13:08:59Z</time></trkpt><trkpt lat="34.9862629082" lon="32.8233049158"><ele>823.03</ele><time>2015-04-28T13:09:39Z</time></trkpt><trkpt lat="34.9862528499" lon="32.8232970368"><ele>823.03</ele><time>2015-04-28T13:10:24Z</time></trkpt><trkpt lat="34.9862653390" lon="32.8233061731"><ele>823.03</ele><time>2015-04-28T13:11:13Z</time></trkpt><trkpt lat="34.9862716254" lon="32.8232863080"><ele>823.03</ele><time>2015-04-28T13:12:01Z</time></trkpt><trkpt lat="34.9862708710" lon="32.8232850507"><ele>823.03</ele><time>2015-04-28T13:12:49Z</time></trkpt><trkpt lat="34.9862684403" lon="32.8232813627"><ele>823.03</ele><time>2015-04-28T13:13:36Z</time></trkpt><trkpt lat="34.9862679373" lon="32.8232628386"><ele>822.55</ele><time>2015-04-28T13:14:17Z</time></trkpt><trkpt lat="34.9862544425" lon="32.8232907504"><ele>822.55</ele><time>2015-04-28T13:15:01Z</time></trkpt><trkpt lat="34.9862704519" lon="32.8232774232"><ele>823.03</ele><time>2015-04-28T13:15:38Z</time></trkpt><trkpt lat="34.9862494133" lon="32.8232750762"><ele>822.55</ele><time>2015-04-28T13:16:22Z</time></trkpt><trkpt lat="34.9862593878" lon="32.8232860565"><ele>822.55</ele><time>2015-04-28T13:16:53Z</time></trkpt><trkpt lat="34.9862579629" lon="32.8232877329"><ele>822.55</ele><time>2015-04-28T13:17:27Z</time></trkpt><trkpt lat="34.9862460606" lon="32.8233201709"><ele>822.06</ele><time>2015-04-28T13:18:03Z</time></trkpt><trkpt lat="34.9862499163" lon="32.8233422153"><ele>822.55</ele><time>2015-04-28T13:18:32Z</time></trkpt><trkpt lat="34.9862480722" lon="32.8233147226"><ele>822.55</ele><time>2015-04-28T13:19:10Z</time></trkpt><trkpt lat="34.9862535205" lon="32.8233210929"><ele>822.55</ele><time>2015-04-28T13:19:41Z</time></trkpt><trkpt lat="34.9862427916" lon="32.8233402874"><ele>822.55</ele><time>2015-04-28T13:20:13Z</time></trkpt><trkpt lat="34.9862441327" lon="32.8233474959"><ele>822.55</ele><time>2015-04-28T13:20:49Z</time></trkpt><trkpt lat="34.9862485752" lon="32.8233116213"><ele>823.03</ele><time>2015-04-28T13:21:23Z</time></trkpt><trkpt lat="34.9862490781" lon="32.8233117051"><ele>822.55</ele><time>2015-04-28T13:22:01Z</time></trkpt><trkpt lat="34.9862463959" lon="32.8232992161"><ele>822.55</ele><time>2015-04-28T13:22:37Z</time></trkpt><trkpt lat="34.9862410314" lon="32.8233413771"><ele>822.55</ele><time>2015-04-28T13:23:18Z</time></trkpt><trkpt lat="34.9862519279" lon="32.8233447298"><ele>822.55</ele><time>2015-04-28T13:23:54Z</time></trkpt><trkpt lat="34.9862268660" lon="32.8233956918"><ele>823.03</ele><time>2015-04-28T13:24:12Z</time></trkpt><trkpt lat="34.9862184841" lon="32.8233827837"><ele>823.51</ele><time>2015-04-28T13:24:47Z</time></trkpt><trkpt lat="34.9861979485" lon="32.8233836219"><ele>823.51</ele><time>2015-04-28T13:24:53Z</time></trkpt><trkpt lat="34.9861831125" lon="32.8233766649"><ele>823.03</ele><time>2015-04-28T13:24:54Z</time></trkpt><trkpt lat="34.9861681927" lon="32.8233676124"><ele>823.51</ele><time>2015-04-28T13:24:55Z</time></trkpt><trkpt lat="34.9861399457" lon="32.8233392816"><ele>823.51</ele><time>2015-04-28T13:24:59Z</time></trkpt><trkpt lat="34.9861319829" lon="32.8233283013"><ele>823.51</ele><time>2015-04-28T13:25:00Z</time></trkpt><trkpt lat="34.9860205874" lon="32.8232235275"><ele>823.99</ele><time>2015-04-28T13:25:12Z</time></trkpt><trkpt lat="34.9858502671" lon="32.8230029158"><ele>824.47</ele><time>2015-04-28T13:25:28Z</time></trkpt><trkpt lat="34.9856007379" lon="32.8226442542"><ele>823.03</ele><time>2015-04-28T13:25:42Z</time></trkpt><trkpt lat="34.9854237121" lon="32.8222186211"><ele>819.66</ele><time>2015-04-28T13:25:56Z</time></trkpt><trkpt lat="34.9853112269" lon="32.8220883664"><ele>817.74</ele><time>2015-04-28T13:26:01Z</time></trkpt><trkpt lat="34.9852698203" lon="32.8220728599"><ele>817.74</ele><time>2015-04-28T13:26:02Z</time></trkpt><trkpt lat="34.9852241389" lon="32.8220730275"><ele>817.26</ele><time>2015-04-28T13:26:03Z</time></trkpt><trkpt lat="34.9851815589" lon="32.8220848460"><ele>817.26</ele><time>2015-04-28T13:26:04Z</time></trkpt><trkpt lat="34.9851438403" lon="32.8221064713"><ele>818.22</ele><time>2015-04-28T13:26:05Z</time></trkpt><trkpt lat="34.9851123244" lon="32.8221281804"><ele>818.22</ele><time>2015-04-28T13:26:06Z</time></trkpt><trkpt lat="34.9850823171" lon="32.8221431002"><ele>818.70</ele><time>2015-04-28T13:26:07Z</time></trkpt><trkpt lat="34.9850547407" lon="32.8221568465"><ele>819.18</ele><time>2015-04-28T13:26:08Z</time></trkpt><trkpt lat="34.9850310199" lon="32.8221732751"><ele>819.66</ele><time>2015-04-28T13:26:09Z</time></trkpt><trkpt lat="34.9850115739" lon="32.8221896198"><ele>820.14</ele><time>2015-04-28T13:26:10Z</time></trkpt><trkpt lat="34.9848537426" lon="32.8222219739"><ele>821.58</ele><time>2015-04-28T13:26:22Z</time></trkpt><trkpt lat="34.9848411698" lon="32.8222222254"><ele>821.58</ele><time>2015-04-28T13:26:23Z</time></trkpt><trkpt lat="34.9848254118" lon="32.8222239856"><ele>821.58</ele><time>2015-04-28T13:26:24Z</time></trkpt><trkpt lat="34.9848111626" lon="32.8222278412"><ele>821.58</ele><time>2015-04-28T13:26:25Z</time></trkpt><trkpt lat="34.9847986735" lon="32.8222299367"><ele>821.58</ele><time>2015-04-28T13:26:26Z</time></trkpt><trkpt lat="34.9847855978" lon="32.8222308587"><ele>821.58</ele><time>2015-04-28T13:26:27Z</time></trkpt><trkpt lat="34.9847161956" lon="32.8222324513"><ele>821.58</ele><time>2015-04-28T13:26:32Z</time></trkpt><trkpt lat="34.9847013596" lon="32.8222301882"><ele>821.58</ele><time>2015-04-28T13:26:33Z</time></trkpt><trkpt lat="34.9846858531" lon="32.8222210519"><ele>822.06</ele><time>2015-04-28T13:26:34Z</time></trkpt><trkpt lat="34.9846688379" lon="32.8222075570"><ele>822.06</ele><time>2015-04-28T13:26:35Z</time></trkpt><trkpt lat="34.9846545886" lon="32.8221936431"><ele>821.58</ele><time>2015-04-28T13:26:36Z</time></trkpt><trkpt lat="34.9845698476" lon="32.8221319523"><ele>822.06</ele><time>2015-04-28T13:26:43Z</time></trkpt><trkpt lat="34.9845562689" lon="32.8221254982"><ele>822.06</ele><time>2015-04-28T13:26:44Z</time></trkpt><trkpt lat="34.9845432770" lon="32.8221185412"><ele>822.06</ele><time>2015-04-28T13:26:45Z</time></trkpt><trkpt lat="34.9845276028" lon="32.8221142665"><ele>822.06</ele><time>2015-04-28T13:26:46Z</time></trkpt><trkpt lat="34.9845088273" lon="32.8221100755"><ele>822.06</ele><time>2015-04-28T13:26:47Z</time></trkpt><trkpt lat="34.9844905548" lon="32.8221056331"><ele>822.06</ele><time>2015-04-28T13:26:48Z</time></trkpt><trkpt lat="34.9844722822" lon="32.8221012745"><ele>822.06</ele><time>2015-04-28T13:26:49Z</time></trkpt><trkpt lat="34.9843981024" lon="32.8220987599"><ele>823.03</ele><time>2015-04-28T13:26:53Z</time></trkpt><trkpt lat="34.9843607191" lon="32.8220973350"><ele>823.51</ele><time>2015-04-28T13:26:56Z</time></trkpt><trkpt lat="34.9842336494" lon="32.8221021965"><ele>824.95</ele><time>2015-04-28T13:27:08Z</time></trkpt><trkpt lat="34.9840779975" lon="32.8220187966"><ele>825.91</ele><time>2015-04-28T13:27:22Z</time></trkpt><trkpt lat="34.9840712082" lon="32.8220031224"><ele>826.39</ele><time>2015-04-28T13:27:23Z</time></trkpt><trkpt lat="34.9840620719" lon="32.8219902143"><ele>826.39</ele><time>2015-04-28T13:27:24Z</time></trkpt><trkpt lat="34.9840352498" lon="32.8219086584"><ele>826.87</ele><time>2015-04-28T13:27:30Z</time></trkpt><trkpt lat="34.9839073420" lon="32.8217245918"><ele>827.35</ele><time>2015-04-28T13:27:46Z</time></trkpt><trkpt lat="34.9836340081" lon="32.8216986079"><ele>826.39</ele><time>2015-04-28T13:27:57Z</time></trkpt><trkpt lat="34.9833139870" lon="32.8219509032"><ele>823.51</ele><time>2015-04-28T13:28:11Z</time></trkpt><trkpt lat="34.9831416551" lon="32.8219788149"><ele>821.10</ele><time>2015-04-28T13:28:16Z</time></trkpt><trkpt lat="34.9831091333" lon="32.8219703492"><ele>821.10</ele><time>2015-04-28T13:28:17Z</time></trkpt><trkpt lat="34.9829749390" lon="32.8219335526"><ele>819.18</ele><time>2015-04-28T13:28:27Z</time></trkpt><trkpt lat="34.9827348813" lon="32.8219115082"><ele>816.30</ele><time>2015-04-28T13:28:35Z</time></trkpt><trkpt lat="34.9825429358" lon="32.8219541721"><ele>813.41</ele><time>2015-04-28T13:28:46Z</time></trkpt><trkpt lat="34.9824509863" lon="32.8220188804"><ele>811.49</ele><time>2015-04-28T13:28:51Z</time></trkpt><trkpt lat="34.9824268464" lon="32.8220304474"><ele>811.49</ele><time>2015-04-28T13:28:52Z</time></trkpt><trkpt lat="34.9824068137" lon="32.8220351413"><ele>811.49</ele><time>2015-04-28T13:28:53Z</time></trkpt><trkpt lat="34.9823897984" lon="32.8220363986"><ele>811.97</ele><time>2015-04-28T13:28:54Z</time></trkpt><trkpt lat="34.9823729508" lon="32.8220401704"><ele>811.97</ele><time>2015-04-28T13:28:55Z</time></trkpt><trkpt lat="34.9823561870" lon="32.8220473789"><ele>812.45</ele><time>2015-04-28T13:28:56Z</time></trkpt><trkpt lat="34.9822970945" lon="32.8220743686"><ele>812.93</ele><time>2015-04-28T13:29:00Z</time></trkpt><trkpt lat="34.9822812527" lon="32.8220710158"><ele>812.93</ele><time>2015-04-28T13:29:01Z</time></trkpt><trkpt lat="34.9822665006" lon="32.8220643941"><ele>812.93</ele><time>2015-04-28T13:29:02Z</time></trkpt><trkpt lat="34.9822503235" lon="32.8220578562"><ele>812.93</ele><time>2015-04-28T13:29:03Z</time></trkpt><trkpt lat="34.9822337274" lon="32.8220477980"><ele>812.93</ele><time>2015-04-28T13:29:04Z</time></trkpt><trkpt lat="34.9822161254" lon="32.8220348060"><ele>812.93</ele><time>2015-04-28T13:29:05Z</time></trkpt><trkpt lat="34.9819178134" lon="32.8216922376"><ele>812.45</ele><time>2015-04-28T13:29:22Z</time></trkpt><trkpt lat="34.9817032367" lon="32.8213620745"><ele>811.01</ele><time>2015-04-28T13:29:34Z</time></trkpt><trkpt lat="34.9814763386" lon="32.8211853839"><ele>811.01</ele><time>2015-04-28T13:29:41Z</time></trkpt><trkpt lat="34.9814445712" lon="32.8212003037"><ele>811.49</ele><time>2015-04-28T13:29:42Z</time></trkpt><trkpt lat="34.9814206827" lon="32.8212243598"><ele>811.97</ele><time>2015-04-28T13:29:43Z</time></trkpt><trkpt lat="34.9813775159" lon="32.8212707955"><ele>813.89</ele><time>2015-04-28T13:29:47Z</time></trkpt><trkpt lat="34.9813669547" lon="32.8213003837"><ele>815.82</ele><time>2015-04-28T13:30:05Z</time></trkpt><trkpt lat="34.9813107122" lon="32.8213503398"><ele>817.74</ele><time>2015-04-28T13:30:22Z</time></trkpt><trkpt lat="34.9812630191" lon="32.8214220051"><ele>820.14</ele><time>2015-04-28T13:30:39Z</time></trkpt><trkpt lat="34.9812416453" lon="32.8214707039"><ele>821.58</ele><time>2015-04-28T13:30:55Z</time></trkpt><trkpt lat="34.9812178407" lon="32.8215450514"><ele>823.51</ele><time>2015-04-28T13:31:12Z</time></trkpt><trkpt lat="34.9812182598" lon="32.8216085024"><ele>824.95</ele><time>2015-04-28T13:31:27Z</time></trkpt><trkpt lat="34.9811979756" lon="32.8216930758"><ele>827.35</ele><time>2015-04-28T13:31:45Z</time></trkpt><trkpt lat="34.9811729975" lon="32.8217592929"><ele>829.27</ele><time>2015-04-28T13:32:00Z</time></trkpt><trkpt lat="34.9811574072" lon="32.8218292817"><ele>831.20</ele><time>2015-04-28T13:32:14Z</time></trkpt><trkpt lat="34.9811249692" lon="32.8218961693"><ele>833.12</ele><time>2015-04-28T13:32:29Z</time></trkpt><trkpt lat="34.9810752645" lon="32.8219697624"><ele>834.08</ele><time>2015-04-28T13:32:46Z</time></trkpt><trkpt lat="34.9810759351" lon="32.8219515737"><ele>834.56</ele><time>2015-04-28T13:32:48Z</time></trkpt><trkpt lat="34.9810724147" lon="32.8219388332"><ele>834.56</ele><time>2015-04-28T13:32:49Z</time></trkpt><trkpt lat="34.9810578302" lon="32.8219032940"><ele>834.56</ele><time>2015-04-28T13:32:52Z</time></trkpt><trkpt lat="34.9810627755" lon="32.8218474705"><ele>835.04</ele><time>2015-04-28T13:32:55Z</time></trkpt><trkpt lat="34.9810596742" lon="32.8218255937"><ele>835.04</ele><time>2015-04-28T13:32:56Z</time></trkpt><trkpt lat="34.9810557347" lon="32.8218043875"><ele>835.04</ele><time>2015-04-28T13:32:57Z</time></trkpt><trkpt lat="34.9810499512" lon="32.8217834327"><ele>835.52</ele><time>2015-04-28T13:32:58Z</time></trkpt><trkpt lat="34.9810430780" lon="32.8217668366"><ele>836.00</ele><time>2015-04-28T13:32:59Z</time></trkpt><trkpt lat="34.9810360372" lon="32.8217496537"><ele>836.00</ele><time>2015-04-28T13:33:00Z</time></trkpt><trkpt lat="34.9810292479" lon="32.8217318840"><ele>836.00</ele><time>2015-04-28T13:33:01Z</time></trkpt><trkpt lat="34.9810210336" lon="32.8217147850"><ele>836.48</ele><time>2015-04-28T13:33:02Z</time></trkpt><trkpt lat="34.9810127355" lon="32.8217001166"><ele>836.48</ele><time>2015-04-28T13:33:03Z</time></trkpt><trkpt lat="34.9810051080" lon="32.8216836043"><ele>836.48</ele><time>2015-04-28T13:33:04Z</time></trkpt><trkpt lat="34.9809949659" lon="32.8216662537"><ele>836.48</ele><time>2015-04-28T13:33:05Z</time></trkpt><trkpt lat="34.9809822254" lon="32.8216535132"><ele>836.48</ele><time>2015-04-28T13:33:06Z</time></trkpt><trkpt lat="34.9809689820" lon="32.8216447122"><ele>836.96</ele><time>2015-04-28T13:33:07Z</time></trkpt><trkpt lat="34.9809559062" lon="32.8216340672"><ele>836.96</ele><time>2015-04-28T13:33:08Z</time></trkpt><trkpt lat="34.9809416570" lon="32.8216231707"><ele>836.96</ele><time>2015-04-28T13:33:09Z</time></trkpt><trkpt lat="34.9809276592" lon="32.8216149565"><ele>836.96</ele><time>2015-04-28T13:33:10Z</time></trkpt><trkpt lat="34.9809108954" lon="32.8216069099"><ele>837.45</ele><time>2015-04-28T13:33:11Z</time></trkpt><trkpt lat="34.9808919523" lon="32.8215987794"><ele>837.45</ele><time>2015-04-28T13:33:12Z</time></trkpt><trkpt lat="34.9808747694" lon="32.8215901460"><ele>837.93</ele><time>2015-04-28T13:33:13Z</time></trkpt><trkpt lat="34.9808595981" lon="32.8215805069"><ele>838.41</ele><time>2015-04-28T13:33:14Z</time></trkpt><trkpt lat="34.9807758629" lon="32.8215309698"><ele>838.89</ele><time>2015-04-28T13:33:21Z</time></trkpt><trkpt lat="34.9807692412" lon="32.8215191513"><ele>839.37</ele><time>2015-04-28T13:33:22Z</time></trkpt><trkpt lat="34.9807536509" lon="32.8215036448"><ele>839.85</ele><time>2015-04-28T13:33:24Z</time></trkpt><trkpt lat="34.9807425868" lon="32.8214971069"><ele>839.85</ele><time>2015-04-28T13:33:25Z</time></trkpt><trkpt lat="34.9807315227" lon="32.8214904852"><ele>839.85</ele><time>2015-04-28T13:33:26Z</time></trkpt><trkpt lat="34.9807208776" lon="32.8214820195"><ele>840.33</ele><time>2015-04-28T13:33:27Z</time></trkpt><trkpt lat="34.9807123281" lon="32.8214711230"><ele>840.33</ele><time>2015-04-28T13:33:28Z</time></trkpt><trkpt lat="34.9806859251" lon="32.8214401100"><ele>840.81</ele><time>2015-04-28T13:33:31Z</time></trkpt><trkpt lat="34.9806714244" lon="32.8214357514"><ele>840.81</ele><time>2015-04-28T13:33:32Z</time></trkpt><trkpt lat="34.9806587677" lon="32.8214297164"><ele>840.81</ele><time>2015-04-28T13:33:33Z</time></trkpt><trkpt lat="34.9806486256" lon="32.8214227594"><ele>841.29</ele><time>2015-04-28T13:33:34Z</time></trkpt><trkpt lat="34.9806383159" lon="32.8214185685"><ele>841.29</ele><time>2015-04-28T13:33:35Z</time></trkpt><trkpt lat="34.9806254916" lon="32.8214142937"><ele>841.29</ele><time>2015-04-28T13:33:36Z</time></trkpt><trkpt lat="34.9806143437" lon="32.8214098513"><ele>841.29</ele><time>2015-04-28T13:33:37Z</time></trkpt><trkpt lat="34.9806026090" lon="32.8214050736"><ele>841.77</ele><time>2015-04-28T13:33:38Z</time></trkpt><trkpt lat="34.9805889465" lon="32.8214020561"><ele>841.77</ele><time>2015-04-28T13:33:39Z</time></trkpt><trkpt lat="34.9805748649" lon="32.8214006312"><ele>841.77</ele><time>2015-04-28T13:33:40Z</time></trkpt><trkpt lat="34.9803988449" lon="32.8214386851"><ele>843.69</ele><time>2015-04-28T13:33:54Z</time></trkpt><trkpt lat="34.9803855177" lon="32.8214463126"><ele>843.69</ele><time>2015-04-28T13:33:55Z</time></trkpt><trkpt lat="34.9802227411" lon="32.8215384297"><ele>845.14</ele><time>2015-04-28T13:34:10Z</time></trkpt><trkpt lat="34.9801610503" lon="32.8215738852"><ele>845.62</ele><time>2015-04-28T13:34:20Z</time></trkpt><trkpt lat="34.9801212363" lon="32.8215317242"><ele>845.62</ele><time>2015-04-28T13:34:28Z</time></trkpt><trkpt lat="34.9801097531" lon="32.8215229232"><ele>845.62</ele><time>2015-04-28T13:34:29Z</time></trkpt><trkpt lat="34.9800985213" lon="32.8215152118"><ele>846.10</ele><time>2015-04-28T13:34:30Z</time></trkpt><trkpt lat="34.9800933246" lon="32.8215038124"><ele>846.10</ele><time>2015-04-28T13:34:31Z</time></trkpt><trkpt lat="34.9800922349" lon="32.8214882221"><ele>846.10</ele><time>2015-04-28T13:34:32Z</time></trkpt><trkpt lat="34.9800898042" lon="32.8214746434"><ele>846.10</ele><time>2015-04-28T13:34:33Z</time></trkpt><trkpt lat="34.9800670892" lon="32.8212889843"><ele>847.06</ele><time>2015-04-28T13:34:44Z</time></trkpt><trkpt lat="34.9800597131" lon="32.8212764114"><ele>847.06</ele><time>2015-04-28T13:34:45Z</time></trkpt><trkpt lat="34.9800551869" lon="32.8212611564"><ele>847.06</ele><time>2015-04-28T13:34:46Z</time></trkpt><trkpt lat="34.9800518341" lon="32.8212452307"><ele>847.06</ele><time>2015-04-28T13:34:47Z</time></trkpt><trkpt lat="34.9800505769" lon="32.8212270420"><ele>847.06</ele><time>2015-04-28T13:34:48Z</time></trkpt><trkpt lat="34.9800540973" lon="32.8211607412"><ele>847.54</ele><time>2015-04-28T13:34:52Z</time></trkpt><trkpt lat="34.9800416920" lon="32.8210854717"><ele>848.02</ele><time>2015-04-28T13:34:57Z</time></trkpt><trkpt lat="34.9800394289" lon="32.8210703004"><ele>848.02</ele><time>2015-04-28T13:34:58Z</time></trkpt><trkpt lat="34.9800354894" lon="32.8210534528"><ele>848.02</ele><time>2015-04-28T13:34:59Z</time></trkpt><trkpt lat="34.9800561927" lon="32.8207520396"><ele>849.46</ele><time>2015-04-28T13:35:17Z</time></trkpt><trkpt lat="34.9800575338" lon="32.8206811287"><ele>849.94</ele><time>2015-04-28T13:35:21Z</time></trkpt><trkpt lat="34.9800610542" lon="32.8206630237"><ele>849.94</ele><time>2015-04-28T13:35:22Z</time></trkpt><trkpt lat="34.9800395966" lon="32.8203257360"><ele>851.87</ele><time>2015-04-28T13:35:40Z</time></trkpt><trkpt lat="34.9800245930" lon="32.8202948067"><ele>851.38</ele><time>2015-04-28T13:35:42Z</time></trkpt><trkpt lat="34.9800131936" lon="32.8202828206"><ele>851.87</ele><time>2015-04-28T13:35:43Z</time></trkpt><trkpt lat="34.9800011236" lon="32.8202687390"><ele>851.87</ele><time>2015-04-28T13:35:44Z</time></trkpt><trkpt lat="34.9799861200" lon="32.8202561662"><ele>851.87</ele><time>2015-04-28T13:35:45Z</time></trkpt><trkpt lat="34.9799725413" lon="32.8202460241"><ele>851.87</ele><time>2015-04-28T13:35:46Z</time></trkpt><trkpt lat="34.9797612336" lon="32.8201902844"><ele>853.31</ele><time>2015-04-28T13:36:00Z</time></trkpt><trkpt lat="34.9797074217" lon="32.8201712575"><ele>853.79</ele><time>2015-04-28T13:36:05Z</time></trkpt><trkpt lat="34.9796951842" lon="32.8201668151"><ele>853.79</ele><time>2015-04-28T13:36:06Z</time></trkpt><trkpt lat="34.9796822760" lon="32.8201597743"><ele>853.79</ele><time>2015-04-28T13:36:07Z</time></trkpt><trkpt lat="34.9796677753" lon="32.8201509733"><ele>853.79</ele><time>2015-04-28T13:36:08Z</time></trkpt><trkpt lat="34.9796551187" lon="32.8201412503"><ele>853.79</ele><time>2015-04-28T13:36:09Z</time></trkpt><trkpt lat="34.9796427973" lon="32.8201301862"><ele>853.79</ele><time>2015-04-28T13:36:10Z</time></trkpt><trkpt lat="34.9796318170" lon="32.8201172780"><ele>853.79</ele><time>2015-04-28T13:36:11Z</time></trkpt><trkpt lat="34.9796219263" lon="32.8201041184"><ele>853.79</ele><time>2015-04-28T13:36:12Z</time></trkpt><trkpt lat="34.9796074256" lon="32.8200775478"><ele>854.27</ele><time>2015-04-28T13:36:14Z</time></trkpt><trkpt lat="34.9796037376" lon="32.8200617898"><ele>854.27</ele><time>2015-04-28T13:36:15Z</time></trkpt><trkpt lat="34.9795983732" lon="32.8200487979"><ele>854.27</ele><time>2015-04-28T13:36:16Z</time></trkpt><trkpt lat="34.9795977864" lon="32.8200356383"><ele>854.27</ele><time>2015-04-28T13:36:17Z</time></trkpt><trkpt lat="34.9795994628" lon="32.8200216405"><ele>854.27</ele><time>2015-04-28T13:36:18Z</time></trkpt><trkpt lat="34.9796034023" lon="32.8200073913"><ele>854.75</ele><time>2015-04-28T13:36:19Z</time></trkpt><trkpt lat="34.9796043243" lon="32.8199637216"><ele>854.75</ele><time>2015-04-28T13:36:22Z</time></trkpt><trkpt lat="34.9795977864" lon="32.8199517354"><ele>855.23</ele><time>2015-04-28T13:36:23Z</time></trkpt><trkpt lat="34.9795905780" lon="32.8199395817"><ele>855.23</ele><time>2015-04-28T13:36:24Z</time></trkpt><trkpt lat="34.9795821961" lon="32.8199231531"><ele>855.23</ele><time>2015-04-28T13:36:25Z</time></trkpt><trkpt lat="34.9795760773" lon="32.8199080657"><ele>855.71</ele><time>2015-04-28T13:36:26Z</time></trkpt><trkpt lat="34.9795749038" lon="32.8198720235"><ele>856.19</ele><time>2015-04-28T13:36:29Z</time></trkpt><trkpt lat="34.9795752391" lon="32.8198584449"><ele>856.19</ele><time>2015-04-28T13:36:30Z</time></trkpt><trkpt lat="34.9795708805" lon="32.8198433574"><ele>856.19</ele><time>2015-04-28T13:36:31Z</time></trkpt><trkpt lat="34.9794629216" lon="32.8196139447"><ele>858.59</ele><time>2015-04-28T13:36:49Z</time></trkpt><trkpt lat="34.9794195034" lon="32.8195234202"><ele>859.56</ele><time>2015-04-28T13:36:56Z</time></trkpt><trkpt lat="34.9794159830" lon="32.8195089195"><ele>859.56</ele><time>2015-04-28T13:36:57Z</time></trkpt><trkpt lat="34.9794088583" lon="32.8194982745"><ele>859.56</ele><time>2015-04-28T13:36:58Z</time></trkpt><trkpt lat="34.9793983810" lon="32.8194929101"><ele>859.56</ele><time>2015-04-28T13:36:59Z</time></trkpt><trkpt lat="34.9793790188" lon="32.8194686864"><ele>860.04</ele><time>2015-04-28T13:37:02Z</time></trkpt><trkpt lat="34.9793718103" lon="32.8194579575"><ele>860.04</ele><time>2015-04-28T13:37:03Z</time></trkpt><trkpt lat="34.9793609977" lon="32.8194500785"><ele>860.04</ele><time>2015-04-28T13:37:04Z</time></trkpt><trkpt lat="34.9793449882" lon="32.8194333985"><ele>860.52</ele><time>2015-04-28T13:37:06Z</time></trkpt><trkpt lat="34.9793386180" lon="32.8194237594"><ele>860.52</ele><time>2015-04-28T13:37:07Z</time></trkpt><trkpt lat="34.9793169089" lon="32.8194194008"><ele>860.52</ele><time>2015-04-28T13:37:09Z</time></trkpt><trkpt lat="34.9793063477" lon="32.8194173053"><ele>860.52</ele><time>2015-04-28T13:37:10Z</time></trkpt><trkpt lat="34.9792963732" lon="32.8194127791"><ele>860.52</ele><time>2015-04-28T13:37:11Z</time></trkpt><trkpt lat="34.9792867340" lon="32.8194069117"><ele>861.00</ele><time>2015-04-28T13:37:12Z</time></trkpt><trkpt lat="34.9792786036" lon="32.8193955962"><ele>861.00</ele><time>2015-04-28T13:37:13Z</time></trkpt><trkpt lat="34.9792718142" lon="32.8193852026"><ele>861.00</ele><time>2015-04-28T13:37:14Z</time></trkpt><trkpt lat="34.9792641029" lon="32.8193754796"><ele>861.00</ele><time>2015-04-28T13:37:15Z</time></trkpt><trkpt lat="34.9792547990" lon="32.8193676844"><ele>861.00</ele><time>2015-04-28T13:37:16Z</time></trkpt><trkpt lat="34.9792443216" lon="32.8193630744"><ele>861.48</ele><time>2015-04-28T13:37:17Z</time></trkpt><trkpt lat="34.9792326707" lon="32.8193580452"><ele>861.48</ele><time>2015-04-28T13:37:18Z</time></trkpt><trkpt lat="34.9792090338" lon="32.8193279542"><ele>861.96</ele><time>2015-04-28T13:37:21Z</time></trkpt><trkpt lat="34.9792019092" lon="32.8193173930"><ele>861.96</ele><time>2015-04-28T13:37:22Z</time></trkpt><trkpt lat="34.9791922700" lon="32.8193088435"><ele>861.96</ele><time>2015-04-28T13:37:23Z</time></trkpt><trkpt lat="34.9791467562" lon="32.8192194086"><ele>862.44</ele><time>2015-04-28T13:37:30Z</time></trkpt><trkpt lat="34.9791411404" lon="32.8192054108"><ele>862.92</ele><time>2015-04-28T13:37:31Z</time></trkpt><trkpt lat="34.9790388811" lon="32.8190365154"><ele>864.84</ele><time>2015-04-28T13:37:46Z</time></trkpt><trkpt lat="34.9789926969" lon="32.8189762495"><ele>865.80</ele><time>2015-04-28T13:37:52Z</time></trkpt><trkpt lat="34.9789816327" lon="32.8189682029"><ele>865.80</ele><time>2015-04-28T13:37:53Z</time></trkpt><trkpt lat="34.9789433274" lon="32.8189356811"><ele>866.29</ele><time>2015-04-28T13:37:57Z</time></trkpt><trkpt lat="34.9789265636" lon="32.8189174086"><ele>866.77</ele><time>2015-04-28T13:37:59Z</time></trkpt><trkpt lat="34.9789161701" lon="32.8189112060"><ele>866.77</ele><time>2015-04-28T13:38:00Z</time></trkpt><trkpt lat="34.9787907768" lon="32.8187530395"><ele>869.17</ele><time>2015-04-28T13:38:15Z</time></trkpt><trkpt lat="34.9787772819" lon="32.8187310789"><ele>869.65</ele><time>2015-04-28T13:38:17Z</time></trkpt><trkpt lat="34.9787668884" lon="32.8187218588"><ele>869.65</ele><time>2015-04-28T13:38:18Z</time></trkpt><trkpt lat="34.9787589256" lon="32.8187105432"><ele>869.65</ele><time>2015-04-28T13:38:19Z</time></trkpt><trkpt lat="34.9787519686" lon="32.8186979704"><ele>870.13</ele><time>2015-04-28T13:38:20Z</time></trkpt><trkpt lat="34.9787437543" lon="32.8186876606"><ele>870.13</ele><time>2015-04-28T13:38:21Z</time></trkpt><trkpt lat="34.9787363783" lon="32.8186760098"><ele>870.13</ele><time>2015-04-28T13:38:22Z</time></trkpt><trkpt lat="34.9787331093" lon="32.8186613414"><ele>870.13</ele><time>2015-04-28T13:38:23Z</time></trkpt><trkpt lat="34.9787305947" lon="32.8186469246"><ele>870.61</ele><time>2015-04-28T13:38:24Z</time></trkpt><trkpt lat="34.9787276611" lon="32.8186194319"><ele>870.61</ele><time>2015-04-28T13:38:26Z</time></trkpt><trkpt lat="34.9787248950" lon="32.8186059371"><ele>871.09</ele><time>2015-04-28T13:38:27Z</time></trkpt><trkpt lat="34.9786993302" lon="32.8185682185"><ele>871.57</ele><time>2015-04-28T13:38:31Z</time></trkpt><trkpt lat="34.9786906969" lon="32.8185582440"><ele>871.57</ele><time>2015-04-28T13:38:32Z</time></trkpt><trkpt lat="34.9786870927" lon="32.8185446654"><ele>871.57</ele><time>2015-04-28T13:38:33Z</time></trkpt><trkpt lat="34.9786859192" lon="32.8184928652"><ele>872.53</ele><time>2015-04-28T13:38:37Z</time></trkpt><trkpt lat="34.9786258209" lon="32.8183617722"><ele>873.50</ele><time>2015-04-28T13:38:49Z</time></trkpt><trkpt lat="34.9786212109" lon="32.8183468524"><ele>873.98</ele><time>2015-04-28T13:38:50Z</time></trkpt><trkpt lat="34.9786111526" lon="32.8183340281"><ele>873.98</ele><time>2015-04-28T13:38:51Z</time></trkpt><trkpt lat="34.9784620386" lon="32.8182114009"><ele>875.42</ele><time>2015-04-28T13:39:06Z</time></trkpt><trkpt lat="34.9783871882" lon="32.8181967326"><ele>876.38</ele><time>2015-04-28T13:39:12Z</time></trkpt><trkpt lat="34.9783332925" lon="32.8181637917"><ele>877.34</ele><time>2015-04-28T13:39:17Z</time></trkpt><trkpt lat="34.9781972542" lon="32.8181447648"><ele>879.26</ele><time>2015-04-28T13:39:29Z</time></trkpt><trkpt lat="34.9781850167" lon="32.8181494586"><ele>879.26</ele><time>2015-04-28T13:39:30Z</time></trkpt><trkpt lat="34.9781721924" lon="32.8181528952"><ele>879.26</ele><time>2015-04-28T13:39:31Z</time></trkpt><trkpt lat="34.9781594519" lon="32.8181552421"><ele>879.26</ele><time>2015-04-28T13:39:32Z</time></trkpt><trkpt lat="34.9781462085" lon="32.8181575891"><ele>879.74</ele><time>2015-04-28T13:39:33Z</time></trkpt><trkpt lat="34.9781348091" lon="32.8181614447"><ele>879.74</ele><time>2015-04-28T13:39:34Z</time></trkpt><trkpt lat="34.9781218171" lon="32.8181647975"><ele>879.74</ele><time>2015-04-28T13:39:35Z</time></trkpt><trkpt lat="34.9781084899" lon="32.8181692399"><ele>880.22</ele><time>2015-04-28T13:39:36Z</time></trkpt><trkpt lat="34.9780948274" lon="32.8181726765"><ele>880.22</ele><time>2015-04-28T13:39:37Z</time></trkpt><trkpt lat="34.9780798238" lon="32.8181776218"><ele>880.22</ele><time>2015-04-28T13:39:38Z</time></trkpt><trkpt lat="34.9780655745" lon="32.8181820642"><ele>880.71</ele><time>2015-04-28T13:39:39Z</time></trkpt><trkpt lat="34.9780524150" lon="32.8181864228"><ele>880.22</ele><time>2015-04-28T13:39:40Z</time></trkpt><trkpt lat="34.9779997766" lon="32.8182179388"><ele>881.19</ele><time>2015-04-28T13:39:45Z</time></trkpt><trkpt lat="34.9779867847" lon="32.8182209563"><ele>881.19</ele><time>2015-04-28T13:39:46Z</time></trkpt><trkpt lat="34.9779744633" lon="32.8182238899"><ele>881.19</ele><time>2015-04-28T13:39:47Z</time></trkpt><trkpt lat="34.9779611360" lon="32.8182288352"><ele>881.67</ele><time>2015-04-28T13:39:48Z</time></trkpt><trkpt lat="34.9779498205" lon="32.8182350378"><ele>881.67</ele><time>2015-04-28T13:39:49Z</time></trkpt><trkpt lat="34.9779401813" lon="32.8182420786"><ele>881.67</ele><time>2015-04-28T13:39:50Z</time></trkpt><trkpt lat="34.9777564500" lon="32.8183540609"><ele>883.59</ele><time>2015-04-28T13:40:07Z</time></trkpt><trkpt lat="34.9777123611" lon="32.8183774464"><ele>884.07</ele><time>2015-04-28T13:40:11Z</time></trkpt><trkpt lat="34.9776997883" lon="32.8183803800"><ele>884.07</ele><time>2015-04-28T13:40:12Z</time></trkpt><trkpt lat="34.9776878022" lon="32.8183849901"><ele>884.07</ele><time>2015-04-28T13:40:13Z</time></trkpt><trkpt lat="34.9775258638" lon="32.8184180148"><ele>885.99</ele><time>2015-04-28T13:40:27Z</time></trkpt><trkpt lat="34.9775142130" lon="32.8184141591"><ele>886.47</ele><time>2015-04-28T13:40:28Z</time></trkpt><trkpt lat="34.9775033165" lon="32.8184071183"><ele>886.47</ele><time>2015-04-28T13:40:29Z</time></trkpt><trkpt lat="34.9774914142" lon="32.8184014186"><ele>886.47</ele><time>2015-04-28T13:40:30Z</time></trkpt><trkpt lat="34.9774791766" lon="32.8183989879"><ele>886.47</ele><time>2015-04-28T13:40:31Z</time></trkpt><trkpt lat="34.9774671905" lon="32.8183973115"><ele>886.95</ele><time>2015-04-28T13:40:32Z</time></trkpt><trkpt lat="34.9774567131" lon="32.8183931205"><ele>886.95</ele><time>2015-04-28T13:40:33Z</time></trkpt><trkpt lat="34.9774459843" lon="32.8183878399"><ele>887.43</ele><time>2015-04-28T13:40:34Z</time></trkpt><trkpt lat="34.9773256201" lon="32.8183335252"><ele>889.36</ele><time>2015-04-28T13:40:45Z</time></trkpt><trkpt lat="34.9773008935" lon="32.8183296695"><ele>889.36</ele><time>2015-04-28T13:40:47Z</time></trkpt><trkpt lat="34.9772918411" lon="32.8183187731"><ele>889.84</ele><time>2015-04-28T13:40:48Z</time></trkpt><trkpt lat="34.9772825371" lon="32.8183076251"><ele>889.84</ele><time>2015-04-28T13:40:49Z</time></trkpt><trkpt lat="34.9772712216" lon="32.8183018416"><ele>889.84</ele><time>2015-04-28T13:40:50Z</time></trkpt><trkpt lat="34.9772600736" lon="32.8183015902"><ele>889.84</ele><time>2015-04-28T13:40:51Z</time></trkpt><trkpt lat="34.9772487581" lon="32.8183050267"><ele>890.32</ele><time>2015-04-28T13:40:52Z</time></trkpt><trkpt lat="34.9772369396" lon="32.8183074575"><ele>890.32</ele><time>2015-04-28T13:40:53Z</time></trkpt><trkpt lat="34.9772241991" lon="32.8183083795"><ele>890.80</ele><time>2015-04-28T13:40:54Z</time></trkpt><trkpt lat="34.9772122968" lon="32.8183070384"><ele>890.80</ele><time>2015-04-28T13:40:55Z</time></trkpt><trkpt lat="34.9772015680" lon="32.8183054458"><ele>890.80</ele><time>2015-04-28T13:40:56Z</time></trkpt><trkpt lat="34.9771915097" lon="32.8183013387"><ele>891.28</ele><time>2015-04-28T13:40:57Z</time></trkpt><trkpt lat="34.9771833792" lon="32.8182926215"><ele>891.28</ele><time>2015-04-28T13:40:58Z</time></trkpt><trkpt lat="34.9771756679" lon="32.8182837367"><ele>891.28</ele><time>2015-04-28T13:40:59Z</time></trkpt><trkpt lat="34.9771668669" lon="32.8182754386"><ele>891.28</ele><time>2015-04-28T13:41:00Z</time></trkpt><trkpt lat="34.9771567248" lon="32.8182696551"><ele>891.28</ele><time>2015-04-28T13:41:01Z</time></trkpt><trkpt lat="34.9771447387" lon="32.8182693198"><ele>891.76</ele><time>2015-04-28T13:41:02Z</time></trkpt><trkpt lat="34.9771127198" lon="32.8182717506"><ele>891.76</ele><time>2015-04-28T13:41:05Z</time></trkpt><trkpt lat="34.9771024939" lon="32.8182681464"><ele>892.24</ele><time>2015-04-28T13:41:06Z</time></trkpt><trkpt lat="34.9770920165" lon="32.8182655480"><ele>892.24</ele><time>2015-04-28T13:41:07Z</time></trkpt><trkpt lat="34.9770827964" lon="32.8182607703"><ele>892.24</ele><time>2015-04-28T13:41:08Z</time></trkpt><trkpt lat="34.9770737439" lon="32.8182542324"><ele>892.72</ele><time>2015-04-28T13:41:09Z</time></trkpt><trkpt lat="34.9769615941" lon="32.8182139993"><ele>894.16</ele><time>2015-04-28T13:41:20Z</time></trkpt><trkpt lat="34.9769530445" lon="32.8182041086"><ele>894.16</ele><time>2015-04-28T13:41:21Z</time></trkpt><trkpt lat="34.9769425672" lon="32.8181993309"><ele>894.16</ele><time>2015-04-28T13:41:22Z</time></trkpt><trkpt lat="34.9769318383" lon="32.8181956429"><ele>894.64</ele><time>2015-04-28T13:41:23Z</time></trkpt><trkpt lat="34.9769212771" lon="32.8181963135"><ele>894.64</ele><time>2015-04-28T13:41:24Z</time></trkpt><trkpt lat="34.9769099616" lon="32.8182003368"><ele>894.64</ele><time>2015-04-28T13:41:25Z</time></trkpt><trkpt lat="34.9768988136" lon="32.8182041086"><ele>894.64</ele><time>2015-04-28T13:41:26Z</time></trkpt><trkpt lat="34.9768784456" lon="32.8182072099"><ele>895.12</ele><time>2015-04-28T13:41:28Z</time></trkpt><trkpt lat="34.9767705705" lon="32.8181932122"><ele>896.09</ele><time>2015-04-28T13:41:38Z</time></trkpt><trkpt lat="34.9767575786" lon="32.8181916196"><ele>896.09</ele><time>2015-04-28T13:41:39Z</time></trkpt><trkpt lat="34.9767435808" lon="32.8181917872"><ele>896.09</ele><time>2015-04-28T13:41:40Z</time></trkpt><trkpt lat="34.9767300859" lon="32.8181881830"><ele>896.57</ele><time>2015-04-28T13:41:41Z</time></trkpt><trkpt lat="34.9767154176" lon="32.8181834053"><ele>896.57</ele><time>2015-04-28T13:41:42Z</time></trkpt><trkpt lat="34.9767035991" lon="32.8181797173"><ele>896.57</ele><time>2015-04-28T13:41:43Z</time></trkpt><trkpt lat="34.9766916130" lon="32.8181770351"><ele>896.57</ele><time>2015-04-28T13:41:44Z</time></trkpt><trkpt lat="34.9766790401" lon="32.8181730118"><ele>896.57</ele><time>2015-04-28T13:41:45Z</time></trkpt><trkpt lat="34.9766677245" lon="32.8181700781"><ele>897.05</ele><time>2015-04-28T13:41:46Z</time></trkpt><trkpt lat="34.9766567443" lon="32.8181665577"><ele>897.05</ele><time>2015-04-28T13:41:47Z</time></trkpt><trkpt lat="34.9766481109" lon="32.8181600198"><ele>897.05</ele><time>2015-04-28T13:41:48Z</time></trkpt><trkpt lat="34.9766375497" lon="32.8181549069"><ele>897.53</ele><time>2015-04-28T13:41:49Z</time></trkpt><trkpt lat="34.9766261503" lon="32.8181535657"><ele>897.53</ele><time>2015-04-28T13:41:50Z</time></trkpt><trkpt lat="34.9766137451" lon="32.8181537334"><ele>897.53</ele><time>2015-04-28T13:41:51Z</time></trkpt><trkpt lat="34.9766021781" lon="32.8181497939"><ele>898.01</ele><time>2015-04-28T13:41:52Z</time></trkpt><trkpt lat="34.9765700754" lon="32.8181308508"><ele>898.49</ele><time>2015-04-28T13:41:55Z</time></trkpt><trkpt lat="34.9765580893" lon="32.8181285039"><ele>898.49</ele><time>2015-04-28T13:41:56Z</time></trkpt><trkpt lat="34.9765460193" lon="32.8181261569"><ele>898.49</ele><time>2015-04-28T13:41:57Z</time></trkpt><trkpt lat="34.9765336141" lon="32.8181228880"><ele>898.97</ele><time>2015-04-28T13:41:58Z</time></trkpt><trkpt lat="34.9765207060" lon="32.8181187809"><ele>898.97</ele><time>2015-04-28T13:41:59Z</time></trkpt><trkpt lat="34.9764169380" lon="32.8180715069"><ele>900.41</ele><time>2015-04-28T13:42:08Z</time></trkpt><trkpt lat="34.9764123280" lon="32.8180560842"><ele>900.41</ele><time>2015-04-28T13:42:09Z</time></trkpt><trkpt lat="34.9764044490" lon="32.8180450201"><ele>900.41</ele><time>2015-04-28T13:42:10Z</time></trkpt><trkpt lat="34.9763927143" lon="32.8180420864"><ele>900.41</ele><time>2015-04-28T13:42:11Z</time></trkpt><trkpt lat="34.9763802253" lon="32.8180420026"><ele>900.89</ele><time>2015-04-28T13:42:12Z</time></trkpt><trkpt lat="34.9763660599" lon="32.8180430923"><ele>900.89</ele><time>2015-04-28T13:42:13Z</time></trkpt><trkpt lat="34.9763527326" lon="32.8180439305"><ele>900.89</ele><time>2015-04-28T13:42:14Z</time></trkpt><trkpt lat="34.9763412494" lon="32.8180449363"><ele>901.37</ele><time>2015-04-28T13:42:15Z</time></trkpt><trkpt lat="34.9763286766" lon="32.8180439305"><ele>901.37</ele><time>2015-04-28T13:42:16Z</time></trkpt><trkpt lat="34.9763160199" lon="32.8180465288"><ele>901.37</ele><time>2015-04-28T13:42:17Z</time></trkpt><trkpt lat="34.9763042852" lon="32.8180457745"><ele>901.37</ele><time>2015-04-28T13:42:18Z</time></trkpt><trkpt lat="34.9762923829" lon="32.8180442657"><ele>901.85</ele><time>2015-04-28T13:42:19Z</time></trkpt><trkpt lat="34.9762801453" lon="32.8180444334"><ele>901.85</ele><time>2015-04-28T13:42:20Z</time></trkpt><trkpt lat="34.9762677401" lon="32.8180413321"><ele>901.85</ele><time>2015-04-28T13:42:21Z</time></trkpt><trkpt lat="34.9762566760" lon="32.8180353809"><ele>901.85</ele><time>2015-04-28T13:42:22Z</time></trkpt><trkpt lat="34.9762469530" lon="32.8180268314"><ele>902.33</ele><time>2015-04-28T13:42:23Z</time></trkpt><trkpt lat="34.9762363080" lon="32.8180226404"><ele>902.33</ele><time>2015-04-28T13:42:24Z</time></trkpt><trkpt lat="34.9762237351" lon="32.8180234786"><ele>902.82</ele><time>2015-04-28T13:42:25Z</time></trkpt><trkpt lat="34.9760188814" lon="32.8179772943"><ele>905.70</ele><time>2015-04-28T13:42:42Z</time></trkpt><trkpt lat="34.9759984296" lon="32.8179724328"><ele>905.70</ele><time>2015-04-28T13:42:44Z</time></trkpt><trkpt lat="34.9759861920" lon="32.8179721814"><ele>906.18</ele><time>2015-04-28T13:42:45Z</time></trkpt><trkpt lat="34.9759758823" lon="32.8179668169"><ele>906.18</ele><time>2015-04-28T13:42:46Z</time></trkpt><trkpt lat="34.9759654049" lon="32.8179589380"><ele>906.18</ele><time>2015-04-28T13:42:47Z</time></trkpt><trkpt lat="34.9759535026" lon="32.8179539088"><ele>906.66</ele><time>2015-04-28T13:42:48Z</time></trkpt><trkpt lat="34.9759310391" lon="32.8179399110"><ele>906.66</ele><time>2015-04-28T13:42:50Z</time></trkpt><trkpt lat="34.9759194721" lon="32.8179372288"><ele>906.66</ele><time>2015-04-28T13:42:51Z</time></trkpt><trkpt lat="34.9759084079" lon="32.8179331217"><ele>907.14</ele><time>2015-04-28T13:42:52Z</time></trkpt><trkpt lat="34.9758983497" lon="32.8179263324"><ele>907.14</ele><time>2015-04-28T13:42:53Z</time></trkpt><trkpt lat="34.9758882914" lon="32.8179197107"><ele>907.62</ele><time>2015-04-28T13:42:54Z</time></trkpt><trkpt lat="34.9758760538" lon="32.8179153521"><ele>907.62</ele><time>2015-04-28T13:42:55Z</time></trkpt><trkpt lat="34.9758638162" lon="32.8179114964"><ele>908.10</ele><time>2015-04-28T13:42:56Z</time></trkpt><trkpt lat="34.9758523330" lon="32.8179031983"><ele>908.10</ele><time>2015-04-28T13:42:57Z</time></trkpt><trkpt lat="34.9758406822" lon="32.8178972472"><ele>908.10</ele><time>2015-04-28T13:42:58Z</time></trkpt><trkpt lat="34.9758286960" lon="32.8178963251"><ele>908.58</ele><time>2015-04-28T13:42:59Z</time></trkpt><trkpt lat="34.9757740460" lon="32.8178780526"><ele>909.06</ele><time>2015-04-28T13:43:04Z</time></trkpt><trkpt lat="34.9757670891" lon="32.8178704251"><ele>909.06</ele><time>2015-04-28T13:43:05Z</time></trkpt><trkpt lat="34.9757048115" lon="32.8178450279"><ele>910.03</ele><time>2015-04-28T13:43:11Z</time></trkpt><trkpt lat="34.9756561965" lon="32.8178484645"><ele>910.51</ele><time>2015-04-28T13:43:15Z</time></trkpt><trkpt lat="34.9756442104" lon="32.8178462014"><ele>910.51</ele><time>2015-04-28T13:43:16Z</time></trkpt><trkpt lat="34.9756324757" lon="32.8178443573"><ele>910.99</ele><time>2015-04-28T13:43:17Z</time></trkpt><trkpt lat="34.9756219983" lon="32.8178404178"><ele>910.99</ele><time>2015-04-28T13:43:18Z</time></trkpt><trkpt lat="34.9756095931" lon="32.8178389929"><ele>910.99</ele><time>2015-04-28T13:43:19Z</time></trkpt><trkpt lat="34.9755966850" lon="32.8178407531"><ele>911.47</ele><time>2015-04-28T13:43:20Z</time></trkpt><trkpt lat="34.9755844474" lon="32.8178418428"><ele>911.47</ele><time>2015-04-28T13:43:21Z</time></trkpt><trkpt lat="34.9755727965" lon="32.8178424295"><ele>911.47</ele><time>2015-04-28T13:43:22Z</time></trkpt><trkpt lat="34.9755598884" lon="32.8178400826"><ele>911.47</ele><time>2015-04-28T13:43:23Z</time></trkpt><trkpt lat="34.9755484052" lon="32.8178384062"><ele>911.47</ele><time>2015-04-28T13:43:24Z</time></trkpt><trkpt lat="34.9755378440" lon="32.8178380709"><ele>911.95</ele><time>2015-04-28T13:43:25Z</time></trkpt><trkpt lat="34.9755258579" lon="32.8178393282"><ele>911.95</ele><time>2015-04-28T13:43:26Z</time></trkpt><trkpt lat="34.9755169731" lon="32.8178335447"><ele>912.43</ele><time>2015-04-28T13:43:27Z</time></trkpt><trkpt lat="34.9755080044" lon="32.8178256657"><ele>912.43</ele><time>2015-04-28T13:43:28Z</time></trkpt><trkpt lat="34.9754976109" lon="32.8178229835"><ele>912.43</ele><time>2015-04-28T13:43:29Z</time></trkpt><trkpt lat="34.9754866306" lon="32.8178233188"><ele>912.91</ele><time>2015-04-28T13:43:30Z</time></trkpt><trkpt lat="34.9754522648" lon="32.8178308625"><ele>912.91</ele><time>2015-04-28T13:43:33Z</time></trkpt><trkpt lat="34.9754398596" lon="32.8178303596"><ele>912.91</ele><time>2015-04-28T13:43:34Z</time></trkpt><trkpt lat="34.9754264485" lon="32.8178284317"><ele>913.39</ele><time>2015-04-28T13:43:35Z</time></trkpt><trkpt lat="34.9753495865" lon="32.8178085666"><ele>914.35</ele><time>2015-04-28T13:43:41Z</time></trkpt><trkpt lat="34.9753368460" lon="32.8178045433"><ele>914.35</ele><time>2015-04-28T13:43:42Z</time></trkpt><trkpt lat="34.9753232673" lon="32.8178016096"><ele>914.35</ele><time>2015-04-28T13:43:43Z</time></trkpt><trkpt lat="34.9753122032" lon="32.8177959938"><ele>914.83</ele><time>2015-04-28T13:43:44Z</time></trkpt><trkpt lat="34.9752997980" lon="32.8177893721"><ele>914.35</ele><time>2015-04-28T13:43:45Z</time></trkpt><trkpt lat="34.9751977902" lon="32.8177587781"><ele>915.31</ele><time>2015-04-28T13:43:53Z</time></trkpt><trkpt lat="34.9751856364" lon="32.8177544195"><ele>915.31</ele><time>2015-04-28T13:43:54Z</time></trkpt><trkpt lat="34.9751743209" lon="32.8177448642"><ele>915.79</ele><time>2015-04-28T13:43:55Z</time></trkpt><trkpt lat="34.9751630053" lon="32.8177343868"><ele>915.31</ele><time>2015-04-28T13:43:56Z</time></trkpt><trkpt lat="34.9751506001" lon="32.8177249152"><ele>915.79</ele><time>2015-04-28T13:43:57Z</time></trkpt><trkpt lat="34.9751361832" lon="32.8177170362"><ele>915.79</ele><time>2015-04-28T13:43:58Z</time></trkpt><trkpt lat="34.9751236103" lon="32.8177130129"><ele>915.79</ele><time>2015-04-28T13:43:59Z</time></trkpt><trkpt lat="34.9751102831" lon="32.8177094925"><ele>915.79</ele><time>2015-04-28T13:44:00Z</time></trkpt><trkpt lat="34.9749370292" lon="32.8176452871"><ele>916.75</ele><time>2015-04-28T13:44:12Z</time></trkpt><trkpt lat="34.9748962931" lon="32.8176339716"><ele>917.24</ele><time>2015-04-28T13:44:15Z</time></trkpt><trkpt lat="34.9748857319" lon="32.8176263440"><ele>917.24</ele><time>2015-04-28T13:44:16Z</time></trkpt><trkpt lat="34.9748750869" lon="32.8176143579"><ele>917.72</ele><time>2015-04-28T13:44:17Z</time></trkpt><trkpt lat="34.9748575687" lon="32.8176085744"><ele>917.72</ele><time>2015-04-28T13:44:18Z</time></trkpt><trkpt lat="34.9748387095" lon="32.8176045511"><ele>917.72</ele><time>2015-04-28T13:44:19Z</time></trkpt><trkpt lat="34.9746439978" lon="32.8176047187"><ele>919.16</ele><time>2015-04-28T13:44:31Z</time></trkpt><trkpt lat="34.9744534772" lon="32.8176138550"><ele>920.12</ele><time>2015-04-28T13:44:43Z</time></trkpt><trkpt lat="34.9744433351" lon="32.8176120948"><ele>920.12</ele><time>2015-04-28T13:44:44Z</time></trkpt><trkpt lat="34.9744319357" lon="32.8176144417"><ele>920.60</ele><time>2015-04-28T13:44:45Z</time></trkpt><trkpt lat="34.9744187761" lon="32.8176170401"><ele>920.60</ele><time>2015-04-28T13:44:46Z</time></trkpt><trkpt lat="34.9744038563" lon="32.8176166210"><ele>920.60</ele><time>2015-04-28T13:44:47Z</time></trkpt><trkpt lat="34.9743876792" lon="32.8176195547"><ele>920.60</ele><time>2015-04-28T13:44:48Z</time></trkpt><trkpt lat="34.9741533212" lon="32.8176451195"><ele>922.04</ele><time>2015-04-28T13:45:01Z</time></trkpt><trkpt lat="34.9738778081" lon="32.8176514897"><ele>924.93</ele><time>2015-04-28T13:45:14Z</time></trkpt><trkpt lat="34.9735576194" lon="32.8176451195"><ele>926.85</ele><time>2015-04-28T13:45:28Z</time></trkpt><trkpt lat="34.9733795878" lon="32.8176344745"><ele>927.81</ele><time>2015-04-28T13:45:38Z</time></trkpt><trkpt lat="34.9732899852" lon="32.8176181298"><ele>927.81</ele><time>2015-04-28T13:45:43Z</time></trkpt><trkpt lat="34.9732717965" lon="32.8176124301"><ele>928.29</ele><time>2015-04-28T13:45:44Z</time></trkpt><trkpt lat="34.9730537832" lon="32.8174336441"><ele>927.33</ele><time>2015-04-28T13:45:55Z</time></trkpt><trkpt lat="34.9730385281" lon="32.8172966000"><ele>928.77</ele><time>2015-04-28T13:46:00Z</time></trkpt><trkpt lat="34.9730413780" lon="32.8172611445"><ele>929.25</ele><time>2015-04-28T13:46:01Z</time></trkpt><trkpt lat="34.9730439764" lon="32.8172071651"><ele>930.21</ele><time>2015-04-28T13:46:04Z</time></trkpt><trkpt lat="34.9730531964" lon="32.8171894792"><ele>930.21</ele><time>2015-04-28T13:46:05Z</time></trkpt><trkpt lat="34.9730665237" lon="32.8171720449"><ele>930.69</ele><time>2015-04-28T13:46:06Z</time></trkpt><trkpt lat="34.9731044937" lon="32.8171284590"><ele>931.17</ele><time>2015-04-28T13:46:10Z</time></trkpt><trkpt lat="34.9731139652" lon="32.8171211667"><ele>931.65</ele><time>2015-04-28T13:46:11Z</time></trkpt><trkpt lat="34.9731221795" lon="32.8171138745"><ele>931.65</ele><time>2015-04-28T13:46:12Z</time></trkpt><trkpt lat="34.9731322378" lon="32.8171056602"><ele>931.65</ele><time>2015-04-28T13:46:13Z</time></trkpt><trkpt lat="34.9731425475" lon="32.8170950990"><ele>932.14</ele><time>2015-04-28T13:46:14Z</time></trkpt><trkpt lat="34.9731501751" lon="32.8170839511"><ele>932.14</ele><time>2015-04-28T13:46:15Z</time></trkpt><trkpt lat="34.9732070044" lon="32.8170252778"><ele>933.10</ele><time>2015-04-28T13:46:22Z</time></trkpt><trkpt lat="34.9732166436" lon="32.8170127887"><ele>933.58</ele><time>2015-04-28T13:46:23Z</time></trkpt><trkpt lat="34.9732238520" lon="32.8169998806"><ele>933.58</ele><time>2015-04-28T13:46:24Z</time></trkpt><trkpt lat="34.9732317310" lon="32.8169867210"><ele>934.06</ele><time>2015-04-28T13:46:25Z</time></trkpt><trkpt lat="34.9732401129" lon="32.8169722203"><ele>934.06</ele><time>2015-04-28T13:46:26Z</time></trkpt><trkpt lat="34.9732493330" lon="32.8169607371"><ele>934.54</ele><time>2015-04-28T13:46:27Z</time></trkpt><trkpt lat="34.9732615706" lon="32.8169512656"><ele>934.54</ele><time>2015-04-28T13:46:28Z</time></trkpt><trkpt lat="34.9732769933" lon="32.8169409558"><ele>934.54</ele><time>2015-04-28T13:46:29Z</time></trkpt><trkpt lat="34.9733094312" lon="32.8169095237"><ele>935.50</ele><time>2015-04-28T13:46:31Z</time></trkpt><trkpt lat="34.9733142927" lon="32.8168961965"><ele>935.50</ele><time>2015-04-28T13:46:42Z</time></trkpt><trkpt lat="34.9733656738" lon="32.8168546222"><ele>935.98</ele><time>2015-04-28T13:46:54Z</time></trkpt><trkpt lat="34.9733189866" lon="32.8168591484"><ele>936.46</ele><time>2015-04-28T13:47:38Z</time></trkpt><trkpt lat="34.9733270332" lon="32.8168718889"><ele>936.94</ele><time>2015-04-28T13:48:19Z</time></trkpt><trkpt lat="34.9733528495" lon="32.8168851323"><ele>937.42</ele><time>2015-04-28T13:49:03Z</time></trkpt><trkpt lat="34.9733624887" lon="32.8168906644"><ele>938.38</ele><time>2015-04-28T13:49:33Z</time></trkpt><trkpt lat="34.9733753130" lon="32.8168873116"><ele>938.38</ele><time>2015-04-28T13:50:11Z</time></trkpt><trkpt lat="34.9733492453" lon="32.8168697096"><ele>938.38</ele><time>2015-04-28T13:50:34Z</time></trkpt><trkpt lat="34.9733287096" lon="32.8168687038"><ele>938.86</ele><time>2015-04-28T13:51:09Z</time></trkpt><trkpt lat="34.9733258598" lon="32.8168574721"><ele>939.35</ele><time>2015-04-28T13:51:44Z</time></trkpt><trkpt lat="34.9733268656" lon="32.8168704640"><ele>939.35</ele><time>2015-04-28T13:52:11Z</time></trkpt><trkpt lat="34.9733482394" lon="32.8168562148"><ele>939.35</ele><time>2015-04-28T13:52:44Z</time></trkpt><trkpt lat="34.9733816832" lon="32.8168845456"><ele>939.35</ele><time>2015-04-28T13:53:18Z</time></trkpt><trkpt lat="34.9733985309" lon="32.8168992139"><ele>939.83</ele><time>2015-04-28T13:53:48Z</time></trkpt><trkpt lat="34.9733790010" lon="32.8168910835"><ele>939.83</ele><time>2015-04-28T13:54:20Z</time></trkpt><trkpt lat="34.9733844493" lon="32.8169154748"><ele>940.31</ele><time>2015-04-28T13:54:56Z</time></trkpt><trkpt lat="34.9734138697" lon="32.8169215936"><ele>940.31</ele><time>2015-04-28T13:55:22Z</time></trkpt><trkpt lat="34.9733774923" lon="32.8168980405"><ele>940.79</ele><time>2015-04-28T13:55:52Z</time></trkpt><trkpt lat="34.9734090082" lon="32.8169114515"><ele>940.79</ele><time>2015-04-28T13:56:30Z</time></trkpt><trkpt lat="34.9734024704" lon="32.8169336636"><ele>941.27</ele><time>2015-04-28T13:57:06Z</time></trkpt><trkpt lat="34.9733839463" lon="32.8169107810"><ele>941.75</ele><time>2015-04-28T13:57:32Z</time></trkpt><trkpt lat="34.9733798392" lon="32.8168984596"><ele>941.75</ele><time>2015-04-28T13:58:03Z</time></trkpt><trkpt lat="34.9733866286" lon="32.8169034049"><ele>941.75</ele><time>2015-04-28T13:58:44Z</time></trkpt><trkpt lat="34.9734186474" lon="32.8168923408"><ele>942.23</ele><time>2015-04-28T13:59:26Z</time></trkpt><trkpt lat="34.9734305497" lon="32.8168988787"><ele>942.23</ele><time>2015-04-28T13:59:55Z</time></trkpt><trkpt lat="34.9734238442" lon="32.8169165645"><ele>942.23</ele><time>2015-04-28T14:00:24Z</time></trkpt><trkpt lat="34.9734022189" lon="32.8168858029"><ele>942.71</ele><time>2015-04-28T14:00:56Z</time></trkpt><trkpt lat="34.9733655062" lon="32.8168592323"><ele>942.23</ele><time>2015-04-28T14:01:48Z</time></trkpt><trkpt lat="34.9733743910" lon="32.8168434743"><ele>942.71</ele><time>2015-04-28T14:02:21Z</time></trkpt><trkpt lat="34.9734114390" lon="32.8168619983"><ele>942.71</ele><time>2015-04-28T14:03:03Z</time></trkpt><trkpt lat="34.9733727984" lon="32.8168503474"><ele>942.71</ele><time>2015-04-28T14:03:45Z</time></trkpt><trkpt lat="34.9733860418" lon="32.8168828692"><ele>942.23</ele><time>2015-04-28T14:04:19Z</time></trkpt><trkpt lat="34.9733820185" lon="32.8168735653"><ele>942.23</ele><time>2015-04-28T14:04:50Z</time></trkpt><trkpt lat="34.9733958486" lon="32.8168583103"><ele>942.23</ele><time>2015-04-28T14:05:28Z</time></trkpt><trkpt lat="34.9734111037" lon="32.8168508504"><ele>942.23</ele><time>2015-04-28T14:06:02Z</time></trkpt><trkpt lat="34.9733918253" lon="32.8168687038"><ele>942.23</ele><time>2015-04-28T14:06:26Z</time></trkpt><trkpt lat="34.9733854551" lon="32.8168746550"><ele>942.71</ele><time>2015-04-28T14:06:43Z</time></trkpt><trkpt lat="34.9733671825" lon="32.8168692905"><ele>942.71</ele><time>2015-04-28T14:07:03Z</time></trkpt><trkpt lat="34.9733450543" lon="32.8168739844"><ele>942.71</ele><time>2015-04-28T14:07:04Z</time></trkpt><trkpt lat="34.9733179808" lon="32.8168782592"><ele>942.23</ele><time>2015-04-28T14:07:05Z</time></trkpt><trkpt lat="34.9731584731" lon="32.8169435542"><ele>945.11</ele><time>2015-04-28T14:07:16Z</time></trkpt><trkpt lat="34.9730325770" lon="32.8169846255"><ele>947.52</ele><time>2015-04-28T14:07:30Z</time></trkpt><trkpt lat="34.9729733169" lon="32.8170013055"><ele>948.00</ele><time>2015-04-28T14:07:44Z</time></trkpt><trkpt lat="34.9729451537" lon="32.8169871401"><ele>948.00</ele><time>2015-04-28T14:08:06Z</time></trkpt><trkpt lat="34.9729372747" lon="32.8169425484"><ele>948.96</ele><time>2015-04-28T14:08:23Z</time></trkpt><trkpt lat="34.9728585687" lon="32.8169393633"><ele>951.36</ele><time>2015-04-28T14:08:38Z</time></trkpt><trkpt lat="34.9727651104" lon="32.8169823624"><ele>954.25</ele><time>2015-04-28T14:08:58Z</time></trkpt><trkpt lat="34.9727110472" lon="32.8170132078"><ele>955.69</ele><time>2015-04-28T14:09:12Z</time></trkpt><trkpt lat="34.9726802856" lon="32.8170153033"><ele>956.17</ele><time>2015-04-28T14:09:40Z</time></trkpt><trkpt lat="34.9726041779" lon="32.8170790896"><ele>958.09</ele><time>2015-04-28T14:09:54Z</time></trkpt><trkpt lat="34.9725108873" lon="32.8171199933"><ele>960.49</ele><time>2015-04-28T14:10:13Z</time></trkpt><trkpt lat="34.9724899326" lon="32.8171355836"><ele>960.98</ele><time>2015-04-28T14:10:27Z</time></trkpt><trkpt lat="34.9723993242" lon="32.8171775769"><ele>962.42</ele><time>2015-04-28T14:10:43Z</time></trkpt><trkpt lat="34.9723743461" lon="32.8171917424"><ele>962.90</ele><time>2015-04-28T14:10:47Z</time></trkpt><trkpt lat="34.9723497871" lon="32.8171971068"><ele>963.38</ele><time>2015-04-28T14:10:50Z</time></trkpt><trkpt lat="34.9723394774" lon="32.8171999566"><ele>963.86</ele><time>2015-04-28T14:10:51Z</time></trkpt><trkpt lat="34.9722895212" lon="32.8172240965"><ele>964.34</ele><time>2015-04-28T14:10:56Z</time></trkpt><trkpt lat="34.9721332826" lon="32.8172955103"><ele>967.22</ele><time>2015-04-28T14:11:09Z</time></trkpt><trkpt lat="34.9720899481" lon="32.8173166327"><ele>968.18</ele><time>2015-04-28T14:11:13Z</time></trkpt><trkpt lat="34.9720607791" lon="32.8173392639"><ele>969.15</ele><time>2015-04-28T14:11:16Z</time></trkpt><trkpt lat="34.9719886947" lon="32.8173606377"><ele>970.11</ele><time>2015-04-28T14:11:23Z</time></trkpt><trkpt lat="34.9719346315" lon="32.8173686005"><ele>970.59</ele><time>2015-04-28T14:11:27Z</time></trkpt><trkpt lat="34.9717943184" lon="32.8172841948"><ele>972.03</ele><time>2015-04-28T14:11:39Z</time></trkpt><trkpt lat="34.9717592821" lon="32.8172463924"><ele>972.99</ele><time>2015-04-28T14:11:44Z</time></trkpt><trkpt lat="34.9716337211" lon="32.8171489947"><ele>976.36</ele><time>2015-04-28T14:11:59Z</time></trkpt><trkpt lat="34.9715914764" lon="32.8171181493"><ele>977.32</ele><time>2015-04-28T14:12:10Z</time></trkpt><trkpt lat="34.9715452921" lon="32.8170975298"><ele>978.76</ele><time>2015-04-28T14:12:22Z</time></trkpt><trkpt lat="34.9714957550" lon="32.8170751501"><ele>980.20</ele><time>2015-04-28T14:12:37Z</time></trkpt><trkpt lat="34.9715189729" lon="32.8170556203"><ele>980.20</ele><time>2015-04-28T14:13:02Z</time></trkpt><trkpt lat="34.9714955874" lon="32.8170355037"><ele>980.20</ele><time>2015-04-28T14:13:25Z</time></trkpt><trkpt lat="34.9714877084" lon="32.8169801831"><ele>980.20</ele><time>2015-04-28T14:13:54Z</time></trkpt><trkpt lat="34.9714784883" lon="32.8170045745"><ele>982.12</ele><time>2015-04-28T14:14:12Z</time></trkpt><trkpt lat="34.9714118522" lon="32.8169920016"><ele>984.05</ele><time>2015-04-28T14:14:29Z</time></trkpt><trkpt lat="34.9713520054" lon="32.8169922531"><ele>985.97</ele><time>2015-04-28T14:14:45Z</time></trkpt><trkpt lat="34.9712915719" lon="32.8169753216"><ele>987.89</ele><time>2015-04-28T14:15:02Z</time></trkpt><trkpt lat="34.9712439626" lon="32.8169645090"><ele>989.33</ele><time>2015-04-28T14:15:19Z</time></trkpt><trkpt lat="34.9712004606" lon="32.8169378545"><ele>990.78</ele><time>2015-04-28T14:15:33Z</time></trkpt><trkpt lat="34.9712078366" lon="32.8169365134"><ele>990.78</ele><time>2015-04-28T14:15:54Z</time></trkpt><trkpt lat="34.9711749796" lon="32.8169204202"><ele>991.26</ele><time>2015-04-28T14:16:24Z</time></trkpt><trkpt lat="34.9711496662" lon="32.8169086855"><ele>993.18</ele><time>2015-04-28T14:16:43Z</time></trkpt><trkpt lat="34.9711184856" lon="32.8168789297"><ele>995.10</ele><time>2015-04-28T14:16:59Z</time></trkpt><trkpt lat="34.9711093493" lon="32.8168621659"><ele>996.06</ele><time>2015-04-28T14:17:12Z</time></trkpt><trkpt lat="34.9710620753" lon="32.8168226033"><ele>997.99</ele><time>2015-04-28T14:17:25Z</time></trkpt><trkpt lat="34.9710375164" lon="32.8167831246"><ele>998.47</ele><time>2015-04-28T14:17:40Z</time></trkpt><trkpt lat="34.9709991273" lon="32.8167361859"><ele>1000.87</ele><time>2015-04-28T14:17:54Z</time></trkpt><trkpt lat="34.9709629174" lon="32.8167348448"><ele>1001.83</ele><time>2015-04-28T14:18:10Z</time></trkpt><trkpt lat="34.9709430523" lon="32.8167176619"><ele>1002.79</ele><time>2015-04-28T14:18:21Z</time></trkpt><trkpt lat="34.9709276296" lon="32.8167045861"><ele>1003.75</ele><time>2015-04-28T14:18:38Z</time></trkpt><trkpt lat="34.9708920904" lon="32.8166600782"><ele>1005.20</ele><time>2015-04-28T14:18:52Z</time></trkpt><trkpt lat="34.9708712194" lon="32.8166398779"><ele>1006.64</ele><time>2015-04-28T14:19:09Z</time></trkpt><trkpt lat="34.9708705489" lon="32.8166268859"><ele>1006.64</ele><time>2015-04-28T14:19:24Z</time></trkpt><trkpt lat="34.9708551262" lon="32.8166376986"><ele>1006.64</ele><time>2015-04-28T14:19:46Z</time></trkpt><trkpt lat="34.9708232749" lon="32.8166113794"><ele>1006.64</ele><time>2015-04-28T14:20:21Z</time></trkpt><trkpt lat="34.9708143063" lon="32.8165357746"><ele>1009.04</ele><time>2015-04-28T14:20:43Z</time></trkpt><trkpt lat="34.9707875680" lon="32.8165076952"><ele>1010.48</ele><time>2015-04-28T14:20:58Z</time></trkpt><trkpt lat="34.9707731511" lon="32.8164765984"><ele>1011.44</ele><time>2015-04-28T14:21:11Z</time></trkpt><trkpt lat="34.9707351811" lon="32.8164475132"><ele>1012.41</ele><time>2015-04-28T14:21:22Z</time></trkpt><trkpt lat="34.9706930202" lon="32.8164190985"><ele>1013.85</ele><time>2015-04-28T14:21:34Z</time></trkpt><trkpt lat="34.9706461653" lon="32.8163810447"><ele>1015.29</ele><time>2015-04-28T14:21:49Z</time></trkpt><trkpt lat="34.9705817923" lon="32.8163149953"><ele>1016.25</ele><time>2015-04-28T14:22:06Z</time></trkpt><trkpt lat="34.9706122186" lon="32.8163149953"><ele>1016.73</ele><time>2015-04-28T14:22:11Z</time></trkpt><trkpt lat="34.9707726482" lon="32.8163459245"><ele>1018.65</ele><time>2015-04-28T14:22:25Z</time></trkpt><trkpt lat="34.9708614126" lon="32.8164029215"><ele>1019.62</ele><time>2015-04-28T14:22:35Z</time></trkpt><trkpt lat="34.9709315691" lon="32.8164126445"><ele>1020.10</ele><time>2015-04-28T14:22:42Z</time></trkpt><trkpt lat="34.9709830340" lon="32.8164232057"><ele>1019.62</ele><time>2015-04-28T14:22:45Z</time></trkpt><trkpt lat="34.9710028153" lon="32.8164334316"><ele>1019.62</ele><time>2015-04-28T14:22:46Z</time></trkpt><trkpt lat="34.9710215069" lon="32.8164370358"><ele>1019.62</ele><time>2015-04-28T14:22:47Z</time></trkpt><trkpt lat="34.9710384384" lon="32.8164361138"><ele>1019.13</ele><time>2015-04-28T14:22:48Z</time></trkpt><trkpt lat="34.9710578006" lon="32.8164343536"><ele>1019.13</ele><time>2015-04-28T14:22:49Z</time></trkpt><trkpt lat="34.9710800126" lon="32.8164267261"><ele>1018.17</ele><time>2015-04-28T14:22:50Z</time></trkpt><trkpt lat="34.9711041525" lon="32.8164125606"><ele>1018.65</ele><time>2015-04-28T14:22:51Z</time></trkpt><trkpt lat="34.9711235147" lon="32.8163957968"><ele>1018.65</ele><time>2015-04-28T14:22:52Z</time></trkpt><trkpt lat="34.9711369257" lon="32.8163819667"><ele>1018.17</ele><time>2015-04-28T14:22:53Z</time></trkpt><trkpt lat="34.9711463135" lon="32.8163714055"><ele>1017.69</ele><time>2015-04-28T14:22:54Z</time></trkpt><trkpt lat="34.9711979460" lon="32.8163295798"><ele>1017.69</ele><time>2015-04-28T14:23:06Z</time></trkpt><trkpt lat="34.9711892288" lon="32.8163432423"><ele>1017.69</ele><time>2015-04-28T14:23:11Z</time></trkpt><trkpt lat="34.9711812660" lon="32.8163557313"><ele>1018.17</ele><time>2015-04-28T14:23:12Z</time></trkpt><trkpt lat="34.9711702857" lon="32.8163719084"><ele>1018.17</ele><time>2015-04-28T14:23:13Z</time></trkpt><trkpt lat="34.9711547792" lon="32.8163885046"><ele>1018.17</ele><time>2015-04-28T14:23:15Z</time></trkpt><trkpt lat="34.9711306393" lon="32.8164185956"><ele>1018.17</ele><time>2015-04-28T14:23:19Z</time></trkpt><trkpt lat="34.9711225927" lon="32.8164286539"><ele>1018.65</ele><time>2015-04-28T14:23:20Z</time></trkpt><trkpt lat="34.9711116124" lon="32.8164397180"><ele>1018.65</ele><time>2015-04-28T14:23:21Z</time></trkpt><trkpt lat="34.9710904062" lon="32.8164469264"><ele>1019.13</ele><time>2015-04-28T14:23:23Z</time></trkpt><trkpt lat="34.9710778333" lon="32.8164444119"><ele>1019.13</ele><time>2015-04-28T14:23:24Z</time></trkpt><trkpt lat="34.9710636679" lon="32.8164409753"><ele>1019.13</ele><time>2015-04-28T14:23:25Z</time></trkpt><trkpt lat="34.9710507598" lon="32.8164377902"><ele>1019.13</ele><time>2015-04-28T14:23:26Z</time></trkpt><trkpt lat="34.9710287154" lon="32.8164225351"><ele>1019.62</ele><time>2015-04-28T14:23:28Z</time></trkpt><trkpt lat="34.9710039049" lon="32.8164129797"><ele>1019.13</ele><time>2015-04-28T14:23:30Z</time></trkpt><trkpt lat="34.9708026554" lon="32.8163250536"><ele>1019.62</ele><time>2015-04-28T14:23:43Z</time></trkpt><trkpt lat="34.9705610890" lon="32.8162629437"><ele>1016.73</ele><time>2015-04-28T14:23:50Z</time></trkpt><trkpt lat="34.9701712467" lon="32.8162723314"><ele>1013.85</ele><time>2015-04-28T14:23:58Z</time></trkpt><trkpt lat="34.9700888526" lon="32.8163272329"><ele>1013.37</ele><time>2015-04-28T14:24:01Z</time></trkpt><trkpt lat="34.9700756930" lon="32.8163732495"><ele>1012.89</ele><time>2015-04-28T14:24:02Z</time></trkpt><trkpt lat="34.9700729270" lon="32.8164231218"><ele>1012.89</ele><time>2015-04-28T14:24:03Z</time></trkpt><trkpt lat="34.9700882658" lon="32.8165235370"><ele>1013.37</ele><time>2015-04-28T14:24:06Z</time></trkpt><trkpt lat="34.9703439977" lon="32.8167713899"><ele>1010.48</ele><time>2015-04-28T14:24:15Z</time></trkpt><trkpt lat="34.9703667965" lon="32.8168241959"><ele>1010.00</ele><time>2015-04-28T14:24:16Z</time></trkpt><trkpt lat="34.9703778606" lon="32.8168832883"><ele>1009.52</ele><time>2015-04-28T14:24:17Z</time></trkpt><trkpt lat="34.9703773577" lon="32.8169422969"><ele>1009.52</ele><time>2015-04-28T14:24:18Z</time></trkpt><trkpt lat="34.9703667127" lon="32.8169979528"><ele>1009.52</ele><time>2015-04-28T14:24:19Z</time></trkpt><trkpt lat="34.9703500327" lon="32.8170431312"><ele>1009.52</ele><time>2015-04-28T14:24:20Z</time></trkpt><trkpt lat="34.9703322630" lon="32.8170782514"><ele>1010.00</ele><time>2015-04-28T14:24:21Z</time></trkpt><trkpt lat="34.9702499527" lon="32.8172463086"><ele>1010.96</ele><time>2015-04-28T14:24:29Z</time></trkpt><trkpt lat="34.9702588376" lon="32.8172717895"><ele>1010.96</ele><time>2015-04-28T14:24:30Z</time></trkpt><trkpt lat="34.9702761881" lon="32.8172928281"><ele>1010.96</ele><time>2015-04-28T14:24:31Z</time></trkpt><trkpt lat="34.9702960532" lon="32.8173055686"><ele>1010.96</ele><time>2015-04-28T14:24:32Z</time></trkpt><trkpt lat="34.9703177623" lon="32.8173147049"><ele>1010.96</ele><time>2015-04-28T14:24:33Z</time></trkpt><trkpt lat="34.9703427404" lon="32.8173220810"><ele>1010.96</ele><time>2015-04-28T14:24:34Z</time></trkpt><trkpt lat="34.9703718256" lon="32.8173322231"><ele>1010.48</ele><time>2015-04-28T14:24:35Z</time></trkpt><trkpt lat="34.9704061076" lon="32.8173475619"><ele>1010.00</ele><time>2015-04-28T14:24:36Z</time></trkpt><trkpt lat="34.9704441614" lon="32.8173671756"><ele>1010.00</ele><time>2015-04-28T14:24:37Z</time></trkpt><trkpt lat="34.9704892561" lon="32.8173815925"><ele>1009.52</ele><time>2015-04-28T14:24:38Z</time></trkpt><trkpt lat="34.9705400504" lon="32.8173955064"><ele>1008.56</ele><time>2015-04-28T14:24:39Z</time></trkpt><trkpt lat="34.9706002325" lon="32.8174183890"><ele>1008.08</ele><time>2015-04-28T14:24:40Z</time></trkpt><trkpt lat="34.9707402941" lon="32.8174797446"><ele>1007.12</ele><time>2015-04-28T14:24:42Z</time></trkpt><trkpt lat="34.9708005600" lon="32.8175172955"><ele>1006.64</ele><time>2015-04-28T14:24:43Z</time></trkpt><trkpt lat="34.9708479177" lon="32.8175543435"><ele>1006.64</ele><time>2015-04-28T14:24:44Z</time></trkpt><trkpt lat="34.9710655119" lon="32.8177380748"><ele>1004.23</ele><time>2015-04-28T14:24:50Z</time></trkpt><trkpt lat="34.9710841198" lon="32.8177883662"><ele>1003.75</ele><time>2015-04-28T14:24:51Z</time></trkpt><trkpt lat="34.9710906576" lon="32.8178420942"><ele>1003.75</ele><time>2015-04-28T14:24:52Z</time></trkpt><trkpt lat="34.9710897356" lon="32.8178955708"><ele>1003.75</ele><time>2015-04-28T14:24:53Z</time></trkpt><trkpt lat="34.9710857123" lon="32.8179487120"><ele>1003.27</ele><time>2015-04-28T14:24:54Z</time></trkpt><trkpt lat="34.9711519293" lon="32.8183020093"><ele>1003.75</ele><time>2015-04-28T14:25:04Z</time></trkpt><trkpt lat="34.9711369257" lon="32.8186105471"><ele>1002.79</ele><time>2015-04-28T14:25:14Z</time></trkpt><trkpt lat="34.9711187370" lon="32.8186574019"><ele>1002.79</ele><time>2015-04-28T14:25:15Z</time></trkpt><trkpt lat="34.9710318167" lon="32.8188439831"><ele>1000.39</ele><time>2015-04-28T14:25:19Z</time></trkpt><trkpt lat="34.9710177351" lon="32.8189079370"><ele>999.91</ele><time>2015-04-28T14:25:20Z</time></trkpt><trkpt lat="34.9710159749" lon="32.8189704660"><ele>998.95</ele><time>2015-04-28T14:25:21Z</time></trkpt><trkpt lat="34.9710252788" lon="32.8190245293"><ele>998.95</ele><time>2015-04-28T14:25:22Z</time></trkpt><trkpt lat="34.9710387737" lon="32.8190660197"><ele>999.43</ele><time>2015-04-28T14:25:23Z</time></trkpt><trkpt lat="34.9710505921" lon="32.8192785010"><ele>1000.87</ele><time>2015-04-28T14:25:33Z</time></trkpt><trkpt lat="34.9710409530" lon="32.8193554468"><ele>1000.87</ele><time>2015-04-28T14:25:45Z</time></trkpt><trkpt lat="34.9710380193" lon="32.8193873819"><ele>1001.35</ele><time>2015-04-28T14:26:07Z</time></trkpt><trkpt lat="34.9709219299" lon="32.8196127713"><ele>1003.75</ele><time>2015-04-28T14:26:19Z</time></trkpt><trkpt lat="34.9708184134" lon="32.8197052237"><ele>1005.20</ele><time>2015-04-28T14:26:27Z</time></trkpt><trkpt lat="34.9708104506" lon="32.8197175451"><ele>1005.20</ele><time>2015-04-28T14:26:28Z</time></trkpt><trkpt lat="34.9708011467" lon="32.8197273519"><ele>1005.68</ele><time>2015-04-28T14:26:29Z</time></trkpt><trkpt lat="34.9707905017" lon="32.8197389189"><ele>1005.68</ele><time>2015-04-28T14:26:30Z</time></trkpt><trkpt lat="34.9707813654" lon="32.8197504021"><ele>1006.16</ele><time>2015-04-28T14:26:31Z</time></trkpt><trkpt lat="34.9706949480" lon="32.8198760469"><ele>1008.56</ele><time>2015-04-28T14:26:44Z</time></trkpt><trkpt lat="34.9706621747" lon="32.8199270088"><ele>1009.04</ele><time>2015-04-28T14:26:49Z</time></trkpt><trkpt lat="34.9706547987" lon="32.8199692536"><ele>1009.52</ele><time>2015-04-28T14:26:52Z</time></trkpt><trkpt lat="34.9706527870" lon="32.8199850116"><ele>1009.52</ele><time>2015-04-28T14:26:53Z</time></trkpt><trkpt lat="34.9706479255" lon="32.8199971654"><ele>1010.00</ele><time>2015-04-28T14:26:54Z</time></trkpt><trkpt lat="34.9706216063" lon="32.8200512286"><ele>1010.48</ele><time>2015-04-28T14:26:59Z</time></trkpt><trkpt lat="34.9706149846" lon="32.8200613707"><ele>1010.96</ele><time>2015-04-28T14:27:00Z</time></trkpt><trkpt lat="34.9705861509" lon="32.8201093990"><ele>1011.44</ele><time>2015-04-28T14:27:05Z</time></trkpt><trkpt lat="34.9705195148" lon="32.8201813158"><ele>1012.89</ele><time>2015-04-28T14:27:14Z</time></trkpt><trkpt lat="34.9704535492" lon="32.8202403244"><ele>1013.85</ele><time>2015-04-28T14:27:22Z</time></trkpt><trkpt lat="34.9703596719" lon="32.8203901928"><ele>1014.81</ele><time>2015-04-28T14:27:36Z</time></trkpt><trkpt lat="34.9702257290" lon="32.8206509538"><ele>1016.25</ele><time>2015-04-28T14:27:52Z</time></trkpt><trkpt lat="34.9702131562" lon="32.8206641972"><ele>1015.77</ele><time>2015-04-28T14:27:54Z</time></trkpt><trkpt lat="34.9702027626" lon="32.8206740879"><ele>1015.29</ele><time>2015-04-28T14:28:06Z</time></trkpt><trkpt lat="34.9701996613" lon="32.8207722399"><ele>1015.29</ele><time>2015-04-28T14:28:45Z</time></trkpt><trkpt lat="34.9702318478" lon="32.8207061905"><ele>1015.29</ele><time>2015-04-28T14:29:19Z</time></trkpt><trkpt lat="34.9702474382" lon="32.8207698092"><ele>1015.29</ele><time>2015-04-28T14:29:52Z</time></trkpt><trkpt lat="34.9702295847" lon="32.8207484353"><ele>1014.81</ele><time>2015-04-28T14:30:20Z</time></trkpt><trkpt lat="34.9702460971" lon="32.8207347728"><ele>1014.81</ele><time>2015-04-28T14:30:57Z</time></trkpt><trkpt lat="34.9702497851" lon="32.8207470942"><ele>1014.81</ele><time>2015-04-28T14:31:31Z</time></trkpt><trkpt lat="34.9701851606" lon="32.8207053524"><ele>1014.33</ele><time>2015-04-28T14:32:08Z</time></trkpt><trkpt lat="34.9702191912" lon="32.8207714856"><ele>1014.33</ele><time>2015-04-28T14:32:35Z</time></trkpt><trkpt lat="34.9702223763" lon="32.8207247984"><ele>1014.33</ele><time>2015-04-28T14:33:11Z</time></trkpt><trkpt lat="34.9702086300" lon="32.8207410593"><ele>1014.33</ele><time>2015-04-28T14:33:58Z</time></trkpt><trkpt lat="34.9702638667" lon="32.8207721561"><ele>1014.33</ele><time>2015-04-28T14:34:30Z</time></trkpt><trkpt lat="34.9702267349" lon="32.8207672946"><ele>1014.33</ele><time>2015-04-28T14:35:09Z</time></trkpt><trkpt lat="34.9702392239" lon="32.8207742516"><ele>1014.33</ele><time>2015-04-28T14:35:42Z</time></trkpt><trkpt lat="34.9702450912" lon="32.8207534645"><ele>1014.81</ele><time>2015-04-28T14:36:24Z</time></trkpt><trkpt lat="34.9702163413" lon="32.8207097948"><ele>1015.29</ele><time>2015-04-28T14:36:38Z</time></trkpt><trkpt lat="34.9701772816" lon="32.8207396343"><ele>1015.29</ele><time>2015-04-28T14:36:51Z</time></trkpt><trkpt lat="34.9701841548" lon="32.8207869921"><ele>1015.29</ele><time>2015-04-28T14:36:55Z</time></trkpt><trkpt lat="34.9703175947" lon="32.8209692985"><ele>1014.81</ele><time>2015-04-28T14:37:03Z</time></trkpt><trkpt lat="34.9703364540" lon="32.8209725674"><ele>1014.81</ele><time>2015-04-28T14:37:04Z</time></trkpt><trkpt lat="34.9706469197" lon="32.8207792807"><ele>1011.93</ele><time>2015-04-28T14:37:16Z</time></trkpt><trkpt lat="34.9706745800" lon="32.8207614273"><ele>1011.93</ele><time>2015-04-28T14:37:17Z</time></trkpt><trkpt lat="34.9707235303" lon="32.8207366168"><ele>1010.96</ele><time>2015-04-28T14:37:26Z</time></trkpt><trkpt lat="34.9707122147" lon="32.8207387123"><ele>1011.44</ele><time>2015-04-28T14:37:40Z</time></trkpt><trkpt lat="34.9707038328" lon="32.8207610920"><ele>1011.44</ele><time>2015-04-28T14:37:47Z</time></trkpt><trkpt lat="34.9706924334" lon="32.8207698930"><ele>1011.93</ele><time>2015-04-28T14:37:48Z</time></trkpt><trkpt lat="34.9705307465" lon="32.8208703082"><ele>1013.37</ele><time>2015-04-28T14:37:58Z</time></trkpt><trkpt lat="34.9703865778" lon="32.8209455777"><ele>1015.29</ele><time>2015-04-28T14:38:10Z</time></trkpt><trkpt lat="34.9703372922" lon="32.8209562227"><ele>1015.29</ele><time>2015-04-28T14:38:15Z</time></trkpt><trkpt lat="34.9703237135" lon="32.8209503554"><ele>1015.29</ele><time>2015-04-28T14:38:16Z</time></trkpt><trkpt lat="34.9703107215" lon="32.8209451586"><ele>1015.29</ele><time>2015-04-28T14:38:17Z</time></trkpt><trkpt lat="34.9702943768" lon="32.8209361900"><ele>1015.29</ele><time>2015-04-28T14:38:18Z</time></trkpt><trkpt lat="34.9702768587" lon="32.8209233657"><ele>1014.81</ele><time>2015-04-28T14:38:19Z</time></trkpt><trkpt lat="34.9701601826" lon="32.8207802866"><ele>1015.77</ele><time>2015-04-28T14:38:30Z</time></trkpt><trkpt lat="34.9701386411" lon="32.8207522910"><ele>1015.77</ele><time>2015-04-28T14:38:41Z</time></trkpt><trkpt lat="34.9701285828" lon="32.8207351081"><ele>1016.25</ele><time>2015-04-28T14:39:01Z</time></trkpt><trkpt lat="34.9701580871" lon="32.8207822144"><ele>1016.25</ele><time>2015-04-28T14:39:31Z</time></trkpt><trkpt lat="34.9701713305" lon="32.8207663726"><ele>1016.25</ele><time>2015-04-28T14:39:46Z</time></trkpt><trkpt lat="34.9701735936" lon="32.8207212780"><ele>1015.29</ele><time>2015-04-28T14:40:06Z</time></trkpt><trkpt lat="34.9701496214" lon="32.8207184281"><ele>1015.29</ele><time>2015-04-28T14:40:41Z</time></trkpt><trkpt lat="34.9701593444" lon="32.8207320906"><ele>1015.29</ele><time>2015-04-28T14:41:09Z</time></trkpt><trkpt lat="34.9701530579" lon="32.8207051847"><ele>1015.29</ele><time>2015-04-28T14:41:40Z</time></trkpt><trkpt lat="34.9701426644" lon="32.8207341861"><ele>1014.81</ele><time>2015-04-28T14:42:17Z</time></trkpt><trkpt lat="34.9700963125" lon="32.8207436576"><ele>1014.81</ele><time>2015-04-28T14:42:47Z</time></trkpt><trkpt lat="34.9700584263" lon="32.8207097948"><ele>1014.81</ele><time>2015-04-28T14:43:23Z</time></trkpt><trkpt lat="34.9700492062" lon="32.8207270615"><ele>1015.77</ele><time>2015-04-28T14:44:11Z</time></trkpt><trkpt lat="34.9699844141" lon="32.8207833879"><ele>1017.21</ele><time>2015-04-28T14:44:26Z</time></trkpt><trkpt lat="34.9699731823" lon="32.8208867367"><ele>1019.13</ele><time>2015-04-28T14:44:41Z</time></trkpt><trkpt lat="34.9699972384" lon="32.8209612519"><ele>1019.62</ele><time>2015-04-28T14:44:51Z</time></trkpt><trkpt lat="34.9700060394" lon="32.8209693823"><ele>1019.62</ele><time>2015-04-28T14:44:52Z</time></trkpt><trkpt lat="34.9700880982" lon="32.8210600745"><ele>1019.13</ele><time>2015-04-28T14:45:06Z</time></trkpt><trkpt lat="34.9701064546" lon="32.8210703842"><ele>1019.13</ele><time>2015-04-28T14:45:08Z</time></trkpt><trkpt lat="34.9702098873" lon="32.8211083543"><ele>1019.62</ele><time>2015-04-28T14:45:18Z</time></trkpt><trkpt lat="34.9704254698" lon="32.8210770059"><ele>1021.06</ele><time>2015-04-28T14:45:34Z</time></trkpt><trkpt lat="34.9706122186" lon="32.8210000601"><ele>1022.98</ele><time>2015-04-28T14:45:48Z</time></trkpt><trkpt lat="34.9706238694" lon="32.8209923487"><ele>1023.46</ele><time>2015-04-28T14:45:49Z</time></trkpt><trkpt lat="34.9706335925" lon="32.8209874034"><ele>1023.46</ele><time>2015-04-28T14:45:50Z</time></trkpt><trkpt lat="34.9706436507" lon="32.8209833801"><ele>1023.46</ele><time>2015-04-28T14:45:51Z</time></trkpt><trkpt lat="34.9706567265" lon="32.8209784348"><ele>1023.46</ele><time>2015-04-28T14:45:52Z</time></trkpt><trkpt lat="34.9706704728" lon="32.8209706396"><ele>1023.46</ele><time>2015-04-28T14:45:53Z</time></trkpt><trkpt lat="34.9706851412" lon="32.8209647723"><ele>1023.46</ele><time>2015-04-28T14:45:54Z</time></trkpt><trkpt lat="34.9707019888" lon="32.8209592402"><ele>1023.46</ele><time>2015-04-28T14:45:55Z</time></trkpt><trkpt lat="34.9707183335" lon="32.8209547978"><ele>1023.94</ele><time>2015-04-28T14:45:56Z</time></trkpt><trkpt lat="34.9709796812" lon="32.8209325019"><ele>1025.38</ele><time>2015-04-28T14:46:13Z</time></trkpt><trkpt lat="34.9710955191" lon="32.8209333401"><ele>1026.34</ele><time>2015-04-28T14:46:25Z</time></trkpt><trkpt lat="34.9711509235" lon="32.8209305741"><ele>1026.83</ele><time>2015-04-28T14:46:30Z</time></trkpt><trkpt lat="34.9711657595" lon="32.8209343459"><ele>1027.31</ele><time>2015-04-28T14:46:31Z</time></trkpt><trkpt lat="34.9711786676" lon="32.8209356032"><ele>1026.83</ele><time>2015-04-28T14:46:32Z</time></trkpt><trkpt lat="34.9711900670" lon="32.8209361900"><ele>1026.83</ele><time>2015-04-28T14:46:33Z</time></trkpt><trkpt lat="34.9712049030" lon="32.8209385369"><ele>1026.83</ele><time>2015-04-28T14:46:34Z</time></trkpt><trkpt lat="34.9713577051" lon="32.8210197575"><ele>1028.27</ele><time>2015-04-28T14:46:47Z</time></trkpt><trkpt lat="34.9713711161" lon="32.8210226912"><ele>1028.27</ele><time>2015-04-28T14:46:48Z</time></trkpt><trkpt lat="34.9713842757" lon="32.8210244514"><ele>1028.27</ele><time>2015-04-28T14:46:49Z</time></trkpt><trkpt lat="34.9713971000" lon="32.8210259601"><ele>1028.27</ele><time>2015-04-28T14:46:50Z</time></trkpt><trkpt lat="34.9714081641" lon="32.8210268822"><ele>1028.75</ele><time>2015-04-28T14:46:51Z</time></trkpt><trkpt lat="34.9714190606" lon="32.8210269660"><ele>1028.75</ele><time>2015-04-28T14:46:52Z</time></trkpt><trkpt lat="34.9714286160" lon="32.8210251220"><ele>1028.75</ele><time>2015-04-28T14:46:53Z</time></trkpt><trkpt lat="34.9714370817" lon="32.8210244514"><ele>1029.23</ele><time>2015-04-28T14:46:54Z</time></trkpt><trkpt lat="34.9715597089" lon="32.8209877387"><ele>1030.67</ele><time>2015-04-28T14:47:06Z</time></trkpt><trkpt lat="34.9716457073" lon="32.8208820429"><ele>1032.59</ele><time>2015-04-28T14:47:16Z</time></trkpt><trkpt lat="34.9716544244" lon="32.8208758403"><ele>1032.59</ele><time>2015-04-28T14:47:17Z</time></trkpt><trkpt lat="34.9716632254" lon="32.8208682127"><ele>1032.59</ele><time>2015-04-28T14:47:18Z</time></trkpt><trkpt lat="34.9717544205" lon="32.8208535444"><ele>1034.52</ele><time>2015-04-28T14:47:29Z</time></trkpt><trkpt lat="34.9718145188" lon="32.8208463360"><ele>1034.52</ele><time>2015-04-28T14:47:37Z</time></trkpt><trkpt lat="34.9718243256" lon="32.8208495211"><ele>1034.52</ele><time>2015-04-28T14:47:38Z</time></trkpt><trkpt lat="34.9718806520" lon="32.8208642732"><ele>1034.52</ele><time>2015-04-28T14:47:44Z</time></trkpt><trkpt lat="34.9718921352" lon="32.8208628483"><ele>1035.00</ele><time>2015-04-28T14:47:45Z</time></trkpt><trkpt lat="34.9719054624" lon="32.8208618425"><ele>1035.00</ele><time>2015-04-28T14:47:46Z</time></trkpt><trkpt lat="34.9719176162" lon="32.8208594117"><ele>1035.00</ele><time>2015-04-28T14:47:47Z</time></trkpt><trkpt lat="34.9719306082" lon="32.8208623454"><ele>1035.00</ele><time>2015-04-28T14:47:48Z</time></trkpt><trkpt lat="34.9719426781" lon="32.8208716493"><ele>1035.00</ele><time>2015-04-28T14:47:49Z</time></trkpt><trkpt lat="34.9719432648" lon="32.8209133912"><ele>1035.48</ele><time>2015-04-28T14:47:53Z</time></trkpt><trkpt lat="34.9719322845" lon="32.8209178336"><ele>1035.48</ele><time>2015-04-28T14:47:54Z</time></trkpt><trkpt lat="34.9719205499" lon="32.8209154028"><ele>1035.48</ele><time>2015-04-28T14:47:55Z</time></trkpt><trkpt lat="34.9719074741" lon="32.8209117986"><ele>1035.48</ele><time>2015-04-28T14:47:56Z</time></trkpt><trkpt lat="34.9718950689" lon="32.8209134750"><ele>1035.96</ele><time>2015-04-28T14:47:57Z</time></trkpt><trkpt lat="34.9718239065" lon="32.8209210187"><ele>1036.44</ele><time>2015-04-28T14:48:05Z</time></trkpt><trkpt lat="34.9718152732" lon="32.8209190071"><ele>1036.44</ele><time>2015-04-28T14:48:06Z</time></trkpt><trkpt lat="34.9718039576" lon="32.8209185880"><ele>1036.44</ele><time>2015-04-28T14:48:07Z</time></trkpt><trkpt lat="34.9717931449" lon="32.8209195938"><ele>1036.44</ele><time>2015-04-28T14:48:08Z</time></trkpt><trkpt lat="34.9717831705" lon="32.8209222760"><ele>1036.44</ele><time>2015-04-28T14:48:09Z</time></trkpt><trkpt lat="34.9717733636" lon="32.8209250420"><ele>1036.44</ele><time>2015-04-28T14:48:10Z</time></trkpt><trkpt lat="34.9717657361" lon="32.8209283110"><ele>1036.44</ele><time>2015-04-28T14:48:11Z</time></trkpt><trkpt lat="34.9717576895" lon="32.8209331725"><ele>1036.92</ele><time>2015-04-28T14:48:12Z</time></trkpt><trkpt lat="34.9717486370" lon="32.8209392913"><ele>1036.92</ele><time>2015-04-28T14:48:13Z</time></trkpt><trkpt lat="34.9717219826" lon="32.8209768422"><ele>1037.40</ele><time>2015-04-28T14:48:17Z</time></trkpt><trkpt lat="34.9717170373" lon="32.8209892474"><ele>1037.40</ele><time>2015-04-28T14:48:18Z</time></trkpt><trkpt lat="34.9717148580" lon="32.8210001439"><ele>1037.40</ele><time>2015-04-28T14:48:19Z</time></trkpt><trkpt lat="34.9717125110" lon="32.8210117109"><ele>1037.88</ele><time>2015-04-28T14:48:20Z</time></trkpt><trkpt lat="34.9717068113" lon="32.8210247029"><ele>1037.88</ele><time>2015-04-28T14:48:21Z</time></trkpt><trkpt lat="34.9717021175" lon="32.8210392036"><ele>1037.88</ele><time>2015-04-28T14:48:22Z</time></trkpt><trkpt lat="34.9716976751" lon="32.8210534528"><ele>1037.88</ele><time>2015-04-28T14:48:23Z</time></trkpt><trkpt lat="34.9716908857" lon="32.8210637625"><ele>1037.88</ele><time>2015-04-28T14:48:24Z</time></trkpt><trkpt lat="34.9716808274" lon="32.8210733179"><ele>1038.36</ele><time>2015-04-28T14:48:25Z</time></trkpt><trkpt lat="34.9716249201" lon="32.8211492579"><ele>1039.32</ele><time>2015-04-28T14:48:33Z</time></trkpt><trkpt lat="34.9716236629" lon="32.8211633395"><ele>1039.32</ele><time>2015-04-28T14:48:34Z</time></trkpt><trkpt lat="34.9716189690" lon="32.8211744037"><ele>1039.80</ele><time>2015-04-28T14:48:35Z</time></trkpt><trkpt lat="34.9715693481" lon="32.8212144691"><ele>1040.76</ele><time>2015-04-28T14:48:41Z</time></trkpt><trkpt lat="34.9715592060" lon="32.8212195821"><ele>1040.76</ele><time>2015-04-28T14:48:42Z</time></trkpt><trkpt lat="34.9715484772" lon="32.8212238569"><ele>1041.25</ele><time>2015-04-28T14:48:43Z</time></trkpt><trkpt lat="34.9714255985" lon="32.8212640900"><ele>1043.17</ele><time>2015-04-28T14:48:56Z</time></trkpt><trkpt lat="34.9713173043" lon="32.8212822787"><ele>1045.09</ele><time>2015-04-28T14:49:09Z</time></trkpt><trkpt lat="34.9712564517" lon="32.8212834522"><ele>1045.57</ele><time>2015-04-28T14:49:16Z</time></trkpt><trkpt lat="34.9712309707" lon="32.8212815244"><ele>1046.05</ele><time>2015-04-28T14:49:19Z</time></trkpt><trkpt lat="34.9711522646" lon="32.8212766629"><ele>1046.53</ele><time>2015-04-28T14:49:29Z</time></trkpt><trkpt lat="34.9710319843" lon="32.8213328216"><ele>1048.45</ele><time>2015-04-28T14:49:43Z</time></trkpt><trkpt lat="34.9709573016" lon="32.8213808499"><ele>1049.42</ele><time>2015-04-28T14:49:52Z</time></trkpt><trkpt lat="34.9709487520" lon="32.8213866334"><ele>1049.90</ele><time>2015-04-28T14:49:53Z</time></trkpt><trkpt lat="34.9708928447" lon="32.8214097675"><ele>1050.38</ele><time>2015-04-28T14:50:01Z</time></trkpt><trkpt lat="34.9708190840" lon="32.8214733861"><ele>1051.82</ele><time>2015-04-28T14:50:10Z</time></trkpt><trkpt lat="34.9708092771" lon="32.8214788344"><ele>1051.82</ele><time>2015-04-28T14:50:11Z</time></trkpt><trkpt lat="34.9708001409" lon="32.8214853723"><ele>1051.82</ele><time>2015-04-28T14:50:12Z</time></trkpt><trkpt lat="34.9707552139" lon="32.8215173911"><ele>1052.78</ele><time>2015-04-28T14:50:24Z</time></trkpt><trkpt lat="34.9707450718" lon="32.8215198219"><ele>1052.78</ele><time>2015-04-28T14:50:46Z</time></trkpt><trkpt lat="34.9707543757" lon="32.8215097636"><ele>1052.30</ele><time>2015-04-28T14:51:10Z</time></trkpt><trkpt lat="34.9707690440" lon="32.8215100989"><ele>1052.30</ele><time>2015-04-28T14:51:32Z</time></trkpt><trkpt lat="34.9707719777" lon="32.8215156309"><ele>1052.30</ele><time>2015-04-28T14:52:03Z</time></trkpt><trkpt lat="34.9707728997" lon="32.8215539362"><ele>1052.30</ele><time>2015-04-28T14:52:28Z</time></trkpt><trkpt lat="34.9707418028" lon="32.8215303831"><ele>1052.30</ele><time>2015-04-28T14:52:57Z</time></trkpt><trkpt lat="34.9707174953" lon="32.8215570375"><ele>1053.74</ele><time>2015-04-28T14:53:19Z</time></trkpt><trkpt lat="34.9706763402" lon="32.8216405213"><ele>1054.70</ele><time>2015-04-28T14:53:34Z</time></trkpt><trkpt lat="34.9706532061" lon="32.8217317164"><ele>1056.15</ele><time>2015-04-28T14:53:49Z</time></trkpt><trkpt lat="34.9706247915" lon="32.8218207322"><ele>1057.59</ele><time>2015-04-28T14:54:04Z</time></trkpt><trkpt lat="34.9705859832" lon="32.8219072334"><ele>1059.03</ele><time>2015-04-28T14:54:21Z</time></trkpt><trkpt lat="34.9705412239" lon="32.8219708521"><ele>1060.47</ele><time>2015-04-28T14:54:36Z</time></trkpt><trkpt lat="34.9704541359" lon="32.8220262565"><ele>1061.91</ele><time>2015-04-28T14:54:53Z</time></trkpt><trkpt lat="34.9703590013" lon="32.8220412601"><ele>1063.36</ele><time>2015-04-28T14:55:10Z</time></trkpt><trkpt lat="34.9702502042" lon="32.8220814094"><ele>1065.28</ele><time>2015-04-28T14:55:26Z</time></trkpt><trkpt lat="34.9702278245" lon="32.8221130092"><ele>1065.28</ele><time>2015-04-28T14:55:32Z</time></trkpt><trkpt lat="34.9702218734" lon="32.8221283481"><ele>1065.76</ele><time>2015-04-28T14:55:33Z</time></trkpt><trkpt lat="34.9702147488" lon="32.8221416753"><ele>1065.76</ele><time>2015-04-28T14:55:34Z</time></trkpt><trkpt lat="34.9702050257" lon="32.8221493866"><ele>1065.76</ele><time>2015-04-28T14:55:35Z</time></trkpt><trkpt lat="34.9701948836" lon="32.8221588582"><ele>1066.24</ele><time>2015-04-28T14:55:36Z</time></trkpt><trkpt lat="34.9701858312" lon="32.8221719339"><ele>1066.24</ele><time>2015-04-28T14:55:37Z</time></trkpt><trkpt lat="34.9700966477" lon="32.8222879395"><ele>1067.68</ele><time>2015-04-28T14:55:49Z</time></trkpt><trkpt lat="34.9700594321" lon="32.8223439306"><ele>1068.16</ele><time>2015-04-28T14:56:02Z</time></trkpt><trkpt lat="34.9699702486" lon="32.8224069625"><ele>1069.12</ele><time>2015-04-28T14:56:18Z</time></trkpt><trkpt lat="34.9698996730" lon="32.8223708365"><ele>1068.64</ele><time>2015-04-28T14:56:30Z</time></trkpt><trkpt lat="34.9697928876" lon="32.8222130053"><ele>1068.16</ele><time>2015-04-28T14:56:42Z</time></trkpt><trkpt lat="34.9697107449" lon="32.8222262487"><ele>1068.64</ele><time>2015-04-28T14:56:49Z</time></trkpt><trkpt lat="34.9696789775" lon="32.8222578485"><ele>1069.12</ele><time>2015-04-28T14:57:02Z</time></trkpt><trkpt lat="34.9696998484" lon="32.8222420905"><ele>1069.12</ele><time>2015-04-28T14:57:36Z</time></trkpt><trkpt lat="34.9696601182" lon="32.8222479578"><ele>1069.12</ele><time>2015-04-28T14:57:55Z</time></trkpt><trkpt lat="34.9696612079" lon="32.8222597763"><ele>1069.12</ele><time>2015-04-28T14:58:13Z</time></trkpt><trkpt lat="34.9696660694" lon="32.8222600278"><ele>1068.64</ele><time>2015-04-28T14:58:48Z</time></trkpt><trkpt lat="34.9696516525" lon="32.8223000094"><ele>1069.60</ele><time>2015-04-28T14:59:15Z</time></trkpt><trkpt lat="34.9696385767" lon="32.8222971596"><ele>1070.57</ele><time>2015-04-28T14:59:32Z</time></trkpt><trkpt lat="34.9695990141" lon="32.8222738579"><ele>1069.60</ele><time>2015-04-28T14:59:45Z</time></trkpt><trkpt lat="34.9694938213" lon="32.8222281765"><ele>1070.57</ele><time>2015-04-28T15:00:01Z</time></trkpt><trkpt lat="34.9694638979" lon="32.8221820761"><ele>1071.05</ele><time>2015-04-28T15:00:08Z</time></trkpt><trkpt lat="34.9694530014" lon="32.8221747838"><ele>1071.05</ele><time>2015-04-28T15:00:09Z</time></trkpt><trkpt lat="34.9694265146" lon="32.8221504763"><ele>1071.05</ele><time>2015-04-28T15:00:13Z</time></trkpt><trkpt lat="34.9694160372" lon="32.8221386578"><ele>1071.05</ele><time>2015-04-28T15:00:14Z</time></trkpt><trkpt lat="34.9692276958" lon="32.8219497297"><ele>1070.57</ele><time>2015-04-28T15:00:25Z</time></trkpt><trkpt lat="34.9691991974" lon="32.8219086584"><ele>1070.57</ele><time>2015-04-28T15:00:26Z</time></trkpt><trkpt lat="34.9691751413" lon="32.8218606301"><ele>1070.08</ele><time>2015-04-28T15:00:27Z</time></trkpt><trkpt lat="34.9690086767" lon="32.8215176426"><ele>1073.45</ele><time>2015-04-28T15:00:38Z</time></trkpt><trkpt lat="34.9689987022" lon="32.8215092607"><ele>1073.45</ele><time>2015-04-28T15:00:39Z</time></trkpt><trkpt lat="34.9689879734" lon="32.8214991186"><ele>1073.93</ele><time>2015-04-28T15:00:40Z</time></trkpt><trkpt lat="34.9689784180" lon="32.8214951791"><ele>1073.93</ele><time>2015-04-28T15:00:41Z</time></trkpt><trkpt lat="34.9689677730" lon="32.8214878030"><ele>1073.93</ele><time>2015-04-28T15:00:42Z</time></trkpt><trkpt lat="34.9689544458" lon="32.8214821871"><ele>1073.93</ele><time>2015-04-28T15:00:43Z</time></trkpt><trkpt lat="34.9689423759" lon="32.8214758169"><ele>1074.41</ele><time>2015-04-28T15:00:44Z</time></trkpt><trkpt lat="34.9689303897" lon="32.8214660101"><ele>1074.41</ele><time>2015-04-28T15:00:45Z</time></trkpt><trkpt lat="34.9688358419" lon="32.8214586340"><ele>1075.85</ele><time>2015-04-28T15:00:54Z</time></trkpt><trkpt lat="34.9688230176" lon="32.8214563709"><ele>1075.85</ele><time>2015-04-28T15:00:55Z</time></trkpt><trkpt lat="34.9687881488" lon="32.8214588016"><ele>1076.81</ele><time>2015-04-28T15:00:59Z</time></trkpt><trkpt lat="34.9687791802" lon="32.8214603942"><ele>1077.29</ele><time>2015-04-28T15:01:00Z</time></trkpt><trkpt lat="34.9687523581" lon="32.8214999568"><ele>1077.29</ele><time>2015-04-28T15:01:09Z</time></trkpt><trkpt lat="34.9687574711" lon="32.8214832768"><ele>1077.78</ele><time>2015-04-28T15:01:37Z</time></trkpt><trkpt lat="34.9687241949" lon="32.8214759007"><ele>1078.26</ele><time>2015-04-28T15:02:08Z</time></trkpt><trkpt lat="34.9686008971" lon="32.8215121105"><ele>1080.18</ele><time>2015-04-28T15:02:24Z</time></trkpt><trkpt lat="34.9684667867" lon="32.8215292934"><ele>1082.10</ele><time>2015-04-28T15:02:41Z</time></trkpt><trkpt lat="34.9683719035" lon="32.8215470631"><ele>1083.06</ele><time>2015-04-28T15:02:57Z</time></trkpt><trkpt lat="34.9682627711" lon="32.8215662576"><ele>1084.99</ele><time>2015-04-28T15:03:12Z</time></trkpt><trkpt lat="34.9681354500" lon="32.8215927444"><ele>1086.43</ele><time>2015-04-28T15:03:26Z</time></trkpt><trkpt lat="34.9680227134" lon="32.8216085862"><ele>1087.39</ele><time>2015-04-28T15:03:40Z</time></trkpt><trkpt lat="34.9678792991" lon="32.8216345701"><ele>1088.83</ele><time>2015-04-28T15:03:57Z</time></trkpt><trkpt lat="34.9677758664" lon="32.8216269426"><ele>1090.27</ele><time>2015-04-28T15:04:12Z</time></trkpt><trkpt lat="34.9676752836" lon="32.8216228355"><ele>1091.71</ele><time>2015-04-28T15:04:27Z</time></trkpt><trkpt lat="34.9676177837" lon="32.8216150403"><ele>1092.20</ele><time>2015-04-28T15:04:36Z</time></trkpt><trkpt lat="34.9674913008" lon="32.8216489870"><ele>1093.64</ele><time>2015-04-28T15:04:53Z</time></trkpt><trkpt lat="34.9674738664" lon="32.8216535971"><ele>1093.64</ele><time>2015-04-28T15:04:55Z</time></trkpt><trkpt lat="34.9673501495" lon="32.8216583747"><ele>1094.12</ele><time>2015-04-28T15:05:11Z</time></trkpt><trkpt lat="34.9673123471" lon="32.8216495737"><ele>1094.12</ele><time>2015-04-28T15:05:22Z</time></trkpt><trkpt lat="34.9673017859" lon="32.8216491546"><ele>1094.60</ele><time>2015-04-28T15:05:23Z</time></trkpt><trkpt lat="34.9672908057" lon="32.8216503281"><ele>1094.60</ele><time>2015-04-28T15:05:24Z</time></trkpt><trkpt lat="34.9672806635" lon="32.8216551058"><ele>1094.60</ele><time>2015-04-28T15:05:25Z</time></trkpt><trkpt lat="34.9672711920" lon="32.8216587938"><ele>1094.60</ele><time>2015-04-28T15:05:26Z</time></trkpt><trkpt lat="34.9672602955" lon="32.8216635715"><ele>1094.60</ele><time>2015-04-28T15:05:27Z</time></trkpt><trkpt lat="34.9672450405" lon="32.8216691874"><ele>1094.60</ele><time>2015-04-28T15:05:28Z</time></trkpt><trkpt lat="34.9670942500" lon="32.8217200655"><ele>1096.04</ele><time>2015-04-28T15:05:39Z</time></trkpt><trkpt lat="34.9670794979" lon="32.8217149526"><ele>1096.04</ele><time>2015-04-28T15:05:40Z</time></trkpt><trkpt lat="34.9670619797" lon="32.8217104264"><ele>1096.04</ele><time>2015-04-28T15:05:41Z</time></trkpt><trkpt lat="34.9670451321" lon="32.8217065707"><ele>1096.04</ele><time>2015-04-28T15:05:42Z</time></trkpt><trkpt lat="34.9670291226" lon="32.8217043914"><ele>1096.04</ele><time>2015-04-28T15:05:43Z</time></trkpt><trkpt lat="34.9670152087" lon="32.8217021283"><ele>1096.04</ele><time>2015-04-28T15:05:44Z</time></trkpt><trkpt lat="34.9670010433" lon="32.8216990270"><ele>1096.04</ele><time>2015-04-28T15:05:45Z</time></trkpt><trkpt lat="34.9667909089" lon="32.8216462210"><ele>1097.96</ele><time>2015-04-28T15:06:01Z</time></trkpt><trkpt lat="34.9667386897" lon="32.8216463048"><ele>1098.44</ele><time>2015-04-28T15:06:15Z</time></trkpt><trkpt lat="34.9666437227" lon="32.8215868771"><ele>1099.40</ele><time>2015-04-28T15:06:30Z</time></trkpt><trkpt lat="34.9666058365" lon="32.8215196542"><ele>1099.40</ele><time>2015-04-28T15:06:41Z</time></trkpt><trkpt lat="34.9665985443" lon="32.8215084225"><ele>1099.40</ele><time>2015-04-28T15:06:42Z</time></trkpt><trkpt lat="34.9665780924" lon="32.8214630764"><ele>1099.89</ele><time>2015-04-28T15:06:46Z</time></trkpt><trkpt lat="34.9665741529" lon="32.8214483242"><ele>1099.89</ele><time>2015-04-28T15:06:47Z</time></trkpt><trkpt lat="34.9665686209" lon="32.8214334883"><ele>1099.89</ele><time>2015-04-28T15:06:48Z</time></trkpt><trkpt lat="34.9665625021" lon="32.8214166407"><ele>1099.89</ele><time>2015-04-28T15:06:49Z</time></trkpt><trkpt lat="34.9665586464" lon="32.8213982843"><ele>1099.89</ele><time>2015-04-28T15:06:50Z</time></trkpt><trkpt lat="34.9665542040" lon="32.8213803470"><ele>1099.89</ele><time>2015-04-28T15:06:51Z</time></trkpt><trkpt lat="34.9665500969" lon="32.8213615716"><ele>1100.37</ele><time>2015-04-28T15:06:52Z</time></trkpt><trkpt lat="34.9665477499" lon="32.8213408682"><ele>1100.37</ele><time>2015-04-28T15:06:53Z</time></trkpt><trkpt lat="34.9665875640" lon="32.8210134711"><ele>1100.85</ele><time>2015-04-28T15:07:07Z</time></trkpt><trkpt lat="34.9666565470" lon="32.8209836315"><ele>1100.85</ele><time>2015-04-28T15:07:10Z</time></trkpt><trkpt lat="34.9666822795" lon="32.8209869843"><ele>1100.85</ele><time>2015-04-28T15:07:11Z</time></trkpt><trkpt lat="34.9667018093" lon="32.8209968749"><ele>1101.33</ele><time>2015-04-28T15:07:12Z</time></trkpt><trkpt lat="34.9667180702" lon="32.8210071009"><ele>1101.33</ele><time>2015-04-28T15:07:13Z</time></trkpt><trkpt lat="34.9667339958" lon="32.8210161533"><ele>1101.81</ele><time>2015-04-28T15:07:14Z</time></trkpt><trkpt lat="34.9668021407" lon="32.8210502677"><ele>1103.25</ele><time>2015-04-28T15:07:21Z</time></trkpt><trkpt lat="34.9668156356" lon="32.8210491780"><ele>1103.25</ele><time>2015-04-28T15:07:22Z</time></trkpt><trkpt lat="34.9668282922" lon="32.8210522793"><ele>1103.25</ele><time>2015-04-28T15:07:23Z</time></trkpt><trkpt lat="34.9669023044" lon="32.8210620862"><ele>1103.73</ele><time>2015-04-28T15:07:29Z</time></trkpt><trkpt lat="34.9669124465" lon="32.8210580628"><ele>1103.73</ele><time>2015-04-28T15:07:30Z</time></trkpt><trkpt lat="34.9669237621" lon="32.8210594039"><ele>1103.73</ele><time>2015-04-28T15:07:31Z</time></trkpt><trkpt lat="34.9669325631" lon="32.8210586496"><ele>1104.21</ele><time>2015-04-28T15:07:32Z</time></trkpt><trkpt lat="34.9669424538" lon="32.8210568894"><ele>1104.21</ele><time>2015-04-28T15:07:33Z</time></trkpt><trkpt lat="34.9669526797" lon="32.8210530337"><ele>1104.21</ele><time>2015-04-28T15:07:34Z</time></trkpt><trkpt lat="34.9669625703" lon="32.8210464120"><ele>1104.21</ele><time>2015-04-28T15:07:35Z</time></trkpt><trkpt lat="34.9669727124" lon="32.8210395388"><ele>1104.21</ele><time>2015-04-28T15:07:36Z</time></trkpt><trkpt lat="34.9669822678" lon="32.8210309893"><ele>1104.21</ele><time>2015-04-28T15:07:37Z</time></trkpt><trkpt lat="34.9669938348" lon="32.8210174944"><ele>1104.69</ele><time>2015-04-28T15:07:38Z</time></trkpt><trkpt lat="34.9670369178" lon="32.8209813684"><ele>1104.69</ele><time>2015-04-28T15:07:42Z</time></trkpt><trkpt lat="34.9670486525" lon="32.8209751658"><ele>1104.69</ele><time>2015-04-28T15:07:43Z</time></trkpt><trkpt lat="34.9673119280" lon="32.8207507823"><ele>1105.17</ele><time>2015-04-28T15:07:58Z</time></trkpt><trkpt lat="34.9675339647" lon="32.8205096349"><ele>1105.65</ele><time>2015-04-28T15:08:11Z</time></trkpt><trkpt lat="34.9678004254" lon="32.8203480318"><ele>1106.13</ele><time>2015-04-28T15:08:24Z</time></trkpt><trkpt lat="34.9679669738" lon="32.8200311959"><ele>1107.10</ele><time>2015-04-28T15:08:38Z</time></trkpt><trkpt lat="34.9679745175" lon="32.8200064693"><ele>1107.10</ele><time>2015-04-28T15:08:39Z</time></trkpt><trkpt lat="34.9679844081" lon="32.8199836705"><ele>1107.58</ele><time>2015-04-28T15:08:40Z</time></trkpt><trkpt lat="34.9681391381" lon="32.8195766453"><ele>1108.54</ele><time>2015-04-28T15:08:56Z</time></trkpt><trkpt lat="34.9683818780" lon="32.8192447219"><ele>1109.98</ele><time>2015-04-28T15:09:11Z</time></trkpt><trkpt lat="34.9686364364" lon="32.8191965260"><ele>1111.42</ele><time>2015-04-28T15:09:23Z</time></trkpt><trkpt lat="34.9687493406" lon="32.8191472404"><ele>1112.38</ele><time>2015-04-28T15:09:29Z</time></trkpt><trkpt lat="34.9687567167" lon="32.8191241063"><ele>1112.38</ele><time>2015-04-28T15:09:30Z</time></trkpt><trkpt lat="34.9687589798" lon="32.8190970328"><ele>1112.86</ele><time>2015-04-28T15:09:31Z</time></trkpt><trkpt lat="34.9687507655" lon="32.8190781735"><ele>1112.86</ele><time>2015-04-28T15:09:32Z</time></trkpt><trkpt lat="34.9687353428" lon="32.8190624155"><ele>1112.86</ele><time>2015-04-28T15:09:33Z</time></trkpt><trkpt lat="34.9687169027" lon="32.8190552071"><ele>1113.34</ele><time>2015-04-28T15:09:34Z</time></trkpt><trkpt lat="34.9687007256" lon="32.8190491721"><ele>1113.34</ele><time>2015-04-28T15:09:35Z</time></trkpt><trkpt lat="34.9686854705" lon="32.8190443944"><ele>1113.82</ele><time>2015-04-28T15:09:36Z</time></trkpt><trkpt lat="34.9686492607" lon="32.8190363478"><ele>1113.82</ele><time>2015-04-28T15:09:40Z</time></trkpt><trkpt lat="34.9686371908" lon="32.8190303966"><ele>1114.31</ele><time>2015-04-28T15:09:41Z</time></trkpt><trkpt lat="34.9686237797" lon="32.8190287203"><ele>1114.31</ele><time>2015-04-28T15:09:42Z</time></trkpt><trkpt lat="34.9684591591" lon="32.8190469090"><ele>1115.27</ele><time>2015-04-28T15:09:56Z</time></trkpt><trkpt lat="34.9684459995" lon="32.8190518543"><ele>1115.27</ele><time>2015-04-28T15:09:57Z</time></trkpt><trkpt lat="34.9682202749" lon="32.8190909140"><ele>1117.67</ele><time>2015-04-28T15:10:13Z</time></trkpt><trkpt lat="34.9681315944" lon="32.8191487491"><ele>1118.15</ele><time>2015-04-28T15:10:21Z</time></trkpt><trkpt lat="34.9680627789" lon="32.8192943428"><ele>1118.63</ele><time>2015-04-28T15:10:34Z</time></trkpt><trkpt lat="34.9680068716" lon="32.8194125276"><ele>1119.59</ele><time>2015-04-28T15:10:46Z</time></trkpt><trkpt lat="34.9679613579" lon="32.8194908984"><ele>1120.07</ele><time>2015-04-28T15:10:54Z</time></trkpt><trkpt lat="34.9679547362" lon="32.8195056506"><ele>1120.07</ele><time>2015-04-28T15:10:55Z</time></trkpt><trkpt lat="34.9679222144" lon="32.8195495717"><ele>1120.55</ele><time>2015-04-28T15:10:59Z</time></trkpt><trkpt lat="34.9679173529" lon="32.8195629828"><ele>1120.55</ele><time>2015-04-28T15:11:00Z</time></trkpt><trkpt lat="34.9679109827" lon="32.8195790760"><ele>1120.55</ele><time>2015-04-28T15:11:01Z</time></trkpt><trkpt lat="34.9679029360" lon="32.8195958398"><ele>1120.55</ele><time>2015-04-28T15:11:02Z</time></trkpt><trkpt lat="34.9678950571" lon="32.8196123522"><ele>1120.55</ele><time>2015-04-28T15:11:03Z</time></trkpt><trkpt lat="34.9678894412" lon="32.8196281102"><ele>1121.03</ele><time>2015-04-28T15:11:04Z</time></trkpt><trkpt lat="34.9677450210" lon="32.8198934812"><ele>1122.00</ele><time>2015-04-28T15:11:20Z</time></trkpt><trkpt lat="34.9676945619" lon="32.8199622966"><ele>1122.96</ele><time>2015-04-28T15:11:25Z</time></trkpt><trkpt lat="34.9676829111" lon="32.8199724387"><ele>1122.96</ele><time>2015-04-28T15:11:26Z</time></trkpt><trkpt lat="34.9675503932" lon="32.8200959880"><ele>1123.92</ele><time>2015-04-28T15:11:36Z</time></trkpt><trkpt lat="34.9675370660" lon="32.8201050404"><ele>1123.92</ele><time>2015-04-28T15:11:37Z</time></trkpt><trkpt lat="34.9675229844" lon="32.8201136738"><ele>1123.92</ele><time>2015-04-28T15:11:38Z</time></trkpt><trkpt lat="34.9672227446" lon="32.8201943915"><ele>1125.36</ele><time>2015-04-28T15:11:55Z</time></trkpt><trkpt lat="34.9670546874" lon="32.8200769611"><ele>1126.32</ele><time>2015-04-28T15:12:07Z</time></trkpt><trkpt lat="34.9668836966" lon="32.8198625520"><ele>1127.28</ele><time>2015-04-28T15:12:20Z</time></trkpt><trkpt lat="34.9667240214" lon="32.8196404316"><ele>1128.73</ele><time>2015-04-28T15:12:34Z</time></trkpt><trkpt lat="34.9665625021" lon="32.8194397688"><ele>1129.21</ele><time>2015-04-28T15:12:47Z</time></trkpt><trkpt lat="34.9665335845" lon="32.8194054030"><ele>1129.69</ele><time>2015-04-28T15:12:49Z</time></trkpt><trkpt lat="34.9665185809" lon="32.8193868790"><ele>1129.69</ele><time>2015-04-28T15:12:50Z</time></trkpt><trkpt lat="34.9662575684" lon="32.8192891460"><ele>1130.17</ele><time>2015-04-28T15:13:02Z</time></trkpt><trkpt lat="34.9661558121" lon="32.8195858654"><ele>1130.65</ele><time>2015-04-28T15:13:14Z</time></trkpt><trkpt lat="34.9659738410" lon="32.8199407551"><ele>1131.13</ele><time>2015-04-28T15:13:27Z</time></trkpt><trkpt lat="34.9658748507" lon="32.8202880174"><ele>1131.61</ele><time>2015-04-28T15:13:38Z</time></trkpt><trkpt lat="34.9660056923" lon="32.8208144847"><ele>1132.57</ele><time>2015-04-28T15:13:51Z</time></trkpt><trkpt lat="34.9660270661" lon="32.8213979490"><ele>1132.57</ele><time>2015-04-28T15:14:04Z</time></trkpt><trkpt lat="34.9660845660" lon="32.8215719573"><ele>1132.09</ele><time>2015-04-28T15:14:08Z</time></trkpt><trkpt lat="34.9660871644" lon="32.8216257691"><ele>1132.09</ele><time>2015-04-28T15:14:09Z</time></trkpt><trkpt lat="34.9661090411" lon="32.8220777214"><ele>1130.17</ele><time>2015-04-28T15:14:16Z</time></trkpt><trkpt lat="34.9661345221" lon="32.8221434355"><ele>1130.17</ele><time>2015-04-28T15:14:17Z</time></trkpt><trkpt lat="34.9661797844" lon="32.8221964091"><ele>1130.17</ele><time>2015-04-28T15:14:18Z</time></trkpt><trkpt lat="34.9662413914" lon="32.8222284280"><ele>1130.65</ele><time>2015-04-28T15:14:19Z</time></trkpt><trkpt lat="34.9663081951" lon="32.8222410847"><ele>1130.65</ele><time>2015-04-28T15:14:20Z</time></trkpt><trkpt lat="34.9663735740" lon="32.8222445212"><ele>1130.65</ele><time>2015-04-28T15:14:21Z</time></trkpt><trkpt lat="34.9664387014" lon="32.8222539928"><ele>1131.13</ele><time>2015-04-28T15:14:22Z</time></trkpt><trkpt lat="34.9664987996" lon="32.8222773783"><ele>1131.61</ele><time>2015-04-28T15:14:23Z</time></trkpt><trkpt lat="34.9665535334" lon="32.8223093133"><ele>1132.09</ele><time>2015-04-28T15:14:24Z</time></trkpt><trkpt lat="34.9665995501" lon="32.8223471995"><ele>1132.09</ele><time>2015-04-28T15:14:25Z</time></trkpt><trkpt lat="34.9666377716" lon="32.8223901987"><ele>1132.09</ele><time>2015-04-28T15:14:26Z</time></trkpt><trkpt lat="34.9667112809" lon="32.8224590980"><ele>1132.57</ele><time>2015-04-28T15:14:28Z</time></trkpt><trkpt lat="34.9669773225" lon="32.8225668892"><ele>1134.97</ele><time>2015-04-28T15:14:38Z</time></trkpt><trkpt lat="34.9672282767" lon="32.8225018457"><ele>1136.42</ele><time>2015-04-28T15:14:50Z</time></trkpt><trkpt lat="34.9675405025" lon="32.8224946372"><ele>1137.86</ele><time>2015-04-28T15:15:05Z</time></trkpt><trkpt lat="34.9678338692" lon="32.8225765284"><ele>1139.78</ele><time>2015-04-28T15:15:20Z</time></trkpt><trkpt lat="34.9680956360" lon="32.8226580843"><ele>1141.70</ele><time>2015-04-28T15:15:34Z</time></trkpt><trkpt lat="34.9681434128" lon="32.8227044363"><ele>1142.18</ele><time>2015-04-28T15:15:37Z</time></trkpt><trkpt lat="34.9681521300" lon="32.8227234632"><ele>1142.18</ele><time>2015-04-28T15:15:38Z</time></trkpt><trkpt lat="34.9681595061" lon="32.8227430768"><ele>1142.18</ele><time>2015-04-28T15:15:39Z</time></trkpt><trkpt lat="34.9681689776" lon="32.8227653727"><ele>1142.18</ele><time>2015-04-28T15:15:40Z</time></trkpt><trkpt lat="34.9681765214" lon="32.8227871656"><ele>1142.18</ele><time>2015-04-28T15:15:41Z</time></trkpt><trkpt lat="34.9681811314" lon="32.8228087910"><ele>1142.66</ele><time>2015-04-28T15:15:42Z</time></trkpt><trkpt lat="34.9681812152" lon="32.8228320926"><ele>1142.66</ele><time>2015-04-28T15:15:43Z</time></trkpt><trkpt lat="34.9681794550" lon="32.8228529636"><ele>1143.14</ele><time>2015-04-28T15:15:44Z</time></trkpt><trkpt lat="34.9681652896" lon="32.8231514432"><ele>1144.11</ele><time>2015-04-28T15:15:59Z</time></trkpt><trkpt lat="34.9682748411" lon="32.8233578056"><ele>1145.55</ele><time>2015-04-28T15:16:10Z</time></trkpt><trkpt lat="34.9683518708" lon="32.8236247692"><ele>1146.99</ele><time>2015-04-28T15:16:25Z</time></trkpt><trkpt lat="34.9683760945" lon="32.8238406032"><ele>1147.95</ele><time>2015-04-28T15:16:38Z</time></trkpt><trkpt lat="34.9683808722" lon="32.8238775674"><ele>1148.43</ele><time>2015-04-28T15:16:40Z</time></trkpt><trkpt lat="34.9683895893" lon="32.8238955047"><ele>1148.43</ele><time>2015-04-28T15:16:41Z</time></trkpt><trkpt lat="34.9684009049" lon="32.8239125200"><ele>1148.43</ele><time>2015-04-28T15:16:42Z</time></trkpt><trkpt lat="34.9684090354" lon="32.8239305411"><ele>1148.91</ele><time>2015-04-28T15:16:43Z</time></trkpt><trkpt lat="34.9684178364" lon="32.8239482269"><ele>1148.91</ele><time>2015-04-28T15:16:44Z</time></trkpt><trkpt lat="34.9684276432" lon="32.8239638172"><ele>1148.91</ele><time>2015-04-28T15:16:45Z</time></trkpt><trkpt lat="34.9684360251" lon="32.8239802457"><ele>1148.91</ele><time>2015-04-28T15:16:46Z</time></trkpt><trkpt lat="34.9684673734" lon="32.8240250889"><ele>1148.91</ele><time>2015-04-28T15:16:49Z</time></trkpt><trkpt lat="34.9684828799" lon="32.8240387514"><ele>1149.39</ele><time>2015-04-28T15:16:50Z</time></trkpt><trkpt lat="34.9684980512" lon="32.8240547609"><ele>1148.91</ele><time>2015-04-28T15:16:51Z</time></trkpt><trkpt lat="34.9685877375" lon="32.8241226543"><ele>1149.87</ele><time>2015-04-28T15:16:58Z</time></trkpt><trkpt lat="34.9686018191" lon="32.8241273481"><ele>1150.35</ele><time>2015-04-28T15:16:59Z</time></trkpt><trkpt lat="34.9686143920" lon="32.8241312876"><ele>1150.35</ele><time>2015-04-28T15:17:00Z</time></trkpt><trkpt lat="34.9686290603" lon="32.8241362330"><ele>1150.35</ele><time>2015-04-28T15:17:01Z</time></trkpt><trkpt lat="34.9686431419" lon="32.8241408430"><ele>1150.35</ele><time>2015-04-28T15:17:02Z</time></trkpt><trkpt lat="34.9686591513" lon="32.8241465427"><ele>1150.35</ele><time>2015-04-28T15:17:03Z</time></trkpt><trkpt lat="34.9686739873" lon="32.8241499793"><ele>1150.35</ele><time>2015-04-28T15:17:04Z</time></trkpt><trkpt lat="34.9687324092" lon="32.8241528291"><ele>1150.84</ele><time>2015-04-28T15:17:08Z</time></trkpt><trkpt lat="34.9687480833" lon="32.8241512366"><ele>1150.84</ele><time>2015-04-28T15:17:09Z</time></trkpt><trkpt lat="34.9687646795" lon="32.8241533320"><ele>1151.32</ele><time>2015-04-28T15:17:10Z</time></trkpt><trkpt lat="34.9690402765" lon="32.8241634741"><ele>1152.76</ele><time>2015-04-28T15:17:27Z</time></trkpt><trkpt lat="34.9693425279" lon="32.8241732810"><ele>1154.20</ele><time>2015-04-28T15:17:44Z</time></trkpt><trkpt lat="34.9695762992" lon="32.8242898732"><ele>1155.16</ele><time>2015-04-28T15:17:57Z</time></trkpt><trkpt lat="34.9695619661" lon="32.8245026059"><ele>1155.64</ele><time>2015-04-28T15:18:09Z</time></trkpt><trkpt lat="34.9694785662" lon="32.8245744389"><ele>1155.64</ele><time>2015-04-28T15:18:20Z</time></trkpt><trkpt lat="34.9694633950" lon="32.8245818987"><ele>1155.64</ele><time>2015-04-28T15:18:22Z</time></trkpt><trkpt lat="34.9694474693" lon="32.8245938011"><ele>1155.64</ele><time>2015-04-28T15:18:34Z</time></trkpt><trkpt lat="34.9694251735" lon="32.8246169351"><ele>1155.64</ele><time>2015-04-28T15:19:00Z</time></trkpt><trkpt lat="34.9694165401" lon="32.8246119898"><ele>1155.64</ele><time>2015-04-28T15:19:01Z</time></trkpt><trkpt lat="34.9694119301" lon="32.8246002551"><ele>1155.64</ele><time>2015-04-28T15:19:02Z</time></trkpt><trkpt lat="34.9694747105" lon="32.8245309368"><ele>1155.64</ele><time>2015-04-28T15:19:07Z</time></trkpt><trkpt lat="34.9694963358" lon="32.8245246504"><ele>1155.16</ele><time>2015-04-28T15:19:08Z</time></trkpt><trkpt lat="34.9695177935" lon="32.8245205432"><ele>1155.16</ele><time>2015-04-28T15:19:09Z</time></trkpt><trkpt lat="34.9696334638" lon="32.8244871832"><ele>1155.64</ele><time>2015-04-28T15:19:17Z</time></trkpt><trkpt lat="34.9696567655" lon="32.8244873509"><ele>1155.64</ele><time>2015-04-28T15:19:20Z</time></trkpt><trkpt lat="34.9696666561" lon="32.8244887758"><ele>1155.64</ele><time>2015-04-28T15:19:21Z</time></trkpt><trkpt lat="34.9698363058" lon="32.8245456051"><ele>1156.12</ele><time>2015-04-28T15:19:32Z</time></trkpt><trkpt lat="34.9702052772" lon="32.8247349523"><ele>1155.64</ele><time>2015-04-28T15:19:47Z</time></trkpt><trkpt lat="34.9704343546" lon="32.8247764427"><ele>1154.68</ele><time>2015-04-28T15:19:54Z</time></trkpt><trkpt lat="34.9704828858" lon="32.8247636184"><ele>1154.20</ele><time>2015-04-28T15:19:55Z</time></trkpt><trkpt lat="34.9709706288" lon="32.8245385643"><ele>1150.84</ele><time>2015-04-28T15:20:03Z</time></trkpt><trkpt lat="34.9712598883" lon="32.8243627958"><ele>1148.91</ele><time>2015-04-28T15:20:07Z</time></trkpt><trkpt lat="34.9713416118" lon="32.8243355546"><ele>1147.95</ele><time>2015-04-28T15:20:08Z</time></trkpt><trkpt lat="34.9714271072" lon="32.8243289329"><ele>1147.47</ele><time>2015-04-28T15:20:09Z</time></trkpt><trkpt lat="34.9715131894" lon="32.8243391588"><ele>1146.99</ele><time>2015-04-28T15:20:10Z</time></trkpt><trkpt lat="34.9715976790" lon="32.8243640531"><ele>1146.03</ele><time>2015-04-28T15:20:11Z</time></trkpt><trkpt lat="34.9716730323" lon="32.8243899532"><ele>1145.55</ele><time>2015-04-28T15:20:12Z</time></trkpt><trkpt lat="34.9717435241" lon="32.8243979998"><ele>1145.07</ele><time>2015-04-28T15:20:13Z</time></trkpt><trkpt lat="34.9718138482" lon="32.8243862651"><ele>1144.59</ele><time>2015-04-28T15:20:14Z</time></trkpt><trkpt lat="34.9718820769" lon="32.8243565094"><ele>1144.11</ele><time>2015-04-28T15:20:15Z</time></trkpt><trkpt lat="34.9719439354" lon="32.8243126720"><ele>1143.14</ele><time>2015-04-28T15:20:16Z</time></trkpt><trkpt lat="34.9719969928" lon="32.8242683318"><ele>1142.66</ele><time>2015-04-28T15:20:17Z</time></trkpt><trkpt lat="34.9720836617" lon="32.8242145199"><ele>1141.22</ele><time>2015-04-28T15:20:19Z</time></trkpt><trkpt lat="34.9721206259" lon="32.8242186271"><ele>1140.74</ele><time>2015-04-28T15:20:20Z</time></trkpt><trkpt lat="34.9721429218" lon="32.8242406715"><ele>1140.26</ele><time>2015-04-28T15:20:21Z</time></trkpt><trkpt lat="34.9721477833" lon="32.8242657334"><ele>1139.78</ele><time>2015-04-28T15:20:22Z</time></trkpt><trkpt lat="34.9721373897" lon="32.8242852632"><ele>1139.78</ele><time>2015-04-28T15:20:23Z</time></trkpt><trkpt lat="34.9721205421" lon="32.8242954891"><ele>1139.78</ele><time>2015-04-28T15:20:24Z</time></trkpt><trkpt lat="34.9721059576" lon="32.8243055474"><ele>1139.30</ele><time>2015-04-28T15:20:25Z</time></trkpt><trkpt lat="34.9720894452" lon="32.8243140969"><ele>1139.78</ele><time>2015-04-28T15:20:26Z</time></trkpt><trkpt lat="34.9720682390" lon="32.8243263345"><ele>1139.78</ele><time>2015-04-28T15:20:27Z</time></trkpt><trkpt lat="34.9720441829" lon="32.8243433498"><ele>1139.78</ele><time>2015-04-28T15:20:28Z</time></trkpt><trkpt lat="34.9720180314" lon="32.8243684955"><ele>1139.30</ele><time>2015-04-28T15:20:29Z</time></trkpt><trkpt lat="34.9719914608" lon="32.8244008496"><ele>1139.30</ele><time>2015-04-28T15:20:30Z</time></trkpt><trkpt lat="34.9719633814" lon="32.8244361375"><ele>1139.30</ele><time>2015-04-28T15:20:31Z</time></trkpt><trkpt lat="34.9719295185" lon="32.8244715091"><ele>1138.82</ele><time>2015-04-28T15:20:32Z</time></trkpt><trkpt lat="34.9718907103" lon="32.8245093115"><ele>1138.82</ele><time>2015-04-28T15:20:33Z</time></trkpt><trkpt lat="34.9718488846" lon="32.8245480359"><ele>1138.34</ele><time>2015-04-28T15:20:34Z</time></trkpt><trkpt lat="34.9718027003" lon="32.8245787974"><ele>1137.86</ele><time>2015-04-28T15:20:35Z</time></trkpt><trkpt lat="34.9717535824" lon="32.8245978244"><ele>1137.38</ele><time>2015-04-28T15:20:36Z</time></trkpt><trkpt lat="34.9717016146" lon="32.8246069606"><ele>1136.90</ele><time>2015-04-28T15:20:37Z</time></trkpt><trkpt lat="34.9716416840" lon="32.8246080503"><ele>1136.42</ele><time>2015-04-28T15:20:38Z</time></trkpt><trkpt lat="34.9715739582" lon="32.8246085532"><ele>1135.94</ele><time>2015-04-28T15:20:39Z</time></trkpt><trkpt lat="34.9714970123" lon="32.8246150073"><ele>1134.97</ele><time>2015-04-28T15:20:40Z</time></trkpt><trkpt lat="34.9714166299" lon="32.8246378899"><ele>1134.49</ele><time>2015-04-28T15:20:41Z</time></trkpt><trkpt lat="34.9713399354" lon="32.8246751055"><ele>1134.01</ele><time>2015-04-28T15:20:42Z</time></trkpt><trkpt lat="34.9707578961" lon="32.8251079470"><ele>1133.53</ele><time>2015-04-28T15:20:52Z</time></trkpt><trkpt lat="34.9706143979" lon="32.8251881618"><ele>1133.05</ele><time>2015-04-28T15:20:55Z</time></trkpt><trkpt lat="34.9701222964" lon="32.8252658620"><ele>1129.69</ele><time>2015-04-28T15:21:03Z</time></trkpt><trkpt lat="34.9700646289" lon="32.8252527025"><ele>1129.21</ele><time>2015-04-28T15:21:04Z</time></trkpt><trkpt lat="34.9697692506" lon="32.8251584060"><ele>1125.84</ele><time>2015-04-28T15:21:09Z</time></trkpt><trkpt lat="34.9697052967" lon="32.8251636866"><ele>1124.88</ele><time>2015-04-28T15:21:10Z</time></trkpt><trkpt lat="34.9696430191" lon="32.8251918498"><ele>1124.40</ele><time>2015-04-28T15:21:11Z</time></trkpt><trkpt lat="34.9695861898" lon="32.8252387047"><ele>1124.40</ele><time>2015-04-28T15:21:12Z</time></trkpt><trkpt lat="34.9695333000" lon="32.8252944443"><ele>1123.92</ele><time>2015-04-28T15:21:13Z</time></trkpt><trkpt lat="34.9691159651" lon="32.8258198220"><ele>1123.44</ele><time>2015-04-28T15:21:22Z</time></trkpt><trkpt lat="34.9690850358" lon="32.8258856200"><ele>1122.96</ele><time>2015-04-28T15:21:23Z</time></trkpt><trkpt lat="34.9690610636" lon="32.8259536810"><ele>1122.96</ele><time>2015-04-28T15:21:24Z</time></trkpt><trkpt lat="34.9689567927" lon="32.8262947407"><ele>1122.96</ele><time>2015-04-28T15:21:29Z</time></trkpt><trkpt lat="34.9689203314" lon="32.8263550065"><ele>1122.48</ele><time>2015-04-28T15:21:30Z</time></trkpt><trkpt lat="34.9688818585" lon="32.8264061362"><ele>1122.48</ele><time>2015-04-28T15:21:31Z</time></trkpt><trkpt lat="34.9686567206" lon="32.8266331181"><ele>1120.07</ele><time>2015-04-28T15:21:40Z</time></trkpt><trkpt lat="34.9685682915" lon="32.8266762849"><ele>1118.15</ele><time>2015-04-28T15:21:43Z</time></trkpt><trkpt lat="34.9685428105" lon="32.8267049510"><ele>1117.67</ele><time>2015-04-28T15:21:44Z</time></trkpt><trkpt lat="34.9685269687" lon="32.8267373051"><ele>1117.19</ele><time>2015-04-28T15:21:45Z</time></trkpt><trkpt lat="34.9685206823" lon="32.8267741017"><ele>1116.71</ele><time>2015-04-28T15:21:46Z</time></trkpt><trkpt lat="34.9685164075" lon="32.8268176876"><ele>1115.75</ele><time>2015-04-28T15:21:47Z</time></trkpt><trkpt lat="34.9685072713" lon="32.8269437514"><ele>1113.82</ele><time>2015-04-28T15:21:49Z</time></trkpt><trkpt lat="34.9685091153" lon="32.8270054422"><ele>1112.86</ele><time>2015-04-28T15:21:50Z</time></trkpt><trkpt lat="34.9685279746" lon="32.8272282332"><ele>1109.50</ele><time>2015-04-28T15:21:54Z</time></trkpt><trkpt lat="34.9685809482" lon="32.8275277186"><ele>1106.13</ele><time>2015-04-28T15:22:01Z</time></trkpt><trkpt lat="34.9685962033" lon="32.8275751602"><ele>1105.65</ele><time>2015-04-28T15:22:02Z</time></trkpt><trkpt lat="34.9686066806" lon="32.8276361804"><ele>1105.17</ele><time>2015-04-28T15:22:03Z</time></trkpt><trkpt lat="34.9686131347" lon="32.8276971169"><ele>1105.17</ele><time>2015-04-28T15:22:04Z</time></trkpt><trkpt lat="34.9686159007" lon="32.8277498391"><ele>1104.69</ele><time>2015-04-28T15:22:05Z</time></trkpt><trkpt lat="34.9686154816" lon="32.8277951851"><ele>1105.65</ele><time>2015-04-28T15:22:06Z</time></trkpt><trkpt lat="34.9686099496" lon="32.8278324846"><ele>1106.13</ele><time>2015-04-28T15:22:07Z</time></trkpt><trkpt lat="34.9686006457" lon="32.8278605640"><ele>1106.13</ele><time>2015-04-28T15:22:08Z</time></trkpt><trkpt lat="34.9685897492" lon="32.8278852068"><ele>1106.13</ele><time>2015-04-28T15:22:09Z</time></trkpt><trkpt lat="34.9684931058" lon="32.8280403558"><ele>1107.10</ele><time>2015-04-28T15:22:16Z</time></trkpt><trkpt lat="34.9684761744" lon="32.8280508332"><ele>1107.10</ele><time>2015-04-28T15:22:17Z</time></trkpt><trkpt lat="34.9684595782" lon="32.8280602209"><ele>1107.10</ele><time>2015-04-28T15:22:18Z</time></trkpt><trkpt lat="34.9684410542" lon="32.8280692734"><ele>1107.58</ele><time>2015-04-28T15:22:19Z</time></trkpt><trkpt lat="34.9684262183" lon="32.8280778229"><ele>1107.58</ele><time>2015-04-28T15:22:20Z</time></trkpt><trkpt lat="34.9684132263" lon="32.8280862048"><ele>1107.58</ele><time>2015-04-28T15:22:21Z</time></trkpt><trkpt lat="34.9683999829" lon="32.8280908987"><ele>1107.58</ele><time>2015-04-28T15:22:22Z</time></trkpt><trkpt lat="34.9683863204" lon="32.8280907311"><ele>1108.06</ele><time>2015-04-28T15:22:23Z</time></trkpt><trkpt lat="34.9683699757" lon="32.8280862048"><ele>1108.06</ele><time>2015-04-28T15:22:24Z</time></trkpt><trkpt lat="34.9681077898" lon="32.8279349953"><ele>1109.50</ele><time>2015-04-28T15:22:39Z</time></trkpt><trkpt lat="34.9678898603" lon="32.8277226817"><ele>1110.46</ele><time>2015-04-28T15:22:52Z</time></trkpt><trkpt lat="34.9677586835" lon="32.8275847156"><ele>1110.46</ele><time>2015-04-28T15:23:05Z</time></trkpt></trkseg></trk></gpx>